<?xml version="1.0" encoding="UTF-8" standalone="no" ?>
<gpx xmlns="http://www.topografix.com/GPX/1/1" xmlns:xsi="http://www.w3.org/2001/XMLSchema-instance" xsi:schemaLocation="http://www.topografix.com/GPX/1/1 http://www.topografix.com/GPX/1/1/gpx.xsd" version="1.1" creator="VisuGPX - https://www.visugpx.com">
  <metadata>
    <name>Larchnat 2022</name>
  </metadata>
  <trk>
    <name><![CDATA[Larchnat 2022_1]]></name>
    <trkseg>
      <trkpt lat="48.28295" lon="2.59763">
        <ele>418.6</ele>
        <time>2022-02-06T07:15:32Z</time>
      </trkpt>
      <trkpt lat="48.28285" lon="2.5975">
        <ele>420</ele>
        <time>2022-02-06T07:15:36Z</time>
      </trkpt>
      <trkpt lat="48.28277" lon="2.59731">
        <ele>421.4</ele>
        <time>2022-02-06T07:15:40Z</time>
      </trkpt>
      <trkpt lat="48.28279" lon="2.59711">
        <ele>421.6</ele>
        <time>2022-02-06T07:15:44Z</time>
      </trkpt>
      <trkpt lat="48.28279" lon="2.59693">
        <ele>419.6</ele>
        <time>2022-02-06T07:15:48Z</time>
      </trkpt>
      <trkpt lat="48.28269" lon="2.59681">
        <ele>421.4</ele>
        <time>2022-02-06T07:15:52Z</time>
      </trkpt>
      <trkpt lat="48.28259" lon="2.59669">
        <ele>421.8</ele>
        <time>2022-02-06T07:15:56Z</time>
      </trkpt>
      <trkpt lat="48.28249" lon="2.59658">
        <ele>422.6</ele>
        <time>2022-02-06T07:16:00Z</time>
      </trkpt>
      <trkpt lat="48.28239" lon="2.59646">
        <ele>423.8</ele>
        <time>2022-02-06T07:16:04Z</time>
      </trkpt>
      <trkpt lat="48.2823" lon="2.59635">
        <ele>424.6</ele>
        <time>2022-02-06T07:16:08Z</time>
      </trkpt>
      <trkpt lat="48.28221" lon="2.59625">
        <ele>425.8</ele>
        <time>2022-02-06T07:16:12Z</time>
      </trkpt>
      <trkpt lat="48.28212" lon="2.59615">
        <ele>426.4</ele>
        <time>2022-02-06T07:16:16Z</time>
      </trkpt>
      <trkpt lat="48.28205" lon="2.59604">
        <ele>427.4</ele>
        <time>2022-02-06T07:16:20Z</time>
      </trkpt>
      <trkpt lat="48.28197" lon="2.59593">
        <ele>429.2</ele>
        <time>2022-02-06T07:16:24Z</time>
      </trkpt>
      <trkpt lat="48.2819" lon="2.59583">
        <ele>430</ele>
        <time>2022-02-06T07:16:28Z</time>
      </trkpt>
      <trkpt lat="48.28182" lon="2.59572">
        <ele>430.4</ele>
        <time>2022-02-06T07:16:32Z</time>
      </trkpt>
      <trkpt lat="48.28174" lon="2.59561">
        <ele>429.8</ele>
        <time>2022-02-06T07:16:36Z</time>
      </trkpt>
      <trkpt lat="48.28165" lon="2.59555">
        <ele>431.4</ele>
        <time>2022-02-06T07:16:40Z</time>
      </trkpt>
      <trkpt lat="48.28159" lon="2.59546">
        <ele>432.4</ele>
        <time>2022-02-06T07:16:44Z</time>
      </trkpt>
      <trkpt lat="48.28157" lon="2.5953">
        <ele>433.2</ele>
        <time>2022-02-06T07:16:48Z</time>
      </trkpt>
      <trkpt lat="48.2816" lon="2.59512">
        <ele>432.8</ele>
        <time>2022-02-06T07:16:52Z</time>
      </trkpt>
      <trkpt lat="48.28163" lon="2.59494">
        <ele>432.6</ele>
        <time>2022-02-06T07:16:56Z</time>
      </trkpt>
      <trkpt lat="48.28168" lon="2.59475">
        <ele>432.6</ele>
        <time>2022-02-06T07:17:00Z</time>
      </trkpt>
      <trkpt lat="48.28172" lon="2.59455">
        <ele>433.6</ele>
        <time>2022-02-06T07:17:04Z</time>
      </trkpt>
      <trkpt lat="48.28177" lon="2.59436">
        <ele>432.6</ele>
        <time>2022-02-06T07:17:08Z</time>
      </trkpt>
      <trkpt lat="48.28182" lon="2.59418">
        <ele>432</ele>
        <time>2022-02-06T07:17:12Z</time>
      </trkpt>
      <trkpt lat="48.2819" lon="2.59402">
        <ele>432</ele>
        <time>2022-02-06T07:17:16Z</time>
      </trkpt>
      <trkpt lat="48.28198" lon="2.59386">
        <ele>433.2</ele>
        <time>2022-02-06T07:17:20Z</time>
      </trkpt>
      <trkpt lat="48.28205" lon="2.5937">
        <ele>434.2</ele>
        <time>2022-02-06T07:17:24Z</time>
      </trkpt>
      <trkpt lat="48.28213" lon="2.59354">
        <ele>433.6</ele>
        <time>2022-02-06T07:17:28Z</time>
      </trkpt>
      <trkpt lat="48.28219" lon="2.59336">
        <ele>434</ele>
        <time>2022-02-06T07:17:32Z</time>
      </trkpt>
      <trkpt lat="48.2821" lon="2.59327">
        <ele>435.2</ele>
        <time>2022-02-06T07:17:36Z</time>
      </trkpt>
      <trkpt lat="48.28199" lon="2.5932">
        <ele>436.4</ele>
        <time>2022-02-06T07:17:40Z</time>
      </trkpt>
      <trkpt lat="48.28189" lon="2.59313">
        <ele>437.4</ele>
        <time>2022-02-06T07:17:44Z</time>
      </trkpt>
      <trkpt lat="48.28179" lon="2.59306">
        <ele>437.8</ele>
        <time>2022-02-06T07:17:48Z</time>
      </trkpt>
      <trkpt lat="48.2817" lon="2.59302">
        <ele>438.6</ele>
        <time>2022-02-06T07:17:52Z</time>
      </trkpt>
      <trkpt lat="48.28162" lon="2.59297">
        <ele>439.8</ele>
        <time>2022-02-06T07:17:56Z</time>
      </trkpt>
      <trkpt lat="48.28154" lon="2.59292">
        <ele>441.4</ele>
        <time>2022-02-06T07:18:00Z</time>
      </trkpt>
      <trkpt lat="48.28146" lon="2.59286">
        <ele>442.2</ele>
        <time>2022-02-06T07:18:04Z</time>
      </trkpt>
      <trkpt lat="48.28138" lon="2.59282">
        <ele>443.2</ele>
        <time>2022-02-06T07:18:08Z</time>
      </trkpt>
      <trkpt lat="48.28133" lon="2.59291">
        <ele>445</ele>
        <time>2022-02-06T07:18:12Z</time>
      </trkpt>
      <trkpt lat="48.28126" lon="2.59298">
        <ele>445</ele>
        <time>2022-02-06T07:18:16Z</time>
      </trkpt>
      <trkpt lat="48.28119" lon="2.59304">
        <ele>446.8</ele>
        <time>2022-02-06T07:18:20Z</time>
      </trkpt>
      <trkpt lat="48.28114" lon="2.59305">
        <ele>448.8</ele>
        <time>2022-02-06T07:18:24Z</time>
      </trkpt>
      <trkpt lat="48.28108" lon="2.59305">
        <ele>449.6</ele>
        <time>2022-02-06T07:18:28Z</time>
      </trkpt>
      <trkpt lat="48.28102" lon="2.59304">
        <ele>450</ele>
        <time>2022-02-06T07:18:32Z</time>
      </trkpt>
      <trkpt lat="48.28096" lon="2.59306">
        <ele>451.8</ele>
        <time>2022-02-06T07:18:36Z</time>
      </trkpt>
      <trkpt lat="48.28092" lon="2.59311">
        <ele>453.4</ele>
        <time>2022-02-06T07:18:40Z</time>
      </trkpt>
      <trkpt lat="48.28086" lon="2.59316">
        <ele>455.2</ele>
        <time>2022-02-06T07:18:44Z</time>
      </trkpt>
      <trkpt lat="48.28082" lon="2.59323">
        <ele>455.8</ele>
        <time>2022-02-06T07:18:48Z</time>
      </trkpt>
      <trkpt lat="48.28077" lon="2.59328">
        <ele>457.2</ele>
        <time>2022-02-06T07:18:52Z</time>
      </trkpt>
      <trkpt lat="48.28072" lon="2.59333">
        <ele>458.2</ele>
        <time>2022-02-06T07:18:56Z</time>
      </trkpt>
      <trkpt lat="48.28069" lon="2.59339">
        <ele>459.4</ele>
        <time>2022-02-06T07:19:00Z</time>
      </trkpt>
      <trkpt lat="48.28065" lon="2.59345">
        <ele>460</ele>
        <time>2022-02-06T07:19:04Z</time>
      </trkpt>
      <trkpt lat="48.28063" lon="2.59351">
        <ele>460.8</ele>
        <time>2022-02-06T07:19:08Z</time>
      </trkpt>
      <trkpt lat="48.28059" lon="2.59354">
        <ele>463</ele>
        <time>2022-02-06T07:19:12Z</time>
      </trkpt>
      <trkpt lat="48.28059" lon="2.59361">
        <ele>464</ele>
        <time>2022-02-06T07:19:16Z</time>
      </trkpt>
      <trkpt lat="48.28058" lon="2.5937">
        <ele>463.6</ele>
        <time>2022-02-06T07:19:20Z</time>
      </trkpt>
      <trkpt lat="48.28058" lon="2.59381">
        <ele>463.4</ele>
        <time>2022-02-06T07:19:24Z</time>
      </trkpt>
      <trkpt lat="48.28058" lon="2.59393">
        <ele>463.6</ele>
        <time>2022-02-06T07:19:28Z</time>
      </trkpt>
      <trkpt lat="48.28059" lon="2.59403">
        <ele>462.4</ele>
        <time>2022-02-06T07:19:32Z</time>
      </trkpt>
      <trkpt lat="48.28056" lon="2.59413">
        <ele>462.2</ele>
        <time>2022-02-06T07:19:36Z</time>
      </trkpt>
      <trkpt lat="48.28055" lon="2.5942">
        <ele>464</ele>
        <time>2022-02-06T07:19:40Z</time>
      </trkpt>
      <trkpt lat="48.28054" lon="2.59431">
        <ele>463.2</ele>
        <time>2022-02-06T07:19:44Z</time>
      </trkpt>
      <trkpt lat="48.28054" lon="2.59444">
        <ele>462.6</ele>
        <time>2022-02-06T07:19:48Z</time>
      </trkpt>
      <trkpt lat="48.28054" lon="2.59457">
        <ele>462.6</ele>
        <time>2022-02-06T07:19:52Z</time>
      </trkpt>
      <trkpt lat="48.28056" lon="2.59464">
        <ele>463</ele>
        <time>2022-02-06T07:19:56Z</time>
      </trkpt>
      <trkpt lat="48.28057" lon="2.59479">
        <ele>461.8</ele>
        <time>2022-02-06T07:20:00Z</time>
      </trkpt>
      <trkpt lat="48.28054" lon="2.59492">
        <ele>461.6</ele>
        <time>2022-02-06T07:20:04Z</time>
      </trkpt>
      <trkpt lat="48.28053" lon="2.59505">
        <ele>461.8</ele>
        <time>2022-02-06T07:20:08Z</time>
      </trkpt>
      <trkpt lat="48.28052" lon="2.59517">
        <ele>461.6</ele>
        <time>2022-02-06T07:20:12Z</time>
      </trkpt>
      <trkpt lat="48.28057" lon="2.59547">
        <ele>459.6</ele>
        <time>2022-02-06T07:21:01Z</time>
      </trkpt>
      <trkpt lat="48.28062" lon="2.59564">
        <ele>456.4</ele>
        <time>2022-02-06T07:21:05Z</time>
      </trkpt>
      <trkpt lat="48.28061" lon="2.59579">
        <ele>451.4</ele>
        <time>2022-02-06T07:21:09Z</time>
      </trkpt>
      <trkpt lat="48.28057" lon="2.59582">
        <ele>452</ele>
        <time>2022-02-06T07:21:13Z</time>
      </trkpt>
      <trkpt lat="48.28052" lon="2.59594">
        <ele>451.4</ele>
        <time>2022-02-06T07:21:17Z</time>
      </trkpt>
      <trkpt lat="48.28043" lon="2.59595">
        <ele>450.6</ele>
        <time>2022-02-06T07:21:21Z</time>
      </trkpt>
      <trkpt lat="48.28035" lon="2.5959">
        <ele>452</ele>
        <time>2022-02-06T07:21:25Z</time>
      </trkpt>
      <trkpt lat="48.28028" lon="2.59585">
        <ele>453</ele>
        <time>2022-02-06T07:21:29Z</time>
      </trkpt>
      <trkpt lat="48.28023" lon="2.59578">
        <ele>453.8</ele>
        <time>2022-02-06T07:21:33Z</time>
      </trkpt>
      <trkpt lat="48.28019" lon="2.59572">
        <ele>456</ele>
        <time>2022-02-06T07:21:37Z</time>
      </trkpt>
      <trkpt lat="48.28017" lon="2.59567">
        <ele>457.6</ele>
        <time>2022-02-06T07:21:41Z</time>
      </trkpt>
      <trkpt lat="48.28009" lon="2.59538">
        <ele>460.2</ele>
        <time>2022-02-06T07:22:05Z</time>
      </trkpt>
      <trkpt lat="48.27998" lon="2.59527">
        <ele>459.2</ele>
        <time>2022-02-06T07:22:09Z</time>
      </trkpt>
      <trkpt lat="48.27984" lon="2.59512">
        <ele>458.2</ele>
        <time>2022-02-06T07:22:13Z</time>
      </trkpt>
      <trkpt lat="48.27971" lon="2.59495">
        <ele>458.2</ele>
        <time>2022-02-06T07:22:17Z</time>
      </trkpt>
      <trkpt lat="48.27954" lon="2.59482">
        <ele>458</ele>
        <time>2022-02-06T07:22:21Z</time>
      </trkpt>
      <trkpt lat="48.27944" lon="2.59479">
        <ele>460</ele>
        <time>2022-02-06T07:22:25Z</time>
      </trkpt>
      <trkpt lat="48.27941" lon="2.59481">
        <ele>461.8</ele>
        <time>2022-02-06T07:22:29Z</time>
      </trkpt>
      <trkpt lat="48.27942" lon="2.59487">
        <ele>462</ele>
        <time>2022-02-06T07:22:33Z</time>
      </trkpt>
      <trkpt lat="48.2795" lon="2.59496">
        <ele>459.6</ele>
        <time>2022-02-06T07:22:37Z</time>
      </trkpt>
      <trkpt lat="48.27949" lon="2.59514">
        <ele>458</ele>
        <time>2022-02-06T07:22:41Z</time>
      </trkpt>
      <trkpt lat="48.27932" lon="2.59529">
        <ele>454.2</ele>
        <time>2022-02-06T07:22:45Z</time>
      </trkpt>
      <trkpt lat="48.27926" lon="2.59541">
        <ele>453.8</ele>
        <time>2022-02-06T07:22:49Z</time>
      </trkpt>
      <trkpt lat="48.27928" lon="2.59571">
        <ele>450</ele>
        <time>2022-02-06T07:22:53Z</time>
      </trkpt>
      <trkpt lat="48.27944" lon="2.59605">
        <ele>444.2</ele>
        <time>2022-02-06T07:22:57Z</time>
      </trkpt>
      <trkpt lat="48.27962" lon="2.59636">
        <ele>441.2</ele>
        <time>2022-02-06T07:23:01Z</time>
      </trkpt>
      <trkpt lat="48.27976" lon="2.59662">
        <ele>438</ele>
        <time>2022-02-06T07:23:05Z</time>
      </trkpt>
      <trkpt lat="48.27994" lon="2.59688">
        <ele>436.6</ele>
        <time>2022-02-06T07:23:09Z</time>
      </trkpt>
      <trkpt lat="48.2801" lon="2.59718">
        <ele>435</ele>
        <time>2022-02-06T07:23:13Z</time>
      </trkpt>
      <trkpt lat="48.28026" lon="2.59748">
        <ele>433.6</ele>
        <time>2022-02-06T07:23:17Z</time>
      </trkpt>
      <trkpt lat="48.28044" lon="2.59781">
        <ele>431.2</ele>
        <time>2022-02-06T07:23:21Z</time>
      </trkpt>
      <trkpt lat="48.28047" lon="2.59796">
        <ele>431.6</ele>
        <time>2022-02-06T07:23:25Z</time>
      </trkpt>
      <trkpt lat="48.28038" lon="2.5979">
        <ele>432.2</ele>
        <time>2022-02-06T07:23:29Z</time>
      </trkpt>
      <trkpt lat="48.28028" lon="2.59785">
        <ele>433.2</ele>
        <time>2022-02-06T07:23:33Z</time>
      </trkpt>
      <trkpt lat="48.28014" lon="2.5978">
        <ele>434</ele>
        <time>2022-02-06T07:23:37Z</time>
      </trkpt>
      <trkpt lat="48.28" lon="2.59769">
        <ele>435</ele>
        <time>2022-02-06T07:23:41Z</time>
      </trkpt>
      <trkpt lat="48.27984" lon="2.5976">
        <ele>436</ele>
        <time>2022-02-06T07:23:45Z</time>
      </trkpt>
      <trkpt lat="48.27967" lon="2.59753">
        <ele>437.2</ele>
        <time>2022-02-06T07:23:49Z</time>
      </trkpt>
      <trkpt lat="48.27953" lon="2.59746">
        <ele>437.8</ele>
        <time>2022-02-06T07:23:53Z</time>
      </trkpt>
      <trkpt lat="48.27942" lon="2.59737">
        <ele>439.4</ele>
        <time>2022-02-06T07:23:57Z</time>
      </trkpt>
      <trkpt lat="48.27933" lon="2.59727">
        <ele>440</ele>
        <time>2022-02-06T07:24:01Z</time>
      </trkpt>
      <trkpt lat="48.27922" lon="2.59713">
        <ele>441.2</ele>
        <time>2022-02-06T07:24:05Z</time>
      </trkpt>
      <trkpt lat="48.27914" lon="2.59698">
        <ele>441.6</ele>
        <time>2022-02-06T07:24:09Z</time>
      </trkpt>
      <trkpt lat="48.27907" lon="2.59684">
        <ele>442.8</ele>
        <time>2022-02-06T07:24:13Z</time>
      </trkpt>
      <trkpt lat="48.27903" lon="2.59667">
        <ele>444.4</ele>
        <time>2022-02-06T07:24:17Z</time>
      </trkpt>
      <trkpt lat="48.27898" lon="2.5965">
        <ele>445.4</ele>
        <time>2022-02-06T07:24:21Z</time>
      </trkpt>
      <trkpt lat="48.27899" lon="2.59632">
        <ele>445.6</ele>
        <time>2022-02-06T07:24:25Z</time>
      </trkpt>
      <trkpt lat="48.279" lon="2.59615">
        <ele>446.8</ele>
        <time>2022-02-06T07:24:29Z</time>
      </trkpt>
      <trkpt lat="48.27902" lon="2.59601">
        <ele>449</ele>
        <time>2022-02-06T07:24:33Z</time>
      </trkpt>
      <trkpt lat="48.27901" lon="2.59589">
        <ele>450.2</ele>
        <time>2022-02-06T07:24:37Z</time>
      </trkpt>
      <trkpt lat="48.27904" lon="2.59577">
        <ele>451.2</ele>
        <time>2022-02-06T07:24:41Z</time>
      </trkpt>
      <trkpt lat="48.2791" lon="2.59569">
        <ele>452.4</ele>
        <time>2022-02-06T07:24:45Z</time>
      </trkpt>
      <trkpt lat="48.27915" lon="2.59561">
        <ele>454.4</ele>
        <time>2022-02-06T07:24:49Z</time>
      </trkpt>
      <trkpt lat="48.27915" lon="2.59551">
        <ele>455.2</ele>
        <time>2022-02-06T07:24:53Z</time>
      </trkpt>
      <trkpt lat="48.27909" lon="2.59542">
        <ele>455.8</ele>
        <time>2022-02-06T07:24:57Z</time>
      </trkpt>
      <trkpt lat="48.27906" lon="2.59533">
        <ele>455.8</ele>
        <time>2022-02-06T07:25:01Z</time>
      </trkpt>
      <trkpt lat="48.27901" lon="2.59537">
        <ele>457</ele>
        <time>2022-02-06T07:25:05Z</time>
      </trkpt>
      <trkpt lat="48.279" lon="2.59544">
        <ele>458.6</ele>
        <time>2022-02-06T07:25:09Z</time>
      </trkpt>
      <trkpt lat="48.27895" lon="2.59556">
        <ele>458.4</ele>
        <time>2022-02-06T07:25:13Z</time>
      </trkpt>
      <trkpt lat="48.27893" lon="2.5957">
        <ele>456.8</ele>
        <time>2022-02-06T07:25:17Z</time>
      </trkpt>
      <trkpt lat="48.27888" lon="2.59581">
        <ele>457</ele>
        <time>2022-02-06T07:25:21Z</time>
      </trkpt>
      <trkpt lat="48.27886" lon="2.59589">
        <ele>458.2</ele>
        <time>2022-02-06T07:25:25Z</time>
      </trkpt>
      <trkpt lat="48.27879" lon="2.59594">
        <ele>454.8</ele>
        <time>2022-02-06T07:25:29Z</time>
      </trkpt>
      <trkpt lat="48.27873" lon="2.59611">
        <ele>452.6</ele>
        <time>2022-02-06T07:25:33Z</time>
      </trkpt>
      <trkpt lat="48.27869" lon="2.59624">
        <ele>451.8</ele>
        <time>2022-02-06T07:25:37Z</time>
      </trkpt>
      <trkpt lat="48.27868" lon="2.59641">
        <ele>452</ele>
        <time>2022-02-06T07:25:41Z</time>
      </trkpt>
      <trkpt lat="48.27865" lon="2.59656">
        <ele>451.8</ele>
        <time>2022-02-06T07:25:45Z</time>
      </trkpt>
      <trkpt lat="48.27858" lon="2.59665">
        <ele>453.4</ele>
        <time>2022-02-06T07:25:49Z</time>
      </trkpt>
      <trkpt lat="48.27854" lon="2.59677">
        <ele>453.4</ele>
        <time>2022-02-06T07:25:53Z</time>
      </trkpt>
      <trkpt lat="48.27847" lon="2.59685">
        <ele>453.8</ele>
        <time>2022-02-06T07:25:57Z</time>
      </trkpt>
      <trkpt lat="48.27843" lon="2.59684">
        <ele>456.2</ele>
        <time>2022-02-06T07:26:01Z</time>
      </trkpt>
      <trkpt lat="48.27837" lon="2.59677">
        <ele>455.2</ele>
        <time>2022-02-06T07:26:05Z</time>
      </trkpt>
      <trkpt lat="48.27824" lon="2.59676">
        <ele>451.6</ele>
        <time>2022-02-06T07:26:09Z</time>
      </trkpt>
      <trkpt lat="48.27822" lon="2.5969">
        <ele>453.4</ele>
        <time>2022-02-06T07:26:13Z</time>
      </trkpt>
      <trkpt lat="48.27819" lon="2.59704">
        <ele>453.8</ele>
        <time>2022-02-06T07:26:17Z</time>
      </trkpt>
      <trkpt lat="48.27823" lon="2.59724">
        <ele>453.2</ele>
        <time>2022-02-06T07:26:21Z</time>
      </trkpt>
      <trkpt lat="48.27828" lon="2.59743">
        <ele>453</ele>
        <time>2022-02-06T07:26:25Z</time>
      </trkpt>
      <trkpt lat="48.27833" lon="2.5975">
        <ele>453.2</ele>
        <time>2022-02-06T07:26:29Z</time>
      </trkpt>
      <trkpt lat="48.27825" lon="2.59762">
        <ele>451.8</ele>
        <time>2022-02-06T07:26:33Z</time>
      </trkpt>
      <trkpt lat="48.27824" lon="2.59773">
        <ele>453</ele>
        <time>2022-02-06T07:26:37Z</time>
      </trkpt>
      <trkpt lat="48.27831" lon="2.59788">
        <ele>453.4</ele>
        <time>2022-02-06T07:26:41Z</time>
      </trkpt>
      <trkpt lat="48.27832" lon="2.59801">
        <ele>454.4</ele>
        <time>2022-02-06T07:26:45Z</time>
      </trkpt>
      <trkpt lat="48.27829" lon="2.59812">
        <ele>455.2</ele>
        <time>2022-02-06T07:26:49Z</time>
      </trkpt>
      <trkpt lat="48.27827" lon="2.59824">
        <ele>456</ele>
        <time>2022-02-06T07:26:53Z</time>
      </trkpt>
      <trkpt lat="48.2783" lon="2.59832">
        <ele>458.6</ele>
        <time>2022-02-06T07:26:57Z</time>
      </trkpt>
      <trkpt lat="48.27835" lon="2.59825">
        <ele>458.8</ele>
        <time>2022-02-06T07:27:01Z</time>
      </trkpt>
      <trkpt lat="48.27841" lon="2.59816">
        <ele>459.4</ele>
        <time>2022-02-06T07:27:05Z</time>
      </trkpt>
      <trkpt lat="48.27848" lon="2.59809">
        <ele>460.6</ele>
        <time>2022-02-06T07:27:09Z</time>
      </trkpt>
      <trkpt lat="48.27863" lon="2.59808">
        <ele>460.2</ele>
        <time>2022-02-06T07:27:13Z</time>
      </trkpt>
      <trkpt lat="48.2787" lon="2.59819">
        <ele>460.6</ele>
        <time>2022-02-06T07:27:17Z</time>
      </trkpt>
      <trkpt lat="48.2787" lon="2.59806">
        <ele>460.4</ele>
        <time>2022-02-06T07:27:31Z</time>
      </trkpt>
      <trkpt lat="48.27878" lon="2.59797">
        <ele>460.6</ele>
        <time>2022-02-06T07:27:35Z</time>
      </trkpt>
      <trkpt lat="48.27884" lon="2.59788">
        <ele>460</ele>
        <time>2022-02-06T07:27:39Z</time>
      </trkpt>
      <trkpt lat="48.27884" lon="2.59777">
        <ele>452.4</ele>
        <time>2022-02-06T07:27:43Z</time>
      </trkpt>
      <trkpt lat="48.27892" lon="2.5978">
        <ele>453</ele>
        <time>2022-02-06T07:27:47Z</time>
      </trkpt>
      <trkpt lat="48.27902" lon="2.59783">
        <ele>453</ele>
        <time>2022-02-06T07:27:51Z</time>
      </trkpt>
      <trkpt lat="48.27915" lon="2.59785">
        <ele>452</ele>
        <time>2022-02-06T07:27:55Z</time>
      </trkpt>
      <trkpt lat="48.27928" lon="2.5979">
        <ele>452</ele>
        <time>2022-02-06T07:27:59Z</time>
      </trkpt>
      <trkpt lat="48.27928" lon="2.5979">
        <ele>452.4</ele>
        <time>2022-02-06T07:28:03Z</time>
      </trkpt>
      <trkpt lat="48.27941" lon="2.59794">
        <ele>450.4</ele>
        <time>2022-02-06T07:28:07Z</time>
      </trkpt>
      <trkpt lat="48.27949" lon="2.59798">
        <ele>447</ele>
        <time>2022-02-06T07:28:11Z</time>
      </trkpt>
      <trkpt lat="48.27967" lon="2.59803">
        <ele>439.4</ele>
        <time>2022-02-06T07:28:22Z</time>
      </trkpt>
      <trkpt lat="48.27975" lon="2.59819">
        <ele>438.2</ele>
        <time>2022-02-06T07:28:26Z</time>
      </trkpt>
      <trkpt lat="48.27974" lon="2.59826">
        <ele>438</ele>
        <time>2022-02-06T07:28:30Z</time>
      </trkpt>
      <trkpt lat="48.27972" lon="2.59832">
        <ele>437.2</ele>
        <time>2022-02-06T07:28:34Z</time>
      </trkpt>
      <trkpt lat="48.27971" lon="2.59847">
        <ele>437.2</ele>
        <time>2022-02-06T07:28:38Z</time>
      </trkpt>
      <trkpt lat="48.27969" lon="2.59861">
        <ele>437.4</ele>
        <time>2022-02-06T07:28:42Z</time>
      </trkpt>
      <trkpt lat="48.27962" lon="2.59864">
        <ele>439</ele>
        <time>2022-02-06T07:28:46Z</time>
      </trkpt>
      <trkpt lat="48.27955" lon="2.59867">
        <ele>440.4</ele>
        <time>2022-02-06T07:28:50Z</time>
      </trkpt>
      <trkpt lat="48.27952" lon="2.59876">
        <ele>441</ele>
        <time>2022-02-06T07:28:54Z</time>
      </trkpt>
      <trkpt lat="48.27951" lon="2.59886">
        <ele>442.4</ele>
        <time>2022-02-06T07:28:58Z</time>
      </trkpt>
      <trkpt lat="48.2795" lon="2.59895">
        <ele>443.2</ele>
        <time>2022-02-06T07:29:02Z</time>
      </trkpt>
      <trkpt lat="48.27954" lon="2.59905">
        <ele>445</ele>
        <time>2022-02-06T07:29:06Z</time>
      </trkpt>
      <trkpt lat="48.27957" lon="2.59915">
        <ele>445.2</ele>
        <time>2022-02-06T07:29:10Z</time>
      </trkpt>
      <trkpt lat="48.27956" lon="2.59921">
        <ele>446.6</ele>
        <time>2022-02-06T07:29:14Z</time>
      </trkpt>
      <trkpt lat="48.27958" lon="2.59928">
        <ele>445.8</ele>
        <time>2022-02-06T07:29:18Z</time>
      </trkpt>
      <trkpt lat="48.27959" lon="2.59938">
        <ele>446</ele>
        <time>2022-02-06T07:29:22Z</time>
      </trkpt>
      <trkpt lat="48.27959" lon="2.59948">
        <ele>447.6</ele>
        <time>2022-02-06T07:29:26Z</time>
      </trkpt>
      <trkpt lat="48.27959" lon="2.59956">
        <ele>449.8</ele>
        <time>2022-02-06T07:29:30Z</time>
      </trkpt>
      <trkpt lat="48.2796" lon="2.59962">
        <ele>450.4</ele>
        <time>2022-02-06T07:29:34Z</time>
      </trkpt>
      <trkpt lat="48.2796" lon="2.59972">
        <ele>450.2</ele>
        <time>2022-02-06T07:29:38Z</time>
      </trkpt>
      <trkpt lat="48.27965" lon="2.59985">
        <ele>450.2</ele>
        <time>2022-02-06T07:29:42Z</time>
      </trkpt>
      <trkpt lat="48.27967" lon="2.59993">
        <ele>448.8</ele>
        <time>2022-02-06T07:29:46Z</time>
      </trkpt>
      <trkpt lat="48.27968" lon="2.60005">
        <ele>446.8</ele>
        <time>2022-02-06T07:29:50Z</time>
      </trkpt>
      <trkpt lat="48.27966" lon="2.60021">
        <ele>446.8</ele>
        <time>2022-02-06T07:29:54Z</time>
      </trkpt>
      <trkpt lat="48.27963" lon="2.60035">
        <ele>441.6</ele>
        <time>2022-02-06T07:29:58Z</time>
      </trkpt>
      <trkpt lat="48.27957" lon="2.60056">
        <ele>442</ele>
        <time>2022-02-06T07:30:02Z</time>
      </trkpt>
      <trkpt lat="48.27952" lon="2.60068">
        <ele>442.6</ele>
        <time>2022-02-06T07:30:06Z</time>
      </trkpt>
      <trkpt lat="48.27955" lon="2.60086">
        <ele>436.2</ele>
        <time>2022-02-06T07:30:10Z</time>
      </trkpt>
      <trkpt lat="48.2796" lon="2.60112">
        <ele>436.6</ele>
        <time>2022-02-06T07:30:14Z</time>
      </trkpt>
      <trkpt lat="48.27951" lon="2.60123">
        <ele>437.4</ele>
        <time>2022-02-06T07:30:18Z</time>
      </trkpt>
      <trkpt lat="48.27944" lon="2.60132">
        <ele>437.8</ele>
        <time>2022-02-06T07:30:22Z</time>
      </trkpt>
      <trkpt lat="48.27937" lon="2.60141">
        <ele>438</ele>
        <time>2022-02-06T07:30:26Z</time>
      </trkpt>
      <trkpt lat="48.27929" lon="2.6015">
        <ele>438.6</ele>
        <time>2022-02-06T07:30:30Z</time>
      </trkpt>
      <trkpt lat="48.2792" lon="2.60157">
        <ele>440.2</ele>
        <time>2022-02-06T07:30:34Z</time>
      </trkpt>
      <trkpt lat="48.27911" lon="2.6016">
        <ele>441.4</ele>
        <time>2022-02-06T07:30:38Z</time>
      </trkpt>
      <trkpt lat="48.27901" lon="2.60162">
        <ele>441.8</ele>
        <time>2022-02-06T07:30:42Z</time>
      </trkpt>
      <trkpt lat="48.2789" lon="2.60167">
        <ele>441.6</ele>
        <time>2022-02-06T07:30:46Z</time>
      </trkpt>
      <trkpt lat="48.27878" lon="2.60169">
        <ele>442.2</ele>
        <time>2022-02-06T07:30:50Z</time>
      </trkpt>
      <trkpt lat="48.27867" lon="2.6017">
        <ele>442.8</ele>
        <time>2022-02-06T07:30:54Z</time>
      </trkpt>
      <trkpt lat="48.27858" lon="2.60173">
        <ele>443.4</ele>
        <time>2022-02-06T07:30:58Z</time>
      </trkpt>
      <trkpt lat="48.27847" lon="2.60175">
        <ele>445</ele>
        <time>2022-02-06T07:31:02Z</time>
      </trkpt>
      <trkpt lat="48.27837" lon="2.60178">
        <ele>445.4</ele>
        <time>2022-02-06T07:31:06Z</time>
      </trkpt>
      <trkpt lat="48.27828" lon="2.60182">
        <ele>446</ele>
        <time>2022-02-06T07:31:10Z</time>
      </trkpt>
      <trkpt lat="48.27817" lon="2.60186">
        <ele>446.8</ele>
        <time>2022-02-06T07:31:14Z</time>
      </trkpt>
      <trkpt lat="48.27808" lon="2.60189">
        <ele>447.2</ele>
        <time>2022-02-06T07:31:18Z</time>
      </trkpt>
      <trkpt lat="48.27798" lon="2.60193">
        <ele>447.8</ele>
        <time>2022-02-06T07:31:22Z</time>
      </trkpt>
      <trkpt lat="48.27789" lon="2.60198">
        <ele>450.6</ele>
        <time>2022-02-06T07:31:26Z</time>
      </trkpt>
      <trkpt lat="48.27781" lon="2.60201">
        <ele>451.6</ele>
        <time>2022-02-06T07:31:30Z</time>
      </trkpt>
      <trkpt lat="48.27771" lon="2.60203">
        <ele>452.6</ele>
        <time>2022-02-06T07:31:34Z</time>
      </trkpt>
      <trkpt lat="48.27762" lon="2.60205">
        <ele>454.6</ele>
        <time>2022-02-06T07:31:38Z</time>
      </trkpt>
      <trkpt lat="48.27752" lon="2.60204">
        <ele>456</ele>
        <time>2022-02-06T07:31:42Z</time>
      </trkpt>
      <trkpt lat="48.27743" lon="2.60205">
        <ele>456.8</ele>
        <time>2022-02-06T07:31:46Z</time>
      </trkpt>
      <trkpt lat="48.27733" lon="2.60207">
        <ele>458.8</ele>
        <time>2022-02-06T07:31:50Z</time>
      </trkpt>
      <trkpt lat="48.27723" lon="2.60207">
        <ele>459.6</ele>
        <time>2022-02-06T07:31:54Z</time>
      </trkpt>
      <trkpt lat="48.27712" lon="2.60209">
        <ele>461.6</ele>
        <time>2022-02-06T07:31:58Z</time>
      </trkpt>
      <trkpt lat="48.27703" lon="2.60212">
        <ele>462.2</ele>
        <time>2022-02-06T07:32:02Z</time>
      </trkpt>
      <trkpt lat="48.27694" lon="2.60216">
        <ele>464</ele>
        <time>2022-02-06T07:32:06Z</time>
      </trkpt>
      <trkpt lat="48.27684" lon="2.60219">
        <ele>464.6</ele>
        <time>2022-02-06T07:32:10Z</time>
      </trkpt>
      <trkpt lat="48.27674" lon="2.60221">
        <ele>465.4</ele>
        <time>2022-02-06T07:32:14Z</time>
      </trkpt>
      <trkpt lat="48.27665" lon="2.60225">
        <ele>466</ele>
        <time>2022-02-06T07:32:18Z</time>
      </trkpt>
      <trkpt lat="48.27656" lon="2.60232">
        <ele>466.4</ele>
        <time>2022-02-06T07:32:22Z</time>
      </trkpt>
      <trkpt lat="48.27646" lon="2.60241">
        <ele>467.8</ele>
        <time>2022-02-06T07:32:26Z</time>
      </trkpt>
      <trkpt lat="48.27636" lon="2.60249">
        <ele>468</ele>
        <time>2022-02-06T07:32:30Z</time>
      </trkpt>
      <trkpt lat="48.27627" lon="2.60257">
        <ele>466.8</ele>
        <time>2022-02-06T07:32:34Z</time>
      </trkpt>
      <trkpt lat="48.27619" lon="2.60261">
        <ele>467.8</ele>
        <time>2022-02-06T07:32:38Z</time>
      </trkpt>
      <trkpt lat="48.2761" lon="2.60268">
        <ele>467</ele>
        <time>2022-02-06T07:32:42Z</time>
      </trkpt>
      <trkpt lat="48.27599" lon="2.60277">
        <ele>466.8</ele>
        <time>2022-02-06T07:32:46Z</time>
      </trkpt>
      <trkpt lat="48.27588" lon="2.60286">
        <ele>467.8</ele>
        <time>2022-02-06T07:32:50Z</time>
      </trkpt>
      <trkpt lat="48.27577" lon="2.60293">
        <ele>467.4</ele>
        <time>2022-02-06T07:32:54Z</time>
      </trkpt>
      <trkpt lat="48.27564" lon="2.60303">
        <ele>465.8</ele>
        <time>2022-02-06T07:32:58Z</time>
      </trkpt>
      <trkpt lat="48.27549" lon="2.60313">
        <ele>466.4</ele>
        <time>2022-02-06T07:33:02Z</time>
      </trkpt>
      <trkpt lat="48.27534" lon="2.60322">
        <ele>466.2</ele>
        <time>2022-02-06T07:33:06Z</time>
      </trkpt>
      <trkpt lat="48.27519" lon="2.60333">
        <ele>464.8</ele>
        <time>2022-02-06T07:33:10Z</time>
      </trkpt>
      <trkpt lat="48.27504" lon="2.60344">
        <ele>467</ele>
        <time>2022-02-06T07:33:14Z</time>
      </trkpt>
      <trkpt lat="48.2749" lon="2.60354">
        <ele>466</ele>
        <time>2022-02-06T07:33:18Z</time>
      </trkpt>
      <trkpt lat="48.27476" lon="2.60366">
        <ele>464.2</ele>
        <time>2022-02-06T07:33:22Z</time>
      </trkpt>
      <trkpt lat="48.2746" lon="2.60378">
        <ele>463.6</ele>
        <time>2022-02-06T07:33:26Z</time>
      </trkpt>
      <trkpt lat="48.27445" lon="2.60388">
        <ele>466.8</ele>
        <time>2022-02-06T07:33:30Z</time>
      </trkpt>
      <trkpt lat="48.2743" lon="2.60397">
        <ele>467.4</ele>
        <time>2022-02-06T07:33:34Z</time>
      </trkpt>
      <trkpt lat="48.27414" lon="2.6041">
        <ele>468</ele>
        <time>2022-02-06T07:33:38Z</time>
      </trkpt>
      <trkpt lat="48.27398" lon="2.60421">
        <ele>468.4</ele>
        <time>2022-02-06T07:33:42Z</time>
      </trkpt>
      <trkpt lat="48.27383" lon="2.60433">
        <ele>465.4</ele>
        <time>2022-02-06T07:33:46Z</time>
      </trkpt>
      <trkpt lat="48.27368" lon="2.60444">
        <ele>465.8</ele>
        <time>2022-02-06T07:33:50Z</time>
      </trkpt>
      <trkpt lat="48.27352" lon="2.60456">
        <ele>464.2</ele>
        <time>2022-02-06T07:33:54Z</time>
      </trkpt>
      <trkpt lat="48.27335" lon="2.60469">
        <ele>465</ele>
        <time>2022-02-06T07:33:58Z</time>
      </trkpt>
      <trkpt lat="48.27319" lon="2.60481">
        <ele>463.2</ele>
        <time>2022-02-06T07:34:02Z</time>
      </trkpt>
      <trkpt lat="48.27303" lon="2.60494">
        <ele>463.4</ele>
        <time>2022-02-06T07:34:06Z</time>
      </trkpt>
      <trkpt lat="48.27287" lon="2.60506">
        <ele>461.6</ele>
        <time>2022-02-06T07:34:10Z</time>
      </trkpt>
      <trkpt lat="48.27273" lon="2.60515">
        <ele>462.6</ele>
        <time>2022-02-06T07:34:14Z</time>
      </trkpt>
      <trkpt lat="48.27262" lon="2.60522">
        <ele>462</ele>
        <time>2022-02-06T07:34:18Z</time>
      </trkpt>
      <trkpt lat="48.27242" lon="2.60535">
        <ele>463.4</ele>
        <time>2022-02-06T07:41:00Z</time>
      </trkpt>
      <trkpt lat="48.27245" lon="2.60552">
        <ele>464</ele>
        <time>2022-02-06T07:41:04Z</time>
      </trkpt>
      <trkpt lat="48.27253" lon="2.60574">
        <ele>462.4</ele>
        <time>2022-02-06T07:41:08Z</time>
      </trkpt>
      <trkpt lat="48.27263" lon="2.60598">
        <ele>458.8</ele>
        <time>2022-02-06T07:41:12Z</time>
      </trkpt>
      <trkpt lat="48.27269" lon="2.60617">
        <ele>456</ele>
        <time>2022-02-06T07:41:16Z</time>
      </trkpt>
      <trkpt lat="48.27264" lon="2.60627">
        <ele>456.8</ele>
        <time>2022-02-06T07:41:20Z</time>
      </trkpt>
      <trkpt lat="48.27257" lon="2.60628">
        <ele>456.8</ele>
        <time>2022-02-06T07:41:24Z</time>
      </trkpt>
      <trkpt lat="48.27251" lon="2.60626">
        <ele>458</ele>
        <time>2022-02-06T07:41:28Z</time>
      </trkpt>
      <trkpt lat="48.27243" lon="2.60621">
        <ele>458.6</ele>
        <time>2022-02-06T07:41:32Z</time>
      </trkpt>
      <trkpt lat="48.27234" lon="2.60617">
        <ele>461.2</ele>
        <time>2022-02-06T07:41:36Z</time>
      </trkpt>
      <trkpt lat="48.27226" lon="2.60614">
        <ele>461.8</ele>
        <time>2022-02-06T07:41:40Z</time>
      </trkpt>
      <trkpt lat="48.27217" lon="2.60613">
        <ele>462.4</ele>
        <time>2022-02-06T07:41:44Z</time>
      </trkpt>
      <trkpt lat="48.27208" lon="2.60614">
        <ele>461.2</ele>
        <time>2022-02-06T07:41:48Z</time>
      </trkpt>
      <trkpt lat="48.27198" lon="2.6061">
        <ele>459.8</ele>
        <time>2022-02-06T07:41:52Z</time>
      </trkpt>
      <trkpt lat="48.2719" lon="2.60608">
        <ele>456.4</ele>
        <time>2022-02-06T07:41:56Z</time>
      </trkpt>
      <trkpt lat="48.27182" lon="2.606">
        <ele>456.6</ele>
        <time>2022-02-06T07:42:00Z</time>
      </trkpt>
      <trkpt lat="48.27179" lon="2.6059">
        <ele>455.2</ele>
        <time>2022-02-06T07:42:04Z</time>
      </trkpt>
      <trkpt lat="48.27177" lon="2.60579">
        <ele>456.8</ele>
        <time>2022-02-06T07:42:08Z</time>
      </trkpt>
      <trkpt lat="48.2717" lon="2.6057">
        <ele>458.2</ele>
        <time>2022-02-06T07:42:12Z</time>
      </trkpt>
      <trkpt lat="48.27164" lon="2.60566">
        <ele>458</ele>
        <time>2022-02-06T07:42:16Z</time>
      </trkpt>
      <trkpt lat="48.27156" lon="2.60559">
        <ele>457.8</ele>
        <time>2022-02-06T07:42:20Z</time>
      </trkpt>
      <trkpt lat="48.27145" lon="2.60555">
        <ele>457.8</ele>
        <time>2022-02-06T07:42:24Z</time>
      </trkpt>
      <trkpt lat="48.27135" lon="2.60545">
        <ele>458.6</ele>
        <time>2022-02-06T07:42:28Z</time>
      </trkpt>
      <trkpt lat="48.27122" lon="2.60542">
        <ele>457</ele>
        <time>2022-02-06T07:42:32Z</time>
      </trkpt>
      <trkpt lat="48.27115" lon="2.60556">
        <ele>458</ele>
        <time>2022-02-06T07:42:36Z</time>
      </trkpt>
      <trkpt lat="48.27109" lon="2.6057">
        <ele>458.8</ele>
        <time>2022-02-06T07:42:40Z</time>
      </trkpt>
      <trkpt lat="48.27106" lon="2.60587">
        <ele>461</ele>
        <time>2022-02-06T07:42:44Z</time>
      </trkpt>
      <trkpt lat="48.27101" lon="2.60601">
        <ele>463</ele>
        <time>2022-02-06T07:42:48Z</time>
      </trkpt>
      <trkpt lat="48.27095" lon="2.60612">
        <ele>464.8</ele>
        <time>2022-02-06T07:42:52Z</time>
      </trkpt>
      <trkpt lat="48.27088" lon="2.60621">
        <ele>466.4</ele>
        <time>2022-02-06T07:42:56Z</time>
      </trkpt>
      <trkpt lat="48.27081" lon="2.60626">
        <ele>466.8</ele>
        <time>2022-02-06T07:43:00Z</time>
      </trkpt>
      <trkpt lat="48.27072" lon="2.60632">
        <ele>467.2</ele>
        <time>2022-02-06T07:43:04Z</time>
      </trkpt>
      <trkpt lat="48.27063" lon="2.60643">
        <ele>468</ele>
        <time>2022-02-06T07:43:08Z</time>
      </trkpt>
      <trkpt lat="48.27054" lon="2.60654">
        <ele>467.4</ele>
        <time>2022-02-06T07:43:12Z</time>
      </trkpt>
      <trkpt lat="48.27045" lon="2.60666">
        <ele>467.8</ele>
        <time>2022-02-06T07:43:16Z</time>
      </trkpt>
      <trkpt lat="48.27037" lon="2.60678">
        <ele>468.2</ele>
        <time>2022-02-06T07:43:20Z</time>
      </trkpt>
      <trkpt lat="48.27025" lon="2.60684">
        <ele>467.8</ele>
        <time>2022-02-06T07:43:24Z</time>
      </trkpt>
      <trkpt lat="48.27016" lon="2.60697">
        <ele>468.2</ele>
        <time>2022-02-06T07:43:28Z</time>
      </trkpt>
      <trkpt lat="48.27004" lon="2.60704">
        <ele>467.8</ele>
        <time>2022-02-06T07:43:32Z</time>
      </trkpt>
      <trkpt lat="48.26995" lon="2.60712">
        <ele>468.8</ele>
        <time>2022-02-06T07:43:36Z</time>
      </trkpt>
      <trkpt lat="48.26993" lon="2.60721">
        <ele>468.8</ele>
        <time>2022-02-06T07:43:40Z</time>
      </trkpt>
      <trkpt lat="48.26987" lon="2.60727">
        <ele>465</ele>
        <time>2022-02-06T07:43:44Z</time>
      </trkpt>
      <trkpt lat="48.26982" lon="2.60731">
        <ele>461.6</ele>
        <time>2022-02-06T07:43:48Z</time>
      </trkpt>
      <trkpt lat="48.26982" lon="2.60738">
        <ele>457.6</ele>
        <time>2022-02-06T07:43:52Z</time>
      </trkpt>
      <trkpt lat="48.26982" lon="2.60738">
        <ele>455</ele>
        <time>2022-02-06T07:43:56Z</time>
      </trkpt>
      <trkpt lat="48.26978" lon="2.60743">
        <ele>451.4</ele>
        <time>2022-02-06T07:44:00Z</time>
      </trkpt>
      <trkpt lat="48.26984" lon="2.60747">
        <ele>446.8</ele>
        <time>2022-02-06T07:44:04Z</time>
      </trkpt>
      <trkpt lat="48.26995" lon="2.6075">
        <ele>445.8</ele>
        <time>2022-02-06T07:44:08Z</time>
      </trkpt>
      <trkpt lat="48.27002" lon="2.60753">
        <ele>444</ele>
        <time>2022-02-06T07:44:12Z</time>
      </trkpt>
      <trkpt lat="48.27006" lon="2.60755">
        <ele>440.6</ele>
        <time>2022-02-06T07:44:16Z</time>
      </trkpt>
      <trkpt lat="48.27003" lon="2.60758">
        <ele>439.2</ele>
        <time>2022-02-06T07:44:20Z</time>
      </trkpt>
      <trkpt lat="48.26994" lon="2.60767">
        <ele>437</ele>
        <time>2022-02-06T07:44:24Z</time>
      </trkpt>
      <trkpt lat="48.26989" lon="2.60775">
        <ele>433.8</ele>
        <time>2022-02-06T07:44:28Z</time>
      </trkpt>
      <trkpt lat="48.2697" lon="2.60793">
        <ele>428.4</ele>
        <time>2022-02-06T07:44:32Z</time>
      </trkpt>
      <trkpt lat="48.26947" lon="2.60811">
        <ele>427.6</ele>
        <time>2022-02-06T07:44:36Z</time>
      </trkpt>
      <trkpt lat="48.26926" lon="2.60829">
        <ele>428</ele>
        <time>2022-02-06T07:44:40Z</time>
      </trkpt>
      <trkpt lat="48.26906" lon="2.60851">
        <ele>424.2</ele>
        <time>2022-02-06T07:44:44Z</time>
      </trkpt>
      <trkpt lat="48.26892" lon="2.60873">
        <ele>426.6</ele>
        <time>2022-02-06T07:44:48Z</time>
      </trkpt>
      <trkpt lat="48.26888" lon="2.60901">
        <ele>425.6</ele>
        <time>2022-02-06T07:44:52Z</time>
      </trkpt>
      <trkpt lat="48.26881" lon="2.60928">
        <ele>424</ele>
        <time>2022-02-06T07:44:56Z</time>
      </trkpt>
      <trkpt lat="48.26871" lon="2.60913">
        <ele>424.6</ele>
        <time>2022-02-06T07:45:00Z</time>
      </trkpt>
      <trkpt lat="48.26864" lon="2.60896">
        <ele>424.8</ele>
        <time>2022-02-06T07:45:04Z</time>
      </trkpt>
      <trkpt lat="48.26858" lon="2.60881">
        <ele>424</ele>
        <time>2022-02-06T07:45:08Z</time>
      </trkpt>
      <trkpt lat="48.26852" lon="2.60865">
        <ele>424.4</ele>
        <time>2022-02-06T07:45:12Z</time>
      </trkpt>
      <trkpt lat="48.26846" lon="2.60849">
        <ele>424.4</ele>
        <time>2022-02-06T07:45:16Z</time>
      </trkpt>
      <trkpt lat="48.2684" lon="2.60831">
        <ele>425.2</ele>
        <time>2022-02-06T07:45:20Z</time>
      </trkpt>
      <trkpt lat="48.26833" lon="2.60812">
        <ele>425.2</ele>
        <time>2022-02-06T07:45:24Z</time>
      </trkpt>
      <trkpt lat="48.26826" lon="2.60793">
        <ele>425.2</ele>
        <time>2022-02-06T07:45:28Z</time>
      </trkpt>
      <trkpt lat="48.2682" lon="2.60777">
        <ele>425.2</ele>
        <time>2022-02-06T07:45:32Z</time>
      </trkpt>
      <trkpt lat="48.26814" lon="2.60759">
        <ele>425.2</ele>
        <time>2022-02-06T07:45:36Z</time>
      </trkpt>
      <trkpt lat="48.26806" lon="2.60743">
        <ele>424.8</ele>
        <time>2022-02-06T07:45:40Z</time>
      </trkpt>
      <trkpt lat="48.268" lon="2.60725">
        <ele>423.4</ele>
        <time>2022-02-06T07:45:44Z</time>
      </trkpt>
      <trkpt lat="48.26793" lon="2.60708">
        <ele>423.8</ele>
        <time>2022-02-06T07:45:48Z</time>
      </trkpt>
      <trkpt lat="48.26785" lon="2.60691">
        <ele>423.8</ele>
        <time>2022-02-06T07:45:52Z</time>
      </trkpt>
      <trkpt lat="48.2678" lon="2.60669">
        <ele>424.6</ele>
        <time>2022-02-06T07:45:56Z</time>
      </trkpt>
      <trkpt lat="48.26775" lon="2.60646">
        <ele>425.2</ele>
        <time>2022-02-06T07:46:00Z</time>
      </trkpt>
      <trkpt lat="48.2677" lon="2.60623">
        <ele>425.2</ele>
        <time>2022-02-06T07:46:04Z</time>
      </trkpt>
      <trkpt lat="48.26767" lon="2.60602">
        <ele>425.8</ele>
        <time>2022-02-06T07:46:08Z</time>
      </trkpt>
      <trkpt lat="48.26764" lon="2.6058">
        <ele>425.6</ele>
        <time>2022-02-06T07:46:12Z</time>
      </trkpt>
      <trkpt lat="48.2676" lon="2.6056">
        <ele>425.8</ele>
        <time>2022-02-06T07:46:16Z</time>
      </trkpt>
      <trkpt lat="48.26751" lon="2.60547">
        <ele>426.6</ele>
        <time>2022-02-06T07:46:20Z</time>
      </trkpt>
      <trkpt lat="48.26738" lon="2.60554">
        <ele>427.6</ele>
        <time>2022-02-06T07:46:24Z</time>
      </trkpt>
      <trkpt lat="48.26726" lon="2.60563">
        <ele>427.4</ele>
        <time>2022-02-06T07:46:28Z</time>
      </trkpt>
      <trkpt lat="48.26711" lon="2.60567">
        <ele>427.8</ele>
        <time>2022-02-06T07:46:32Z</time>
      </trkpt>
      <trkpt lat="48.26697" lon="2.60568">
        <ele>427.8</ele>
        <time>2022-02-06T07:46:36Z</time>
      </trkpt>
      <trkpt lat="48.26682" lon="2.60568">
        <ele>428.2</ele>
        <time>2022-02-06T07:46:40Z</time>
      </trkpt>
      <trkpt lat="48.26669" lon="2.60568">
        <ele>429.2</ele>
        <time>2022-02-06T07:46:44Z</time>
      </trkpt>
      <trkpt lat="48.26656" lon="2.60567">
        <ele>429.4</ele>
        <time>2022-02-06T07:46:48Z</time>
      </trkpt>
      <trkpt lat="48.26644" lon="2.60566">
        <ele>430.8</ele>
        <time>2022-02-06T07:46:52Z</time>
      </trkpt>
      <trkpt lat="48.26633" lon="2.60566">
        <ele>431.8</ele>
        <time>2022-02-06T07:46:56Z</time>
      </trkpt>
      <trkpt lat="48.26621" lon="2.60567">
        <ele>432.6</ele>
        <time>2022-02-06T07:47:00Z</time>
      </trkpt>
      <trkpt lat="48.2661" lon="2.60566">
        <ele>433.2</ele>
        <time>2022-02-06T07:47:04Z</time>
      </trkpt>
      <trkpt lat="48.266" lon="2.60568">
        <ele>435.4</ele>
        <time>2022-02-06T07:47:08Z</time>
      </trkpt>
      <trkpt lat="48.26589" lon="2.60573">
        <ele>436.2</ele>
        <time>2022-02-06T07:47:12Z</time>
      </trkpt>
      <trkpt lat="48.26578" lon="2.60579">
        <ele>438</ele>
        <time>2022-02-06T07:47:16Z</time>
      </trkpt>
      <trkpt lat="48.26569" lon="2.60589">
        <ele>438.8</ele>
        <time>2022-02-06T07:47:20Z</time>
      </trkpt>
      <trkpt lat="48.26563" lon="2.60601">
        <ele>440</ele>
        <time>2022-02-06T07:47:24Z</time>
      </trkpt>
      <trkpt lat="48.26559" lon="2.60618">
        <ele>441.2</ele>
        <time>2022-02-06T07:47:28Z</time>
      </trkpt>
      <trkpt lat="48.26556" lon="2.60632">
        <ele>442.8</ele>
        <time>2022-02-06T07:47:32Z</time>
      </trkpt>
      <trkpt lat="48.26551" lon="2.60645">
        <ele>443.2</ele>
        <time>2022-02-06T07:47:36Z</time>
      </trkpt>
      <trkpt lat="48.26542" lon="2.60653">
        <ele>444</ele>
        <time>2022-02-06T07:47:40Z</time>
      </trkpt>
      <trkpt lat="48.26531" lon="2.60656">
        <ele>444.2</ele>
        <time>2022-02-06T07:47:44Z</time>
      </trkpt>
      <trkpt lat="48.26519" lon="2.60659">
        <ele>444.6</ele>
        <time>2022-02-06T07:47:48Z</time>
      </trkpt>
      <trkpt lat="48.26507" lon="2.6066">
        <ele>445</ele>
        <time>2022-02-06T07:47:52Z</time>
      </trkpt>
      <trkpt lat="48.26495" lon="2.60655">
        <ele>444.6</ele>
        <time>2022-02-06T07:47:56Z</time>
      </trkpt>
      <trkpt lat="48.26484" lon="2.60647">
        <ele>446.6</ele>
        <time>2022-02-06T07:48:00Z</time>
      </trkpt>
      <trkpt lat="48.26474" lon="2.60636">
        <ele>445.4</ele>
        <time>2022-02-06T07:48:04Z</time>
      </trkpt>
      <trkpt lat="48.26465" lon="2.60627">
        <ele>447</ele>
        <time>2022-02-06T07:48:08Z</time>
      </trkpt>
      <trkpt lat="48.26458" lon="2.60632">
        <ele>448.2</ele>
        <time>2022-02-06T07:48:12Z</time>
      </trkpt>
      <trkpt lat="48.26455" lon="2.60646">
        <ele>448.8</ele>
        <time>2022-02-06T07:48:16Z</time>
      </trkpt>
      <trkpt lat="48.26454" lon="2.60664">
        <ele>449.2</ele>
        <time>2022-02-06T07:48:20Z</time>
      </trkpt>
      <trkpt lat="48.26453" lon="2.60683">
        <ele>448.2</ele>
        <time>2022-02-06T07:48:24Z</time>
      </trkpt>
      <trkpt lat="48.26453" lon="2.60704">
        <ele>448</ele>
        <time>2022-02-06T07:48:28Z</time>
      </trkpt>
      <trkpt lat="48.26451" lon="2.60725">
        <ele>449.4</ele>
        <time>2022-02-06T07:48:32Z</time>
      </trkpt>
      <trkpt lat="48.26449" lon="2.60744">
        <ele>451</ele>
        <time>2022-02-06T07:48:36Z</time>
      </trkpt>
      <trkpt lat="48.26451" lon="2.60763">
        <ele>451.6</ele>
        <time>2022-02-06T07:48:40Z</time>
      </trkpt>
      <trkpt lat="48.26457" lon="2.6078">
        <ele>451.2</ele>
        <time>2022-02-06T07:48:44Z</time>
      </trkpt>
      <trkpt lat="48.26462" lon="2.60796">
        <ele>452.4</ele>
        <time>2022-02-06T07:48:48Z</time>
      </trkpt>
      <trkpt lat="48.26467" lon="2.60812">
        <ele>452.8</ele>
        <time>2022-02-06T07:48:52Z</time>
      </trkpt>
      <trkpt lat="48.26472" lon="2.60827">
        <ele>455.4</ele>
        <time>2022-02-06T07:48:56Z</time>
      </trkpt>
      <trkpt lat="48.26476" lon="2.60844">
        <ele>455.8</ele>
        <time>2022-02-06T07:49:00Z</time>
      </trkpt>
      <trkpt lat="48.26482" lon="2.60865">
        <ele>456.2</ele>
        <time>2022-02-06T07:49:38Z</time>
      </trkpt>
      <trkpt lat="48.2648" lon="2.60853">
        <ele>456</ele>
        <time>2022-02-06T07:49:42Z</time>
      </trkpt>
      <trkpt lat="48.26478" lon="2.60843">
        <ele>455.8</ele>
        <time>2022-02-06T07:49:46Z</time>
      </trkpt>
      <trkpt lat="48.26477" lon="2.60847">
        <ele>456.4</ele>
        <time>2022-02-06T07:49:50Z</time>
      </trkpt>
      <trkpt lat="48.26479" lon="2.60856">
        <ele>456.2</ele>
        <time>2022-02-06T07:49:54Z</time>
      </trkpt>
      <trkpt lat="48.26481" lon="2.60868">
        <ele>457.4</ele>
        <time>2022-02-06T07:49:58Z</time>
      </trkpt>
      <trkpt lat="48.26484" lon="2.60882">
        <ele>457.8</ele>
        <time>2022-02-06T07:50:02Z</time>
      </trkpt>
      <trkpt lat="48.26487" lon="2.60897">
        <ele>458.2</ele>
        <time>2022-02-06T07:50:06Z</time>
      </trkpt>
      <trkpt lat="48.2649" lon="2.60913">
        <ele>458.4</ele>
        <time>2022-02-06T07:50:10Z</time>
      </trkpt>
      <trkpt lat="48.26495" lon="2.60928">
        <ele>459</ele>
        <time>2022-02-06T07:50:14Z</time>
      </trkpt>
      <trkpt lat="48.26502" lon="2.60943">
        <ele>459.2</ele>
        <time>2022-02-06T07:50:18Z</time>
      </trkpt>
      <trkpt lat="48.26508" lon="2.60962">
        <ele>459.4</ele>
        <time>2022-02-06T07:50:22Z</time>
      </trkpt>
      <trkpt lat="48.26513" lon="2.6098">
        <ele>459</ele>
        <time>2022-02-06T07:50:26Z</time>
      </trkpt>
      <trkpt lat="48.26517" lon="2.61">
        <ele>459.2</ele>
        <time>2022-02-06T07:50:30Z</time>
      </trkpt>
      <trkpt lat="48.26522" lon="2.61021">
        <ele>458.4</ele>
        <time>2022-02-06T07:50:34Z</time>
      </trkpt>
      <trkpt lat="48.26527" lon="2.61043">
        <ele>458.6</ele>
        <time>2022-02-06T07:50:38Z</time>
      </trkpt>
      <trkpt lat="48.26532" lon="2.61064">
        <ele>458.6</ele>
        <time>2022-02-06T07:50:42Z</time>
      </trkpt>
      <trkpt lat="48.26536" lon="2.61084">
        <ele>456.8</ele>
        <time>2022-02-06T07:50:46Z</time>
      </trkpt>
      <trkpt lat="48.2654" lon="2.61105">
        <ele>457</ele>
        <time>2022-02-06T07:50:50Z</time>
      </trkpt>
      <trkpt lat="48.26553" lon="2.61125">
        <ele>452.6</ele>
        <time>2022-02-06T07:50:54Z</time>
      </trkpt>
      <trkpt lat="48.26573" lon="2.61125">
        <ele>448.2</ele>
        <time>2022-02-06T07:50:58Z</time>
      </trkpt>
      <trkpt lat="48.266" lon="2.61115">
        <ele>445</ele>
        <time>2022-02-06T07:51:02Z</time>
      </trkpt>
      <trkpt lat="48.26618" lon="2.61128">
        <ele>444.8</ele>
        <time>2022-02-06T07:51:06Z</time>
      </trkpt>
      <trkpt lat="48.26619" lon="2.61154">
        <ele>446</ele>
        <time>2022-02-06T07:51:10Z</time>
      </trkpt>
      <trkpt lat="48.26611" lon="2.61172">
        <ele>446.8</ele>
        <time>2022-02-06T07:51:14Z</time>
      </trkpt>
      <trkpt lat="48.26606" lon="2.6119">
        <ele>447.2</ele>
        <time>2022-02-06T07:51:18Z</time>
      </trkpt>
      <trkpt lat="48.26602" lon="2.61209">
        <ele>449.8</ele>
        <time>2022-02-06T07:51:22Z</time>
      </trkpt>
      <trkpt lat="48.26601" lon="2.61227">
        <ele>450.4</ele>
        <time>2022-02-06T07:51:26Z</time>
      </trkpt>
      <trkpt lat="48.26602" lon="2.61245">
        <ele>450.8</ele>
        <time>2022-02-06T07:51:30Z</time>
      </trkpt>
      <trkpt lat="48.26603" lon="2.61263">
        <ele>451.2</ele>
        <time>2022-02-06T07:51:34Z</time>
      </trkpt>
      <trkpt lat="48.26605" lon="2.61283">
        <ele>451</ele>
        <time>2022-02-06T07:51:38Z</time>
      </trkpt>
      <trkpt lat="48.26609" lon="2.61302">
        <ele>453.2</ele>
        <time>2022-02-06T07:51:42Z</time>
      </trkpt>
      <trkpt lat="48.26613" lon="2.61321">
        <ele>454.2</ele>
        <time>2022-02-06T07:51:46Z</time>
      </trkpt>
      <trkpt lat="48.2662" lon="2.61338">
        <ele>453.4</ele>
        <time>2022-02-06T07:51:50Z</time>
      </trkpt>
      <trkpt lat="48.2663" lon="2.61352">
        <ele>454.4</ele>
        <time>2022-02-06T07:51:54Z</time>
      </trkpt>
      <trkpt lat="48.26641" lon="2.61364">
        <ele>453.2</ele>
        <time>2022-02-06T07:51:58Z</time>
      </trkpt>
      <trkpt lat="48.26654" lon="2.61377">
        <ele>452.4</ele>
        <time>2022-02-06T07:52:02Z</time>
      </trkpt>
      <trkpt lat="48.26669" lon="2.6139">
        <ele>452.6</ele>
        <time>2022-02-06T07:52:06Z</time>
      </trkpt>
      <trkpt lat="48.26681" lon="2.61405">
        <ele>451.2</ele>
        <time>2022-02-06T07:52:10Z</time>
      </trkpt>
      <trkpt lat="48.26689" lon="2.61428">
        <ele>449.8</ele>
        <time>2022-02-06T07:52:14Z</time>
      </trkpt>
      <trkpt lat="48.26697" lon="2.61458">
        <ele>447.8</ele>
        <time>2022-02-06T07:52:18Z</time>
      </trkpt>
      <trkpt lat="48.26704" lon="2.61494">
        <ele>445.6</ele>
        <time>2022-02-06T07:52:22Z</time>
      </trkpt>
      <trkpt lat="48.26698" lon="2.61536">
        <ele>438.8</ele>
        <time>2022-02-06T07:52:26Z</time>
      </trkpt>
      <trkpt lat="48.26682" lon="2.61575">
        <ele>437.4</ele>
        <time>2022-02-06T07:52:30Z</time>
      </trkpt>
      <trkpt lat="48.26662" lon="2.6161">
        <ele>432.2</ele>
        <time>2022-02-06T07:52:34Z</time>
      </trkpt>
      <trkpt lat="48.26646" lon="2.61644">
        <ele>434.6</ele>
        <time>2022-02-06T07:52:38Z</time>
      </trkpt>
      <trkpt lat="48.26638" lon="2.61677">
        <ele>436.4</ele>
        <time>2022-02-06T07:52:42Z</time>
      </trkpt>
      <trkpt lat="48.26638" lon="2.61706">
        <ele>437.8</ele>
        <time>2022-02-06T07:52:46Z</time>
      </trkpt>
      <trkpt lat="48.26636" lon="2.61726">
        <ele>439.6</ele>
        <time>2022-02-06T07:52:50Z</time>
      </trkpt>
      <trkpt lat="48.26635" lon="2.61744">
        <ele>440.6</ele>
        <time>2022-02-06T07:52:54Z</time>
      </trkpt>
      <trkpt lat="48.26633" lon="2.6176">
        <ele>441.8</ele>
        <time>2022-02-06T07:52:58Z</time>
      </trkpt>
      <trkpt lat="48.26633" lon="2.61778">
        <ele>442.8</ele>
        <time>2022-02-06T07:53:02Z</time>
      </trkpt>
      <trkpt lat="48.26632" lon="2.61795">
        <ele>442.8</ele>
        <time>2022-02-06T07:53:06Z</time>
      </trkpt>
      <trkpt lat="48.26633" lon="2.61811">
        <ele>443.8</ele>
        <time>2022-02-06T07:53:10Z</time>
      </trkpt>
      <trkpt lat="48.26635" lon="2.6183">
        <ele>443.4</ele>
        <time>2022-02-06T07:53:14Z</time>
      </trkpt>
      <trkpt lat="48.2664" lon="2.61849">
        <ele>444</ele>
        <time>2022-02-06T07:53:18Z</time>
      </trkpt>
      <trkpt lat="48.26648" lon="2.61861">
        <ele>443.4</ele>
        <time>2022-02-06T07:53:22Z</time>
      </trkpt>
      <trkpt lat="48.26659" lon="2.6187">
        <ele>443.4</ele>
        <time>2022-02-06T07:53:26Z</time>
      </trkpt>
      <trkpt lat="48.26669" lon="2.61882">
        <ele>443.2</ele>
        <time>2022-02-06T07:53:30Z</time>
      </trkpt>
      <trkpt lat="48.26678" lon="2.61891">
        <ele>443.2</ele>
        <time>2022-02-06T07:53:34Z</time>
      </trkpt>
      <trkpt lat="48.26688" lon="2.619">
        <ele>442.6</ele>
        <time>2022-02-06T07:53:38Z</time>
      </trkpt>
      <trkpt lat="48.26699" lon="2.61907">
        <ele>442</ele>
        <time>2022-02-06T07:53:42Z</time>
      </trkpt>
      <trkpt lat="48.2671" lon="2.61918">
        <ele>443.2</ele>
        <time>2022-02-06T07:53:46Z</time>
      </trkpt>
      <trkpt lat="48.26719" lon="2.61928">
        <ele>442.6</ele>
        <time>2022-02-06T07:53:50Z</time>
      </trkpt>
      <trkpt lat="48.26728" lon="2.61936">
        <ele>444</ele>
        <time>2022-02-06T07:53:54Z</time>
      </trkpt>
      <trkpt lat="48.26733" lon="2.61932">
        <ele>446</ele>
        <time>2022-02-06T07:53:58Z</time>
      </trkpt>
      <trkpt lat="48.26735" lon="2.61925">
        <ele>447</ele>
        <time>2022-02-06T07:54:02Z</time>
      </trkpt>
      <trkpt lat="48.2674" lon="2.61925">
        <ele>447</ele>
        <time>2022-02-06T07:54:06Z</time>
      </trkpt>
      <trkpt lat="48.2675" lon="2.61934">
        <ele>444.4</ele>
        <time>2022-02-06T07:54:10Z</time>
      </trkpt>
      <trkpt lat="48.26766" lon="2.61949">
        <ele>444.4</ele>
        <time>2022-02-06T07:54:14Z</time>
      </trkpt>
      <trkpt lat="48.26782" lon="2.6196">
        <ele>444.4</ele>
        <time>2022-02-06T07:54:18Z</time>
      </trkpt>
      <trkpt lat="48.26794" lon="2.61969">
        <ele>446</ele>
        <time>2022-02-06T07:54:22Z</time>
      </trkpt>
      <trkpt lat="48.26802" lon="2.61985">
        <ele>446.4</ele>
        <time>2022-02-06T07:54:26Z</time>
      </trkpt>
      <trkpt lat="48.26811" lon="2.61997">
        <ele>447.8</ele>
        <time>2022-02-06T07:54:30Z</time>
      </trkpt>
      <trkpt lat="48.26817" lon="2.62013">
        <ele>448</ele>
        <time>2022-02-06T07:54:34Z</time>
      </trkpt>
      <trkpt lat="48.26824" lon="2.62027">
        <ele>450.6</ele>
        <time>2022-02-06T07:54:38Z</time>
      </trkpt>
      <trkpt lat="48.26829" lon="2.6204">
        <ele>451.6</ele>
        <time>2022-02-06T07:54:42Z</time>
      </trkpt>
      <trkpt lat="48.26835" lon="2.62058">
        <ele>451.6</ele>
        <time>2022-02-06T07:54:46Z</time>
      </trkpt>
      <trkpt lat="48.26843" lon="2.62079">
        <ele>452.4</ele>
        <time>2022-02-06T07:54:50Z</time>
      </trkpt>
      <trkpt lat="48.26855" lon="2.62095">
        <ele>452.2</ele>
        <time>2022-02-06T07:54:54Z</time>
      </trkpt>
      <trkpt lat="48.26862" lon="2.62112">
        <ele>452.2</ele>
        <time>2022-02-06T07:54:58Z</time>
      </trkpt>
      <trkpt lat="48.26867" lon="2.6213">
        <ele>452.8</ele>
        <time>2022-02-06T07:55:02Z</time>
      </trkpt>
      <trkpt lat="48.26874" lon="2.62149">
        <ele>452.4</ele>
        <time>2022-02-06T07:55:06Z</time>
      </trkpt>
      <trkpt lat="48.26878" lon="2.62163">
        <ele>453.2</ele>
        <time>2022-02-06T07:55:10Z</time>
      </trkpt>
      <trkpt lat="48.2688" lon="2.6218">
        <ele>452.4</ele>
        <time>2022-02-06T07:55:14Z</time>
      </trkpt>
      <trkpt lat="48.26876" lon="2.62193">
        <ele>454.4</ele>
        <time>2022-02-06T07:55:18Z</time>
      </trkpt>
      <trkpt lat="48.26874" lon="2.6221">
        <ele>453</ele>
        <time>2022-02-06T07:55:22Z</time>
      </trkpt>
      <trkpt lat="48.26879" lon="2.62229">
        <ele>454.4</ele>
        <time>2022-02-06T07:55:26Z</time>
      </trkpt>
      <trkpt lat="48.26881" lon="2.62247">
        <ele>453.4</ele>
        <time>2022-02-06T07:55:30Z</time>
      </trkpt>
      <trkpt lat="48.26893" lon="2.62253">
        <ele>454</ele>
        <time>2022-02-06T07:55:34Z</time>
      </trkpt>
      <trkpt lat="48.26892" lon="2.62266">
        <ele>452.6</ele>
        <time>2022-02-06T07:55:38Z</time>
      </trkpt>
      <trkpt lat="48.26897" lon="2.6229">
        <ele>454</ele>
        <time>2022-02-06T07:55:42Z</time>
      </trkpt>
      <trkpt lat="48.26897" lon="2.62313">
        <ele>453.2</ele>
        <time>2022-02-06T07:55:46Z</time>
      </trkpt>
      <trkpt lat="48.26902" lon="2.62334">
        <ele>452.2</ele>
        <time>2022-02-06T07:55:50Z</time>
      </trkpt>
      <trkpt lat="48.26909" lon="2.62342">
        <ele>451</ele>
        <time>2022-02-06T07:55:54Z</time>
      </trkpt>
      <trkpt lat="48.26915" lon="2.62328">
        <ele>452.4</ele>
        <time>2022-02-06T07:55:58Z</time>
      </trkpt>
      <trkpt lat="48.26914" lon="2.62312">
        <ele>452.6</ele>
        <time>2022-02-06T07:56:02Z</time>
      </trkpt>
      <trkpt lat="48.26914" lon="2.62301">
        <ele>454.6</ele>
        <time>2022-02-06T07:56:06Z</time>
      </trkpt>
      <trkpt lat="48.2692" lon="2.62293">
        <ele>454.8</ele>
        <time>2022-02-06T07:56:10Z</time>
      </trkpt>
      <trkpt lat="48.26927" lon="2.62284">
        <ele>453.6</ele>
        <time>2022-02-06T07:56:14Z</time>
      </trkpt>
      <trkpt lat="48.26929" lon="2.62273">
        <ele>452</ele>
        <time>2022-02-06T07:56:18Z</time>
      </trkpt>
      <trkpt lat="48.26926" lon="2.62254">
        <ele>451.6</ele>
        <time>2022-02-06T07:56:22Z</time>
      </trkpt>
      <trkpt lat="48.26926" lon="2.62237">
        <ele>452.2</ele>
        <time>2022-02-06T07:56:26Z</time>
      </trkpt>
      <trkpt lat="48.26925" lon="2.62219">
        <ele>453</ele>
        <time>2022-02-06T07:56:30Z</time>
      </trkpt>
      <trkpt lat="48.26924" lon="2.62202">
        <ele>451.6</ele>
        <time>2022-02-06T07:56:34Z</time>
      </trkpt>
      <trkpt lat="48.26914" lon="2.62183">
        <ele>451.8</ele>
        <time>2022-02-06T07:56:38Z</time>
      </trkpt>
      <trkpt lat="48.26906" lon="2.6217">
        <ele>452.8</ele>
        <time>2022-02-06T07:56:42Z</time>
      </trkpt>
      <trkpt lat="48.26908" lon="2.62153">
        <ele>449.2</ele>
        <time>2022-02-06T07:56:46Z</time>
      </trkpt>
      <trkpt lat="48.26918" lon="2.62147">
        <ele>448.4</ele>
        <time>2022-02-06T07:56:50Z</time>
      </trkpt>
      <trkpt lat="48.26912" lon="2.62134">
        <ele>448.2</ele>
        <time>2022-02-06T07:56:54Z</time>
      </trkpt>
      <trkpt lat="48.26913" lon="2.62118">
        <ele>448.4</ele>
        <time>2022-02-06T07:56:58Z</time>
      </trkpt>
      <trkpt lat="48.26908" lon="2.62101">
        <ele>447.8</ele>
        <time>2022-02-06T07:57:02Z</time>
      </trkpt>
      <trkpt lat="48.2691" lon="2.62076">
        <ele>448.6</ele>
        <time>2022-02-06T07:57:06Z</time>
      </trkpt>
      <trkpt lat="48.26906" lon="2.62055">
        <ele>449.8</ele>
        <time>2022-02-06T07:57:10Z</time>
      </trkpt>
      <trkpt lat="48.26898" lon="2.62048">
        <ele>449.8</ele>
        <time>2022-02-06T07:57:14Z</time>
      </trkpt>
      <trkpt lat="48.26889" lon="2.62039">
        <ele>448.6</ele>
        <time>2022-02-06T07:57:18Z</time>
      </trkpt>
      <trkpt lat="48.26878" lon="2.62029">
        <ele>450.6</ele>
        <time>2022-02-06T07:57:22Z</time>
      </trkpt>
      <trkpt lat="48.26872" lon="2.6202">
        <ele>452.2</ele>
        <time>2022-02-06T07:57:26Z</time>
      </trkpt>
      <trkpt lat="48.26873" lon="2.62014">
        <ele>452</ele>
        <time>2022-02-06T07:57:30Z</time>
      </trkpt>
      <trkpt lat="48.26879" lon="2.62015">
        <ele>452.2</ele>
        <time>2022-02-06T07:57:34Z</time>
      </trkpt>
      <trkpt lat="48.26882" lon="2.62026">
        <ele>453.2</ele>
        <time>2022-02-06T07:57:38Z</time>
      </trkpt>
      <trkpt lat="48.26888" lon="2.62027">
        <ele>452</ele>
        <time>2022-02-06T07:57:42Z</time>
      </trkpt>
      <trkpt lat="48.26891" lon="2.62023">
        <ele>449</ele>
        <time>2022-02-06T07:57:46Z</time>
      </trkpt>
      <trkpt lat="48.26892" lon="2.62012">
        <ele>450</ele>
        <time>2022-02-06T07:57:50Z</time>
      </trkpt>
      <trkpt lat="48.26889" lon="2.62008">
        <ele>453</ele>
        <time>2022-02-06T07:57:54Z</time>
      </trkpt>
      <trkpt lat="48.26897" lon="2.61994">
        <ele>450.4</ele>
        <time>2022-02-06T07:58:15Z</time>
      </trkpt>
      <trkpt lat="48.26896" lon="2.61986">
        <ele>452</ele>
        <time>2022-02-06T07:58:19Z</time>
      </trkpt>
      <trkpt lat="48.26888" lon="2.61964">
        <ele>452.4</ele>
        <time>2022-02-06T07:58:34Z</time>
      </trkpt>
      <trkpt lat="48.26884" lon="2.61951">
        <ele>452.8</ele>
        <time>2022-02-06T07:58:38Z</time>
      </trkpt>
      <trkpt lat="48.2689" lon="2.61939">
        <ele>453.4</ele>
        <time>2022-02-06T07:58:42Z</time>
      </trkpt>
      <trkpt lat="48.26892" lon="2.61923">
        <ele>452</ele>
        <time>2022-02-06T07:58:46Z</time>
      </trkpt>
      <trkpt lat="48.26888" lon="2.61904">
        <ele>454.4</ele>
        <time>2022-02-06T07:58:50Z</time>
      </trkpt>
      <trkpt lat="48.26884" lon="2.61886">
        <ele>454.4</ele>
        <time>2022-02-06T07:58:54Z</time>
      </trkpt>
      <trkpt lat="48.26879" lon="2.61867">
        <ele>455.2</ele>
        <time>2022-02-06T07:58:58Z</time>
      </trkpt>
      <trkpt lat="48.26877" lon="2.61849">
        <ele>455.8</ele>
        <time>2022-02-06T07:59:02Z</time>
      </trkpt>
      <trkpt lat="48.26877" lon="2.61831">
        <ele>456.6</ele>
        <time>2022-02-06T07:59:06Z</time>
      </trkpt>
      <trkpt lat="48.2688" lon="2.61813">
        <ele>457.6</ele>
        <time>2022-02-06T07:59:10Z</time>
      </trkpt>
      <trkpt lat="48.26884" lon="2.61796">
        <ele>457.2</ele>
        <time>2022-02-06T07:59:14Z</time>
      </trkpt>
      <trkpt lat="48.26885" lon="2.61779">
        <ele>457.6</ele>
        <time>2022-02-06T07:59:18Z</time>
      </trkpt>
      <trkpt lat="48.26882" lon="2.61757">
        <ele>457.2</ele>
        <time>2022-02-06T07:59:22Z</time>
      </trkpt>
      <trkpt lat="48.26876" lon="2.61734">
        <ele>457.4</ele>
        <time>2022-02-06T07:59:26Z</time>
      </trkpt>
      <trkpt lat="48.2687" lon="2.61715">
        <ele>456</ele>
        <time>2022-02-06T07:59:30Z</time>
      </trkpt>
      <trkpt lat="48.26863" lon="2.61695">
        <ele>457</ele>
        <time>2022-02-06T07:59:34Z</time>
      </trkpt>
      <trkpt lat="48.26855" lon="2.61671">
        <ele>454.6</ele>
        <time>2022-02-06T07:59:38Z</time>
      </trkpt>
      <trkpt lat="48.26849" lon="2.61643">
        <ele>454</ele>
        <time>2022-02-06T07:59:42Z</time>
      </trkpt>
      <trkpt lat="48.26842" lon="2.61616">
        <ele>453</ele>
        <time>2022-02-06T07:59:46Z</time>
      </trkpt>
      <trkpt lat="48.26835" lon="2.61585">
        <ele>453</ele>
        <time>2022-02-06T07:59:50Z</time>
      </trkpt>
      <trkpt lat="48.2683" lon="2.61558">
        <ele>452.8</ele>
        <time>2022-02-06T07:59:54Z</time>
      </trkpt>
      <trkpt lat="48.26827" lon="2.61535">
        <ele>453.4</ele>
        <time>2022-02-06T07:59:58Z</time>
      </trkpt>
      <trkpt lat="48.2682" lon="2.61524">
        <ele>453.8</ele>
        <time>2022-02-06T08:00:02Z</time>
      </trkpt>
      <trkpt lat="48.26817" lon="2.61514">
        <ele>454.4</ele>
        <time>2022-02-06T08:00:06Z</time>
      </trkpt>
      <trkpt lat="48.26813" lon="2.61498">
        <ele>455.2</ele>
        <time>2022-02-06T08:00:10Z</time>
      </trkpt>
      <trkpt lat="48.26811" lon="2.6148">
        <ele>455.6</ele>
        <time>2022-02-06T08:00:14Z</time>
      </trkpt>
      <trkpt lat="48.26808" lon="2.61458">
        <ele>455.4</ele>
        <time>2022-02-06T08:00:18Z</time>
      </trkpt>
      <trkpt lat="48.26804" lon="2.61437">
        <ele>457</ele>
        <time>2022-02-06T08:00:22Z</time>
      </trkpt>
      <trkpt lat="48.268" lon="2.61415">
        <ele>454.4</ele>
        <time>2022-02-06T08:00:26Z</time>
      </trkpt>
      <trkpt lat="48.26798" lon="2.61392">
        <ele>455.6</ele>
        <time>2022-02-06T08:00:30Z</time>
      </trkpt>
      <trkpt lat="48.26797" lon="2.61373">
        <ele>457.2</ele>
        <time>2022-02-06T08:00:34Z</time>
      </trkpt>
      <trkpt lat="48.26797" lon="2.61362">
        <ele>458.2</ele>
        <time>2022-02-06T08:00:38Z</time>
      </trkpt>
      <trkpt lat="48.26794" lon="2.61346">
        <ele>459</ele>
        <time>2022-02-06T08:00:42Z</time>
      </trkpt>
      <trkpt lat="48.26792" lon="2.61329">
        <ele>457.8</ele>
        <time>2022-02-06T08:00:46Z</time>
      </trkpt>
      <trkpt lat="48.26793" lon="2.61314">
        <ele>457.4</ele>
        <time>2022-02-06T08:00:50Z</time>
      </trkpt>
      <trkpt lat="48.2679" lon="2.61302">
        <ele>459.2</ele>
        <time>2022-02-06T08:00:54Z</time>
      </trkpt>
      <trkpt lat="48.26793" lon="2.61292">
        <ele>459.8</ele>
        <time>2022-02-06T08:00:58Z</time>
      </trkpt>
      <trkpt lat="48.26794" lon="2.6128">
        <ele>461.8</ele>
        <time>2022-02-06T08:01:02Z</time>
      </trkpt>
      <trkpt lat="48.26796" lon="2.61273">
        <ele>462.4</ele>
        <time>2022-02-06T08:01:06Z</time>
      </trkpt>
      <trkpt lat="48.26799" lon="2.61262">
        <ele>463.8</ele>
        <time>2022-02-06T08:01:10Z</time>
      </trkpt>
      <trkpt lat="48.26801" lon="2.61251">
        <ele>465.4</ele>
        <time>2022-02-06T08:01:14Z</time>
      </trkpt>
      <trkpt lat="48.26807" lon="2.61245">
        <ele>466.6</ele>
        <time>2022-02-06T08:01:18Z</time>
      </trkpt>
      <trkpt lat="48.26813" lon="2.61237">
        <ele>466.8</ele>
        <time>2022-02-06T08:01:22Z</time>
      </trkpt>
      <trkpt lat="48.26815" lon="2.61224">
        <ele>466</ele>
        <time>2022-02-06T08:01:26Z</time>
      </trkpt>
      <trkpt lat="48.26821" lon="2.6121">
        <ele>467.2</ele>
        <time>2022-02-06T08:01:30Z</time>
      </trkpt>
      <trkpt lat="48.26828" lon="2.61197">
        <ele>466.6</ele>
        <time>2022-02-06T08:01:34Z</time>
      </trkpt>
      <trkpt lat="48.26832" lon="2.61185">
        <ele>466.6</ele>
        <time>2022-02-06T08:01:38Z</time>
      </trkpt>
      <trkpt lat="48.26844" lon="2.61188">
        <ele>465.2</ele>
        <time>2022-02-06T08:02:12Z</time>
      </trkpt>
      <trkpt lat="48.26848" lon="2.61178">
        <ele>461</ele>
        <time>2022-02-06T08:02:16Z</time>
      </trkpt>
      <trkpt lat="48.26855" lon="2.61177">
        <ele>458.2</ele>
        <time>2022-02-06T08:02:20Z</time>
      </trkpt>
      <trkpt lat="48.26856" lon="2.61162">
        <ele>452</ele>
        <time>2022-02-06T08:02:24Z</time>
      </trkpt>
      <trkpt lat="48.26854" lon="2.61149">
        <ele>450.8</ele>
        <time>2022-02-06T08:02:28Z</time>
      </trkpt>
      <trkpt lat="48.26857" lon="2.61153">
        <ele>448.6</ele>
        <time>2022-02-06T08:02:32Z</time>
      </trkpt>
      <trkpt lat="48.26861" lon="2.61164">
        <ele>440.2</ele>
        <time>2022-02-06T08:02:36Z</time>
      </trkpt>
      <trkpt lat="48.26866" lon="2.61181">
        <ele>436.4</ele>
        <time>2022-02-06T08:02:40Z</time>
      </trkpt>
      <trkpt lat="48.26866" lon="2.61198">
        <ele>434.2</ele>
        <time>2022-02-06T08:02:44Z</time>
      </trkpt>
      <trkpt lat="48.26865" lon="2.61217">
        <ele>433.6</ele>
        <time>2022-02-06T08:02:48Z</time>
      </trkpt>
      <trkpt lat="48.26863" lon="2.61233">
        <ele>433.8</ele>
        <time>2022-02-06T08:02:52Z</time>
      </trkpt>
      <trkpt lat="48.26856" lon="2.61247">
        <ele>434</ele>
        <time>2022-02-06T08:02:56Z</time>
      </trkpt>
      <trkpt lat="48.26847" lon="2.61259">
        <ele>435.2</ele>
        <time>2022-02-06T08:03:00Z</time>
      </trkpt>
      <trkpt lat="48.26843" lon="2.61271">
        <ele>436</ele>
        <time>2022-02-06T08:03:04Z</time>
      </trkpt>
      <trkpt lat="48.2684" lon="2.61276">
        <ele>437.8</ele>
        <time>2022-02-06T08:03:08Z</time>
      </trkpt>
      <trkpt lat="48.26836" lon="2.61289">
        <ele>436.8</ele>
        <time>2022-02-06T08:03:12Z</time>
      </trkpt>
      <trkpt lat="48.26838" lon="2.61302">
        <ele>436.4</ele>
        <time>2022-02-06T08:03:16Z</time>
      </trkpt>
      <trkpt lat="48.26841" lon="2.61326">
        <ele>431.4</ele>
        <time>2022-02-06T08:03:20Z</time>
      </trkpt>
      <trkpt lat="48.26839" lon="2.61356">
        <ele>435.6</ele>
        <time>2022-02-06T08:03:38Z</time>
      </trkpt>
      <trkpt lat="48.2684" lon="2.61366">
        <ele>436.2</ele>
        <time>2022-02-06T08:03:42Z</time>
      </trkpt>
      <trkpt lat="48.26845" lon="2.61376">
        <ele>437.6</ele>
        <time>2022-02-06T08:03:46Z</time>
      </trkpt>
      <trkpt lat="48.26849" lon="2.61387">
        <ele>437.4</ele>
        <time>2022-02-06T08:03:50Z</time>
      </trkpt>
      <trkpt lat="48.26853" lon="2.61398">
        <ele>438.8</ele>
        <time>2022-02-06T08:03:54Z</time>
      </trkpt>
      <trkpt lat="48.26855" lon="2.61409">
        <ele>439.6</ele>
        <time>2022-02-06T08:03:58Z</time>
      </trkpt>
      <trkpt lat="48.2686" lon="2.61419">
        <ele>439.2</ele>
        <time>2022-02-06T08:04:02Z</time>
      </trkpt>
      <trkpt lat="48.26866" lon="2.61425">
        <ele>438.8</ele>
        <time>2022-02-06T08:04:06Z</time>
      </trkpt>
      <trkpt lat="48.26876" lon="2.61441">
        <ele>434.2</ele>
        <time>2022-02-06T08:04:10Z</time>
      </trkpt>
      <trkpt lat="48.26886" lon="2.61458">
        <ele>435</ele>
        <time>2022-02-06T08:04:14Z</time>
      </trkpt>
      <trkpt lat="48.2689" lon="2.61465">
        <ele>435.2</ele>
        <time>2022-02-06T08:04:18Z</time>
      </trkpt>
      <trkpt lat="48.26895" lon="2.61476">
        <ele>434.6</ele>
        <time>2022-02-06T08:04:22Z</time>
      </trkpt>
      <trkpt lat="48.26902" lon="2.61491">
        <ele>435</ele>
        <time>2022-02-06T08:04:26Z</time>
      </trkpt>
      <trkpt lat="48.2691" lon="2.61503">
        <ele>434</ele>
        <time>2022-02-06T08:04:30Z</time>
      </trkpt>
      <trkpt lat="48.26918" lon="2.61518">
        <ele>434.4</ele>
        <time>2022-02-06T08:04:34Z</time>
      </trkpt>
      <trkpt lat="48.26923" lon="2.6153">
        <ele>435.4</ele>
        <time>2022-02-06T08:04:38Z</time>
      </trkpt>
      <trkpt lat="48.26927" lon="2.6154">
        <ele>435.6</ele>
        <time>2022-02-06T08:04:42Z</time>
      </trkpt>
      <trkpt lat="48.2692" lon="2.61558">
        <ele>436</ele>
        <time>2022-02-06T08:08:14Z</time>
      </trkpt>
      <trkpt lat="48.26912" lon="2.61562">
        <ele>436.4</ele>
        <time>2022-02-06T08:08:18Z</time>
      </trkpt>
      <trkpt lat="48.26903" lon="2.61567">
        <ele>437.4</ele>
        <time>2022-02-06T08:08:22Z</time>
      </trkpt>
      <trkpt lat="48.26896" lon="2.61571">
        <ele>438.4</ele>
        <time>2022-02-06T08:08:26Z</time>
      </trkpt>
      <trkpt lat="48.2689" lon="2.61575">
        <ele>439.4</ele>
        <time>2022-02-06T08:08:30Z</time>
      </trkpt>
      <trkpt lat="48.26885" lon="2.6158">
        <ele>441.2</ele>
        <time>2022-02-06T08:08:34Z</time>
      </trkpt>
      <trkpt lat="48.26883" lon="2.61588">
        <ele>440.8</ele>
        <time>2022-02-06T08:08:38Z</time>
      </trkpt>
      <trkpt lat="48.26881" lon="2.616">
        <ele>441.8</ele>
        <time>2022-02-06T08:08:42Z</time>
      </trkpt>
      <trkpt lat="48.2688" lon="2.61611">
        <ele>443</ele>
        <time>2022-02-06T08:08:46Z</time>
      </trkpt>
      <trkpt lat="48.26881" lon="2.6162">
        <ele>443.2</ele>
        <time>2022-02-06T08:08:50Z</time>
      </trkpt>
      <trkpt lat="48.26884" lon="2.6163">
        <ele>444.8</ele>
        <time>2022-02-06T08:08:54Z</time>
      </trkpt>
      <trkpt lat="48.26883" lon="2.61641">
        <ele>444.4</ele>
        <time>2022-02-06T08:08:58Z</time>
      </trkpt>
      <trkpt lat="48.26884" lon="2.61653">
        <ele>445.2</ele>
        <time>2022-02-06T08:09:02Z</time>
      </trkpt>
      <trkpt lat="48.26888" lon="2.61662">
        <ele>443.4</ele>
        <time>2022-02-06T08:09:06Z</time>
      </trkpt>
      <trkpt lat="48.2689" lon="2.61673">
        <ele>445.6</ele>
        <time>2022-02-06T08:09:10Z</time>
      </trkpt>
      <trkpt lat="48.2689" lon="2.61684">
        <ele>446.2</ele>
        <time>2022-02-06T08:09:14Z</time>
      </trkpt>
      <trkpt lat="48.26895" lon="2.61694">
        <ele>445</ele>
        <time>2022-02-06T08:09:18Z</time>
      </trkpt>
      <trkpt lat="48.269" lon="2.61705">
        <ele>444</ele>
        <time>2022-02-06T08:09:22Z</time>
      </trkpt>
      <trkpt lat="48.26906" lon="2.61717">
        <ele>444.4</ele>
        <time>2022-02-06T08:09:26Z</time>
      </trkpt>
      <trkpt lat="48.26913" lon="2.61731">
        <ele>444</ele>
        <time>2022-02-06T08:09:30Z</time>
      </trkpt>
      <trkpt lat="48.2692" lon="2.61747">
        <ele>444.6</ele>
        <time>2022-02-06T08:09:34Z</time>
      </trkpt>
      <trkpt lat="48.26918" lon="2.61761">
        <ele>445</ele>
        <time>2022-02-06T08:09:38Z</time>
      </trkpt>
      <trkpt lat="48.26914" lon="2.6177">
        <ele>446.6</ele>
        <time>2022-02-06T08:09:42Z</time>
      </trkpt>
      <trkpt lat="48.26911" lon="2.61782">
        <ele>447.4</ele>
        <time>2022-02-06T08:09:46Z</time>
      </trkpt>
      <trkpt lat="48.26909" lon="2.61794">
        <ele>448.6</ele>
        <time>2022-02-06T08:09:50Z</time>
      </trkpt>
      <trkpt lat="48.26906" lon="2.61802">
        <ele>449.2</ele>
        <time>2022-02-06T08:09:54Z</time>
      </trkpt>
      <trkpt lat="48.26906" lon="2.6181">
        <ele>449.6</ele>
        <time>2022-02-06T08:09:58Z</time>
      </trkpt>
      <trkpt lat="48.26912" lon="2.61809">
        <ele>450</ele>
        <time>2022-02-06T08:10:02Z</time>
      </trkpt>
      <trkpt lat="48.26916" lon="2.61812">
        <ele>450.2</ele>
        <time>2022-02-06T08:10:06Z</time>
      </trkpt>
      <trkpt lat="48.26915" lon="2.61822">
        <ele>451.6</ele>
        <time>2022-02-06T08:10:10Z</time>
      </trkpt>
      <trkpt lat="48.26912" lon="2.61827">
        <ele>452.4</ele>
        <time>2022-02-06T08:10:14Z</time>
      </trkpt>
      <trkpt lat="48.26912" lon="2.61839">
        <ele>452</ele>
        <time>2022-02-06T08:10:18Z</time>
      </trkpt>
      <trkpt lat="48.26911" lon="2.61855">
        <ele>451.8</ele>
        <time>2022-02-06T08:10:22Z</time>
      </trkpt>
      <trkpt lat="48.26907" lon="2.6187">
        <ele>450.6</ele>
        <time>2022-02-06T08:10:26Z</time>
      </trkpt>
      <trkpt lat="48.26902" lon="2.61878">
        <ele>452.2</ele>
        <time>2022-02-06T08:10:30Z</time>
      </trkpt>
      <trkpt lat="48.26903" lon="2.61885">
        <ele>453.6</ele>
        <time>2022-02-06T08:10:34Z</time>
      </trkpt>
      <trkpt lat="48.26907" lon="2.6189">
        <ele>454</ele>
        <time>2022-02-06T08:10:38Z</time>
      </trkpt>
      <trkpt lat="48.26918" lon="2.6189">
        <ele>454.6</ele>
        <time>2022-02-06T08:10:42Z</time>
      </trkpt>
      <trkpt lat="48.26928" lon="2.61883">
        <ele>454.6</ele>
        <time>2022-02-06T08:10:46Z</time>
      </trkpt>
      <trkpt lat="48.26936" lon="2.61881">
        <ele>454.4</ele>
        <time>2022-02-06T08:10:50Z</time>
      </trkpt>
      <trkpt lat="48.26948" lon="2.61879">
        <ele>455.4</ele>
        <time>2022-02-06T08:10:54Z</time>
      </trkpt>
      <trkpt lat="48.26958" lon="2.61875">
        <ele>454.4</ele>
        <time>2022-02-06T08:10:58Z</time>
      </trkpt>
      <trkpt lat="48.26972" lon="2.61867">
        <ele>452.4</ele>
        <time>2022-02-06T08:11:02Z</time>
      </trkpt>
      <trkpt lat="48.26985" lon="2.61862">
        <ele>453.4</ele>
        <time>2022-02-06T08:11:06Z</time>
      </trkpt>
      <trkpt lat="48.26996" lon="2.61859">
        <ele>453.2</ele>
        <time>2022-02-06T08:11:10Z</time>
      </trkpt>
      <trkpt lat="48.27002" lon="2.61874">
        <ele>453.8</ele>
        <time>2022-02-06T08:11:14Z</time>
      </trkpt>
      <trkpt lat="48.27009" lon="2.61886">
        <ele>454.8</ele>
        <time>2022-02-06T08:11:18Z</time>
      </trkpt>
      <trkpt lat="48.27016" lon="2.619">
        <ele>454.4</ele>
        <time>2022-02-06T08:11:22Z</time>
      </trkpt>
      <trkpt lat="48.27016" lon="2.61917">
        <ele>454.6</ele>
        <time>2022-02-06T08:11:26Z</time>
      </trkpt>
      <trkpt lat="48.27017" lon="2.61929">
        <ele>452.4</ele>
        <time>2022-02-06T08:11:30Z</time>
      </trkpt>
      <trkpt lat="48.2702" lon="2.61937">
        <ele>449.4</ele>
        <time>2022-02-06T08:11:34Z</time>
      </trkpt>
      <trkpt lat="48.27028" lon="2.61948">
        <ele>450.4</ele>
        <time>2022-02-06T08:11:38Z</time>
      </trkpt>
      <trkpt lat="48.27029" lon="2.61959">
        <ele>450.6</ele>
        <time>2022-02-06T08:11:42Z</time>
      </trkpt>
      <trkpt lat="48.2703" lon="2.61973">
        <ele>450</ele>
        <time>2022-02-06T08:11:46Z</time>
      </trkpt>
      <trkpt lat="48.27025" lon="2.61972">
        <ele>449.8</ele>
        <time>2022-02-06T08:11:50Z</time>
      </trkpt>
      <trkpt lat="48.2702" lon="2.61955">
        <ele>449.6</ele>
        <time>2022-02-06T08:11:54Z</time>
      </trkpt>
      <trkpt lat="48.27011" lon="2.61949">
        <ele>449.2</ele>
        <time>2022-02-06T08:11:58Z</time>
      </trkpt>
      <trkpt lat="48.27007" lon="2.61939">
        <ele>450.8</ele>
        <time>2022-02-06T08:12:02Z</time>
      </trkpt>
      <trkpt lat="48.27001" lon="2.61936">
        <ele>452</ele>
        <time>2022-02-06T08:12:06Z</time>
      </trkpt>
      <trkpt lat="48.26997" lon="2.61933">
        <ele>452.6</ele>
        <time>2022-02-06T08:12:10Z</time>
      </trkpt>
      <trkpt lat="48.26991" lon="2.6193">
        <ele>453.8</ele>
        <time>2022-02-06T08:12:14Z</time>
      </trkpt>
      <trkpt lat="48.26982" lon="2.61927">
        <ele>454</ele>
        <time>2022-02-06T08:12:18Z</time>
      </trkpt>
      <trkpt lat="48.26971" lon="2.61924">
        <ele>454</ele>
        <time>2022-02-06T08:12:22Z</time>
      </trkpt>
      <trkpt lat="48.26962" lon="2.61932">
        <ele>452.2</ele>
        <time>2022-02-06T08:12:26Z</time>
      </trkpt>
      <trkpt lat="48.2696" lon="2.61948">
        <ele>451</ele>
        <time>2022-02-06T08:12:30Z</time>
      </trkpt>
      <trkpt lat="48.26949" lon="2.61947">
        <ele>450.4</ele>
        <time>2022-02-06T08:12:34Z</time>
      </trkpt>
      <trkpt lat="48.26944" lon="2.61955">
        <ele>450.6</ele>
        <time>2022-02-06T08:12:38Z</time>
      </trkpt>
      <trkpt lat="48.2695" lon="2.61965">
        <ele>450.2</ele>
        <time>2022-02-06T08:12:42Z</time>
      </trkpt>
      <trkpt lat="48.26953" lon="2.61983">
        <ele>450.4</ele>
        <time>2022-02-06T08:12:46Z</time>
      </trkpt>
      <trkpt lat="48.26957" lon="2.61997">
        <ele>450.2</ele>
        <time>2022-02-06T08:12:50Z</time>
      </trkpt>
      <trkpt lat="48.2696" lon="2.62013">
        <ele>449.4</ele>
        <time>2022-02-06T08:12:54Z</time>
      </trkpt>
      <trkpt lat="48.26964" lon="2.6203">
        <ele>449.2</ele>
        <time>2022-02-06T08:12:58Z</time>
      </trkpt>
      <trkpt lat="48.26961" lon="2.62053">
        <ele>450.2</ele>
        <time>2022-02-06T08:13:02Z</time>
      </trkpt>
      <trkpt lat="48.26961" lon="2.62073">
        <ele>451.4</ele>
        <time>2022-02-06T08:13:06Z</time>
      </trkpt>
      <trkpt lat="48.26961" lon="2.62098">
        <ele>447.2</ele>
        <time>2022-02-06T08:13:10Z</time>
      </trkpt>
      <trkpt lat="48.26969" lon="2.62112">
        <ele>450</ele>
        <time>2022-02-06T08:13:14Z</time>
      </trkpt>
      <trkpt lat="48.26974" lon="2.62119">
        <ele>450.8</ele>
        <time>2022-02-06T08:13:18Z</time>
      </trkpt>
      <trkpt lat="48.26974" lon="2.62114">
        <ele>450.4</ele>
        <time>2022-02-06T08:13:22Z</time>
      </trkpt>
      <trkpt lat="48.2698" lon="2.62105">
        <ele>450.2</ele>
        <time>2022-02-06T08:13:26Z</time>
      </trkpt>
      <trkpt lat="48.26984" lon="2.62092">
        <ele>450.8</ele>
        <time>2022-02-06T08:13:30Z</time>
      </trkpt>
      <trkpt lat="48.26991" lon="2.62082">
        <ele>450.8</ele>
        <time>2022-02-06T08:13:34Z</time>
      </trkpt>
      <trkpt lat="48.26992" lon="2.62071">
        <ele>450.2</ele>
        <time>2022-02-06T08:13:38Z</time>
      </trkpt>
      <trkpt lat="48.26989" lon="2.6206">
        <ele>450.8</ele>
        <time>2022-02-06T08:13:42Z</time>
      </trkpt>
      <trkpt lat="48.2698" lon="2.62048">
        <ele>450.6</ele>
        <time>2022-02-06T08:13:46Z</time>
      </trkpt>
      <trkpt lat="48.26975" lon="2.62034">
        <ele>450</ele>
        <time>2022-02-06T08:13:50Z</time>
      </trkpt>
      <trkpt lat="48.26971" lon="2.62019">
        <ele>450.2</ele>
        <time>2022-02-06T08:13:54Z</time>
      </trkpt>
      <trkpt lat="48.26967" lon="2.62009">
        <ele>449.4</ele>
        <time>2022-02-06T08:13:58Z</time>
      </trkpt>
      <trkpt lat="48.2697" lon="2.62005">
        <ele>450.2</ele>
        <time>2022-02-06T08:14:02Z</time>
      </trkpt>
      <trkpt lat="48.26978" lon="2.62007">
        <ele>449.6</ele>
        <time>2022-02-06T08:14:06Z</time>
      </trkpt>
      <trkpt lat="48.26987" lon="2.62013">
        <ele>449.8</ele>
        <time>2022-02-06T08:14:10Z</time>
      </trkpt>
      <trkpt lat="48.26997" lon="2.6202">
        <ele>450.4</ele>
        <time>2022-02-06T08:14:14Z</time>
      </trkpt>
      <trkpt lat="48.27" lon="2.62032">
        <ele>451.2</ele>
        <time>2022-02-06T08:14:18Z</time>
      </trkpt>
      <trkpt lat="48.27" lon="2.62048">
        <ele>450.4</ele>
        <time>2022-02-06T08:14:22Z</time>
      </trkpt>
      <trkpt lat="48.27009" lon="2.62066">
        <ele>450.2</ele>
        <time>2022-02-06T08:14:26Z</time>
      </trkpt>
      <trkpt lat="48.27017" lon="2.62075">
        <ele>450.2</ele>
        <time>2022-02-06T08:14:30Z</time>
      </trkpt>
      <trkpt lat="48.27026" lon="2.62069">
        <ele>450.2</ele>
        <time>2022-02-06T08:14:34Z</time>
      </trkpt>
      <trkpt lat="48.27037" lon="2.62061">
        <ele>449.6</ele>
        <time>2022-02-06T08:14:38Z</time>
      </trkpt>
      <trkpt lat="48.2705" lon="2.62066">
        <ele>450</ele>
        <time>2022-02-06T08:14:42Z</time>
      </trkpt>
      <trkpt lat="48.27064" lon="2.62072">
        <ele>450</ele>
        <time>2022-02-06T08:14:46Z</time>
      </trkpt>
      <trkpt lat="48.27072" lon="2.6208">
        <ele>448.6</ele>
        <time>2022-02-06T08:14:50Z</time>
      </trkpt>
      <trkpt lat="48.27081" lon="2.62095">
        <ele>452.4</ele>
        <time>2022-02-06T08:14:54Z</time>
      </trkpt>
      <trkpt lat="48.27083" lon="2.62108">
        <ele>451.6</ele>
        <time>2022-02-06T08:14:58Z</time>
      </trkpt>
      <trkpt lat="48.27084" lon="2.62128">
        <ele>451.4</ele>
        <time>2022-02-06T08:15:02Z</time>
      </trkpt>
      <trkpt lat="48.27088" lon="2.62151">
        <ele>451.4</ele>
        <time>2022-02-06T08:15:06Z</time>
      </trkpt>
      <trkpt lat="48.27089" lon="2.62171">
        <ele>450.2</ele>
        <time>2022-02-06T08:15:10Z</time>
      </trkpt>
      <trkpt lat="48.27087" lon="2.62192">
        <ele>451.4</ele>
        <time>2022-02-06T08:15:14Z</time>
      </trkpt>
      <trkpt lat="48.27085" lon="2.62208">
        <ele>450.6</ele>
        <time>2022-02-06T08:15:18Z</time>
      </trkpt>
      <trkpt lat="48.27078" lon="2.62216">
        <ele>451</ele>
        <time>2022-02-06T08:15:22Z</time>
      </trkpt>
      <trkpt lat="48.27077" lon="2.62224">
        <ele>452.2</ele>
        <time>2022-02-06T08:15:26Z</time>
      </trkpt>
      <trkpt lat="48.27073" lon="2.62227">
        <ele>450.4</ele>
        <time>2022-02-06T08:15:30Z</time>
      </trkpt>
      <trkpt lat="48.27069" lon="2.62235">
        <ele>450.6</ele>
        <time>2022-02-06T08:15:34Z</time>
      </trkpt>
      <trkpt lat="48.27062" lon="2.62238">
        <ele>450.8</ele>
        <time>2022-02-06T08:15:38Z</time>
      </trkpt>
      <trkpt lat="48.27061" lon="2.62256">
        <ele>451.2</ele>
        <time>2022-02-06T08:15:42Z</time>
      </trkpt>
      <trkpt lat="48.27051" lon="2.62264">
        <ele>450.8</ele>
        <time>2022-02-06T08:15:46Z</time>
      </trkpt>
      <trkpt lat="48.27043" lon="2.62276">
        <ele>451.6</ele>
        <time>2022-02-06T08:15:50Z</time>
      </trkpt>
      <trkpt lat="48.2704" lon="2.62292">
        <ele>453</ele>
        <time>2022-02-06T08:15:54Z</time>
      </trkpt>
      <trkpt lat="48.27035" lon="2.62293">
        <ele>450</ele>
        <time>2022-02-06T08:15:58Z</time>
      </trkpt>
      <trkpt lat="48.27031" lon="2.62284">
        <ele>451.4</ele>
        <time>2022-02-06T08:16:02Z</time>
      </trkpt>
      <trkpt lat="48.27033" lon="2.62273">
        <ele>451</ele>
        <time>2022-02-06T08:16:06Z</time>
      </trkpt>
      <trkpt lat="48.27036" lon="2.62259">
        <ele>451.6</ele>
        <time>2022-02-06T08:16:10Z</time>
      </trkpt>
      <trkpt lat="48.27034" lon="2.62241">
        <ele>451.8</ele>
        <time>2022-02-06T08:16:14Z</time>
      </trkpt>
      <trkpt lat="48.27033" lon="2.62224">
        <ele>451.6</ele>
        <time>2022-02-06T08:16:18Z</time>
      </trkpt>
      <trkpt lat="48.27026" lon="2.62212">
        <ele>452</ele>
        <time>2022-02-06T08:16:22Z</time>
      </trkpt>
      <trkpt lat="48.27022" lon="2.62202">
        <ele>452.4</ele>
        <time>2022-02-06T08:16:26Z</time>
      </trkpt>
      <trkpt lat="48.27025" lon="2.6219">
        <ele>451.2</ele>
        <time>2022-02-06T08:16:30Z</time>
      </trkpt>
      <trkpt lat="48.27025" lon="2.6219">
        <ele>451.4</ele>
        <time>2022-02-06T08:16:34Z</time>
      </trkpt>
      <trkpt lat="48.27026" lon="2.62192">
        <ele>450.8</ele>
        <time>2022-02-06T08:16:38Z</time>
      </trkpt>
      <trkpt lat="48.27031" lon="2.62191">
        <ele>450.2</ele>
        <time>2022-02-06T08:16:42Z</time>
      </trkpt>
      <trkpt lat="48.27038" lon="2.62186">
        <ele>451</ele>
        <time>2022-02-06T08:16:46Z</time>
      </trkpt>
      <trkpt lat="48.27042" lon="2.62187">
        <ele>449.8</ele>
        <time>2022-02-06T08:16:50Z</time>
      </trkpt>
      <trkpt lat="48.27049" lon="2.62193">
        <ele>450.2</ele>
        <time>2022-02-06T08:16:54Z</time>
      </trkpt>
      <trkpt lat="48.27054" lon="2.62198">
        <ele>451.6</ele>
        <time>2022-02-06T08:16:58Z</time>
      </trkpt>
      <trkpt lat="48.2706" lon="2.62193">
        <ele>449.6</ele>
        <time>2022-02-06T08:17:02Z</time>
      </trkpt>
      <trkpt lat="48.27056" lon="2.62178">
        <ele>450.2</ele>
        <time>2022-02-06T08:17:06Z</time>
      </trkpt>
      <trkpt lat="48.27048" lon="2.62165">
        <ele>450.2</ele>
        <time>2022-02-06T08:17:10Z</time>
      </trkpt>
      <trkpt lat="48.27041" lon="2.62147">
        <ele>451</ele>
        <time>2022-02-06T08:17:14Z</time>
      </trkpt>
      <trkpt lat="48.27032" lon="2.62131">
        <ele>451.8</ele>
        <time>2022-02-06T08:17:18Z</time>
      </trkpt>
      <trkpt lat="48.27027" lon="2.62131">
        <ele>451.6</ele>
        <time>2022-02-06T08:17:22Z</time>
      </trkpt>
      <trkpt lat="48.27017" lon="2.62135">
        <ele>452</ele>
        <time>2022-02-06T08:17:26Z</time>
      </trkpt>
      <trkpt lat="48.27009" lon="2.62143">
        <ele>451.4</ele>
        <time>2022-02-06T08:17:30Z</time>
      </trkpt>
      <trkpt lat="48.27005" lon="2.62165">
        <ele>451.4</ele>
        <time>2022-02-06T08:17:34Z</time>
      </trkpt>
      <trkpt lat="48.26998" lon="2.62183">
        <ele>451.2</ele>
        <time>2022-02-06T08:17:38Z</time>
      </trkpt>
      <trkpt lat="48.26992" lon="2.62193">
        <ele>451.6</ele>
        <time>2022-02-06T08:17:42Z</time>
      </trkpt>
      <trkpt lat="48.26994" lon="2.62207">
        <ele>451.4</ele>
        <time>2022-02-06T08:17:46Z</time>
      </trkpt>
      <trkpt lat="48.26999" lon="2.62224">
        <ele>451.8</ele>
        <time>2022-02-06T08:17:50Z</time>
      </trkpt>
      <trkpt lat="48.26999" lon="2.6224">
        <ele>452.8</ele>
        <time>2022-02-06T08:17:54Z</time>
      </trkpt>
      <trkpt lat="48.27002" lon="2.62266">
        <ele>452.6</ele>
        <time>2022-02-06T08:17:58Z</time>
      </trkpt>
      <trkpt lat="48.27004" lon="2.62284">
        <ele>453.2</ele>
        <time>2022-02-06T08:18:02Z</time>
      </trkpt>
      <trkpt lat="48.27002" lon="2.62301">
        <ele>452</ele>
        <time>2022-02-06T08:18:06Z</time>
      </trkpt>
      <trkpt lat="48.26992" lon="2.62317">
        <ele>451.8</ele>
        <time>2022-02-06T08:18:10Z</time>
      </trkpt>
      <trkpt lat="48.26984" lon="2.62337">
        <ele>453.2</ele>
        <time>2022-02-06T08:18:14Z</time>
      </trkpt>
      <trkpt lat="48.26985" lon="2.62355">
        <ele>452</ele>
        <time>2022-02-06T08:18:18Z</time>
      </trkpt>
      <trkpt lat="48.26983" lon="2.62372">
        <ele>452.6</ele>
        <time>2022-02-06T08:18:22Z</time>
      </trkpt>
      <trkpt lat="48.26978" lon="2.62394">
        <ele>451.8</ele>
        <time>2022-02-06T08:18:26Z</time>
      </trkpt>
      <trkpt lat="48.26967" lon="2.62403">
        <ele>451.8</ele>
        <time>2022-02-06T08:18:30Z</time>
      </trkpt>
      <trkpt lat="48.26972" lon="2.62418">
        <ele>454</ele>
        <time>2022-02-06T08:18:34Z</time>
      </trkpt>
      <trkpt lat="48.26978" lon="2.62428">
        <ele>454</ele>
        <time>2022-02-06T08:18:38Z</time>
      </trkpt>
      <trkpt lat="48.26982" lon="2.62446">
        <ele>456.4</ele>
        <time>2022-02-06T08:18:42Z</time>
      </trkpt>
      <trkpt lat="48.26986" lon="2.62454">
        <ele>450.6</ele>
        <time>2022-02-06T08:18:46Z</time>
      </trkpt>
      <trkpt lat="48.26995" lon="2.62469">
        <ele>451</ele>
        <time>2022-02-06T08:18:50Z</time>
      </trkpt>
      <trkpt lat="48.27003" lon="2.6249">
        <ele>453</ele>
        <time>2022-02-06T08:18:54Z</time>
      </trkpt>
      <trkpt lat="48.27002" lon="2.62505">
        <ele>453.4</ele>
        <time>2022-02-06T08:18:58Z</time>
      </trkpt>
      <trkpt lat="48.27" lon="2.62515">
        <ele>453.4</ele>
        <time>2022-02-06T08:19:02Z</time>
      </trkpt>
      <trkpt lat="48.27003" lon="2.62524">
        <ele>453.4</ele>
        <time>2022-02-06T08:19:06Z</time>
      </trkpt>
      <trkpt lat="48.27011" lon="2.62533">
        <ele>453</ele>
        <time>2022-02-06T08:19:10Z</time>
      </trkpt>
      <trkpt lat="48.27021" lon="2.62534">
        <ele>454.4</ele>
        <time>2022-02-06T08:19:14Z</time>
      </trkpt>
      <trkpt lat="48.27029" lon="2.62532">
        <ele>454</ele>
        <time>2022-02-06T08:19:18Z</time>
      </trkpt>
      <trkpt lat="48.27032" lon="2.62527">
        <ele>453.2</ele>
        <time>2022-02-06T08:19:22Z</time>
      </trkpt>
      <trkpt lat="48.27024" lon="2.62524">
        <ele>452.4</ele>
        <time>2022-02-06T08:19:26Z</time>
      </trkpt>
      <trkpt lat="48.27027" lon="2.62513">
        <ele>453</ele>
        <time>2022-02-06T08:19:30Z</time>
      </trkpt>
      <trkpt lat="48.27033" lon="2.6251">
        <ele>453</ele>
        <time>2022-02-06T08:19:34Z</time>
      </trkpt>
      <trkpt lat="48.27038" lon="2.62504">
        <ele>453.6</ele>
        <time>2022-02-06T08:19:38Z</time>
      </trkpt>
      <trkpt lat="48.27032" lon="2.62499">
        <ele>453.4</ele>
        <time>2022-02-06T08:19:42Z</time>
      </trkpt>
      <trkpt lat="48.27029" lon="2.62488">
        <ele>453</ele>
        <time>2022-02-06T08:19:46Z</time>
      </trkpt>
      <trkpt lat="48.27026" lon="2.62478">
        <ele>452.8</ele>
        <time>2022-02-06T08:19:50Z</time>
      </trkpt>
      <trkpt lat="48.2702" lon="2.62463">
        <ele>452.4</ele>
        <time>2022-02-06T08:19:54Z</time>
      </trkpt>
      <trkpt lat="48.27011" lon="2.62445">
        <ele>453.6</ele>
        <time>2022-02-06T08:19:58Z</time>
      </trkpt>
      <trkpt lat="48.27006" lon="2.62432">
        <ele>453.8</ele>
        <time>2022-02-06T08:20:02Z</time>
      </trkpt>
      <trkpt lat="48.2701" lon="2.62418">
        <ele>454.4</ele>
        <time>2022-02-06T08:20:06Z</time>
      </trkpt>
      <trkpt lat="48.27011" lon="2.62405">
        <ele>453.4</ele>
        <time>2022-02-06T08:20:10Z</time>
      </trkpt>
      <trkpt lat="48.27016" lon="2.62404">
        <ele>453.2</ele>
        <time>2022-02-06T08:20:14Z</time>
      </trkpt>
      <trkpt lat="48.27026" lon="2.62392">
        <ele>453.2</ele>
        <time>2022-02-06T08:20:18Z</time>
      </trkpt>
      <trkpt lat="48.2703" lon="2.62385">
        <ele>453.4</ele>
        <time>2022-02-06T08:20:22Z</time>
      </trkpt>
      <trkpt lat="48.27036" lon="2.62394">
        <ele>452.6</ele>
        <time>2022-02-06T08:20:26Z</time>
      </trkpt>
      <trkpt lat="48.27041" lon="2.624">
        <ele>452.8</ele>
        <time>2022-02-06T08:20:30Z</time>
      </trkpt>
      <trkpt lat="48.27044" lon="2.62415">
        <ele>453.8</ele>
        <time>2022-02-06T08:20:34Z</time>
      </trkpt>
      <trkpt lat="48.27048" lon="2.62429">
        <ele>453.2</ele>
        <time>2022-02-06T08:20:38Z</time>
      </trkpt>
      <trkpt lat="48.27048" lon="2.62438">
        <ele>452</ele>
        <time>2022-02-06T08:20:42Z</time>
      </trkpt>
      <trkpt lat="48.27042" lon="2.62453">
        <ele>453.4</ele>
        <time>2022-02-06T08:20:46Z</time>
      </trkpt>
      <trkpt lat="48.27042" lon="2.62476">
        <ele>453</ele>
        <time>2022-02-06T08:20:50Z</time>
      </trkpt>
      <trkpt lat="48.27043" lon="2.6249">
        <ele>454.2</ele>
        <time>2022-02-06T08:20:54Z</time>
      </trkpt>
      <trkpt lat="48.27054" lon="2.62495">
        <ele>452.6</ele>
        <time>2022-02-06T08:20:58Z</time>
      </trkpt>
      <trkpt lat="48.27058" lon="2.62512">
        <ele>453.8</ele>
        <time>2022-02-06T08:21:02Z</time>
      </trkpt>
      <trkpt lat="48.27056" lon="2.6253">
        <ele>454</ele>
        <time>2022-02-06T08:21:06Z</time>
      </trkpt>
      <trkpt lat="48.27058" lon="2.62542">
        <ele>454</ele>
        <time>2022-02-06T08:21:10Z</time>
      </trkpt>
      <trkpt lat="48.27052" lon="2.62557">
        <ele>452.6</ele>
        <time>2022-02-06T08:21:14Z</time>
      </trkpt>
      <trkpt lat="48.27045" lon="2.62568">
        <ele>452.6</ele>
        <time>2022-02-06T08:21:18Z</time>
      </trkpt>
      <trkpt lat="48.27033" lon="2.62571">
        <ele>453.2</ele>
        <time>2022-02-06T08:21:22Z</time>
      </trkpt>
      <trkpt lat="48.27021" lon="2.62582">
        <ele>454</ele>
        <time>2022-02-06T08:21:26Z</time>
      </trkpt>
      <trkpt lat="48.27008" lon="2.62583">
        <ele>453</ele>
        <time>2022-02-06T08:21:30Z</time>
      </trkpt>
      <trkpt lat="48.27" lon="2.62607">
        <ele>452.8</ele>
        <time>2022-02-06T08:21:34Z</time>
      </trkpt>
      <trkpt lat="48.26992" lon="2.62623">
        <ele>452.8</ele>
        <time>2022-02-06T08:21:38Z</time>
      </trkpt>
      <trkpt lat="48.26997" lon="2.62634">
        <ele>453.8</ele>
        <time>2022-02-06T08:21:42Z</time>
      </trkpt>
      <trkpt lat="48.27007" lon="2.62649">
        <ele>454</ele>
        <time>2022-02-06T08:21:46Z</time>
      </trkpt>
      <trkpt lat="48.27019" lon="2.62656">
        <ele>454.4</ele>
        <time>2022-02-06T08:21:50Z</time>
      </trkpt>
      <trkpt lat="48.2703" lon="2.62663">
        <ele>454.4</ele>
        <time>2022-02-06T08:21:54Z</time>
      </trkpt>
      <trkpt lat="48.27044" lon="2.6266">
        <ele>454</ele>
        <time>2022-02-06T08:21:58Z</time>
      </trkpt>
      <trkpt lat="48.27055" lon="2.62655">
        <ele>454.8</ele>
        <time>2022-02-06T08:22:02Z</time>
      </trkpt>
      <trkpt lat="48.27066" lon="2.62654">
        <ele>454.4</ele>
        <time>2022-02-06T08:22:06Z</time>
      </trkpt>
      <trkpt lat="48.27077" lon="2.62655">
        <ele>453.2</ele>
        <time>2022-02-06T08:22:10Z</time>
      </trkpt>
      <trkpt lat="48.27094" lon="2.6266">
        <ele>453.2</ele>
        <time>2022-02-06T08:22:14Z</time>
      </trkpt>
      <trkpt lat="48.27111" lon="2.62651">
        <ele>453</ele>
        <time>2022-02-06T08:22:18Z</time>
      </trkpt>
      <trkpt lat="48.27114" lon="2.62628">
        <ele>452</ele>
        <time>2022-02-06T08:22:22Z</time>
      </trkpt>
      <trkpt lat="48.27118" lon="2.62602">
        <ele>451.6</ele>
        <time>2022-02-06T08:22:26Z</time>
      </trkpt>
      <trkpt lat="48.27118" lon="2.62574">
        <ele>452.4</ele>
        <time>2022-02-06T08:22:30Z</time>
      </trkpt>
      <trkpt lat="48.27118" lon="2.62549">
        <ele>452.8</ele>
        <time>2022-02-06T08:22:34Z</time>
      </trkpt>
      <trkpt lat="48.27118" lon="2.62525">
        <ele>451.2</ele>
        <time>2022-02-06T08:22:38Z</time>
      </trkpt>
      <trkpt lat="48.27115" lon="2.62494">
        <ele>450.8</ele>
        <time>2022-02-06T08:22:42Z</time>
      </trkpt>
      <trkpt lat="48.27113" lon="2.62462">
        <ele>451</ele>
        <time>2022-02-06T08:22:46Z</time>
      </trkpt>
      <trkpt lat="48.2711" lon="2.62431">
        <ele>452</ele>
        <time>2022-02-06T08:22:50Z</time>
      </trkpt>
      <trkpt lat="48.27108" lon="2.62402">
        <ele>452.2</ele>
        <time>2022-02-06T08:22:54Z</time>
      </trkpt>
      <trkpt lat="48.27105" lon="2.62376">
        <ele>452.6</ele>
        <time>2022-02-06T08:22:58Z</time>
      </trkpt>
      <trkpt lat="48.27101" lon="2.62355">
        <ele>453.4</ele>
        <time>2022-02-06T08:23:02Z</time>
      </trkpt>
      <trkpt lat="48.27099" lon="2.62333">
        <ele>451.6</ele>
        <time>2022-02-06T08:23:06Z</time>
      </trkpt>
      <trkpt lat="48.27109" lon="2.62323">
        <ele>452.4</ele>
        <time>2022-02-06T08:23:10Z</time>
      </trkpt>
      <trkpt lat="48.27116" lon="2.62317">
        <ele>453</ele>
        <time>2022-02-06T08:23:14Z</time>
      </trkpt>
      <trkpt lat="48.27126" lon="2.62307">
        <ele>451.8</ele>
        <time>2022-02-06T08:23:18Z</time>
      </trkpt>
      <trkpt lat="48.27141" lon="2.62297">
        <ele>451</ele>
        <time>2022-02-06T08:23:22Z</time>
      </trkpt>
      <trkpt lat="48.27152" lon="2.62292">
        <ele>452</ele>
        <time>2022-02-06T08:23:26Z</time>
      </trkpt>
      <trkpt lat="48.27159" lon="2.62288">
        <ele>451</ele>
        <time>2022-02-06T08:23:30Z</time>
      </trkpt>
      <trkpt lat="48.27167" lon="2.62284">
        <ele>450.2</ele>
        <time>2022-02-06T08:23:34Z</time>
      </trkpt>
      <trkpt lat="48.27171" lon="2.62289">
        <ele>446.8</ele>
        <time>2022-02-06T08:23:38Z</time>
      </trkpt>
      <trkpt lat="48.27169" lon="2.62297">
        <ele>444</ele>
        <time>2022-02-06T08:23:42Z</time>
      </trkpt>
      <trkpt lat="48.27171" lon="2.62309">
        <ele>432.8</ele>
        <time>2022-02-06T08:23:46Z</time>
      </trkpt>
      <trkpt lat="48.2718" lon="2.62343">
        <ele>431.4</ele>
        <time>2022-02-06T08:23:50Z</time>
      </trkpt>
      <trkpt lat="48.27188" lon="2.62362">
        <ele>431.8</ele>
        <time>2022-02-06T08:23:54Z</time>
      </trkpt>
      <trkpt lat="48.2719" lon="2.62384">
        <ele>430.4</ele>
        <time>2022-02-06T08:23:58Z</time>
      </trkpt>
      <trkpt lat="48.27185" lon="2.62406">
        <ele>431.2</ele>
        <time>2022-02-06T08:24:02Z</time>
      </trkpt>
      <trkpt lat="48.27184" lon="2.6243">
        <ele>422.8</ele>
        <time>2022-02-06T08:24:06Z</time>
      </trkpt>
      <trkpt lat="48.27188" lon="2.62468">
        <ele>424.4</ele>
        <time>2022-02-06T08:24:10Z</time>
      </trkpt>
      <trkpt lat="48.27189" lon="2.62499">
        <ele>423.2</ele>
        <time>2022-02-06T08:24:14Z</time>
      </trkpt>
      <trkpt lat="48.27187" lon="2.62521">
        <ele>426.2</ele>
        <time>2022-02-06T08:24:18Z</time>
      </trkpt>
      <trkpt lat="48.27178" lon="2.62525">
        <ele>425</ele>
        <time>2022-02-06T08:24:22Z</time>
      </trkpt>
      <trkpt lat="48.2717" lon="2.62544">
        <ele>426</ele>
        <time>2022-02-06T08:24:26Z</time>
      </trkpt>
      <trkpt lat="48.27167" lon="2.62564">
        <ele>426.2</ele>
        <time>2022-02-06T08:24:30Z</time>
      </trkpt>
      <trkpt lat="48.27173" lon="2.6258">
        <ele>425.6</ele>
        <time>2022-02-06T08:24:34Z</time>
      </trkpt>
      <trkpt lat="48.27176" lon="2.62604">
        <ele>425.2</ele>
        <time>2022-02-06T08:24:38Z</time>
      </trkpt>
      <trkpt lat="48.27179" lon="2.62625">
        <ele>425.8</ele>
        <time>2022-02-06T08:24:42Z</time>
      </trkpt>
      <trkpt lat="48.27179" lon="2.62641">
        <ele>425.4</ele>
        <time>2022-02-06T08:24:46Z</time>
      </trkpt>
      <trkpt lat="48.2718" lon="2.62659">
        <ele>425.4</ele>
        <time>2022-02-06T08:24:50Z</time>
      </trkpt>
      <trkpt lat="48.2718" lon="2.62679">
        <ele>425</ele>
        <time>2022-02-06T08:24:54Z</time>
      </trkpt>
      <trkpt lat="48.27177" lon="2.62701">
        <ele>426.6</ele>
        <time>2022-02-06T08:24:58Z</time>
      </trkpt>
      <trkpt lat="48.27174" lon="2.62718">
        <ele>427</ele>
        <time>2022-02-06T08:25:02Z</time>
      </trkpt>
      <trkpt lat="48.27167" lon="2.62734">
        <ele>428.6</ele>
        <time>2022-02-06T08:25:06Z</time>
      </trkpt>
      <trkpt lat="48.27158" lon="2.62747">
        <ele>428.2</ele>
        <time>2022-02-06T08:25:10Z</time>
      </trkpt>
      <trkpt lat="48.27148" lon="2.62751">
        <ele>429.8</ele>
        <time>2022-02-06T08:25:14Z</time>
      </trkpt>
      <trkpt lat="48.27141" lon="2.62753">
        <ele>430</ele>
        <time>2022-02-06T08:25:18Z</time>
      </trkpt>
      <trkpt lat="48.27133" lon="2.62756">
        <ele>430.8</ele>
        <time>2022-02-06T08:25:22Z</time>
      </trkpt>
      <trkpt lat="48.27125" lon="2.62761">
        <ele>431.2</ele>
        <time>2022-02-06T08:25:26Z</time>
      </trkpt>
      <trkpt lat="48.27118" lon="2.6276">
        <ele>431.8</ele>
        <time>2022-02-06T08:25:30Z</time>
      </trkpt>
      <trkpt lat="48.27111" lon="2.62759">
        <ele>433.6</ele>
        <time>2022-02-06T08:25:34Z</time>
      </trkpt>
      <trkpt lat="48.27104" lon="2.62756">
        <ele>433.8</ele>
        <time>2022-02-06T08:25:38Z</time>
      </trkpt>
      <trkpt lat="48.27096" lon="2.62757">
        <ele>434.2</ele>
        <time>2022-02-06T08:25:42Z</time>
      </trkpt>
      <trkpt lat="48.27089" lon="2.62756">
        <ele>435.8</ele>
        <time>2022-02-06T08:25:46Z</time>
      </trkpt>
      <trkpt lat="48.27082" lon="2.62755">
        <ele>436.6</ele>
        <time>2022-02-06T08:25:50Z</time>
      </trkpt>
      <trkpt lat="48.27074" lon="2.62753">
        <ele>437.8</ele>
        <time>2022-02-06T08:25:54Z</time>
      </trkpt>
      <trkpt lat="48.27067" lon="2.6275">
        <ele>439</ele>
        <time>2022-02-06T08:25:58Z</time>
      </trkpt>
      <trkpt lat="48.27062" lon="2.62746">
        <ele>439.2</ele>
        <time>2022-02-06T08:26:02Z</time>
      </trkpt>
      <trkpt lat="48.27056" lon="2.62744">
        <ele>439.4</ele>
        <time>2022-02-06T08:26:06Z</time>
      </trkpt>
      <trkpt lat="48.27054" lon="2.62739">
        <ele>440.8</ele>
        <time>2022-02-06T08:26:10Z</time>
      </trkpt>
      <trkpt lat="48.27057" lon="2.62737">
        <ele>441.8</ele>
        <time>2022-02-06T08:26:14Z</time>
      </trkpt>
      <trkpt lat="48.27062" lon="2.62735">
        <ele>443.2</ele>
        <time>2022-02-06T08:26:18Z</time>
      </trkpt>
      <trkpt lat="48.27067" lon="2.62734">
        <ele>443.8</ele>
        <time>2022-02-06T08:26:22Z</time>
      </trkpt>
      <trkpt lat="48.27072" lon="2.62733">
        <ele>444</ele>
        <time>2022-02-06T08:26:26Z</time>
      </trkpt>
      <trkpt lat="48.27079" lon="2.62732">
        <ele>445.4</ele>
        <time>2022-02-06T08:26:30Z</time>
      </trkpt>
      <trkpt lat="48.27084" lon="2.6273">
        <ele>446.8</ele>
        <time>2022-02-06T08:26:34Z</time>
      </trkpt>
      <trkpt lat="48.27089" lon="2.62727">
        <ele>448</ele>
        <time>2022-02-06T08:26:38Z</time>
      </trkpt>
      <trkpt lat="48.27095" lon="2.62725">
        <ele>447.4</ele>
        <time>2022-02-06T08:26:42Z</time>
      </trkpt>
      <trkpt lat="48.27101" lon="2.62724">
        <ele>449.8</ele>
        <time>2022-02-06T08:26:46Z</time>
      </trkpt>
      <trkpt lat="48.27108" lon="2.62723">
        <ele>451</ele>
        <time>2022-02-06T08:26:50Z</time>
      </trkpt>
      <trkpt lat="48.27114" lon="2.6272">
        <ele>452.4</ele>
        <time>2022-02-06T08:26:54Z</time>
      </trkpt>
      <trkpt lat="48.27121" lon="2.62714">
        <ele>453.4</ele>
        <time>2022-02-06T08:26:58Z</time>
      </trkpt>
      <trkpt lat="48.27122" lon="2.62705">
        <ele>453.2</ele>
        <time>2022-02-06T08:27:02Z</time>
      </trkpt>
      <trkpt lat="48.27121" lon="2.62698">
        <ele>455.4</ele>
        <time>2022-02-06T08:27:06Z</time>
      </trkpt>
      <trkpt lat="48.27116" lon="2.62698">
        <ele>456.2</ele>
        <time>2022-02-06T08:27:10Z</time>
      </trkpt>
      <trkpt lat="48.27111" lon="2.62707">
        <ele>455.8</ele>
        <time>2022-02-06T08:27:14Z</time>
      </trkpt>
      <trkpt lat="48.27103" lon="2.62709">
        <ele>456</ele>
        <time>2022-02-06T08:27:18Z</time>
      </trkpt>
      <trkpt lat="48.27092" lon="2.62704">
        <ele>456.2</ele>
        <time>2022-02-06T08:27:22Z</time>
      </trkpt>
      <trkpt lat="48.27081" lon="2.62702">
        <ele>454.6</ele>
        <time>2022-02-06T08:27:26Z</time>
      </trkpt>
      <trkpt lat="48.2707" lon="2.627">
        <ele>457.2</ele>
        <time>2022-02-06T08:27:30Z</time>
      </trkpt>
      <trkpt lat="48.27061" lon="2.62699">
        <ele>455</ele>
        <time>2022-02-06T08:27:34Z</time>
      </trkpt>
      <trkpt lat="48.27049" lon="2.62696">
        <ele>454.2</ele>
        <time>2022-02-06T08:27:38Z</time>
      </trkpt>
      <trkpt lat="48.27037" lon="2.62689">
        <ele>453.8</ele>
        <time>2022-02-06T08:27:42Z</time>
      </trkpt>
      <trkpt lat="48.27024" lon="2.62693">
        <ele>453</ele>
        <time>2022-02-06T08:27:46Z</time>
      </trkpt>
      <trkpt lat="48.27012" lon="2.62695">
        <ele>453.4</ele>
        <time>2022-02-06T08:27:50Z</time>
      </trkpt>
      <trkpt lat="48.27001" lon="2.62704">
        <ele>455</ele>
        <time>2022-02-06T08:27:54Z</time>
      </trkpt>
      <trkpt lat="48.26994" lon="2.62695">
        <ele>454.6</ele>
        <time>2022-02-06T08:27:58Z</time>
      </trkpt>
      <trkpt lat="48.26986" lon="2.62681">
        <ele>456.2</ele>
        <time>2022-02-06T08:28:02Z</time>
      </trkpt>
      <trkpt lat="48.26979" lon="2.62669">
        <ele>456.2</ele>
        <time>2022-02-06T08:28:06Z</time>
      </trkpt>
      <trkpt lat="48.26972" lon="2.62654">
        <ele>456</ele>
        <time>2022-02-06T08:28:10Z</time>
      </trkpt>
      <trkpt lat="48.26964" lon="2.62642">
        <ele>455</ele>
        <time>2022-02-06T08:28:14Z</time>
      </trkpt>
      <trkpt lat="48.26964" lon="2.62623">
        <ele>456</ele>
        <time>2022-02-06T08:28:18Z</time>
      </trkpt>
      <trkpt lat="48.26968" lon="2.6261">
        <ele>455</ele>
        <time>2022-02-06T08:28:22Z</time>
      </trkpt>
      <trkpt lat="48.26958" lon="2.62604">
        <ele>456.2</ele>
        <time>2022-02-06T08:28:26Z</time>
      </trkpt>
      <trkpt lat="48.26952" lon="2.6259">
        <ele>456.2</ele>
        <time>2022-02-06T08:28:30Z</time>
      </trkpt>
      <trkpt lat="48.26953" lon="2.62578">
        <ele>455.4</ele>
        <time>2022-02-06T08:28:34Z</time>
      </trkpt>
      <trkpt lat="48.26955" lon="2.62562">
        <ele>456.6</ele>
        <time>2022-02-06T08:28:38Z</time>
      </trkpt>
      <trkpt lat="48.26957" lon="2.62552">
        <ele>455.2</ele>
        <time>2022-02-06T08:28:42Z</time>
      </trkpt>
      <trkpt lat="48.26953" lon="2.62533">
        <ele>456.2</ele>
        <time>2022-02-06T08:28:46Z</time>
      </trkpt>
      <trkpt lat="48.26946" lon="2.62515">
        <ele>456.8</ele>
        <time>2022-02-06T08:28:50Z</time>
      </trkpt>
      <trkpt lat="48.26942" lon="2.625">
        <ele>457</ele>
        <time>2022-02-06T08:28:54Z</time>
      </trkpt>
      <trkpt lat="48.26943" lon="2.62483">
        <ele>455.6</ele>
        <time>2022-02-06T08:29:06Z</time>
      </trkpt>
      <trkpt lat="48.26936" lon="2.62463">
        <ele>454.6</ele>
        <time>2022-02-06T08:29:10Z</time>
      </trkpt>
      <trkpt lat="48.26924" lon="2.6246">
        <ele>454</ele>
        <time>2022-02-06T08:29:14Z</time>
      </trkpt>
      <trkpt lat="48.26912" lon="2.62459">
        <ele>454</ele>
        <time>2022-02-06T08:29:18Z</time>
      </trkpt>
      <trkpt lat="48.26902" lon="2.62471">
        <ele>456.4</ele>
        <time>2022-02-06T08:29:22Z</time>
      </trkpt>
      <trkpt lat="48.26905" lon="2.62483">
        <ele>456</ele>
        <time>2022-02-06T08:29:30Z</time>
      </trkpt>
      <trkpt lat="48.26911" lon="2.62487">
        <ele>456.4</ele>
        <time>2022-02-06T08:29:34Z</time>
      </trkpt>
      <trkpt lat="48.26908" lon="2.62493">
        <ele>456.4</ele>
        <time>2022-02-06T08:29:38Z</time>
      </trkpt>
      <trkpt lat="48.26901" lon="2.625">
        <ele>455.4</ele>
        <time>2022-02-06T08:29:42Z</time>
      </trkpt>
      <trkpt lat="48.26899" lon="2.62514">
        <ele>456.8</ele>
        <time>2022-02-06T08:29:46Z</time>
      </trkpt>
      <trkpt lat="48.26902" lon="2.62521">
        <ele>455.6</ele>
        <time>2022-02-06T08:29:50Z</time>
      </trkpt>
      <trkpt lat="48.269" lon="2.62538">
        <ele>454.4</ele>
        <time>2022-02-06T08:29:54Z</time>
      </trkpt>
      <trkpt lat="48.26903" lon="2.62551">
        <ele>454.6</ele>
        <time>2022-02-06T08:29:58Z</time>
      </trkpt>
      <trkpt lat="48.26908" lon="2.62571">
        <ele>452.6</ele>
        <time>2022-02-06T08:30:02Z</time>
      </trkpt>
      <trkpt lat="48.26915" lon="2.62587">
        <ele>450.6</ele>
        <time>2022-02-06T08:30:06Z</time>
      </trkpt>
      <trkpt lat="48.26921" lon="2.62604">
        <ele>450.2</ele>
        <time>2022-02-06T08:30:10Z</time>
      </trkpt>
      <trkpt lat="48.26928" lon="2.62619">
        <ele>446.4</ele>
        <time>2022-02-06T08:30:14Z</time>
      </trkpt>
      <trkpt lat="48.26932" lon="2.62644">
        <ele>445</ele>
        <time>2022-02-06T08:30:18Z</time>
      </trkpt>
      <trkpt lat="48.26944" lon="2.62678">
        <ele>438.8</ele>
        <time>2022-02-06T08:30:22Z</time>
      </trkpt>
      <trkpt lat="48.26955" lon="2.62706">
        <ele>442.2</ele>
        <time>2022-02-06T08:30:26Z</time>
      </trkpt>
      <trkpt lat="48.26966" lon="2.6273">
        <ele>440.6</ele>
        <time>2022-02-06T08:30:30Z</time>
      </trkpt>
      <trkpt lat="48.26976" lon="2.62748">
        <ele>440.4</ele>
        <time>2022-02-06T08:30:34Z</time>
      </trkpt>
      <trkpt lat="48.26994" lon="2.62753">
        <ele>438.2</ele>
        <time>2022-02-06T08:30:38Z</time>
      </trkpt>
      <trkpt lat="48.27011" lon="2.62773">
        <ele>438.6</ele>
        <time>2022-02-06T08:30:42Z</time>
      </trkpt>
      <trkpt lat="48.27035" lon="2.62788">
        <ele>436.4</ele>
        <time>2022-02-06T08:30:46Z</time>
      </trkpt>
      <trkpt lat="48.27056" lon="2.62787">
        <ele>435.6</ele>
        <time>2022-02-06T08:30:50Z</time>
      </trkpt>
      <trkpt lat="48.27067" lon="2.62783">
        <ele>434.6</ele>
        <time>2022-02-06T08:30:54Z</time>
      </trkpt>
      <trkpt lat="48.2708" lon="2.62794">
        <ele>431.6</ele>
        <time>2022-02-06T08:30:58Z</time>
      </trkpt>
      <trkpt lat="48.27082" lon="2.62807">
        <ele>431.8</ele>
        <time>2022-02-06T08:31:02Z</time>
      </trkpt>
      <trkpt lat="48.27076" lon="2.62817">
        <ele>431</ele>
        <time>2022-02-06T08:31:06Z</time>
      </trkpt>
      <trkpt lat="48.27067" lon="2.62826">
        <ele>431.2</ele>
        <time>2022-02-06T08:31:10Z</time>
      </trkpt>
      <trkpt lat="48.27057" lon="2.62835">
        <ele>432.6</ele>
        <time>2022-02-06T08:31:14Z</time>
      </trkpt>
      <trkpt lat="48.27044" lon="2.62838">
        <ele>432</ele>
        <time>2022-02-06T08:31:18Z</time>
      </trkpt>
      <trkpt lat="48.27029" lon="2.62839">
        <ele>431.4</ele>
        <time>2022-02-06T08:31:22Z</time>
      </trkpt>
      <trkpt lat="48.27015" lon="2.62834">
        <ele>432.2</ele>
        <time>2022-02-06T08:31:26Z</time>
      </trkpt>
      <trkpt lat="48.27002" lon="2.62825">
        <ele>433.2</ele>
        <time>2022-02-06T08:31:30Z</time>
      </trkpt>
      <trkpt lat="48.26991" lon="2.62813">
        <ele>433.2</ele>
        <time>2022-02-06T08:31:34Z</time>
      </trkpt>
      <trkpt lat="48.26981" lon="2.62801">
        <ele>434.4</ele>
        <time>2022-02-06T08:31:38Z</time>
      </trkpt>
      <trkpt lat="48.26973" lon="2.62788">
        <ele>435</ele>
        <time>2022-02-06T08:31:42Z</time>
      </trkpt>
      <trkpt lat="48.26969" lon="2.62787">
        <ele>436.2</ele>
        <time>2022-02-06T08:31:46Z</time>
      </trkpt>
      <trkpt lat="48.26976" lon="2.62797">
        <ele>435.2</ele>
        <time>2022-02-06T08:31:50Z</time>
      </trkpt>
      <trkpt lat="48.26988" lon="2.62813">
        <ele>433.2</ele>
        <time>2022-02-06T08:31:54Z</time>
      </trkpt>
      <trkpt lat="48.27005" lon="2.62828">
        <ele>431.8</ele>
        <time>2022-02-06T08:31:58Z</time>
      </trkpt>
      <trkpt lat="48.27021" lon="2.6284">
        <ele>431.8</ele>
        <time>2022-02-06T08:32:02Z</time>
      </trkpt>
      <trkpt lat="48.27021" lon="2.62836">
        <ele>432.4</ele>
        <time>2022-02-06T08:32:06Z</time>
      </trkpt>
      <trkpt lat="48.2701" lon="2.62831">
        <ele>432.4</ele>
        <time>2022-02-06T08:32:10Z</time>
      </trkpt>
      <trkpt lat="48.26997" lon="2.62822">
        <ele>432.6</ele>
        <time>2022-02-06T08:32:14Z</time>
      </trkpt>
      <trkpt lat="48.26986" lon="2.62809">
        <ele>432.6</ele>
        <time>2022-02-06T08:32:18Z</time>
      </trkpt>
      <trkpt lat="48.26976" lon="2.62794">
        <ele>433.4</ele>
        <time>2022-02-06T08:32:22Z</time>
      </trkpt>
      <trkpt lat="48.26968" lon="2.62778">
        <ele>434.6</ele>
        <time>2022-02-06T08:32:26Z</time>
      </trkpt>
      <trkpt lat="48.2696" lon="2.62762">
        <ele>435.6</ele>
        <time>2022-02-06T08:32:30Z</time>
      </trkpt>
      <trkpt lat="48.26953" lon="2.62746">
        <ele>436.8</ele>
        <time>2022-02-06T08:32:34Z</time>
      </trkpt>
      <trkpt lat="48.26945" lon="2.62734">
        <ele>437.8</ele>
        <time>2022-02-06T08:32:38Z</time>
      </trkpt>
      <trkpt lat="48.26939" lon="2.62721">
        <ele>438.8</ele>
        <time>2022-02-06T08:32:42Z</time>
      </trkpt>
      <trkpt lat="48.26932" lon="2.62706">
        <ele>439.8</ele>
        <time>2022-02-06T08:32:46Z</time>
      </trkpt>
      <trkpt lat="48.26924" lon="2.62693">
        <ele>441</ele>
        <time>2022-02-06T08:32:50Z</time>
      </trkpt>
      <trkpt lat="48.26917" lon="2.62679">
        <ele>442.6</ele>
        <time>2022-02-06T08:32:54Z</time>
      </trkpt>
      <trkpt lat="48.2691" lon="2.62667">
        <ele>442.8</ele>
        <time>2022-02-06T08:32:58Z</time>
      </trkpt>
      <trkpt lat="48.26905" lon="2.62655">
        <ele>444</ele>
        <time>2022-02-06T08:33:02Z</time>
      </trkpt>
      <trkpt lat="48.26899" lon="2.62642">
        <ele>445</ele>
        <time>2022-02-06T08:33:06Z</time>
      </trkpt>
      <trkpt lat="48.26894" lon="2.6263">
        <ele>445.8</ele>
        <time>2022-02-06T08:33:10Z</time>
      </trkpt>
      <trkpt lat="48.26889" lon="2.62617">
        <ele>446.8</ele>
        <time>2022-02-06T08:33:14Z</time>
      </trkpt>
      <trkpt lat="48.26884" lon="2.62604">
        <ele>447.6</ele>
        <time>2022-02-06T08:33:18Z</time>
      </trkpt>
      <trkpt lat="48.26879" lon="2.62592">
        <ele>448.2</ele>
        <time>2022-02-06T08:33:22Z</time>
      </trkpt>
      <trkpt lat="48.26875" lon="2.62579">
        <ele>449.4</ele>
        <time>2022-02-06T08:33:26Z</time>
      </trkpt>
      <trkpt lat="48.26871" lon="2.62566">
        <ele>450.4</ele>
        <time>2022-02-06T08:33:30Z</time>
      </trkpt>
      <trkpt lat="48.26868" lon="2.62553">
        <ele>451.4</ele>
        <time>2022-02-06T08:33:34Z</time>
      </trkpt>
      <trkpt lat="48.26865" lon="2.6254">
        <ele>452.2</ele>
        <time>2022-02-06T08:33:38Z</time>
      </trkpt>
      <trkpt lat="48.26861" lon="2.62528">
        <ele>453</ele>
        <time>2022-02-06T08:33:42Z</time>
      </trkpt>
      <trkpt lat="48.26858" lon="2.62515">
        <ele>454.4</ele>
        <time>2022-02-06T08:33:46Z</time>
      </trkpt>
      <trkpt lat="48.26854" lon="2.62501">
        <ele>455.6</ele>
        <time>2022-02-06T08:33:50Z</time>
      </trkpt>
      <trkpt lat="48.2685" lon="2.62486">
        <ele>455.4</ele>
        <time>2022-02-06T08:33:54Z</time>
      </trkpt>
      <trkpt lat="48.26846" lon="2.6247">
        <ele>456</ele>
        <time>2022-02-06T08:33:58Z</time>
      </trkpt>
      <trkpt lat="48.26836" lon="2.62468">
        <ele>455</ele>
        <time>2022-02-06T08:34:02Z</time>
      </trkpt>
      <trkpt lat="48.26824" lon="2.62472">
        <ele>456.8</ele>
        <time>2022-02-06T08:34:06Z</time>
      </trkpt>
      <trkpt lat="48.26817" lon="2.62481">
        <ele>456.4</ele>
        <time>2022-02-06T08:34:10Z</time>
      </trkpt>
      <trkpt lat="48.26817" lon="2.62496">
        <ele>453</ele>
        <time>2022-02-06T08:34:14Z</time>
      </trkpt>
      <trkpt lat="48.26812" lon="2.62511">
        <ele>452.4</ele>
        <time>2022-02-06T08:34:18Z</time>
      </trkpt>
      <trkpt lat="48.26814" lon="2.62523">
        <ele>454.6</ele>
        <time>2022-02-06T08:34:22Z</time>
      </trkpt>
      <trkpt lat="48.26814" lon="2.62543">
        <ele>452.4</ele>
        <time>2022-02-06T08:34:26Z</time>
      </trkpt>
      <trkpt lat="48.26812" lon="2.62557">
        <ele>455.8</ele>
        <time>2022-02-06T08:34:30Z</time>
      </trkpt>
      <trkpt lat="48.2681" lon="2.62571">
        <ele>457.2</ele>
        <time>2022-02-06T08:34:34Z</time>
      </trkpt>
      <trkpt lat="48.26811" lon="2.62587">
        <ele>456.8</ele>
        <time>2022-02-06T08:34:38Z</time>
      </trkpt>
      <trkpt lat="48.26813" lon="2.62605">
        <ele>452.6</ele>
        <time>2022-02-06T08:34:42Z</time>
      </trkpt>
      <trkpt lat="48.26813" lon="2.62626">
        <ele>450.6</ele>
        <time>2022-02-06T08:34:46Z</time>
      </trkpt>
      <trkpt lat="48.268" lon="2.6264">
        <ele>447.2</ele>
        <time>2022-02-06T08:34:50Z</time>
      </trkpt>
      <trkpt lat="48.26787" lon="2.62664">
        <ele>445</ele>
        <time>2022-02-06T08:34:54Z</time>
      </trkpt>
      <trkpt lat="48.26771" lon="2.62672">
        <ele>446</ele>
        <time>2022-02-06T08:34:58Z</time>
      </trkpt>
      <trkpt lat="48.26763" lon="2.62684">
        <ele>447.8</ele>
        <time>2022-02-06T08:35:02Z</time>
      </trkpt>
      <trkpt lat="48.26768" lon="2.62705">
        <ele>448.8</ele>
        <time>2022-02-06T08:35:06Z</time>
      </trkpt>
      <trkpt lat="48.26776" lon="2.6272">
        <ele>447.4</ele>
        <time>2022-02-06T08:35:10Z</time>
      </trkpt>
      <trkpt lat="48.26785" lon="2.62725">
        <ele>446.2</ele>
        <time>2022-02-06T08:35:14Z</time>
      </trkpt>
      <trkpt lat="48.268" lon="2.62713">
        <ele>444.4</ele>
        <time>2022-02-06T08:35:18Z</time>
      </trkpt>
      <trkpt lat="48.26816" lon="2.62707">
        <ele>444.2</ele>
        <time>2022-02-06T08:35:22Z</time>
      </trkpt>
      <trkpt lat="48.26834" lon="2.62704">
        <ele>443.6</ele>
        <time>2022-02-06T08:35:26Z</time>
      </trkpt>
      <trkpt lat="48.26846" lon="2.62696">
        <ele>443.2</ele>
        <time>2022-02-06T08:35:30Z</time>
      </trkpt>
      <trkpt lat="48.26856" lon="2.62687">
        <ele>446.2</ele>
        <time>2022-02-06T08:35:34Z</time>
      </trkpt>
      <trkpt lat="48.2686" lon="2.62692">
        <ele>445.6</ele>
        <time>2022-02-06T08:35:38Z</time>
      </trkpt>
      <trkpt lat="48.26871" lon="2.62674">
        <ele>441.6</ele>
        <time>2022-02-06T08:35:42Z</time>
      </trkpt>
      <trkpt lat="48.26886" lon="2.62671">
        <ele>446.6</ele>
        <time>2022-02-06T08:36:14Z</time>
      </trkpt>
      <trkpt lat="48.26891" lon="2.62678">
        <ele>442</ele>
        <time>2022-02-06T08:36:18Z</time>
      </trkpt>
      <trkpt lat="48.269" lon="2.62696">
        <ele>440</ele>
        <time>2022-02-06T08:36:22Z</time>
      </trkpt>
      <trkpt lat="48.26903" lon="2.62719">
        <ele>440.8</ele>
        <time>2022-02-06T08:36:26Z</time>
      </trkpt>
      <trkpt lat="48.26898" lon="2.62729">
        <ele>440.8</ele>
        <time>2022-02-06T08:36:30Z</time>
      </trkpt>
      <trkpt lat="48.26889" lon="2.6274">
        <ele>441.8</ele>
        <time>2022-02-06T08:36:34Z</time>
      </trkpt>
      <trkpt lat="48.2688" lon="2.62751">
        <ele>441.6</ele>
        <time>2022-02-06T08:36:38Z</time>
      </trkpt>
      <trkpt lat="48.26869" lon="2.62763">
        <ele>442.4</ele>
        <time>2022-02-06T08:36:42Z</time>
      </trkpt>
      <trkpt lat="48.26859" lon="2.62773">
        <ele>443.8</ele>
        <time>2022-02-06T08:36:46Z</time>
      </trkpt>
      <trkpt lat="48.26851" lon="2.62783">
        <ele>445</ele>
        <time>2022-02-06T08:36:50Z</time>
      </trkpt>
      <trkpt lat="48.26845" lon="2.6279">
        <ele>445.8</ele>
        <time>2022-02-06T08:36:54Z</time>
      </trkpt>
      <trkpt lat="48.2684" lon="2.62796">
        <ele>448.6</ele>
        <time>2022-02-06T08:36:58Z</time>
      </trkpt>
      <trkpt lat="48.26836" lon="2.62802">
        <ele>448.8</ele>
        <time>2022-02-06T08:37:02Z</time>
      </trkpt>
      <trkpt lat="48.26831" lon="2.6281">
        <ele>450.6</ele>
        <time>2022-02-06T08:37:06Z</time>
      </trkpt>
      <trkpt lat="48.26827" lon="2.62818">
        <ele>451</ele>
        <time>2022-02-06T08:37:10Z</time>
      </trkpt>
      <trkpt lat="48.26822" lon="2.62822">
        <ele>452.6</ele>
        <time>2022-02-06T08:37:14Z</time>
      </trkpt>
      <trkpt lat="48.268" lon="2.62846">
        <ele>457</ele>
        <time>2022-02-06T08:37:41Z</time>
      </trkpt>
      <trkpt lat="48.26798" lon="2.62855">
        <ele>458.2</ele>
        <time>2022-02-06T08:37:45Z</time>
      </trkpt>
      <trkpt lat="48.26799" lon="2.62865">
        <ele>458.6</ele>
        <time>2022-02-06T08:37:49Z</time>
      </trkpt>
      <trkpt lat="48.26802" lon="2.62875">
        <ele>459.6</ele>
        <time>2022-02-06T08:37:53Z</time>
      </trkpt>
      <trkpt lat="48.26806" lon="2.62883">
        <ele>459.2</ele>
        <time>2022-02-06T08:37:57Z</time>
      </trkpt>
      <trkpt lat="48.26814" lon="2.6289">
        <ele>458</ele>
        <time>2022-02-06T08:38:01Z</time>
      </trkpt>
      <trkpt lat="48.26828" lon="2.62896">
        <ele>455.2</ele>
        <time>2022-02-06T08:38:05Z</time>
      </trkpt>
      <trkpt lat="48.2685" lon="2.62883">
        <ele>451</ele>
        <time>2022-02-06T08:38:09Z</time>
      </trkpt>
      <trkpt lat="48.26873" lon="2.62873">
        <ele>446.2</ele>
        <time>2022-02-06T08:38:13Z</time>
      </trkpt>
      <trkpt lat="48.26881" lon="2.62879">
        <ele>444.8</ele>
        <time>2022-02-06T08:38:17Z</time>
      </trkpt>
      <trkpt lat="48.26885" lon="2.62891">
        <ele>445</ele>
        <time>2022-02-06T08:38:21Z</time>
      </trkpt>
      <trkpt lat="48.26897" lon="2.62909">
        <ele>441</ele>
        <time>2022-02-06T08:38:25Z</time>
      </trkpt>
      <trkpt lat="48.26909" lon="2.62931">
        <ele>439.8</ele>
        <time>2022-02-06T08:38:29Z</time>
      </trkpt>
      <trkpt lat="48.26923" lon="2.62954">
        <ele>437.4</ele>
        <time>2022-02-06T08:38:33Z</time>
      </trkpt>
      <trkpt lat="48.26934" lon="2.62983">
        <ele>437</ele>
        <time>2022-02-06T08:38:37Z</time>
      </trkpt>
      <trkpt lat="48.2694" lon="2.63009">
        <ele>436</ele>
        <time>2022-02-06T08:38:41Z</time>
      </trkpt>
      <trkpt lat="48.26938" lon="2.63039">
        <ele>436</ele>
        <time>2022-02-06T08:38:45Z</time>
      </trkpt>
      <trkpt lat="48.26935" lon="2.63062">
        <ele>437.2</ele>
        <time>2022-02-06T08:38:49Z</time>
      </trkpt>
      <trkpt lat="48.26931" lon="2.63087">
        <ele>437.8</ele>
        <time>2022-02-06T08:38:53Z</time>
      </trkpt>
      <trkpt lat="48.2693" lon="2.63103">
        <ele>440.2</ele>
        <time>2022-02-06T08:38:57Z</time>
      </trkpt>
      <trkpt lat="48.26924" lon="2.63113">
        <ele>440.6</ele>
        <time>2022-02-06T08:39:01Z</time>
      </trkpt>
      <trkpt lat="48.26914" lon="2.63129">
        <ele>439</ele>
        <time>2022-02-06T08:39:05Z</time>
      </trkpt>
      <trkpt lat="48.26908" lon="2.63148">
        <ele>440.8</ele>
        <time>2022-02-06T08:39:09Z</time>
      </trkpt>
      <trkpt lat="48.26904" lon="2.63169">
        <ele>440.6</ele>
        <time>2022-02-06T08:39:13Z</time>
      </trkpt>
      <trkpt lat="48.26901" lon="2.6319">
        <ele>441</ele>
        <time>2022-02-06T08:39:17Z</time>
      </trkpt>
      <trkpt lat="48.26897" lon="2.63209">
        <ele>441.4</ele>
        <time>2022-02-06T08:39:21Z</time>
      </trkpt>
      <trkpt lat="48.26888" lon="2.63224">
        <ele>441.8</ele>
        <time>2022-02-06T08:39:25Z</time>
      </trkpt>
      <trkpt lat="48.26877" lon="2.63219">
        <ele>442.6</ele>
        <time>2022-02-06T08:39:29Z</time>
      </trkpt>
      <trkpt lat="48.26868" lon="2.63215">
        <ele>443.6</ele>
        <time>2022-02-06T08:39:33Z</time>
      </trkpt>
      <trkpt lat="48.2686" lon="2.63215">
        <ele>444.8</ele>
        <time>2022-02-06T08:39:37Z</time>
      </trkpt>
      <trkpt lat="48.26852" lon="2.63221">
        <ele>445.6</ele>
        <time>2022-02-06T08:39:41Z</time>
      </trkpt>
      <trkpt lat="48.26848" lon="2.63238">
        <ele>447.2</ele>
        <time>2022-02-06T08:39:45Z</time>
      </trkpt>
      <trkpt lat="48.26847" lon="2.63249">
        <ele>448</ele>
        <time>2022-02-06T08:39:49Z</time>
      </trkpt>
      <trkpt lat="48.26849" lon="2.63259">
        <ele>449.8</ele>
        <time>2022-02-06T08:39:53Z</time>
      </trkpt>
      <trkpt lat="48.2685" lon="2.63266">
        <ele>451.2</ele>
        <time>2022-02-06T08:39:57Z</time>
      </trkpt>
      <trkpt lat="48.26851" lon="2.63275">
        <ele>452</ele>
        <time>2022-02-06T08:40:01Z</time>
      </trkpt>
      <trkpt lat="48.26853" lon="2.63286">
        <ele>452.4</ele>
        <time>2022-02-06T08:40:05Z</time>
      </trkpt>
      <trkpt lat="48.26856" lon="2.63296">
        <ele>452.4</ele>
        <time>2022-02-06T08:40:09Z</time>
      </trkpt>
      <trkpt lat="48.26858" lon="2.63307">
        <ele>452.4</ele>
        <time>2022-02-06T08:40:13Z</time>
      </trkpt>
      <trkpt lat="48.26858" lon="2.63319">
        <ele>453.2</ele>
        <time>2022-02-06T08:40:17Z</time>
      </trkpt>
      <trkpt lat="48.26857" lon="2.6333">
        <ele>453</ele>
        <time>2022-02-06T08:40:21Z</time>
      </trkpt>
      <trkpt lat="48.26856" lon="2.63339">
        <ele>453.8</ele>
        <time>2022-02-06T08:40:25Z</time>
      </trkpt>
      <trkpt lat="48.26854" lon="2.63347">
        <ele>454.4</ele>
        <time>2022-02-06T08:40:29Z</time>
      </trkpt>
      <trkpt lat="48.26849" lon="2.63358">
        <ele>454</ele>
        <time>2022-02-06T08:40:33Z</time>
      </trkpt>
      <trkpt lat="48.26851" lon="2.63372">
        <ele>450.8</ele>
        <time>2022-02-06T08:40:37Z</time>
      </trkpt>
      <trkpt lat="48.26864" lon="2.63377">
        <ele>448</ele>
        <time>2022-02-06T08:40:41Z</time>
      </trkpt>
      <trkpt lat="48.26876" lon="2.63389">
        <ele>444</ele>
        <time>2022-02-06T08:40:45Z</time>
      </trkpt>
      <trkpt lat="48.26885" lon="2.63411">
        <ele>441.2</ele>
        <time>2022-02-06T08:40:49Z</time>
      </trkpt>
      <trkpt lat="48.26899" lon="2.63419">
        <ele>439.4</ele>
        <time>2022-02-06T08:40:53Z</time>
      </trkpt>
      <trkpt lat="48.26909" lon="2.63422">
        <ele>437.8</ele>
        <time>2022-02-06T08:40:57Z</time>
      </trkpt>
      <trkpt lat="48.26925" lon="2.63422">
        <ele>436</ele>
        <time>2022-02-06T08:41:01Z</time>
      </trkpt>
      <trkpt lat="48.26941" lon="2.63435">
        <ele>432.6</ele>
        <time>2022-02-06T08:41:05Z</time>
      </trkpt>
      <trkpt lat="48.2696" lon="2.6346">
        <ele>429.8</ele>
        <time>2022-02-06T08:41:09Z</time>
      </trkpt>
      <trkpt lat="48.26979" lon="2.63487">
        <ele>427</ele>
        <time>2022-02-06T08:41:13Z</time>
      </trkpt>
      <trkpt lat="48.26995" lon="2.63511">
        <ele>426.8</ele>
        <time>2022-02-06T08:41:17Z</time>
      </trkpt>
      <trkpt lat="48.27005" lon="2.63539">
        <ele>427.4</ele>
        <time>2022-02-06T08:41:21Z</time>
      </trkpt>
      <trkpt lat="48.27012" lon="2.63562">
        <ele>427</ele>
        <time>2022-02-06T08:41:25Z</time>
      </trkpt>
      <trkpt lat="48.27017" lon="2.63581">
        <ele>425</ele>
        <time>2022-02-06T08:41:29Z</time>
      </trkpt>
      <trkpt lat="48.27021" lon="2.63607">
        <ele>425</ele>
        <time>2022-02-06T08:41:33Z</time>
      </trkpt>
      <trkpt lat="48.27034" lon="2.6362">
        <ele>424.2</ele>
        <time>2022-02-06T08:41:37Z</time>
      </trkpt>
      <trkpt lat="48.27036" lon="2.63637">
        <ele>424.8</ele>
        <time>2022-02-06T08:41:41Z</time>
      </trkpt>
      <trkpt lat="48.27036" lon="2.63662">
        <ele>424</ele>
        <time>2022-02-06T08:41:45Z</time>
      </trkpt>
      <trkpt lat="48.27034" lon="2.63685">
        <ele>424</ele>
        <time>2022-02-06T08:41:49Z</time>
      </trkpt>
      <trkpt lat="48.27035" lon="2.6371">
        <ele>424</ele>
        <time>2022-02-06T08:41:53Z</time>
      </trkpt>
      <trkpt lat="48.27033" lon="2.63736">
        <ele>425.2</ele>
        <time>2022-02-06T08:41:57Z</time>
      </trkpt>
      <trkpt lat="48.2703" lon="2.63763">
        <ele>424.2</ele>
        <time>2022-02-06T08:42:01Z</time>
      </trkpt>
      <trkpt lat="48.27029" lon="2.63794">
        <ele>424.6</ele>
        <time>2022-02-06T08:42:05Z</time>
      </trkpt>
      <trkpt lat="48.2703" lon="2.63824">
        <ele>423.6</ele>
        <time>2022-02-06T08:42:09Z</time>
      </trkpt>
      <trkpt lat="48.27032" lon="2.63851">
        <ele>423.2</ele>
        <time>2022-02-06T08:42:13Z</time>
      </trkpt>
      <trkpt lat="48.27025" lon="2.63867">
        <ele>423.4</ele>
        <time>2022-02-06T08:42:17Z</time>
      </trkpt>
      <trkpt lat="48.27013" lon="2.63868">
        <ele>424.8</ele>
        <time>2022-02-06T08:42:21Z</time>
      </trkpt>
      <trkpt lat="48.27" lon="2.63869">
        <ele>423.4</ele>
        <time>2022-02-06T08:42:25Z</time>
      </trkpt>
      <trkpt lat="48.26987" lon="2.63868">
        <ele>423.8</ele>
        <time>2022-02-06T08:42:29Z</time>
      </trkpt>
      <trkpt lat="48.26976" lon="2.6388">
        <ele>424.8</ele>
        <time>2022-02-06T08:42:33Z</time>
      </trkpt>
      <trkpt lat="48.26964" lon="2.63896">
        <ele>425.8</ele>
        <time>2022-02-06T08:42:37Z</time>
      </trkpt>
      <trkpt lat="48.26954" lon="2.63909">
        <ele>426.2</ele>
        <time>2022-02-06T08:42:41Z</time>
      </trkpt>
      <trkpt lat="48.26944" lon="2.63916">
        <ele>427.2</ele>
        <time>2022-02-06T08:42:45Z</time>
      </trkpt>
      <trkpt lat="48.26932" lon="2.63917">
        <ele>428.8</ele>
        <time>2022-02-06T08:42:49Z</time>
      </trkpt>
      <trkpt lat="48.26924" lon="2.63915">
        <ele>429.2</ele>
        <time>2022-02-06T08:42:53Z</time>
      </trkpt>
      <trkpt lat="48.26913" lon="2.63921">
        <ele>429.8</ele>
        <time>2022-02-06T08:42:57Z</time>
      </trkpt>
      <trkpt lat="48.26903" lon="2.63919">
        <ele>430.4</ele>
        <time>2022-02-06T08:43:01Z</time>
      </trkpt>
      <trkpt lat="48.26895" lon="2.63915">
        <ele>432</ele>
        <time>2022-02-06T08:43:05Z</time>
      </trkpt>
      <trkpt lat="48.26886" lon="2.63913">
        <ele>433.2</ele>
        <time>2022-02-06T08:43:09Z</time>
      </trkpt>
      <trkpt lat="48.26881" lon="2.63905">
        <ele>433.2</ele>
        <time>2022-02-06T08:43:13Z</time>
      </trkpt>
      <trkpt lat="48.26883" lon="2.63898">
        <ele>435</ele>
        <time>2022-02-06T08:43:17Z</time>
      </trkpt>
      <trkpt lat="48.26886" lon="2.6389">
        <ele>436</ele>
        <time>2022-02-06T08:43:21Z</time>
      </trkpt>
      <trkpt lat="48.26887" lon="2.63885">
        <ele>437.4</ele>
        <time>2022-02-06T08:43:25Z</time>
      </trkpt>
      <trkpt lat="48.26893" lon="2.63877">
        <ele>436.4</ele>
        <time>2022-02-06T08:43:29Z</time>
      </trkpt>
      <trkpt lat="48.26897" lon="2.63864">
        <ele>436.8</ele>
        <time>2022-02-06T08:43:33Z</time>
      </trkpt>
      <trkpt lat="48.26896" lon="2.63851">
        <ele>435.8</ele>
        <time>2022-02-06T08:43:37Z</time>
      </trkpt>
      <trkpt lat="48.269" lon="2.63838">
        <ele>435.6</ele>
        <time>2022-02-06T08:43:41Z</time>
      </trkpt>
      <trkpt lat="48.26891" lon="2.63825">
        <ele>436.2</ele>
        <time>2022-02-06T08:43:45Z</time>
      </trkpt>
      <trkpt lat="48.26883" lon="2.63812">
        <ele>436</ele>
        <time>2022-02-06T08:43:49Z</time>
      </trkpt>
      <trkpt lat="48.26873" lon="2.63803">
        <ele>436.2</ele>
        <time>2022-02-06T08:43:53Z</time>
      </trkpt>
      <trkpt lat="48.26867" lon="2.63792">
        <ele>438.2</ele>
        <time>2022-02-06T08:43:57Z</time>
      </trkpt>
      <trkpt lat="48.26859" lon="2.63785">
        <ele>438.6</ele>
        <time>2022-02-06T08:44:01Z</time>
      </trkpt>
      <trkpt lat="48.26857" lon="2.63779">
        <ele>440.4</ele>
        <time>2022-02-06T08:44:05Z</time>
      </trkpt>
      <trkpt lat="48.2685" lon="2.63774">
        <ele>442</ele>
        <time>2022-02-06T08:44:09Z</time>
      </trkpt>
      <trkpt lat="48.26845" lon="2.6377">
        <ele>442.2</ele>
        <time>2022-02-06T08:44:13Z</time>
      </trkpt>
      <trkpt lat="48.26841" lon="2.63765">
        <ele>443.6</ele>
        <time>2022-02-06T08:44:17Z</time>
      </trkpt>
      <trkpt lat="48.26834" lon="2.63759">
        <ele>441.6</ele>
        <time>2022-02-06T08:44:21Z</time>
      </trkpt>
      <trkpt lat="48.26834" lon="2.63759">
        <ele>442.8</ele>
        <time>2022-02-06T08:44:25Z</time>
      </trkpt>
      <trkpt lat="48.26807" lon="2.63753">
        <ele>447.2</ele>
        <time>2022-02-06T08:44:49Z</time>
      </trkpt>
      <trkpt lat="48.26804" lon="2.63757">
        <ele>448.2</ele>
        <time>2022-02-06T08:44:53Z</time>
      </trkpt>
      <trkpt lat="48.26822" lon="2.63768">
        <ele>447.4</ele>
        <time>2022-02-06T08:45:09Z</time>
      </trkpt>
      <trkpt lat="48.26824" lon="2.63777">
        <ele>448.4</ele>
        <time>2022-02-06T08:45:13Z</time>
      </trkpt>
      <trkpt lat="48.26825" lon="2.63786">
        <ele>448.6</ele>
        <time>2022-02-06T08:45:17Z</time>
      </trkpt>
      <trkpt lat="48.26823" lon="2.63792">
        <ele>449</ele>
        <time>2022-02-06T08:45:21Z</time>
      </trkpt>
      <trkpt lat="48.26825" lon="2.63809">
        <ele>448.2</ele>
        <time>2022-02-06T08:45:25Z</time>
      </trkpt>
      <trkpt lat="48.26823" lon="2.63826">
        <ele>447.8</ele>
        <time>2022-02-06T08:45:29Z</time>
      </trkpt>
      <trkpt lat="48.2682" lon="2.63835">
        <ele>449</ele>
        <time>2022-02-06T08:45:33Z</time>
      </trkpt>
      <trkpt lat="48.26818" lon="2.63847">
        <ele>449.4</ele>
        <time>2022-02-06T08:45:37Z</time>
      </trkpt>
      <trkpt lat="48.26812" lon="2.63855">
        <ele>448</ele>
        <time>2022-02-06T08:45:41Z</time>
      </trkpt>
      <trkpt lat="48.26807" lon="2.63859">
        <ele>449.4</ele>
        <time>2022-02-06T08:45:45Z</time>
      </trkpt>
      <trkpt lat="48.26803" lon="2.63868">
        <ele>449.8</ele>
        <time>2022-02-06T08:45:49Z</time>
      </trkpt>
      <trkpt lat="48.26802" lon="2.63875">
        <ele>450.8</ele>
        <time>2022-02-06T08:45:53Z</time>
      </trkpt>
      <trkpt lat="48.26802" lon="2.63883">
        <ele>453</ele>
        <time>2022-02-06T08:45:57Z</time>
      </trkpt>
      <trkpt lat="48.26803" lon="2.63891">
        <ele>453.8</ele>
        <time>2022-02-06T08:46:01Z</time>
      </trkpt>
      <trkpt lat="48.26802" lon="2.63899">
        <ele>455.4</ele>
        <time>2022-02-06T08:46:05Z</time>
      </trkpt>
      <trkpt lat="48.26804" lon="2.63905">
        <ele>456.2</ele>
        <time>2022-02-06T08:46:09Z</time>
      </trkpt>
      <trkpt lat="48.26815" lon="2.63922">
        <ele>449.4</ele>
        <time>2022-02-06T08:46:30Z</time>
      </trkpt>
      <trkpt lat="48.26816" lon="2.63931">
        <ele>449.6</ele>
        <time>2022-02-06T08:46:34Z</time>
      </trkpt>
      <trkpt lat="48.26819" lon="2.63943">
        <ele>447.2</ele>
        <time>2022-02-06T08:46:38Z</time>
      </trkpt>
      <trkpt lat="48.26821" lon="2.63955">
        <ele>447.4</ele>
        <time>2022-02-06T08:46:42Z</time>
      </trkpt>
      <trkpt lat="48.26821" lon="2.63964">
        <ele>444.8</ele>
        <time>2022-02-06T08:46:46Z</time>
      </trkpt>
      <trkpt lat="48.26824" lon="2.63974">
        <ele>441.2</ele>
        <time>2022-02-06T08:46:50Z</time>
      </trkpt>
      <trkpt lat="48.26827" lon="2.63994">
        <ele>438.2</ele>
        <time>2022-02-06T08:46:54Z</time>
      </trkpt>
      <trkpt lat="48.26828" lon="2.6401">
        <ele>439.2</ele>
        <time>2022-02-06T08:46:58Z</time>
      </trkpt>
      <trkpt lat="48.26825" lon="2.64017">
        <ele>440.6</ele>
        <time>2022-02-06T08:47:02Z</time>
      </trkpt>
      <trkpt lat="48.26826" lon="2.64024">
        <ele>441.4</ele>
        <time>2022-02-06T08:47:06Z</time>
      </trkpt>
      <trkpt lat="48.26829" lon="2.64037">
        <ele>440.8</ele>
        <time>2022-02-06T08:47:10Z</time>
      </trkpt>
      <trkpt lat="48.26831" lon="2.64049">
        <ele>441</ele>
        <time>2022-02-06T08:47:14Z</time>
      </trkpt>
      <trkpt lat="48.26834" lon="2.64058">
        <ele>442.6</ele>
        <time>2022-02-06T08:47:18Z</time>
      </trkpt>
      <trkpt lat="48.26839" lon="2.64061">
        <ele>440.6</ele>
        <time>2022-02-06T08:47:22Z</time>
      </trkpt>
      <trkpt lat="48.26843" lon="2.64069">
        <ele>443</ele>
        <time>2022-02-06T08:47:26Z</time>
      </trkpt>
      <trkpt lat="48.26847" lon="2.6408">
        <ele>443</ele>
        <time>2022-02-06T08:47:30Z</time>
      </trkpt>
      <trkpt lat="48.26847" lon="2.6408">
        <ele>444.4</ele>
        <time>2022-02-06T08:47:34Z</time>
      </trkpt>
      <trkpt lat="48.26846" lon="2.64083">
        <ele>445.8</ele>
        <time>2022-02-06T08:47:38Z</time>
      </trkpt>
      <trkpt lat="48.26846" lon="2.64089">
        <ele>446.4</ele>
        <time>2022-02-06T08:47:42Z</time>
      </trkpt>
      <trkpt lat="48.26847" lon="2.64098">
        <ele>447.6</ele>
        <time>2022-02-06T08:47:46Z</time>
      </trkpt>
      <trkpt lat="48.26848" lon="2.64106">
        <ele>446.4</ele>
        <time>2022-02-06T08:47:50Z</time>
      </trkpt>
      <trkpt lat="48.26855" lon="2.64106">
        <ele>446.2</ele>
        <time>2022-02-06T08:47:54Z</time>
      </trkpt>
      <trkpt lat="48.26864" lon="2.64107">
        <ele>444.6</ele>
        <time>2022-02-06T08:47:58Z</time>
      </trkpt>
      <trkpt lat="48.26872" lon="2.64106">
        <ele>443.4</ele>
        <time>2022-02-06T08:48:02Z</time>
      </trkpt>
      <trkpt lat="48.26884" lon="2.64092">
        <ele>437</ele>
        <time>2022-02-06T08:48:18Z</time>
      </trkpt>
      <trkpt lat="48.26892" lon="2.64093">
        <ele>437.6</ele>
        <time>2022-02-06T08:48:22Z</time>
      </trkpt>
      <trkpt lat="48.26892" lon="2.64094">
        <ele>438.2</ele>
        <time>2022-02-06T08:48:26Z</time>
      </trkpt>
      <trkpt lat="48.26894" lon="2.64098">
        <ele>439.2</ele>
        <time>2022-02-06T08:48:30Z</time>
      </trkpt>
      <trkpt lat="48.26895" lon="2.64106">
        <ele>440.8</ele>
        <time>2022-02-06T08:48:34Z</time>
      </trkpt>
      <trkpt lat="48.26895" lon="2.64112">
        <ele>442</ele>
        <time>2022-02-06T08:48:38Z</time>
      </trkpt>
      <trkpt lat="48.26896" lon="2.64116">
        <ele>442</ele>
        <time>2022-02-06T08:48:42Z</time>
      </trkpt>
      <trkpt lat="48.26896" lon="2.64122">
        <ele>442.6</ele>
        <time>2022-02-06T08:48:46Z</time>
      </trkpt>
      <trkpt lat="48.26897" lon="2.64128">
        <ele>443</ele>
        <time>2022-02-06T08:48:50Z</time>
      </trkpt>
      <trkpt lat="48.26897" lon="2.64128">
        <ele>443.4</ele>
        <time>2022-02-06T08:48:54Z</time>
      </trkpt>
      <trkpt lat="48.269" lon="2.64163">
        <ele>447</ele>
        <time>2022-02-06T08:49:16Z</time>
      </trkpt>
      <trkpt lat="48.26903" lon="2.64173">
        <ele>446</ele>
        <time>2022-02-06T08:49:20Z</time>
      </trkpt>
      <trkpt lat="48.26876" lon="2.64176">
        <ele>449.2</ele>
        <time>2022-02-06T08:49:59Z</time>
      </trkpt>
      <trkpt lat="48.26877" lon="2.64187">
        <ele>446.4</ele>
        <time>2022-02-06T08:50:03Z</time>
      </trkpt>
      <trkpt lat="48.26879" lon="2.64196">
        <ele>445.2</ele>
        <time>2022-02-06T08:50:07Z</time>
      </trkpt>
      <trkpt lat="48.26881" lon="2.64211">
        <ele>440.4</ele>
        <time>2022-02-06T08:50:11Z</time>
      </trkpt>
      <trkpt lat="48.26877" lon="2.64222">
        <ele>439.8</ele>
        <time>2022-02-06T08:50:15Z</time>
      </trkpt>
      <trkpt lat="48.26875" lon="2.64231">
        <ele>441.8</ele>
        <time>2022-02-06T08:50:19Z</time>
      </trkpt>
      <trkpt lat="48.26875" lon="2.64231">
        <ele>441.4</ele>
        <time>2022-02-06T08:50:23Z</time>
      </trkpt>
      <trkpt lat="48.26861" lon="2.64254">
        <ele>444</ele>
        <time>2022-02-06T08:50:52Z</time>
      </trkpt>
      <trkpt lat="48.26843" lon="2.64252">
        <ele>446.4</ele>
        <time>2022-02-06T08:51:14Z</time>
      </trkpt>
      <trkpt lat="48.26833" lon="2.64251">
        <ele>446.6</ele>
        <time>2022-02-06T08:51:18Z</time>
      </trkpt>
      <trkpt lat="48.26822" lon="2.64252">
        <ele>446</ele>
        <time>2022-02-06T08:51:22Z</time>
      </trkpt>
      <trkpt lat="48.26813" lon="2.64246">
        <ele>445.8</ele>
        <time>2022-02-06T08:51:26Z</time>
      </trkpt>
      <trkpt lat="48.26799" lon="2.64243">
        <ele>445.6</ele>
        <time>2022-02-06T08:51:30Z</time>
      </trkpt>
      <trkpt lat="48.26785" lon="2.64245">
        <ele>445.2</ele>
        <time>2022-02-06T08:51:34Z</time>
      </trkpt>
      <trkpt lat="48.26778" lon="2.64259">
        <ele>446</ele>
        <time>2022-02-06T08:51:38Z</time>
      </trkpt>
      <trkpt lat="48.26772" lon="2.64277">
        <ele>443.8</ele>
        <time>2022-02-06T08:51:42Z</time>
      </trkpt>
      <trkpt lat="48.26763" lon="2.64292">
        <ele>443.4</ele>
        <time>2022-02-06T08:51:46Z</time>
      </trkpt>
      <trkpt lat="48.26748" lon="2.64289">
        <ele>443.4</ele>
        <time>2022-02-06T08:51:50Z</time>
      </trkpt>
      <trkpt lat="48.26733" lon="2.64299">
        <ele>443</ele>
        <time>2022-02-06T08:51:54Z</time>
      </trkpt>
      <trkpt lat="48.26718" lon="2.64315">
        <ele>443.2</ele>
        <time>2022-02-06T08:51:58Z</time>
      </trkpt>
      <trkpt lat="48.26705" lon="2.64312">
        <ele>444.4</ele>
        <time>2022-02-06T08:52:02Z</time>
      </trkpt>
      <trkpt lat="48.26692" lon="2.64315">
        <ele>446.6</ele>
        <time>2022-02-06T08:52:06Z</time>
      </trkpt>
      <trkpt lat="48.26686" lon="2.64322">
        <ele>447.6</ele>
        <time>2022-02-06T08:52:10Z</time>
      </trkpt>
      <trkpt lat="48.26685" lon="2.64329">
        <ele>449.2</ele>
        <time>2022-02-06T08:52:14Z</time>
      </trkpt>
      <trkpt lat="48.26688" lon="2.64334">
        <ele>450.6</ele>
        <time>2022-02-06T08:52:18Z</time>
      </trkpt>
      <trkpt lat="48.26687" lon="2.6434">
        <ele>452</ele>
        <time>2022-02-06T08:52:22Z</time>
      </trkpt>
      <trkpt lat="48.2669" lon="2.64355">
        <ele>452</ele>
        <time>2022-02-06T08:52:34Z</time>
      </trkpt>
      <trkpt lat="48.26698" lon="2.64384">
        <ele>451.8</ele>
        <time>2022-02-06T08:53:05Z</time>
      </trkpt>
      <trkpt lat="48.267" lon="2.64398">
        <ele>444.2</ele>
        <time>2022-02-06T08:53:09Z</time>
      </trkpt>
      <trkpt lat="48.26712" lon="2.64434">
        <ele>432</ele>
        <time>2022-02-06T08:53:13Z</time>
      </trkpt>
      <trkpt lat="48.26729" lon="2.64463">
        <ele>430.6</ele>
        <time>2022-02-06T08:53:17Z</time>
      </trkpt>
      <trkpt lat="48.26742" lon="2.64479">
        <ele>430.4</ele>
        <time>2022-02-06T08:53:21Z</time>
      </trkpt>
      <trkpt lat="48.26761" lon="2.64488">
        <ele>430.6</ele>
        <time>2022-02-06T09:02:39Z</time>
      </trkpt>
      <trkpt lat="48.2677" lon="2.64496">
        <ele>430</ele>
        <time>2022-02-06T09:02:43Z</time>
      </trkpt>
      <trkpt lat="48.26785" lon="2.64502">
        <ele>427.4</ele>
        <time>2022-02-06T09:02:47Z</time>
      </trkpt>
      <trkpt lat="48.26795" lon="2.64515">
        <ele>428.8</ele>
        <time>2022-02-06T09:02:51Z</time>
      </trkpt>
      <trkpt lat="48.268" lon="2.64529">
        <ele>429.8</ele>
        <time>2022-02-06T09:02:55Z</time>
      </trkpt>
      <trkpt lat="48.26804" lon="2.64541">
        <ele>430.6</ele>
        <time>2022-02-06T09:02:59Z</time>
      </trkpt>
      <trkpt lat="48.26809" lon="2.64551">
        <ele>432.4</ele>
        <time>2022-02-06T09:03:03Z</time>
      </trkpt>
      <trkpt lat="48.26806" lon="2.64564">
        <ele>432</ele>
        <time>2022-02-06T09:03:07Z</time>
      </trkpt>
      <trkpt lat="48.26804" lon="2.64586">
        <ele>430.8</ele>
        <time>2022-02-06T09:03:11Z</time>
      </trkpt>
      <trkpt lat="48.26809" lon="2.64605">
        <ele>431.2</ele>
        <time>2022-02-06T09:03:15Z</time>
      </trkpt>
      <trkpt lat="48.26814" lon="2.64623">
        <ele>432</ele>
        <time>2022-02-06T09:03:19Z</time>
      </trkpt>
      <trkpt lat="48.26816" lon="2.64641">
        <ele>433</ele>
        <time>2022-02-06T09:03:23Z</time>
      </trkpt>
      <trkpt lat="48.26826" lon="2.64648">
        <ele>434</ele>
        <time>2022-02-06T09:03:27Z</time>
      </trkpt>
      <trkpt lat="48.26832" lon="2.64662">
        <ele>435.2</ele>
        <time>2022-02-06T09:03:31Z</time>
      </trkpt>
      <trkpt lat="48.26838" lon="2.64678">
        <ele>435.6</ele>
        <time>2022-02-06T09:03:35Z</time>
      </trkpt>
      <trkpt lat="48.26841" lon="2.64697">
        <ele>433.2</ele>
        <time>2022-02-06T09:03:39Z</time>
      </trkpt>
      <trkpt lat="48.26839" lon="2.6472">
        <ele>432.2</ele>
        <time>2022-02-06T09:03:43Z</time>
      </trkpt>
      <trkpt lat="48.26843" lon="2.64745">
        <ele>433.8</ele>
        <time>2022-02-06T09:03:47Z</time>
      </trkpt>
      <trkpt lat="48.26853" lon="2.64748">
        <ele>436</ele>
        <time>2022-02-06T09:03:51Z</time>
      </trkpt>
      <trkpt lat="48.26858" lon="2.64747">
        <ele>436.8</ele>
        <time>2022-02-06T09:03:55Z</time>
      </trkpt>
      <trkpt lat="48.26863" lon="2.64751">
        <ele>437.8</ele>
        <time>2022-02-06T09:03:59Z</time>
      </trkpt>
      <trkpt lat="48.26868" lon="2.64749">
        <ele>438.2</ele>
        <time>2022-02-06T09:04:03Z</time>
      </trkpt>
      <trkpt lat="48.26873" lon="2.64752">
        <ele>439.2</ele>
        <time>2022-02-06T09:04:07Z</time>
      </trkpt>
      <trkpt lat="48.26879" lon="2.6475">
        <ele>439</ele>
        <time>2022-02-06T09:04:11Z</time>
      </trkpt>
      <trkpt lat="48.26885" lon="2.64748">
        <ele>439.8</ele>
        <time>2022-02-06T09:04:15Z</time>
      </trkpt>
      <trkpt lat="48.26888" lon="2.64753">
        <ele>440</ele>
        <time>2022-02-06T09:04:19Z</time>
      </trkpt>
      <trkpt lat="48.26887" lon="2.64758">
        <ele>439.8</ele>
        <time>2022-02-06T09:04:23Z</time>
      </trkpt>
      <trkpt lat="48.26887" lon="2.64764">
        <ele>440.8</ele>
        <time>2022-02-06T09:04:27Z</time>
      </trkpt>
      <trkpt lat="48.2689" lon="2.64769">
        <ele>441.6</ele>
        <time>2022-02-06T09:04:31Z</time>
      </trkpt>
      <trkpt lat="48.26891" lon="2.64775">
        <ele>443</ele>
        <time>2022-02-06T09:04:35Z</time>
      </trkpt>
      <trkpt lat="48.26892" lon="2.64781">
        <ele>443.8</ele>
        <time>2022-02-06T09:04:39Z</time>
      </trkpt>
      <trkpt lat="48.26895" lon="2.64785">
        <ele>444.4</ele>
        <time>2022-02-06T09:04:43Z</time>
      </trkpt>
      <trkpt lat="48.26895" lon="2.64791">
        <ele>446</ele>
        <time>2022-02-06T09:04:47Z</time>
      </trkpt>
      <trkpt lat="48.26898" lon="2.64796">
        <ele>447.2</ele>
        <time>2022-02-06T09:04:51Z</time>
      </trkpt>
      <trkpt lat="48.26902" lon="2.64801">
        <ele>447.8</ele>
        <time>2022-02-06T09:04:55Z</time>
      </trkpt>
      <trkpt lat="48.26905" lon="2.64805">
        <ele>448.2</ele>
        <time>2022-02-06T09:04:59Z</time>
      </trkpt>
      <trkpt lat="48.2691" lon="2.6481">
        <ele>448.6</ele>
        <time>2022-02-06T09:05:03Z</time>
      </trkpt>
      <trkpt lat="48.26915" lon="2.64814">
        <ele>449.8</ele>
        <time>2022-02-06T09:05:07Z</time>
      </trkpt>
      <trkpt lat="48.26917" lon="2.6482">
        <ele>450.2</ele>
        <time>2022-02-06T09:05:11Z</time>
      </trkpt>
      <trkpt lat="48.26919" lon="2.64826">
        <ele>450.4</ele>
        <time>2022-02-06T09:05:15Z</time>
      </trkpt>
      <trkpt lat="48.26919" lon="2.64834">
        <ele>451.2</ele>
        <time>2022-02-06T09:05:19Z</time>
      </trkpt>
      <trkpt lat="48.26921" lon="2.64862">
        <ele>452.4</ele>
        <time>2022-02-06T09:05:47Z</time>
      </trkpt>
      <trkpt lat="48.2692" lon="2.64867">
        <ele>453.8</ele>
        <time>2022-02-06T09:05:51Z</time>
      </trkpt>
      <trkpt lat="48.26919" lon="2.64872">
        <ele>454.6</ele>
        <time>2022-02-06T09:05:55Z</time>
      </trkpt>
      <trkpt lat="48.26925" lon="2.64894">
        <ele>446.8</ele>
        <time>2022-02-06T09:06:14Z</time>
      </trkpt>
      <trkpt lat="48.2693" lon="2.64897">
        <ele>444.4</ele>
        <time>2022-02-06T09:06:18Z</time>
      </trkpt>
      <trkpt lat="48.26935" lon="2.64894">
        <ele>439.6</ele>
        <time>2022-02-06T09:06:22Z</time>
      </trkpt>
      <trkpt lat="48.26941" lon="2.64905">
        <ele>434.6</ele>
        <time>2022-02-06T09:06:26Z</time>
      </trkpt>
      <trkpt lat="48.26939" lon="2.64923">
        <ele>431.2</ele>
        <time>2022-02-06T09:06:30Z</time>
      </trkpt>
      <trkpt lat="48.26934" lon="2.64944">
        <ele>431.2</ele>
        <time>2022-02-06T09:06:34Z</time>
      </trkpt>
      <trkpt lat="48.26927" lon="2.6496">
        <ele>427.6</ele>
        <time>2022-02-06T09:06:38Z</time>
      </trkpt>
      <trkpt lat="48.26922" lon="2.64981">
        <ele>426</ele>
        <time>2022-02-06T09:06:42Z</time>
      </trkpt>
      <trkpt lat="48.26921" lon="2.64989">
        <ele>426.6</ele>
        <time>2022-02-06T09:06:46Z</time>
      </trkpt>
      <trkpt lat="48.26915" lon="2.64996">
        <ele>425.8</ele>
        <time>2022-02-06T09:06:50Z</time>
      </trkpt>
      <trkpt lat="48.26904" lon="2.65">
        <ele>425</ele>
        <time>2022-02-06T09:06:54Z</time>
      </trkpt>
      <trkpt lat="48.26895" lon="2.64999">
        <ele>426</ele>
        <time>2022-02-06T09:06:58Z</time>
      </trkpt>
      <trkpt lat="48.26885" lon="2.64997">
        <ele>427.2</ele>
        <time>2022-02-06T09:07:02Z</time>
      </trkpt>
      <trkpt lat="48.26876" lon="2.64999">
        <ele>428</ele>
        <time>2022-02-06T09:07:06Z</time>
      </trkpt>
      <trkpt lat="48.26872" lon="2.64997">
        <ele>429.8</ele>
        <time>2022-02-06T09:07:10Z</time>
      </trkpt>
      <trkpt lat="48.26871" lon="2.64991">
        <ele>430.6</ele>
        <time>2022-02-06T09:07:14Z</time>
      </trkpt>
      <trkpt lat="48.2687" lon="2.64982">
        <ele>431.2</ele>
        <time>2022-02-06T09:07:18Z</time>
      </trkpt>
      <trkpt lat="48.26868" lon="2.64972">
        <ele>432.2</ele>
        <time>2022-02-06T09:07:22Z</time>
      </trkpt>
      <trkpt lat="48.26865" lon="2.64962">
        <ele>433.6</ele>
        <time>2022-02-06T09:07:26Z</time>
      </trkpt>
      <trkpt lat="48.26863" lon="2.64952">
        <ele>434.6</ele>
        <time>2022-02-06T09:07:30Z</time>
      </trkpt>
      <trkpt lat="48.26863" lon="2.64943">
        <ele>435.4</ele>
        <time>2022-02-06T09:07:34Z</time>
      </trkpt>
      <trkpt lat="48.26863" lon="2.64932">
        <ele>437.4</ele>
        <time>2022-02-06T09:07:38Z</time>
      </trkpt>
      <trkpt lat="48.26863" lon="2.6492">
        <ele>437.8</ele>
        <time>2022-02-06T09:07:42Z</time>
      </trkpt>
      <trkpt lat="48.26862" lon="2.64908">
        <ele>438.6</ele>
        <time>2022-02-06T09:07:46Z</time>
      </trkpt>
      <trkpt lat="48.26855" lon="2.649">
        <ele>438.6</ele>
        <time>2022-02-06T09:07:50Z</time>
      </trkpt>
      <trkpt lat="48.26843" lon="2.64895">
        <ele>433.8</ele>
        <time>2022-02-06T09:07:54Z</time>
      </trkpt>
      <trkpt lat="48.26825" lon="2.64899">
        <ele>432.6</ele>
        <time>2022-02-06T09:07:58Z</time>
      </trkpt>
      <trkpt lat="48.26801" lon="2.64913">
        <ele>424.6</ele>
        <time>2022-02-06T09:08:02Z</time>
      </trkpt>
      <trkpt lat="48.26789" lon="2.6493">
        <ele>430.6</ele>
        <time>2022-02-06T09:08:06Z</time>
      </trkpt>
      <trkpt lat="48.26791" lon="2.64949">
        <ele>429</ele>
        <time>2022-02-06T09:08:10Z</time>
      </trkpt>
      <trkpt lat="48.26787" lon="2.64973">
        <ele>428.6</ele>
        <time>2022-02-06T09:08:14Z</time>
      </trkpt>
      <trkpt lat="48.26791" lon="2.64997">
        <ele>428</ele>
        <time>2022-02-06T09:08:18Z</time>
      </trkpt>
      <trkpt lat="48.26795" lon="2.65028">
        <ele>423.6</ele>
        <time>2022-02-06T09:08:22Z</time>
      </trkpt>
      <trkpt lat="48.2679" lon="2.65044">
        <ele>424.8</ele>
        <time>2022-02-06T09:08:26Z</time>
      </trkpt>
      <trkpt lat="48.26786" lon="2.65057">
        <ele>426.2</ele>
        <time>2022-02-06T09:08:30Z</time>
      </trkpt>
      <trkpt lat="48.26781" lon="2.65071">
        <ele>424</ele>
        <time>2022-02-06T09:08:34Z</time>
      </trkpt>
      <trkpt lat="48.26771" lon="2.65096">
        <ele>424.2</ele>
        <time>2022-02-06T09:08:38Z</time>
      </trkpt>
      <trkpt lat="48.26757" lon="2.65105">
        <ele>425.4</ele>
        <time>2022-02-06T09:08:42Z</time>
      </trkpt>
      <trkpt lat="48.26744" lon="2.65113">
        <ele>425.2</ele>
        <time>2022-02-06T09:08:46Z</time>
      </trkpt>
      <trkpt lat="48.26732" lon="2.65118">
        <ele>426.6</ele>
        <time>2022-02-06T09:08:50Z</time>
      </trkpt>
      <trkpt lat="48.26721" lon="2.65111">
        <ele>427.8</ele>
        <time>2022-02-06T09:08:54Z</time>
      </trkpt>
      <trkpt lat="48.2671" lon="2.65106">
        <ele>427.2</ele>
        <time>2022-02-06T09:08:58Z</time>
      </trkpt>
      <trkpt lat="48.26699" lon="2.65099">
        <ele>428.4</ele>
        <time>2022-02-06T09:09:02Z</time>
      </trkpt>
      <trkpt lat="48.26689" lon="2.65097">
        <ele>428.2</ele>
        <time>2022-02-06T09:09:06Z</time>
      </trkpt>
      <trkpt lat="48.26679" lon="2.65094">
        <ele>430.2</ele>
        <time>2022-02-06T09:09:10Z</time>
      </trkpt>
      <trkpt lat="48.26669" lon="2.65089">
        <ele>429.8</ele>
        <time>2022-02-06T09:09:14Z</time>
      </trkpt>
      <trkpt lat="48.2666" lon="2.65089">
        <ele>431.2</ele>
        <time>2022-02-06T09:09:18Z</time>
      </trkpt>
      <trkpt lat="48.26653" lon="2.65084">
        <ele>431</ele>
        <time>2022-02-06T09:09:22Z</time>
      </trkpt>
      <trkpt lat="48.26644" lon="2.65083">
        <ele>432.2</ele>
        <time>2022-02-06T09:09:26Z</time>
      </trkpt>
      <trkpt lat="48.26631" lon="2.65082">
        <ele>432.4</ele>
        <time>2022-02-06T09:09:30Z</time>
      </trkpt>
      <trkpt lat="48.2662" lon="2.6508">
        <ele>434</ele>
        <time>2022-02-06T09:09:34Z</time>
      </trkpt>
      <trkpt lat="48.26608" lon="2.6508">
        <ele>434.6</ele>
        <time>2022-02-06T09:09:38Z</time>
      </trkpt>
      <trkpt lat="48.266" lon="2.6508">
        <ele>436.6</ele>
        <time>2022-02-06T09:09:42Z</time>
      </trkpt>
      <trkpt lat="48.26594" lon="2.6508">
        <ele>437</ele>
        <time>2022-02-06T09:09:46Z</time>
      </trkpt>
      <trkpt lat="48.26584" lon="2.65105">
        <ele>436.8</ele>
        <time>2022-02-06T09:10:17Z</time>
      </trkpt>
      <trkpt lat="48.2659" lon="2.65132">
        <ele>435.4</ele>
        <time>2022-02-06T09:10:21Z</time>
      </trkpt>
      <trkpt lat="48.266" lon="2.65167">
        <ele>432.4</ele>
        <time>2022-02-06T09:10:25Z</time>
      </trkpt>
      <trkpt lat="48.26614" lon="2.65204">
        <ele>430.2</ele>
        <time>2022-02-06T09:10:29Z</time>
      </trkpt>
      <trkpt lat="48.26625" lon="2.65246">
        <ele>427.4</ele>
        <time>2022-02-06T09:10:33Z</time>
      </trkpt>
      <trkpt lat="48.26638" lon="2.65283">
        <ele>427</ele>
        <time>2022-02-06T09:10:37Z</time>
      </trkpt>
      <trkpt lat="48.26649" lon="2.65316">
        <ele>427.2</ele>
        <time>2022-02-06T09:10:41Z</time>
      </trkpt>
      <trkpt lat="48.26659" lon="2.65345">
        <ele>428</ele>
        <time>2022-02-06T09:10:45Z</time>
      </trkpt>
      <trkpt lat="48.26668" lon="2.65372">
        <ele>427.4</ele>
        <time>2022-02-06T09:10:49Z</time>
      </trkpt>
      <trkpt lat="48.26664" lon="2.65384">
        <ele>428.4</ele>
        <time>2022-02-06T09:10:53Z</time>
      </trkpt>
      <trkpt lat="48.26608" lon="2.65525">
        <ele>464.6</ele>
        <time>2022-02-06T09:14:53Z</time>
      </trkpt>
      <trkpt lat="48.26607" lon="2.65537">
        <ele>463.4</ele>
        <time>2022-02-06T09:14:57Z</time>
      </trkpt>
      <trkpt lat="48.26605" lon="2.65541">
        <ele>464.2</ele>
        <time>2022-02-06T09:15:01Z</time>
      </trkpt>
      <trkpt lat="48.26604" lon="2.65545">
        <ele>463.6</ele>
        <time>2022-02-06T09:15:05Z</time>
      </trkpt>
      <trkpt lat="48.26601" lon="2.65553">
        <ele>464.8</ele>
        <time>2022-02-06T09:15:09Z</time>
      </trkpt>
      <trkpt lat="48.26602" lon="2.65564">
        <ele>465.2</ele>
        <time>2022-02-06T09:15:13Z</time>
      </trkpt>
      <trkpt lat="48.26597" lon="2.65573">
        <ele>465.6</ele>
        <time>2022-02-06T09:15:17Z</time>
      </trkpt>
      <trkpt lat="48.2659" lon="2.65577">
        <ele>465</ele>
        <time>2022-02-06T09:15:21Z</time>
      </trkpt>
      <trkpt lat="48.26583" lon="2.65585">
        <ele>465.8</ele>
        <time>2022-02-06T09:15:25Z</time>
      </trkpt>
      <trkpt lat="48.26584" lon="2.65591">
        <ele>465.8</ele>
        <time>2022-02-06T09:15:29Z</time>
      </trkpt>
      <trkpt lat="48.26591" lon="2.65609">
        <ele>462.8</ele>
        <time>2022-02-06T09:15:33Z</time>
      </trkpt>
      <trkpt lat="48.26593" lon="2.6563">
        <ele>458.8</ele>
        <time>2022-02-06T09:15:37Z</time>
      </trkpt>
      <trkpt lat="48.26597" lon="2.65639">
        <ele>458.4</ele>
        <time>2022-02-06T09:15:41Z</time>
      </trkpt>
      <trkpt lat="48.26602" lon="2.65649">
        <ele>456.2</ele>
        <time>2022-02-06T09:15:45Z</time>
      </trkpt>
      <trkpt lat="48.26596" lon="2.65652">
        <ele>454.4</ele>
        <time>2022-02-06T09:15:49Z</time>
      </trkpt>
      <trkpt lat="48.26599" lon="2.65663">
        <ele>453.8</ele>
        <time>2022-02-06T09:15:53Z</time>
      </trkpt>
      <trkpt lat="48.26609" lon="2.65671">
        <ele>452</ele>
        <time>2022-02-06T09:15:57Z</time>
      </trkpt>
      <trkpt lat="48.26621" lon="2.65673">
        <ele>450</ele>
        <time>2022-02-06T09:16:01Z</time>
      </trkpt>
      <trkpt lat="48.26629" lon="2.65678">
        <ele>449.2</ele>
        <time>2022-02-06T09:16:05Z</time>
      </trkpt>
      <trkpt lat="48.26638" lon="2.65685">
        <ele>450.2</ele>
        <time>2022-02-06T09:16:09Z</time>
      </trkpt>
      <trkpt lat="48.26647" lon="2.65691">
        <ele>449.6</ele>
        <time>2022-02-06T09:16:13Z</time>
      </trkpt>
      <trkpt lat="48.26657" lon="2.65681">
        <ele>443.4</ele>
        <time>2022-02-06T09:16:17Z</time>
      </trkpt>
      <trkpt lat="48.2667" lon="2.65698">
        <ele>437.2</ele>
        <time>2022-02-06T09:16:21Z</time>
      </trkpt>
      <trkpt lat="48.2668" lon="2.6571">
        <ele>433.4</ele>
        <time>2022-02-06T09:16:25Z</time>
      </trkpt>
      <trkpt lat="48.26682" lon="2.6572">
        <ele>436.6</ele>
        <time>2022-02-06T09:16:29Z</time>
      </trkpt>
      <trkpt lat="48.26638" lon="2.65792">
        <ele>454.6</ele>
        <time>2022-02-06T09:18:16Z</time>
      </trkpt>
      <trkpt lat="48.26636" lon="2.65802">
        <ele>456.2</ele>
        <time>2022-02-06T09:18:20Z</time>
      </trkpt>
      <trkpt lat="48.26632" lon="2.65807">
        <ele>456.2</ele>
        <time>2022-02-06T09:18:24Z</time>
      </trkpt>
      <trkpt lat="48.26628" lon="2.65811">
        <ele>456.6</ele>
        <time>2022-02-06T09:18:28Z</time>
      </trkpt>
      <trkpt lat="48.26629" lon="2.6582">
        <ele>456.6</ele>
        <time>2022-02-06T09:18:32Z</time>
      </trkpt>
      <trkpt lat="48.26627" lon="2.65829">
        <ele>456.6</ele>
        <time>2022-02-06T09:18:36Z</time>
      </trkpt>
      <trkpt lat="48.26621" lon="2.65836">
        <ele>456.4</ele>
        <time>2022-02-06T09:18:40Z</time>
      </trkpt>
      <trkpt lat="48.26616" lon="2.6584">
        <ele>458.4</ele>
        <time>2022-02-06T09:18:44Z</time>
      </trkpt>
      <trkpt lat="48.26614" lon="2.65851">
        <ele>459.4</ele>
        <time>2022-02-06T09:18:48Z</time>
      </trkpt>
      <trkpt lat="48.26616" lon="2.65863">
        <ele>456.2</ele>
        <time>2022-02-06T09:18:52Z</time>
      </trkpt>
      <trkpt lat="48.26615" lon="2.65873">
        <ele>458</ele>
        <time>2022-02-06T09:18:56Z</time>
      </trkpt>
      <trkpt lat="48.26612" lon="2.65885">
        <ele>458.2</ele>
        <time>2022-02-06T09:19:00Z</time>
      </trkpt>
      <trkpt lat="48.26609" lon="2.65898">
        <ele>458.6</ele>
        <time>2022-02-06T09:19:04Z</time>
      </trkpt>
      <trkpt lat="48.26603" lon="2.65905">
        <ele>458.6</ele>
        <time>2022-02-06T09:19:08Z</time>
      </trkpt>
      <trkpt lat="48.26599" lon="2.6591">
        <ele>459.6</ele>
        <time>2022-02-06T09:19:12Z</time>
      </trkpt>
      <trkpt lat="48.26593" lon="2.65918">
        <ele>459.2</ele>
        <time>2022-02-06T09:19:16Z</time>
      </trkpt>
      <trkpt lat="48.26587" lon="2.6592">
        <ele>459.8</ele>
        <time>2022-02-06T09:19:20Z</time>
      </trkpt>
      <trkpt lat="48.26582" lon="2.65928">
        <ele>459.6</ele>
        <time>2022-02-06T09:19:24Z</time>
      </trkpt>
      <trkpt lat="48.26575" lon="2.65934">
        <ele>459.2</ele>
        <time>2022-02-06T09:19:28Z</time>
      </trkpt>
      <trkpt lat="48.26569" lon="2.6594">
        <ele>460.2</ele>
        <time>2022-02-06T09:19:32Z</time>
      </trkpt>
      <trkpt lat="48.26565" lon="2.65943">
        <ele>461</ele>
        <time>2022-02-06T09:19:36Z</time>
      </trkpt>
      <trkpt lat="48.26558" lon="2.65949">
        <ele>461.4</ele>
        <time>2022-02-06T09:19:40Z</time>
      </trkpt>
      <trkpt lat="48.26554" lon="2.65953">
        <ele>461.4</ele>
        <time>2022-02-06T09:19:44Z</time>
      </trkpt>
      <trkpt lat="48.26555" lon="2.65957">
        <ele>461</ele>
        <time>2022-02-06T09:19:48Z</time>
      </trkpt>
      <trkpt lat="48.26565" lon="2.65953">
        <ele>457.8</ele>
        <time>2022-02-06T09:19:52Z</time>
      </trkpt>
      <trkpt lat="48.26568" lon="2.65954">
        <ele>455.4</ele>
        <time>2022-02-06T09:19:56Z</time>
      </trkpt>
      <trkpt lat="48.26562" lon="2.65957">
        <ele>454.4</ele>
        <time>2022-02-06T09:20:00Z</time>
      </trkpt>
      <trkpt lat="48.26556" lon="2.65961">
        <ele>455.2</ele>
        <time>2022-02-06T09:20:04Z</time>
      </trkpt>
      <trkpt lat="48.2655" lon="2.65964">
        <ele>455.4</ele>
        <time>2022-02-06T09:20:08Z</time>
      </trkpt>
      <trkpt lat="48.26547" lon="2.65968">
        <ele>456.8</ele>
        <time>2022-02-06T09:20:12Z</time>
      </trkpt>
      <trkpt lat="48.26547" lon="2.65971">
        <ele>456.6</ele>
        <time>2022-02-06T09:20:16Z</time>
      </trkpt>
      <trkpt lat="48.26554" lon="2.6597">
        <ele>454.6</ele>
        <time>2022-02-06T09:20:20Z</time>
      </trkpt>
      <trkpt lat="48.2656" lon="2.65969">
        <ele>453.6</ele>
        <time>2022-02-06T09:20:24Z</time>
      </trkpt>
      <trkpt lat="48.26574" lon="2.65965">
        <ele>451.6</ele>
        <time>2022-02-06T09:20:28Z</time>
      </trkpt>
      <trkpt lat="48.26588" lon="2.65964">
        <ele>450.6</ele>
        <time>2022-02-06T09:20:32Z</time>
      </trkpt>
      <trkpt lat="48.26607" lon="2.65961">
        <ele>448</ele>
        <time>2022-02-06T09:20:36Z</time>
      </trkpt>
      <trkpt lat="48.26618" lon="2.65957">
        <ele>444.6</ele>
        <time>2022-02-06T09:20:40Z</time>
      </trkpt>
      <trkpt lat="48.26627" lon="2.6595">
        <ele>443.6</ele>
        <time>2022-02-06T09:20:44Z</time>
      </trkpt>
      <trkpt lat="48.2664" lon="2.65952">
        <ele>442.2</ele>
        <time>2022-02-06T09:20:48Z</time>
      </trkpt>
      <trkpt lat="48.26645" lon="2.6596">
        <ele>441.4</ele>
        <time>2022-02-06T09:20:52Z</time>
      </trkpt>
      <trkpt lat="48.2664" lon="2.66069">
        <ele>459.4</ele>
        <time>2022-02-06T09:23:02Z</time>
      </trkpt>
      <trkpt lat="48.26638" lon="2.66081">
        <ele>459.2</ele>
        <time>2022-02-06T09:23:06Z</time>
      </trkpt>
      <trkpt lat="48.26636" lon="2.66093">
        <ele>459.8</ele>
        <time>2022-02-06T09:23:10Z</time>
      </trkpt>
      <trkpt lat="48.26634" lon="2.66107">
        <ele>460.2</ele>
        <time>2022-02-06T09:23:14Z</time>
      </trkpt>
      <trkpt lat="48.26634" lon="2.6612">
        <ele>459.8</ele>
        <time>2022-02-06T09:23:18Z</time>
      </trkpt>
      <trkpt lat="48.26633" lon="2.66131">
        <ele>461</ele>
        <time>2022-02-06T09:23:22Z</time>
      </trkpt>
      <trkpt lat="48.26634" lon="2.66143">
        <ele>461.6</ele>
        <time>2022-02-06T09:23:26Z</time>
      </trkpt>
      <trkpt lat="48.26635" lon="2.66153">
        <ele>462.2</ele>
        <time>2022-02-06T09:23:30Z</time>
      </trkpt>
      <trkpt lat="48.26637" lon="2.66163">
        <ele>463</ele>
        <time>2022-02-06T09:23:34Z</time>
      </trkpt>
      <trkpt lat="48.26638" lon="2.66175">
        <ele>463.2</ele>
        <time>2022-02-06T09:23:38Z</time>
      </trkpt>
      <trkpt lat="48.26638" lon="2.66186">
        <ele>461</ele>
        <time>2022-02-06T09:23:42Z</time>
      </trkpt>
      <trkpt lat="48.2664" lon="2.66199">
        <ele>460.4</ele>
        <time>2022-02-06T09:23:46Z</time>
      </trkpt>
      <trkpt lat="48.26639" lon="2.66213">
        <ele>459.6</ele>
        <time>2022-02-06T09:23:50Z</time>
      </trkpt>
      <trkpt lat="48.26634" lon="2.66238">
        <ele>456</ele>
        <time>2022-02-06T09:23:54Z</time>
      </trkpt>
      <trkpt lat="48.26627" lon="2.66268">
        <ele>449.8</ele>
        <time>2022-02-06T09:23:58Z</time>
      </trkpt>
      <trkpt lat="48.26628" lon="2.663">
        <ele>448.8</ele>
        <time>2022-02-06T09:24:02Z</time>
      </trkpt>
      <trkpt lat="48.26628" lon="2.663">
        <ele>449.2</ele>
        <time>2022-02-06T09:24:06Z</time>
      </trkpt>
      <trkpt lat="48.26624" lon="2.66319">
        <ele>449.6</ele>
        <time>2022-02-06T09:24:10Z</time>
      </trkpt>
      <trkpt lat="48.26619" lon="2.66328">
        <ele>449.2</ele>
        <time>2022-02-06T09:24:14Z</time>
      </trkpt>
      <trkpt lat="48.2661" lon="2.6634">
        <ele>449.6</ele>
        <time>2022-02-06T09:24:18Z</time>
      </trkpt>
      <trkpt lat="48.26603" lon="2.66354">
        <ele>448.4</ele>
        <time>2022-02-06T09:24:22Z</time>
      </trkpt>
      <trkpt lat="48.26594" lon="2.66363">
        <ele>445</ele>
        <time>2022-02-06T09:24:26Z</time>
      </trkpt>
      <trkpt lat="48.2659" lon="2.66371">
        <ele>444</ele>
        <time>2022-02-06T09:24:30Z</time>
      </trkpt>
      <trkpt lat="48.2659" lon="2.66391">
        <ele>441.2</ele>
        <time>2022-02-06T09:24:34Z</time>
      </trkpt>
      <trkpt lat="48.26587" lon="2.66428">
        <ele>439.6</ele>
        <time>2022-02-06T09:24:38Z</time>
      </trkpt>
      <trkpt lat="48.26583" lon="2.66467">
        <ele>437.6</ele>
        <time>2022-02-06T09:24:42Z</time>
      </trkpt>
      <trkpt lat="48.26589" lon="2.66507">
        <ele>434.2</ele>
        <time>2022-02-06T09:24:46Z</time>
      </trkpt>
      <trkpt lat="48.26596" lon="2.66542">
        <ele>434.4</ele>
        <time>2022-02-06T09:24:50Z</time>
      </trkpt>
      <trkpt lat="48.26585" lon="2.66569">
        <ele>435.6</ele>
        <time>2022-02-06T09:24:54Z</time>
      </trkpt>
      <trkpt lat="48.26578" lon="2.66582">
        <ele>435.6</ele>
        <time>2022-02-06T09:24:58Z</time>
      </trkpt>
      <trkpt lat="48.26571" lon="2.66596">
        <ele>435.4</ele>
        <time>2022-02-06T09:25:02Z</time>
      </trkpt>
      <trkpt lat="48.26566" lon="2.6661">
        <ele>435.6</ele>
        <time>2022-02-06T09:25:06Z</time>
      </trkpt>
      <trkpt lat="48.26562" lon="2.66623">
        <ele>435.2</ele>
        <time>2022-02-06T09:25:10Z</time>
      </trkpt>
      <trkpt lat="48.26556" lon="2.66639">
        <ele>435.4</ele>
        <time>2022-02-06T09:25:14Z</time>
      </trkpt>
      <trkpt lat="48.26551" lon="2.66655">
        <ele>434.2</ele>
        <time>2022-02-06T09:25:18Z</time>
      </trkpt>
      <trkpt lat="48.26546" lon="2.66671">
        <ele>434</ele>
        <time>2022-02-06T09:25:22Z</time>
      </trkpt>
      <trkpt lat="48.26542" lon="2.66687">
        <ele>435</ele>
        <time>2022-02-06T09:25:26Z</time>
      </trkpt>
      <trkpt lat="48.26538" lon="2.66704">
        <ele>434.2</ele>
        <time>2022-02-06T09:25:30Z</time>
      </trkpt>
      <trkpt lat="48.26533" lon="2.6672">
        <ele>433.8</ele>
        <time>2022-02-06T09:25:34Z</time>
      </trkpt>
      <trkpt lat="48.26529" lon="2.66735">
        <ele>433.6</ele>
        <time>2022-02-06T09:25:38Z</time>
      </trkpt>
      <trkpt lat="48.26524" lon="2.66752">
        <ele>434</ele>
        <time>2022-02-06T09:25:42Z</time>
      </trkpt>
      <trkpt lat="48.2652" lon="2.66771">
        <ele>434.4</ele>
        <time>2022-02-06T09:25:46Z</time>
      </trkpt>
      <trkpt lat="48.26517" lon="2.66787">
        <ele>433.6</ele>
        <time>2022-02-06T09:25:50Z</time>
      </trkpt>
      <trkpt lat="48.26512" lon="2.66806">
        <ele>433.2</ele>
        <time>2022-02-06T09:25:54Z</time>
      </trkpt>
      <trkpt lat="48.26508" lon="2.66824">
        <ele>432.6</ele>
        <time>2022-02-06T09:25:58Z</time>
      </trkpt>
      <trkpt lat="48.26502" lon="2.66833">
        <ele>434.6</ele>
        <time>2022-02-06T09:26:02Z</time>
      </trkpt>
      <trkpt lat="48.26495" lon="2.66828">
        <ele>435.8</ele>
        <time>2022-02-06T09:26:06Z</time>
      </trkpt>
      <trkpt lat="48.26489" lon="2.66822">
        <ele>436.4</ele>
        <time>2022-02-06T09:26:10Z</time>
      </trkpt>
      <trkpt lat="48.26478" lon="2.6682">
        <ele>437.4</ele>
        <time>2022-02-06T09:26:14Z</time>
      </trkpt>
      <trkpt lat="48.2647" lon="2.66818">
        <ele>438.2</ele>
        <time>2022-02-06T09:26:18Z</time>
      </trkpt>
      <trkpt lat="48.2646" lon="2.66821">
        <ele>438.2</ele>
        <time>2022-02-06T09:26:22Z</time>
      </trkpt>
      <trkpt lat="48.26454" lon="2.66829">
        <ele>439</ele>
        <time>2022-02-06T09:26:26Z</time>
      </trkpt>
      <trkpt lat="48.26445" lon="2.66836">
        <ele>439.2</ele>
        <time>2022-02-06T09:26:30Z</time>
      </trkpt>
      <trkpt lat="48.26436" lon="2.66847">
        <ele>438.2</ele>
        <time>2022-02-06T09:26:34Z</time>
      </trkpt>
      <trkpt lat="48.26429" lon="2.66866">
        <ele>439.6</ele>
        <time>2022-02-06T09:26:38Z</time>
      </trkpt>
      <trkpt lat="48.26422" lon="2.66883">
        <ele>437.6</ele>
        <time>2022-02-06T09:26:42Z</time>
      </trkpt>
      <trkpt lat="48.26416" lon="2.66905">
        <ele>438</ele>
        <time>2022-02-06T09:26:46Z</time>
      </trkpt>
      <trkpt lat="48.26412" lon="2.66927">
        <ele>437.2</ele>
        <time>2022-02-06T09:26:50Z</time>
      </trkpt>
      <trkpt lat="48.2641" lon="2.66945">
        <ele>436.8</ele>
        <time>2022-02-06T09:26:54Z</time>
      </trkpt>
      <trkpt lat="48.26404" lon="2.66966">
        <ele>437.4</ele>
        <time>2022-02-06T09:26:58Z</time>
      </trkpt>
      <trkpt lat="48.26398" lon="2.66968">
        <ele>439</ele>
        <time>2022-02-06T09:27:02Z</time>
      </trkpt>
      <trkpt lat="48.26395" lon="2.66966">
        <ele>440.2</ele>
        <time>2022-02-06T09:27:06Z</time>
      </trkpt>
      <trkpt lat="48.26392" lon="2.66963">
        <ele>441.4</ele>
        <time>2022-02-06T09:27:10Z</time>
      </trkpt>
      <trkpt lat="48.26388" lon="2.66959">
        <ele>442.6</ele>
        <time>2022-02-06T09:27:14Z</time>
      </trkpt>
      <trkpt lat="48.26385" lon="2.66957">
        <ele>444</ele>
        <time>2022-02-06T09:27:18Z</time>
      </trkpt>
      <trkpt lat="48.2638" lon="2.66958">
        <ele>445</ele>
        <time>2022-02-06T09:27:22Z</time>
      </trkpt>
      <trkpt lat="48.26377" lon="2.66957">
        <ele>446.8</ele>
        <time>2022-02-06T09:27:26Z</time>
      </trkpt>
      <trkpt lat="48.26292" lon="2.67018">
        <ele>472</ele>
        <time>2022-02-06T09:29:14Z</time>
      </trkpt>
      <trkpt lat="48.26288" lon="2.67025">
        <ele>472.4</ele>
        <time>2022-02-06T09:29:18Z</time>
      </trkpt>
      <trkpt lat="48.26283" lon="2.67032">
        <ele>472.2</ele>
        <time>2022-02-06T09:29:22Z</time>
      </trkpt>
      <trkpt lat="48.26278" lon="2.67042">
        <ele>471.4</ele>
        <time>2022-02-06T09:29:26Z</time>
      </trkpt>
      <trkpt lat="48.26274" lon="2.67054">
        <ele>471</ele>
        <time>2022-02-06T09:29:30Z</time>
      </trkpt>
      <trkpt lat="48.2627" lon="2.67064">
        <ele>471.2</ele>
        <time>2022-02-06T09:29:34Z</time>
      </trkpt>
      <trkpt lat="48.26267" lon="2.67075">
        <ele>471.8</ele>
        <time>2022-02-06T09:29:38Z</time>
      </trkpt>
      <trkpt lat="48.2626" lon="2.67087">
        <ele>471.4</ele>
        <time>2022-02-06T09:29:42Z</time>
      </trkpt>
      <trkpt lat="48.26251" lon="2.67094">
        <ele>469.4</ele>
        <time>2022-02-06T09:29:46Z</time>
      </trkpt>
      <trkpt lat="48.2624" lon="2.67099">
        <ele>470.4</ele>
        <time>2022-02-06T09:29:50Z</time>
      </trkpt>
      <trkpt lat="48.26231" lon="2.67103">
        <ele>471.4</ele>
        <time>2022-02-06T09:29:54Z</time>
      </trkpt>
      <trkpt lat="48.26221" lon="2.67107">
        <ele>471.6</ele>
        <time>2022-02-06T09:29:58Z</time>
      </trkpt>
      <trkpt lat="48.26213" lon="2.67118">
        <ele>472</ele>
        <time>2022-02-06T09:30:02Z</time>
      </trkpt>
      <trkpt lat="48.26206" lon="2.67131">
        <ele>471.6</ele>
        <time>2022-02-06T09:30:06Z</time>
      </trkpt>
      <trkpt lat="48.26198" lon="2.67141">
        <ele>471.8</ele>
        <time>2022-02-06T09:30:10Z</time>
      </trkpt>
      <trkpt lat="48.2619" lon="2.67149">
        <ele>472.4</ele>
        <time>2022-02-06T09:30:14Z</time>
      </trkpt>
      <trkpt lat="48.26181" lon="2.67159">
        <ele>472.4</ele>
        <time>2022-02-06T09:30:18Z</time>
      </trkpt>
      <trkpt lat="48.26173" lon="2.67166">
        <ele>473.6</ele>
        <time>2022-02-06T09:30:22Z</time>
      </trkpt>
      <trkpt lat="48.26164" lon="2.67177">
        <ele>474</ele>
        <time>2022-02-06T09:30:26Z</time>
      </trkpt>
      <trkpt lat="48.26155" lon="2.67189">
        <ele>473.4</ele>
        <time>2022-02-06T09:30:30Z</time>
      </trkpt>
      <trkpt lat="48.26147" lon="2.67201">
        <ele>472.8</ele>
        <time>2022-02-06T09:30:34Z</time>
      </trkpt>
      <trkpt lat="48.26141" lon="2.67212">
        <ele>472.6</ele>
        <time>2022-02-06T09:30:38Z</time>
      </trkpt>
      <trkpt lat="48.26136" lon="2.67225">
        <ele>472.4</ele>
        <time>2022-02-06T09:30:42Z</time>
      </trkpt>
      <trkpt lat="48.26133" lon="2.67241">
        <ele>471.8</ele>
        <time>2022-02-06T09:30:46Z</time>
      </trkpt>
      <trkpt lat="48.26124" lon="2.67247">
        <ele>471.2</ele>
        <time>2022-02-06T09:30:50Z</time>
      </trkpt>
      <trkpt lat="48.26113" lon="2.67245">
        <ele>470.8</ele>
        <time>2022-02-06T09:30:54Z</time>
      </trkpt>
      <trkpt lat="48.26102" lon="2.67259">
        <ele>469.8</ele>
        <time>2022-02-06T09:30:58Z</time>
      </trkpt>
      <trkpt lat="48.2609" lon="2.67265">
        <ele>470.2</ele>
        <time>2022-02-06T09:31:02Z</time>
      </trkpt>
      <trkpt lat="48.26081" lon="2.6726">
        <ele>468.6</ele>
        <time>2022-02-06T09:31:06Z</time>
      </trkpt>
      <trkpt lat="48.26071" lon="2.67256">
        <ele>470.6</ele>
        <time>2022-02-06T09:31:10Z</time>
      </trkpt>
      <trkpt lat="48.2606" lon="2.67254">
        <ele>473</ele>
        <time>2022-02-06T09:31:14Z</time>
      </trkpt>
      <trkpt lat="48.26048" lon="2.67253">
        <ele>469.8</ele>
        <time>2022-02-06T09:31:18Z</time>
      </trkpt>
      <trkpt lat="48.26038" lon="2.67247">
        <ele>471.2</ele>
        <time>2022-02-06T09:31:22Z</time>
      </trkpt>
      <trkpt lat="48.26025" lon="2.67249">
        <ele>469.6</ele>
        <time>2022-02-06T09:31:26Z</time>
      </trkpt>
      <trkpt lat="48.26011" lon="2.67259">
        <ele>470.2</ele>
        <time>2022-02-06T09:31:30Z</time>
      </trkpt>
      <trkpt lat="48.26003" lon="2.67251">
        <ele>469.8</ele>
        <time>2022-02-06T09:31:34Z</time>
      </trkpt>
      <trkpt lat="48.25992" lon="2.67243">
        <ele>469.6</ele>
        <time>2022-02-06T09:31:38Z</time>
      </trkpt>
      <trkpt lat="48.25986" lon="2.67231">
        <ele>470</ele>
        <time>2022-02-06T09:31:42Z</time>
      </trkpt>
      <trkpt lat="48.25981" lon="2.67215">
        <ele>468.2</ele>
        <time>2022-02-06T09:31:46Z</time>
      </trkpt>
      <trkpt lat="48.25973" lon="2.67205">
        <ele>465.2</ele>
        <time>2022-02-06T09:31:50Z</time>
      </trkpt>
      <trkpt lat="48.25956" lon="2.67202">
        <ele>460.6</ele>
        <time>2022-02-06T09:31:54Z</time>
      </trkpt>
      <trkpt lat="48.25949" lon="2.67181">
        <ele>460.8</ele>
        <time>2022-02-06T09:31:58Z</time>
      </trkpt>
      <trkpt lat="48.25933" lon="2.67189">
        <ele>458.4</ele>
        <time>2022-02-06T09:32:02Z</time>
      </trkpt>
      <trkpt lat="48.25924" lon="2.6721">
        <ele>459</ele>
        <time>2022-02-06T09:32:06Z</time>
      </trkpt>
      <trkpt lat="48.25919" lon="2.67215">
        <ele>458</ele>
        <time>2022-02-06T09:32:10Z</time>
      </trkpt>
      <trkpt lat="48.25905" lon="2.67221">
        <ele>456.8</ele>
        <time>2022-02-06T09:32:14Z</time>
      </trkpt>
      <trkpt lat="48.25891" lon="2.6722">
        <ele>456</ele>
        <time>2022-02-06T09:32:18Z</time>
      </trkpt>
      <trkpt lat="48.25882" lon="2.6722">
        <ele>458</ele>
        <time>2022-02-06T09:32:22Z</time>
      </trkpt>
      <trkpt lat="48.25879" lon="2.67223">
        <ele>459</ele>
        <time>2022-02-06T09:32:26Z</time>
      </trkpt>
      <trkpt lat="48.2588" lon="2.6723">
        <ele>460.8</ele>
        <time>2022-02-06T09:32:30Z</time>
      </trkpt>
      <trkpt lat="48.25884" lon="2.67238">
        <ele>461.4</ele>
        <time>2022-02-06T09:32:34Z</time>
      </trkpt>
      <trkpt lat="48.25887" lon="2.67241">
        <ele>462.2</ele>
        <time>2022-02-06T09:32:38Z</time>
      </trkpt>
      <trkpt lat="48.25895" lon="2.67247">
        <ele>463.4</ele>
        <time>2022-02-06T09:32:42Z</time>
      </trkpt>
      <trkpt lat="48.25897" lon="2.67255">
        <ele>465.2</ele>
        <time>2022-02-06T09:32:46Z</time>
      </trkpt>
      <trkpt lat="48.25896" lon="2.67262">
        <ele>466.6</ele>
        <time>2022-02-06T09:32:50Z</time>
      </trkpt>
      <trkpt lat="48.25897" lon="2.67272">
        <ele>467.8</ele>
        <time>2022-02-06T09:32:54Z</time>
      </trkpt>
      <trkpt lat="48.25894" lon="2.67283">
        <ele>468.2</ele>
        <time>2022-02-06T09:32:58Z</time>
      </trkpt>
      <trkpt lat="48.25891" lon="2.67293">
        <ele>467</ele>
        <time>2022-02-06T09:33:02Z</time>
      </trkpt>
      <trkpt lat="48.25888" lon="2.67306">
        <ele>466.4</ele>
        <time>2022-02-06T09:33:06Z</time>
      </trkpt>
      <trkpt lat="48.25889" lon="2.67319">
        <ele>461.8</ele>
        <time>2022-02-06T09:33:10Z</time>
      </trkpt>
      <trkpt lat="48.2588" lon="2.67321">
        <ele>459</ele>
        <time>2022-02-06T09:33:14Z</time>
      </trkpt>
      <trkpt lat="48.2587" lon="2.67323">
        <ele>457.4</ele>
        <time>2022-02-06T09:33:18Z</time>
      </trkpt>
      <trkpt lat="48.25871" lon="2.67333">
        <ele>451.8</ele>
        <time>2022-02-06T09:33:22Z</time>
      </trkpt>
      <trkpt lat="48.25864" lon="2.67337">
        <ele>447.2</ele>
        <time>2022-02-06T09:33:26Z</time>
      </trkpt>
      <trkpt lat="48.25866" lon="2.6735">
        <ele>445.6</ele>
        <time>2022-02-06T09:33:30Z</time>
      </trkpt>
      <trkpt lat="48.25866" lon="2.67359">
        <ele>441.8</ele>
        <time>2022-02-06T09:33:34Z</time>
      </trkpt>
      <trkpt lat="48.25862" lon="2.67361">
        <ele>441.2</ele>
        <time>2022-02-06T09:33:38Z</time>
      </trkpt>
      <trkpt lat="48.25855" lon="2.67361">
        <ele>442.4</ele>
        <time>2022-02-06T09:33:42Z</time>
      </trkpt>
      <trkpt lat="48.25842" lon="2.67372">
        <ele>435.8</ele>
        <time>2022-02-06T09:33:46Z</time>
      </trkpt>
      <trkpt lat="48.25832" lon="2.67384">
        <ele>437.4</ele>
        <time>2022-02-06T09:33:50Z</time>
      </trkpt>
      <trkpt lat="48.25833" lon="2.67402">
        <ele>437</ele>
        <time>2022-02-06T09:33:54Z</time>
      </trkpt>
      <trkpt lat="48.25842" lon="2.67422">
        <ele>436.4</ele>
        <time>2022-02-06T09:33:58Z</time>
      </trkpt>
      <trkpt lat="48.2585" lon="2.67446">
        <ele>436.8</ele>
        <time>2022-02-06T09:34:02Z</time>
      </trkpt>
      <trkpt lat="48.25858" lon="2.67468">
        <ele>435.4</ele>
        <time>2022-02-06T09:34:06Z</time>
      </trkpt>
      <trkpt lat="48.25868" lon="2.67488">
        <ele>435.6</ele>
        <time>2022-02-06T09:34:10Z</time>
      </trkpt>
      <trkpt lat="48.25879" lon="2.67508">
        <ele>435.2</ele>
        <time>2022-02-06T09:34:14Z</time>
      </trkpt>
      <trkpt lat="48.25891" lon="2.67526">
        <ele>434.2</ele>
        <time>2022-02-06T09:34:18Z</time>
      </trkpt>
      <trkpt lat="48.25904" lon="2.67542">
        <ele>434</ele>
        <time>2022-02-06T09:34:22Z</time>
      </trkpt>
      <trkpt lat="48.25917" lon="2.6756">
        <ele>433.4</ele>
        <time>2022-02-06T09:34:26Z</time>
      </trkpt>
      <trkpt lat="48.25933" lon="2.67571">
        <ele>434.6</ele>
        <time>2022-02-06T09:34:30Z</time>
      </trkpt>
      <trkpt lat="48.25951" lon="2.67565">
        <ele>434.2</ele>
        <time>2022-02-06T09:34:34Z</time>
      </trkpt>
      <trkpt lat="48.25968" lon="2.6756">
        <ele>434</ele>
        <time>2022-02-06T09:34:38Z</time>
      </trkpt>
      <trkpt lat="48.25986" lon="2.67553">
        <ele>435</ele>
        <time>2022-02-06T09:34:42Z</time>
      </trkpt>
      <trkpt lat="48.26002" lon="2.67544">
        <ele>435.2</ele>
        <time>2022-02-06T09:34:46Z</time>
      </trkpt>
      <trkpt lat="48.26018" lon="2.67535">
        <ele>434.2</ele>
        <time>2022-02-06T09:34:50Z</time>
      </trkpt>
      <trkpt lat="48.26034" lon="2.67525">
        <ele>436.2</ele>
        <time>2022-02-06T09:34:54Z</time>
      </trkpt>
      <trkpt lat="48.26048" lon="2.67515">
        <ele>437.2</ele>
        <time>2022-02-06T09:34:58Z</time>
      </trkpt>
      <trkpt lat="48.26058" lon="2.67509">
        <ele>438.6</ele>
        <time>2022-02-06T09:35:02Z</time>
      </trkpt>
      <trkpt lat="48.26072" lon="2.67503">
        <ele>437.2</ele>
        <time>2022-02-06T09:35:06Z</time>
      </trkpt>
      <trkpt lat="48.26088" lon="2.67497">
        <ele>438.4</ele>
        <time>2022-02-06T09:35:10Z</time>
      </trkpt>
      <trkpt lat="48.26104" lon="2.6749">
        <ele>438</ele>
        <time>2022-02-06T09:35:14Z</time>
      </trkpt>
      <trkpt lat="48.2612" lon="2.67482">
        <ele>438.8</ele>
        <time>2022-02-06T09:35:18Z</time>
      </trkpt>
      <trkpt lat="48.26133" lon="2.67472">
        <ele>440.2</ele>
        <time>2022-02-06T09:35:22Z</time>
      </trkpt>
      <trkpt lat="48.26143" lon="2.67465">
        <ele>440.6</ele>
        <time>2022-02-06T09:35:26Z</time>
      </trkpt>
      <trkpt lat="48.26155" lon="2.67456">
        <ele>439.8</ele>
        <time>2022-02-06T09:35:30Z</time>
      </trkpt>
      <trkpt lat="48.26167" lon="2.67452">
        <ele>440.4</ele>
        <time>2022-02-06T09:35:34Z</time>
      </trkpt>
      <trkpt lat="48.26182" lon="2.67453">
        <ele>439</ele>
        <time>2022-02-06T09:35:38Z</time>
      </trkpt>
      <trkpt lat="48.26202" lon="2.67454">
        <ele>437.8</ele>
        <time>2022-02-06T09:35:42Z</time>
      </trkpt>
      <trkpt lat="48.26223" lon="2.67457">
        <ele>435.4</ele>
        <time>2022-02-06T09:35:46Z</time>
      </trkpt>
      <trkpt lat="48.26245" lon="2.67459">
        <ele>435.6</ele>
        <time>2022-02-06T09:35:50Z</time>
      </trkpt>
      <trkpt lat="48.26268" lon="2.67462">
        <ele>433.6</ele>
        <time>2022-02-06T09:35:54Z</time>
      </trkpt>
      <trkpt lat="48.26289" lon="2.67472">
        <ele>432.6</ele>
        <time>2022-02-06T09:35:58Z</time>
      </trkpt>
      <trkpt lat="48.26308" lon="2.6748">
        <ele>433.8</ele>
        <time>2022-02-06T09:36:02Z</time>
      </trkpt>
      <trkpt lat="48.26313" lon="2.67469">
        <ele>435.4</ele>
        <time>2022-02-06T09:36:06Z</time>
      </trkpt>
      <trkpt lat="48.26314" lon="2.67453">
        <ele>435.2</ele>
        <time>2022-02-06T09:36:10Z</time>
      </trkpt>
      <trkpt lat="48.26313" lon="2.67434">
        <ele>435.6</ele>
        <time>2022-02-06T09:36:14Z</time>
      </trkpt>
      <trkpt lat="48.2631" lon="2.67416">
        <ele>435.4</ele>
        <time>2022-02-06T09:36:18Z</time>
      </trkpt>
      <trkpt lat="48.26306" lon="2.67398">
        <ele>436</ele>
        <time>2022-02-06T09:36:22Z</time>
      </trkpt>
      <trkpt lat="48.26301" lon="2.67381">
        <ele>436.8</ele>
        <time>2022-02-06T09:36:26Z</time>
      </trkpt>
      <trkpt lat="48.26297" lon="2.67368">
        <ele>438</ele>
        <time>2022-02-06T09:36:30Z</time>
      </trkpt>
      <trkpt lat="48.26292" lon="2.67353">
        <ele>439.2</ele>
        <time>2022-02-06T09:36:34Z</time>
      </trkpt>
      <trkpt lat="48.26287" lon="2.67342">
        <ele>438.8</ele>
        <time>2022-02-06T09:36:38Z</time>
      </trkpt>
      <trkpt lat="48.26285" lon="2.67326">
        <ele>440</ele>
        <time>2022-02-06T09:36:42Z</time>
      </trkpt>
      <trkpt lat="48.26284" lon="2.67311">
        <ele>441.6</ele>
        <time>2022-02-06T09:36:46Z</time>
      </trkpt>
      <trkpt lat="48.26282" lon="2.67292">
        <ele>442.6</ele>
        <time>2022-02-06T09:36:50Z</time>
      </trkpt>
      <trkpt lat="48.2628" lon="2.67276">
        <ele>443.6</ele>
        <time>2022-02-06T09:36:54Z</time>
      </trkpt>
      <trkpt lat="48.26281" lon="2.6726">
        <ele>444</ele>
        <time>2022-02-06T09:36:58Z</time>
      </trkpt>
      <trkpt lat="48.26284" lon="2.67249">
        <ele>446</ele>
        <time>2022-02-06T09:37:02Z</time>
      </trkpt>
      <trkpt lat="48.26288" lon="2.67242">
        <ele>445.6</ele>
        <time>2022-02-06T09:37:06Z</time>
      </trkpt>
      <trkpt lat="48.263" lon="2.67231">
        <ele>441.2</ele>
        <time>2022-02-06T09:37:10Z</time>
      </trkpt>
      <trkpt lat="48.2632" lon="2.67217">
        <ele>437.4</ele>
        <time>2022-02-06T09:37:14Z</time>
      </trkpt>
      <trkpt lat="48.26346" lon="2.67204">
        <ele>432.6</ele>
        <time>2022-02-06T09:37:18Z</time>
      </trkpt>
      <trkpt lat="48.2636" lon="2.67179">
        <ele>436.6</ele>
        <time>2022-02-06T09:37:22Z</time>
      </trkpt>
      <trkpt lat="48.26367" lon="2.67159">
        <ele>438.2</ele>
        <time>2022-02-06T09:37:26Z</time>
      </trkpt>
      <trkpt lat="48.26377" lon="2.67148">
        <ele>435.8</ele>
        <time>2022-02-06T09:37:30Z</time>
      </trkpt>
      <trkpt lat="48.26394" lon="2.67135">
        <ele>434</ele>
        <time>2022-02-06T09:37:34Z</time>
      </trkpt>
      <trkpt lat="48.26414" lon="2.67131">
        <ele>433.6</ele>
        <time>2022-02-06T09:37:38Z</time>
      </trkpt>
      <trkpt lat="48.26425" lon="2.6711">
        <ele>434.2</ele>
        <time>2022-02-06T09:37:42Z</time>
      </trkpt>
      <trkpt lat="48.26437" lon="2.67087">
        <ele>434.6</ele>
        <time>2022-02-06T09:37:46Z</time>
      </trkpt>
      <trkpt lat="48.2645" lon="2.67063">
        <ele>434.4</ele>
        <time>2022-02-06T09:37:50Z</time>
      </trkpt>
      <trkpt lat="48.26459" lon="2.67038">
        <ele>434</ele>
        <time>2022-02-06T09:37:54Z</time>
      </trkpt>
      <trkpt lat="48.26467" lon="2.67014">
        <ele>434.2</ele>
        <time>2022-02-06T09:37:58Z</time>
      </trkpt>
      <trkpt lat="48.26474" lon="2.66991">
        <ele>435</ele>
        <time>2022-02-06T09:38:02Z</time>
      </trkpt>
      <trkpt lat="48.26484" lon="2.66973">
        <ele>434.6</ele>
        <time>2022-02-06T09:38:06Z</time>
      </trkpt>
      <trkpt lat="48.26503" lon="2.66969">
        <ele>433.2</ele>
        <time>2022-02-06T09:38:10Z</time>
      </trkpt>
      <trkpt lat="48.26522" lon="2.66968">
        <ele>433.6</ele>
        <time>2022-02-06T09:38:14Z</time>
      </trkpt>
      <trkpt lat="48.26541" lon="2.66968">
        <ele>432</ele>
        <time>2022-02-06T09:38:18Z</time>
      </trkpt>
      <trkpt lat="48.26561" lon="2.66967">
        <ele>430.4</ele>
        <time>2022-02-06T09:38:22Z</time>
      </trkpt>
      <trkpt lat="48.2658" lon="2.66964">
        <ele>431.6</ele>
        <time>2022-02-06T09:38:26Z</time>
      </trkpt>
      <trkpt lat="48.26599" lon="2.66963">
        <ele>431.6</ele>
        <time>2022-02-06T09:38:30Z</time>
      </trkpt>
      <trkpt lat="48.26617" lon="2.66962">
        <ele>432.2</ele>
        <time>2022-02-06T09:38:34Z</time>
      </trkpt>
      <trkpt lat="48.26633" lon="2.66964">
        <ele>431.6</ele>
        <time>2022-02-06T09:38:38Z</time>
      </trkpt>
      <trkpt lat="48.26636" lon="2.66948">
        <ele>430.8</ele>
        <time>2022-02-06T09:38:42Z</time>
      </trkpt>
      <trkpt lat="48.26636" lon="2.66928">
        <ele>431.8</ele>
        <time>2022-02-06T09:38:46Z</time>
      </trkpt>
      <trkpt lat="48.26635" lon="2.66908">
        <ele>430.8</ele>
        <time>2022-02-06T09:38:50Z</time>
      </trkpt>
      <trkpt lat="48.26634" lon="2.66886">
        <ele>431.2</ele>
        <time>2022-02-06T09:38:54Z</time>
      </trkpt>
      <trkpt lat="48.26634" lon="2.66867">
        <ele>432.6</ele>
        <time>2022-02-06T09:38:58Z</time>
      </trkpt>
      <trkpt lat="48.26632" lon="2.66841">
        <ele>433.2</ele>
        <time>2022-02-06T09:39:02Z</time>
      </trkpt>
      <trkpt lat="48.2663" lon="2.66813">
        <ele>434</ele>
        <time>2022-02-06T09:39:06Z</time>
      </trkpt>
      <trkpt lat="48.26629" lon="2.66789">
        <ele>432.8</ele>
        <time>2022-02-06T09:39:10Z</time>
      </trkpt>
      <trkpt lat="48.26627" lon="2.66762">
        <ele>431</ele>
        <time>2022-02-06T09:39:14Z</time>
      </trkpt>
      <trkpt lat="48.26625" lon="2.66737">
        <ele>433.4</ele>
        <time>2022-02-06T09:39:18Z</time>
      </trkpt>
      <trkpt lat="48.26622" lon="2.66711">
        <ele>434.4</ele>
        <time>2022-02-06T09:39:22Z</time>
      </trkpt>
      <trkpt lat="48.26619" lon="2.66685">
        <ele>434.6</ele>
        <time>2022-02-06T09:39:26Z</time>
      </trkpt>
      <trkpt lat="48.26614" lon="2.66659">
        <ele>434.6</ele>
        <time>2022-02-06T09:39:30Z</time>
      </trkpt>
      <trkpt lat="48.26611" lon="2.66634">
        <ele>436.8</ele>
        <time>2022-02-06T09:39:34Z</time>
      </trkpt>
      <trkpt lat="48.26607" lon="2.6661">
        <ele>436.4</ele>
        <time>2022-02-06T09:39:38Z</time>
      </trkpt>
      <trkpt lat="48.26604" lon="2.66589">
        <ele>437.4</ele>
        <time>2022-02-06T09:39:42Z</time>
      </trkpt>
      <trkpt lat="48.26603" lon="2.66567">
        <ele>437.8</ele>
        <time>2022-02-06T09:39:46Z</time>
      </trkpt>
      <trkpt lat="48.26611" lon="2.66548">
        <ele>438.2</ele>
        <time>2022-02-06T09:39:50Z</time>
      </trkpt>
      <trkpt lat="48.26623" lon="2.66534">
        <ele>436.6</ele>
        <time>2022-02-06T09:39:54Z</time>
      </trkpt>
      <trkpt lat="48.26637" lon="2.66519">
        <ele>436.4</ele>
        <time>2022-02-06T09:39:58Z</time>
      </trkpt>
      <trkpt lat="48.26647" lon="2.66504">
        <ele>436</ele>
        <time>2022-02-06T09:40:02Z</time>
      </trkpt>
      <trkpt lat="48.26659" lon="2.66486">
        <ele>436.6</ele>
        <time>2022-02-06T09:40:06Z</time>
      </trkpt>
      <trkpt lat="48.26675" lon="2.66466">
        <ele>435.4</ele>
        <time>2022-02-06T09:40:10Z</time>
      </trkpt>
      <trkpt lat="48.26691" lon="2.66446">
        <ele>435</ele>
        <time>2022-02-06T09:40:14Z</time>
      </trkpt>
      <trkpt lat="48.26708" lon="2.6643">
        <ele>433.8</ele>
        <time>2022-02-06T09:40:18Z</time>
      </trkpt>
      <trkpt lat="48.26725" lon="2.6641">
        <ele>433.2</ele>
        <time>2022-02-06T09:40:22Z</time>
      </trkpt>
      <trkpt lat="48.26743" lon="2.66391">
        <ele>432.2</ele>
        <time>2022-02-06T09:40:26Z</time>
      </trkpt>
      <trkpt lat="48.26758" lon="2.6637">
        <ele>431.8</ele>
        <time>2022-02-06T09:40:30Z</time>
      </trkpt>
      <trkpt lat="48.26773" lon="2.66344">
        <ele>430.8</ele>
        <time>2022-02-06T09:40:34Z</time>
      </trkpt>
      <trkpt lat="48.26787" lon="2.66317">
        <ele>430.4</ele>
        <time>2022-02-06T09:40:38Z</time>
      </trkpt>
      <trkpt lat="48.26801" lon="2.66293">
        <ele>430</ele>
        <time>2022-02-06T09:40:42Z</time>
      </trkpt>
      <trkpt lat="48.26812" lon="2.66269">
        <ele>430.8</ele>
        <time>2022-02-06T09:40:46Z</time>
      </trkpt>
      <trkpt lat="48.26822" lon="2.66245">
        <ele>430.2</ele>
        <time>2022-02-06T09:40:50Z</time>
      </trkpt>
      <trkpt lat="48.26834" lon="2.66234">
        <ele>429.6</ele>
        <time>2022-02-06T09:40:54Z</time>
      </trkpt>
      <trkpt lat="48.26846" lon="2.66213">
        <ele>429.4</ele>
        <time>2022-02-06T09:40:58Z</time>
      </trkpt>
      <trkpt lat="48.26858" lon="2.66189">
        <ele>430.2</ele>
        <time>2022-02-06T09:41:02Z</time>
      </trkpt>
      <trkpt lat="48.26865" lon="2.66164">
        <ele>428.6</ele>
        <time>2022-02-06T09:41:06Z</time>
      </trkpt>
      <trkpt lat="48.26875" lon="2.66143">
        <ele>428</ele>
        <time>2022-02-06T09:41:10Z</time>
      </trkpt>
      <trkpt lat="48.26887" lon="2.66119">
        <ele>428.8</ele>
        <time>2022-02-06T09:41:14Z</time>
      </trkpt>
      <trkpt lat="48.26901" lon="2.66099">
        <ele>428.6</ele>
        <time>2022-02-06T09:41:18Z</time>
      </trkpt>
      <trkpt lat="48.26916" lon="2.66082">
        <ele>427.4</ele>
        <time>2022-02-06T09:41:22Z</time>
      </trkpt>
      <trkpt lat="48.26927" lon="2.66056">
        <ele>428.2</ele>
        <time>2022-02-06T09:41:26Z</time>
      </trkpt>
      <trkpt lat="48.26936" lon="2.66031">
        <ele>428</ele>
        <time>2022-02-06T09:41:30Z</time>
      </trkpt>
      <trkpt lat="48.26942" lon="2.66005">
        <ele>426</ele>
        <time>2022-02-06T09:41:34Z</time>
      </trkpt>
      <trkpt lat="48.26948" lon="2.65976">
        <ele>427.6</ele>
        <time>2022-02-06T09:41:38Z</time>
      </trkpt>
      <trkpt lat="48.26952" lon="2.65948">
        <ele>427.4</ele>
        <time>2022-02-06T09:41:42Z</time>
      </trkpt>
      <trkpt lat="48.26955" lon="2.65921">
        <ele>427</ele>
        <time>2022-02-06T09:41:46Z</time>
      </trkpt>
      <trkpt lat="48.26963" lon="2.65896">
        <ele>426.6</ele>
        <time>2022-02-06T09:41:50Z</time>
      </trkpt>
      <trkpt lat="48.26972" lon="2.65874">
        <ele>427.2</ele>
        <time>2022-02-06T09:41:54Z</time>
      </trkpt>
      <trkpt lat="48.26981" lon="2.65852">
        <ele>426.4</ele>
        <time>2022-02-06T09:41:58Z</time>
      </trkpt>
      <trkpt lat="48.26993" lon="2.65829">
        <ele>427.6</ele>
        <time>2022-02-06T09:42:02Z</time>
      </trkpt>
      <trkpt lat="48.27006" lon="2.65807">
        <ele>426</ele>
        <time>2022-02-06T09:42:06Z</time>
      </trkpt>
      <trkpt lat="48.27019" lon="2.65784">
        <ele>425.8</ele>
        <time>2022-02-06T09:42:10Z</time>
      </trkpt>
      <trkpt lat="48.27031" lon="2.65763">
        <ele>426.2</ele>
        <time>2022-02-06T09:42:14Z</time>
      </trkpt>
      <trkpt lat="48.27039" lon="2.65739">
        <ele>425.8</ele>
        <time>2022-02-06T09:42:18Z</time>
      </trkpt>
      <trkpt lat="48.27049" lon="2.65715">
        <ele>426</ele>
        <time>2022-02-06T09:42:22Z</time>
      </trkpt>
      <trkpt lat="48.27059" lon="2.65691">
        <ele>426</ele>
        <time>2022-02-06T09:42:26Z</time>
      </trkpt>
      <trkpt lat="48.27071" lon="2.65673">
        <ele>426.4</ele>
        <time>2022-02-06T09:42:30Z</time>
      </trkpt>
      <trkpt lat="48.27083" lon="2.65655">
        <ele>427</ele>
        <time>2022-02-06T09:42:34Z</time>
      </trkpt>
      <trkpt lat="48.27094" lon="2.6564">
        <ele>426.4</ele>
        <time>2022-02-06T09:42:38Z</time>
      </trkpt>
      <trkpt lat="48.27104" lon="2.65618">
        <ele>426.4</ele>
        <time>2022-02-06T09:42:42Z</time>
      </trkpt>
      <trkpt lat="48.27115" lon="2.65599">
        <ele>426.6</ele>
        <time>2022-02-06T09:42:46Z</time>
      </trkpt>
      <trkpt lat="48.27129" lon="2.65582">
        <ele>427.2</ele>
        <time>2022-02-06T09:42:50Z</time>
      </trkpt>
      <trkpt lat="48.27144" lon="2.65564">
        <ele>426.4</ele>
        <time>2022-02-06T09:42:54Z</time>
      </trkpt>
      <trkpt lat="48.27161" lon="2.65549">
        <ele>428</ele>
        <time>2022-02-06T09:42:58Z</time>
      </trkpt>
      <trkpt lat="48.27173" lon="2.65536">
        <ele>428</ele>
        <time>2022-02-06T09:43:02Z</time>
      </trkpt>
      <trkpt lat="48.27176" lon="2.65521">
        <ele>427</ele>
        <time>2022-02-06T09:43:06Z</time>
      </trkpt>
      <trkpt lat="48.27172" lon="2.65501">
        <ele>427.2</ele>
        <time>2022-02-06T09:43:10Z</time>
      </trkpt>
      <trkpt lat="48.27166" lon="2.65478">
        <ele>427.8</ele>
        <time>2022-02-06T09:43:14Z</time>
      </trkpt>
      <trkpt lat="48.27163" lon="2.65452">
        <ele>427.2</ele>
        <time>2022-02-06T09:43:18Z</time>
      </trkpt>
      <trkpt lat="48.2716" lon="2.6543">
        <ele>426.2</ele>
        <time>2022-02-06T09:43:22Z</time>
      </trkpt>
      <trkpt lat="48.27156" lon="2.65407">
        <ele>426.6</ele>
        <time>2022-02-06T09:43:26Z</time>
      </trkpt>
      <trkpt lat="48.27148" lon="2.65383">
        <ele>428.4</ele>
        <time>2022-02-06T09:43:30Z</time>
      </trkpt>
      <trkpt lat="48.27131" lon="2.65366">
        <ele>425.2</ele>
        <time>2022-02-06T09:43:34Z</time>
      </trkpt>
      <trkpt lat="48.27124" lon="2.65342">
        <ele>426.4</ele>
        <time>2022-02-06T09:43:38Z</time>
      </trkpt>
      <trkpt lat="48.27109" lon="2.65318">
        <ele>426.2</ele>
        <time>2022-02-06T09:43:42Z</time>
      </trkpt>
      <trkpt lat="48.27103" lon="2.65295">
        <ele>427.6</ele>
        <time>2022-02-06T09:43:46Z</time>
      </trkpt>
      <trkpt lat="48.27102" lon="2.65272">
        <ele>426.6</ele>
        <time>2022-02-06T09:43:50Z</time>
      </trkpt>
      <trkpt lat="48.27095" lon="2.6525">
        <ele>428</ele>
        <time>2022-02-06T09:43:54Z</time>
      </trkpt>
      <trkpt lat="48.27085" lon="2.65232">
        <ele>425.8</ele>
        <time>2022-02-06T09:43:58Z</time>
      </trkpt>
      <trkpt lat="48.27076" lon="2.65212">
        <ele>426.4</ele>
        <time>2022-02-06T09:44:02Z</time>
      </trkpt>
      <trkpt lat="48.27064" lon="2.65191">
        <ele>426.2</ele>
        <time>2022-02-06T09:44:06Z</time>
      </trkpt>
      <trkpt lat="48.27052" lon="2.6518">
        <ele>427</ele>
        <time>2022-02-06T09:44:10Z</time>
      </trkpt>
      <trkpt lat="48.27037" lon="2.65177">
        <ele>426.4</ele>
        <time>2022-02-06T09:44:14Z</time>
      </trkpt>
      <trkpt lat="48.2702" lon="2.65177">
        <ele>428.2</ele>
        <time>2022-02-06T09:44:18Z</time>
      </trkpt>
      <trkpt lat="48.27005" lon="2.65176">
        <ele>427</ele>
        <time>2022-02-06T09:44:22Z</time>
      </trkpt>
      <trkpt lat="48.26995" lon="2.65174">
        <ele>428.4</ele>
        <time>2022-02-06T09:44:26Z</time>
      </trkpt>
      <trkpt lat="48.26984" lon="2.65158">
        <ele>428.2</ele>
        <time>2022-02-06T09:44:30Z</time>
      </trkpt>
      <trkpt lat="48.26968" lon="2.65144">
        <ele>428.8</ele>
        <time>2022-02-06T09:44:34Z</time>
      </trkpt>
      <trkpt lat="48.26957" lon="2.65129">
        <ele>431.2</ele>
        <time>2022-02-06T09:44:38Z</time>
      </trkpt>
      <trkpt lat="48.26952" lon="2.6511">
        <ele>430.4</ele>
        <time>2022-02-06T09:44:42Z</time>
      </trkpt>
      <trkpt lat="48.26949" lon="2.65097">
        <ele>430.4</ele>
        <time>2022-02-06T09:44:46Z</time>
      </trkpt>
      <trkpt lat="48.26948" lon="2.65084">
        <ele>427.6</ele>
        <time>2022-02-06T09:44:50Z</time>
      </trkpt>
      <trkpt lat="48.26956" lon="2.65077">
        <ele>427</ele>
        <time>2022-02-06T09:44:54Z</time>
      </trkpt>
      <trkpt lat="48.26968" lon="2.6507">
        <ele>426</ele>
        <time>2022-02-06T09:44:58Z</time>
      </trkpt>
      <trkpt lat="48.2698" lon="2.65068">
        <ele>425.2</ele>
        <time>2022-02-06T09:45:02Z</time>
      </trkpt>
      <trkpt lat="48.26992" lon="2.6507">
        <ele>425.6</ele>
        <time>2022-02-06T09:45:06Z</time>
      </trkpt>
      <trkpt lat="48.27007" lon="2.6507">
        <ele>425.8</ele>
        <time>2022-02-06T09:45:10Z</time>
      </trkpt>
      <trkpt lat="48.27024" lon="2.65069">
        <ele>426.2</ele>
        <time>2022-02-06T09:45:14Z</time>
      </trkpt>
      <trkpt lat="48.2704" lon="2.6507">
        <ele>425.6</ele>
        <time>2022-02-06T09:45:18Z</time>
      </trkpt>
      <trkpt lat="48.27054" lon="2.65074">
        <ele>426.2</ele>
        <time>2022-02-06T09:45:22Z</time>
      </trkpt>
      <trkpt lat="48.27072" lon="2.6508">
        <ele>426.2</ele>
        <time>2022-02-06T09:45:26Z</time>
      </trkpt>
      <trkpt lat="48.27089" lon="2.65086">
        <ele>425.6</ele>
        <time>2022-02-06T09:45:30Z</time>
      </trkpt>
      <trkpt lat="48.27107" lon="2.65093">
        <ele>426</ele>
        <time>2022-02-06T09:45:34Z</time>
      </trkpt>
      <trkpt lat="48.27124" lon="2.65101">
        <ele>426</ele>
        <time>2022-02-06T09:45:38Z</time>
      </trkpt>
      <trkpt lat="48.2714" lon="2.65108">
        <ele>426.4</ele>
        <time>2022-02-06T09:45:42Z</time>
      </trkpt>
      <trkpt lat="48.27159" lon="2.65117">
        <ele>426.4</ele>
        <time>2022-02-06T09:45:46Z</time>
      </trkpt>
      <trkpt lat="48.27176" lon="2.65125">
        <ele>425.8</ele>
        <time>2022-02-06T09:45:50Z</time>
      </trkpt>
      <trkpt lat="48.27197" lon="2.65137">
        <ele>425.8</ele>
        <time>2022-02-06T09:45:54Z</time>
      </trkpt>
      <trkpt lat="48.27215" lon="2.65146">
        <ele>427.4</ele>
        <time>2022-02-06T09:45:58Z</time>
      </trkpt>
      <trkpt lat="48.27233" lon="2.65153">
        <ele>427</ele>
        <time>2022-02-06T09:46:02Z</time>
      </trkpt>
      <trkpt lat="48.27253" lon="2.65163">
        <ele>427.8</ele>
        <time>2022-02-06T09:46:06Z</time>
      </trkpt>
      <trkpt lat="48.27273" lon="2.65171">
        <ele>427.6</ele>
        <time>2022-02-06T09:46:10Z</time>
      </trkpt>
      <trkpt lat="48.27294" lon="2.65174">
        <ele>427</ele>
        <time>2022-02-06T09:46:14Z</time>
      </trkpt>
      <trkpt lat="48.27309" lon="2.65185">
        <ele>428</ele>
        <time>2022-02-06T09:46:18Z</time>
      </trkpt>
      <trkpt lat="48.27315" lon="2.65191">
        <ele>428.4</ele>
        <time>2022-02-06T09:46:22Z</time>
      </trkpt>
      <trkpt lat="48.2732" lon="2.65193">
        <ele>428.6</ele>
        <time>2022-02-06T09:46:26Z</time>
      </trkpt>
      <trkpt lat="48.2733" lon="2.65201">
        <ele>428.4</ele>
        <time>2022-02-06T09:46:30Z</time>
      </trkpt>
      <trkpt lat="48.2733" lon="2.65201">
        <ele>428.2</ele>
        <time>2022-02-06T09:46:34Z</time>
      </trkpt>
      <trkpt lat="48.27335" lon="2.65204">
        <ele>427.4</ele>
        <time>2022-02-06T09:46:38Z</time>
      </trkpt>
      <trkpt lat="48.27343" lon="2.65214">
        <ele>428.2</ele>
        <time>2022-02-06T09:46:42Z</time>
      </trkpt>
      <trkpt lat="48.27353" lon="2.65227">
        <ele>427.8</ele>
        <time>2022-02-06T09:46:46Z</time>
      </trkpt>
      <trkpt lat="48.27363" lon="2.65239">
        <ele>429</ele>
        <time>2022-02-06T09:46:50Z</time>
      </trkpt>
      <trkpt lat="48.27374" lon="2.65251">
        <ele>429.6</ele>
        <time>2022-02-06T09:46:54Z</time>
      </trkpt>
      <trkpt lat="48.27385" lon="2.65264">
        <ele>429.4</ele>
        <time>2022-02-06T09:46:58Z</time>
      </trkpt>
      <trkpt lat="48.27394" lon="2.6528">
        <ele>429</ele>
        <time>2022-02-06T09:47:02Z</time>
      </trkpt>
      <trkpt lat="48.27409" lon="2.65295">
        <ele>429.4</ele>
        <time>2022-02-06T09:47:06Z</time>
      </trkpt>
      <trkpt lat="48.27421" lon="2.6531">
        <ele>429.8</ele>
        <time>2022-02-06T09:47:10Z</time>
      </trkpt>
      <trkpt lat="48.27432" lon="2.65324">
        <ele>429.6</ele>
        <time>2022-02-06T09:47:14Z</time>
      </trkpt>
      <trkpt lat="48.27444" lon="2.65338">
        <ele>430.6</ele>
        <time>2022-02-06T09:47:18Z</time>
      </trkpt>
      <trkpt lat="48.27457" lon="2.65351">
        <ele>430</ele>
        <time>2022-02-06T09:47:22Z</time>
      </trkpt>
      <trkpt lat="48.27469" lon="2.65364">
        <ele>429.8</ele>
        <time>2022-02-06T09:47:26Z</time>
      </trkpt>
      <trkpt lat="48.27481" lon="2.6538">
        <ele>430.4</ele>
        <time>2022-02-06T09:47:30Z</time>
      </trkpt>
      <trkpt lat="48.27498" lon="2.65395">
        <ele>430</ele>
        <time>2022-02-06T09:47:34Z</time>
      </trkpt>
      <trkpt lat="48.27508" lon="2.65411">
        <ele>430.6</ele>
        <time>2022-02-06T09:47:38Z</time>
      </trkpt>
      <trkpt lat="48.27522" lon="2.65426">
        <ele>431.2</ele>
        <time>2022-02-06T09:47:42Z</time>
      </trkpt>
      <trkpt lat="48.27535" lon="2.65441">
        <ele>430</ele>
        <time>2022-02-06T09:47:46Z</time>
      </trkpt>
      <trkpt lat="48.27548" lon="2.65455">
        <ele>431</ele>
        <time>2022-02-06T09:47:50Z</time>
      </trkpt>
      <trkpt lat="48.27561" lon="2.65467">
        <ele>431</ele>
        <time>2022-02-06T09:47:54Z</time>
      </trkpt>
      <trkpt lat="48.27564" lon="2.65478">
        <ele>430.4</ele>
        <time>2022-02-06T09:47:58Z</time>
      </trkpt>
      <trkpt lat="48.27561" lon="2.65495">
        <ele>432.4</ele>
        <time>2022-02-06T09:48:02Z</time>
      </trkpt>
      <trkpt lat="48.27555" lon="2.65513">
        <ele>431.2</ele>
        <time>2022-02-06T09:48:06Z</time>
      </trkpt>
      <trkpt lat="48.27553" lon="2.65535">
        <ele>431.2</ele>
        <time>2022-02-06T09:48:10Z</time>
      </trkpt>
      <trkpt lat="48.27551" lon="2.65554">
        <ele>432.4</ele>
        <time>2022-02-06T09:48:14Z</time>
      </trkpt>
      <trkpt lat="48.27547" lon="2.65575">
        <ele>432.8</ele>
        <time>2022-02-06T09:48:18Z</time>
      </trkpt>
      <trkpt lat="48.27544" lon="2.65593">
        <ele>435</ele>
        <time>2022-02-06T09:48:22Z</time>
      </trkpt>
      <trkpt lat="48.27542" lon="2.65606">
        <ele>434.6</ele>
        <time>2022-02-06T09:48:26Z</time>
      </trkpt>
      <trkpt lat="48.2754" lon="2.65621">
        <ele>435.8</ele>
        <time>2022-02-06T09:48:30Z</time>
      </trkpt>
      <trkpt lat="48.27536" lon="2.65635">
        <ele>436</ele>
        <time>2022-02-06T09:48:34Z</time>
      </trkpt>
      <trkpt lat="48.27531" lon="2.6565">
        <ele>437</ele>
        <time>2022-02-06T09:48:38Z</time>
      </trkpt>
      <trkpt lat="48.27529" lon="2.65662">
        <ele>438.8</ele>
        <time>2022-02-06T09:48:42Z</time>
      </trkpt>
      <trkpt lat="48.27538" lon="2.65672">
        <ele>439.2</ele>
        <time>2022-02-06T09:48:46Z</time>
      </trkpt>
      <trkpt lat="48.27547" lon="2.65681">
        <ele>438.8</ele>
        <time>2022-02-06T09:48:50Z</time>
      </trkpt>
      <trkpt lat="48.2756" lon="2.65692">
        <ele>440.4</ele>
        <time>2022-02-06T09:48:54Z</time>
      </trkpt>
      <trkpt lat="48.27569" lon="2.65706">
        <ele>440.8</ele>
        <time>2022-02-06T09:48:58Z</time>
      </trkpt>
      <trkpt lat="48.27577" lon="2.65721">
        <ele>440.6</ele>
        <time>2022-02-06T09:49:02Z</time>
      </trkpt>
      <trkpt lat="48.27586" lon="2.6574">
        <ele>440.6</ele>
        <time>2022-02-06T09:49:06Z</time>
      </trkpt>
      <trkpt lat="48.27594" lon="2.65758">
        <ele>441.2</ele>
        <time>2022-02-06T09:49:10Z</time>
      </trkpt>
      <trkpt lat="48.27604" lon="2.65776">
        <ele>441</ele>
        <time>2022-02-06T09:49:14Z</time>
      </trkpt>
      <trkpt lat="48.27612" lon="2.65796">
        <ele>441.6</ele>
        <time>2022-02-06T09:49:18Z</time>
      </trkpt>
      <trkpt lat="48.27618" lon="2.65816">
        <ele>441.4</ele>
        <time>2022-02-06T09:49:22Z</time>
      </trkpt>
      <trkpt lat="48.27624" lon="2.6584">
        <ele>443.2</ele>
        <time>2022-02-06T09:49:26Z</time>
      </trkpt>
      <trkpt lat="48.27621" lon="2.65862">
        <ele>444</ele>
        <time>2022-02-06T09:49:30Z</time>
      </trkpt>
      <trkpt lat="48.27623" lon="2.65883">
        <ele>443.8</ele>
        <time>2022-02-06T09:49:34Z</time>
      </trkpt>
      <trkpt lat="48.27619" lon="2.65909">
        <ele>443.4</ele>
        <time>2022-02-06T09:49:38Z</time>
      </trkpt>
      <trkpt lat="48.27619" lon="2.65935">
        <ele>442</ele>
        <time>2022-02-06T09:49:42Z</time>
      </trkpt>
      <trkpt lat="48.27619" lon="2.65961">
        <ele>443.2</ele>
        <time>2022-02-06T09:49:46Z</time>
      </trkpt>
      <trkpt lat="48.27623" lon="2.65988">
        <ele>444</ele>
        <time>2022-02-06T09:49:50Z</time>
      </trkpt>
      <trkpt lat="48.27631" lon="2.6601">
        <ele>443.2</ele>
        <time>2022-02-06T09:49:54Z</time>
      </trkpt>
      <trkpt lat="48.27635" lon="2.66036">
        <ele>443</ele>
        <time>2022-02-06T09:49:58Z</time>
      </trkpt>
      <trkpt lat="48.27634" lon="2.6606">
        <ele>442.6</ele>
        <time>2022-02-06T09:50:02Z</time>
      </trkpt>
      <trkpt lat="48.27636" lon="2.66086">
        <ele>444</ele>
        <time>2022-02-06T09:50:06Z</time>
      </trkpt>
      <trkpt lat="48.27637" lon="2.66114">
        <ele>445.8</ele>
        <time>2022-02-06T09:50:10Z</time>
      </trkpt>
      <trkpt lat="48.27631" lon="2.66136">
        <ele>444</ele>
        <time>2022-02-06T09:50:14Z</time>
      </trkpt>
      <trkpt lat="48.27628" lon="2.66165">
        <ele>442.4</ele>
        <time>2022-02-06T09:50:18Z</time>
      </trkpt>
      <trkpt lat="48.27621" lon="2.66191">
        <ele>444</ele>
        <time>2022-02-06T09:50:22Z</time>
      </trkpt>
      <trkpt lat="48.27617" lon="2.66215">
        <ele>444.8</ele>
        <time>2022-02-06T09:50:26Z</time>
      </trkpt>
      <trkpt lat="48.27615" lon="2.6624">
        <ele>444.6</ele>
        <time>2022-02-06T09:50:30Z</time>
      </trkpt>
      <trkpt lat="48.27617" lon="2.6627">
        <ele>443.8</ele>
        <time>2022-02-06T09:50:34Z</time>
      </trkpt>
      <trkpt lat="48.27617" lon="2.66298">
        <ele>443.4</ele>
        <time>2022-02-06T09:50:38Z</time>
      </trkpt>
      <trkpt lat="48.27619" lon="2.66328">
        <ele>443.4</ele>
        <time>2022-02-06T09:50:42Z</time>
      </trkpt>
      <trkpt lat="48.27622" lon="2.66357">
        <ele>443.8</ele>
        <time>2022-02-06T09:50:46Z</time>
      </trkpt>
      <trkpt lat="48.27628" lon="2.66386">
        <ele>443.6</ele>
        <time>2022-02-06T09:50:50Z</time>
      </trkpt>
      <trkpt lat="48.27634" lon="2.66414">
        <ele>443.8</ele>
        <time>2022-02-06T09:50:54Z</time>
      </trkpt>
      <trkpt lat="48.27638" lon="2.66445">
        <ele>442.4</ele>
        <time>2022-02-06T09:50:58Z</time>
      </trkpt>
      <trkpt lat="48.27651" lon="2.66468">
        <ele>441.6</ele>
        <time>2022-02-06T09:51:02Z</time>
      </trkpt>
      <trkpt lat="48.27659" lon="2.66498">
        <ele>441</ele>
        <time>2022-02-06T09:51:06Z</time>
      </trkpt>
      <trkpt lat="48.27665" lon="2.6653">
        <ele>442.2</ele>
        <time>2022-02-06T09:51:10Z</time>
      </trkpt>
      <trkpt lat="48.27674" lon="2.66556">
        <ele>441.8</ele>
        <time>2022-02-06T09:51:14Z</time>
      </trkpt>
      <trkpt lat="48.27682" lon="2.66581">
        <ele>442.8</ele>
        <time>2022-02-06T09:51:18Z</time>
      </trkpt>
      <trkpt lat="48.27687" lon="2.66607">
        <ele>442.2</ele>
        <time>2022-02-06T09:51:22Z</time>
      </trkpt>
      <trkpt lat="48.27691" lon="2.66634">
        <ele>443.4</ele>
        <time>2022-02-06T09:51:26Z</time>
      </trkpt>
      <trkpt lat="48.27702" lon="2.66661">
        <ele>443.8</ele>
        <time>2022-02-06T09:51:30Z</time>
      </trkpt>
      <trkpt lat="48.27708" lon="2.66679">
        <ele>444</ele>
        <time>2022-02-06T09:51:34Z</time>
      </trkpt>
      <trkpt lat="48.27724" lon="2.66679">
        <ele>444</ele>
        <time>2022-02-06T09:51:38Z</time>
      </trkpt>
      <trkpt lat="48.27737" lon="2.66678">
        <ele>444.6</ele>
        <time>2022-02-06T09:51:42Z</time>
      </trkpt>
      <trkpt lat="48.27754" lon="2.66676">
        <ele>445</ele>
        <time>2022-02-06T09:51:46Z</time>
      </trkpt>
      <trkpt lat="48.2777" lon="2.66672">
        <ele>445.2</ele>
        <time>2022-02-06T09:51:50Z</time>
      </trkpt>
      <trkpt lat="48.27782" lon="2.66665">
        <ele>445.6</ele>
        <time>2022-02-06T09:51:54Z</time>
      </trkpt>
      <trkpt lat="48.27789" lon="2.66648">
        <ele>444.8</ele>
        <time>2022-02-06T09:51:58Z</time>
      </trkpt>
      <trkpt lat="48.27801" lon="2.66633">
        <ele>445.2</ele>
        <time>2022-02-06T09:52:02Z</time>
      </trkpt>
      <trkpt lat="48.27814" lon="2.66626">
        <ele>445.4</ele>
        <time>2022-02-06T09:52:06Z</time>
      </trkpt>
      <trkpt lat="48.27828" lon="2.66619">
        <ele>444.8</ele>
        <time>2022-02-06T09:52:10Z</time>
      </trkpt>
      <trkpt lat="48.27846" lon="2.66611">
        <ele>445.2</ele>
        <time>2022-02-06T09:52:14Z</time>
      </trkpt>
      <trkpt lat="48.27858" lon="2.66602">
        <ele>445</ele>
        <time>2022-02-06T09:52:18Z</time>
      </trkpt>
      <trkpt lat="48.27871" lon="2.66604">
        <ele>444.6</ele>
        <time>2022-02-06T09:52:22Z</time>
      </trkpt>
      <trkpt lat="48.27885" lon="2.66594">
        <ele>443.4</ele>
        <time>2022-02-06T09:52:26Z</time>
      </trkpt>
      <trkpt lat="48.27904" lon="2.66583">
        <ele>444</ele>
        <time>2022-02-06T09:52:30Z</time>
      </trkpt>
      <trkpt lat="48.27922" lon="2.66573">
        <ele>443.4</ele>
        <time>2022-02-06T09:52:34Z</time>
      </trkpt>
      <trkpt lat="48.27935" lon="2.66562">
        <ele>444.6</ele>
        <time>2022-02-06T09:52:38Z</time>
      </trkpt>
      <trkpt lat="48.27953" lon="2.66561">
        <ele>443.4</ele>
        <time>2022-02-06T09:52:42Z</time>
      </trkpt>
      <trkpt lat="48.27966" lon="2.66561">
        <ele>444.4</ele>
        <time>2022-02-06T09:52:46Z</time>
      </trkpt>
      <trkpt lat="48.27981" lon="2.66563">
        <ele>443.2</ele>
        <time>2022-02-06T09:52:50Z</time>
      </trkpt>
      <trkpt lat="48.27995" lon="2.66563">
        <ele>443.2</ele>
        <time>2022-02-06T09:52:54Z</time>
      </trkpt>
      <trkpt lat="48.28006" lon="2.66553">
        <ele>445.8</ele>
        <time>2022-02-06T09:52:58Z</time>
      </trkpt>
      <trkpt lat="48.28013" lon="2.66541">
        <ele>442.6</ele>
        <time>2022-02-06T09:53:02Z</time>
      </trkpt>
      <trkpt lat="48.28011" lon="2.66524">
        <ele>444</ele>
        <time>2022-02-06T09:53:06Z</time>
      </trkpt>
      <trkpt lat="48.28006" lon="2.66499">
        <ele>441.6</ele>
        <time>2022-02-06T09:53:10Z</time>
      </trkpt>
      <trkpt lat="48.28001" lon="2.66477">
        <ele>440.2</ele>
        <time>2022-02-06T09:53:14Z</time>
      </trkpt>
      <trkpt lat="48.27997" lon="2.6645">
        <ele>443.4</ele>
        <time>2022-02-06T09:53:18Z</time>
      </trkpt>
      <trkpt lat="48.27992" lon="2.66422">
        <ele>442</ele>
        <time>2022-02-06T09:53:22Z</time>
      </trkpt>
      <trkpt lat="48.27985" lon="2.66396">
        <ele>441.2</ele>
        <time>2022-02-06T09:53:26Z</time>
      </trkpt>
      <trkpt lat="48.27981" lon="2.66373">
        <ele>441.4</ele>
        <time>2022-02-06T09:53:30Z</time>
      </trkpt>
      <trkpt lat="48.27976" lon="2.6635">
        <ele>442</ele>
        <time>2022-02-06T09:53:34Z</time>
      </trkpt>
      <trkpt lat="48.27971" lon="2.66327">
        <ele>443.4</ele>
        <time>2022-02-06T09:53:38Z</time>
      </trkpt>
      <trkpt lat="48.27965" lon="2.66302">
        <ele>443.2</ele>
        <time>2022-02-06T09:53:42Z</time>
      </trkpt>
      <trkpt lat="48.2796" lon="2.66276">
        <ele>441.6</ele>
        <time>2022-02-06T09:53:46Z</time>
      </trkpt>
      <trkpt lat="48.27957" lon="2.66249">
        <ele>443.8</ele>
        <time>2022-02-06T09:53:50Z</time>
      </trkpt>
      <trkpt lat="48.27954" lon="2.66223">
        <ele>443.4</ele>
        <time>2022-02-06T09:53:54Z</time>
      </trkpt>
      <trkpt lat="48.27949" lon="2.66194">
        <ele>443.2</ele>
        <time>2022-02-06T09:53:58Z</time>
      </trkpt>
      <trkpt lat="48.27944" lon="2.66165">
        <ele>443.6</ele>
        <time>2022-02-06T09:54:02Z</time>
      </trkpt>
      <trkpt lat="48.2794" lon="2.6614">
        <ele>444.6</ele>
        <time>2022-02-06T09:54:06Z</time>
      </trkpt>
      <trkpt lat="48.27947" lon="2.66123">
        <ele>443.2</ele>
        <time>2022-02-06T09:54:10Z</time>
      </trkpt>
      <trkpt lat="48.27957" lon="2.66115">
        <ele>444.2</ele>
        <time>2022-02-06T09:54:14Z</time>
      </trkpt>
      <trkpt lat="48.27971" lon="2.66103">
        <ele>443.6</ele>
        <time>2022-02-06T09:54:18Z</time>
      </trkpt>
      <trkpt lat="48.27987" lon="2.66092">
        <ele>441.8</ele>
        <time>2022-02-06T09:54:22Z</time>
      </trkpt>
      <trkpt lat="48.28001" lon="2.66081">
        <ele>445.4</ele>
        <time>2022-02-06T09:54:26Z</time>
      </trkpt>
      <trkpt lat="48.28017" lon="2.66072">
        <ele>445</ele>
        <time>2022-02-06T09:54:30Z</time>
      </trkpt>
      <trkpt lat="48.28034" lon="2.6606">
        <ele>444.2</ele>
        <time>2022-02-06T09:54:34Z</time>
      </trkpt>
      <trkpt lat="48.2805" lon="2.66048">
        <ele>445</ele>
        <time>2022-02-06T09:54:38Z</time>
      </trkpt>
      <trkpt lat="48.28067" lon="2.66038">
        <ele>445.4</ele>
        <time>2022-02-06T09:54:42Z</time>
      </trkpt>
      <trkpt lat="48.28084" lon="2.66029">
        <ele>444.8</ele>
        <time>2022-02-06T09:54:46Z</time>
      </trkpt>
      <trkpt lat="48.281" lon="2.66021">
        <ele>445.6</ele>
        <time>2022-02-06T09:54:50Z</time>
      </trkpt>
      <trkpt lat="48.28116" lon="2.6601">
        <ele>443.8</ele>
        <time>2022-02-06T09:54:54Z</time>
      </trkpt>
      <trkpt lat="48.2813" lon="2.65996">
        <ele>445.8</ele>
        <time>2022-02-06T09:54:58Z</time>
      </trkpt>
      <trkpt lat="48.28135" lon="2.65989">
        <ele>445</ele>
        <time>2022-02-06T09:55:02Z</time>
      </trkpt>
      <trkpt lat="48.2814" lon="2.65969">
        <ele>444.2</ele>
        <time>2022-02-06T09:55:06Z</time>
      </trkpt>
      <trkpt lat="48.2814" lon="2.65953">
        <ele>444</ele>
        <time>2022-02-06T09:55:10Z</time>
      </trkpt>
      <trkpt lat="48.28147" lon="2.65933">
        <ele>444.6</ele>
        <time>2022-02-06T09:55:14Z</time>
      </trkpt>
      <trkpt lat="48.28152" lon="2.65911">
        <ele>442.8</ele>
        <time>2022-02-06T09:55:18Z</time>
      </trkpt>
      <trkpt lat="48.2816" lon="2.65888">
        <ele>445</ele>
        <time>2022-02-06T09:55:22Z</time>
      </trkpt>
      <trkpt lat="48.28169" lon="2.65869">
        <ele>443.8</ele>
        <time>2022-02-06T09:55:26Z</time>
      </trkpt>
      <trkpt lat="48.28175" lon="2.6585">
        <ele>444</ele>
        <time>2022-02-06T09:55:30Z</time>
      </trkpt>
      <trkpt lat="48.28173" lon="2.65829">
        <ele>444</ele>
        <time>2022-02-06T09:55:34Z</time>
      </trkpt>
      <trkpt lat="48.28176" lon="2.65806">
        <ele>443.2</ele>
        <time>2022-02-06T09:55:38Z</time>
      </trkpt>
      <trkpt lat="48.2817" lon="2.65783">
        <ele>442.6</ele>
        <time>2022-02-06T09:55:42Z</time>
      </trkpt>
      <trkpt lat="48.28164" lon="2.65759">
        <ele>444.4</ele>
        <time>2022-02-06T09:55:46Z</time>
      </trkpt>
      <trkpt lat="48.28163" lon="2.65737">
        <ele>443.8</ele>
        <time>2022-02-06T09:55:50Z</time>
      </trkpt>
      <trkpt lat="48.28163" lon="2.65715">
        <ele>443.2</ele>
        <time>2022-02-06T09:55:54Z</time>
      </trkpt>
      <trkpt lat="48.28169" lon="2.65692">
        <ele>443</ele>
        <time>2022-02-06T09:55:58Z</time>
      </trkpt>
      <trkpt lat="48.28169" lon="2.65667">
        <ele>443.2</ele>
        <time>2022-02-06T09:56:02Z</time>
      </trkpt>
      <trkpt lat="48.28168" lon="2.65641">
        <ele>444</ele>
        <time>2022-02-06T09:56:06Z</time>
      </trkpt>
      <trkpt lat="48.28169" lon="2.65617">
        <ele>442</ele>
        <time>2022-02-06T09:56:10Z</time>
      </trkpt>
      <trkpt lat="48.28174" lon="2.65593">
        <ele>444.4</ele>
        <time>2022-02-06T09:56:14Z</time>
      </trkpt>
      <trkpt lat="48.28173" lon="2.6557">
        <ele>444</ele>
        <time>2022-02-06T09:56:18Z</time>
      </trkpt>
      <trkpt lat="48.28169" lon="2.65551">
        <ele>444</ele>
        <time>2022-02-06T09:56:22Z</time>
      </trkpt>
      <trkpt lat="48.2817" lon="2.65528">
        <ele>443.2</ele>
        <time>2022-02-06T09:56:26Z</time>
      </trkpt>
      <trkpt lat="48.2817" lon="2.65503">
        <ele>443</ele>
        <time>2022-02-06T09:56:30Z</time>
      </trkpt>
      <trkpt lat="48.28172" lon="2.65481">
        <ele>444</ele>
        <time>2022-02-06T09:56:34Z</time>
      </trkpt>
      <trkpt lat="48.28174" lon="2.65457">
        <ele>444</ele>
        <time>2022-02-06T09:56:38Z</time>
      </trkpt>
      <trkpt lat="48.2817" lon="2.65436">
        <ele>444.6</ele>
        <time>2022-02-06T09:56:42Z</time>
      </trkpt>
      <trkpt lat="48.28166" lon="2.65416">
        <ele>444.4</ele>
        <time>2022-02-06T09:56:46Z</time>
      </trkpt>
      <trkpt lat="48.2816" lon="2.65392">
        <ele>445</ele>
        <time>2022-02-06T09:56:50Z</time>
      </trkpt>
      <trkpt lat="48.28157" lon="2.65377">
        <ele>444.4</ele>
        <time>2022-02-06T09:56:54Z</time>
      </trkpt>
      <trkpt lat="48.28157" lon="2.65362">
        <ele>444.2</ele>
        <time>2022-02-06T09:56:58Z</time>
      </trkpt>
      <trkpt lat="48.28153" lon="2.65343">
        <ele>443.4</ele>
        <time>2022-02-06T09:57:02Z</time>
      </trkpt>
      <trkpt lat="48.2815" lon="2.65319">
        <ele>444</ele>
        <time>2022-02-06T09:57:06Z</time>
      </trkpt>
      <trkpt lat="48.28149" lon="2.65295">
        <ele>444.2</ele>
        <time>2022-02-06T09:57:10Z</time>
      </trkpt>
      <trkpt lat="48.28157" lon="2.65276">
        <ele>443.4</ele>
        <time>2022-02-06T09:57:14Z</time>
      </trkpt>
      <trkpt lat="48.28161" lon="2.65253">
        <ele>443.8</ele>
        <time>2022-02-06T09:57:18Z</time>
      </trkpt>
      <trkpt lat="48.28164" lon="2.65233">
        <ele>444</ele>
        <time>2022-02-06T09:57:22Z</time>
      </trkpt>
      <trkpt lat="48.28178" lon="2.65225">
        <ele>443.4</ele>
        <time>2022-02-06T09:57:26Z</time>
      </trkpt>
      <trkpt lat="48.28193" lon="2.65215">
        <ele>442.6</ele>
        <time>2022-02-06T09:57:30Z</time>
      </trkpt>
      <trkpt lat="48.28204" lon="2.652">
        <ele>441.4</ele>
        <time>2022-02-06T09:57:34Z</time>
      </trkpt>
      <trkpt lat="48.28217" lon="2.65187">
        <ele>441.6</ele>
        <time>2022-02-06T09:57:38Z</time>
      </trkpt>
      <trkpt lat="48.28232" lon="2.65179">
        <ele>440.4</ele>
        <time>2022-02-06T09:57:42Z</time>
      </trkpt>
      <trkpt lat="48.28239" lon="2.65164">
        <ele>440.4</ele>
        <time>2022-02-06T09:57:46Z</time>
      </trkpt>
      <trkpt lat="48.2824" lon="2.65146">
        <ele>440.8</ele>
        <time>2022-02-06T09:57:50Z</time>
      </trkpt>
      <trkpt lat="48.28247" lon="2.65137">
        <ele>441.8</ele>
        <time>2022-02-06T09:57:54Z</time>
      </trkpt>
      <trkpt lat="48.28252" lon="2.65141">
        <ele>442</ele>
        <time>2022-02-06T09:57:58Z</time>
      </trkpt>
      <trkpt lat="48.2826" lon="2.65146">
        <ele>442.2</ele>
        <time>2022-02-06T09:58:02Z</time>
      </trkpt>
      <trkpt lat="48.28273" lon="2.65137">
        <ele>442.4</ele>
        <time>2022-02-06T09:58:06Z</time>
      </trkpt>
      <trkpt lat="48.28285" lon="2.65119">
        <ele>441.2</ele>
        <time>2022-02-06T09:58:10Z</time>
      </trkpt>
      <trkpt lat="48.28296" lon="2.65099">
        <ele>441.2</ele>
        <time>2022-02-06T09:58:14Z</time>
      </trkpt>
      <trkpt lat="48.28308" lon="2.65081">
        <ele>441</ele>
        <time>2022-02-06T09:58:18Z</time>
      </trkpt>
      <trkpt lat="48.28322" lon="2.65071">
        <ele>441.2</ele>
        <time>2022-02-06T09:58:22Z</time>
      </trkpt>
      <trkpt lat="48.28334" lon="2.65056">
        <ele>440.8</ele>
        <time>2022-02-06T09:58:26Z</time>
      </trkpt>
      <trkpt lat="48.28349" lon="2.65046">
        <ele>441.6</ele>
        <time>2022-02-06T09:58:30Z</time>
      </trkpt>
      <trkpt lat="48.28362" lon="2.65046">
        <ele>442.2</ele>
        <time>2022-02-06T09:58:34Z</time>
      </trkpt>
      <trkpt lat="48.28374" lon="2.65037">
        <ele>441.6</ele>
        <time>2022-02-06T09:58:38Z</time>
      </trkpt>
      <trkpt lat="48.28387" lon="2.65029">
        <ele>441</ele>
        <time>2022-02-06T09:58:42Z</time>
      </trkpt>
      <trkpt lat="48.28399" lon="2.65015">
        <ele>441.8</ele>
        <time>2022-02-06T09:58:46Z</time>
      </trkpt>
      <trkpt lat="48.2841" lon="2.65">
        <ele>442</ele>
        <time>2022-02-06T09:58:50Z</time>
      </trkpt>
      <trkpt lat="48.2842" lon="2.64995">
        <ele>441.8</ele>
        <time>2022-02-06T09:58:54Z</time>
      </trkpt>
      <trkpt lat="48.28431" lon="2.64986">
        <ele>440.8</ele>
        <time>2022-02-06T09:58:58Z</time>
      </trkpt>
      <trkpt lat="48.28442" lon="2.64968">
        <ele>441.2</ele>
        <time>2022-02-06T09:59:02Z</time>
      </trkpt>
      <trkpt lat="48.28453" lon="2.64951">
        <ele>438.4</ele>
        <time>2022-02-06T09:59:06Z</time>
      </trkpt>
      <trkpt lat="48.28456" lon="2.64922">
        <ele>440.6</ele>
        <time>2022-02-06T09:59:10Z</time>
      </trkpt>
      <trkpt lat="48.28464" lon="2.64895">
        <ele>439</ele>
        <time>2022-02-06T09:59:14Z</time>
      </trkpt>
      <trkpt lat="48.2848" lon="2.64888">
        <ele>439.2</ele>
        <time>2022-02-06T09:59:18Z</time>
      </trkpt>
      <trkpt lat="48.28494" lon="2.64879">
        <ele>437.8</ele>
        <time>2022-02-06T09:59:22Z</time>
      </trkpt>
      <trkpt lat="48.28492" lon="2.64854">
        <ele>434.6</ele>
        <time>2022-02-06T09:59:26Z</time>
      </trkpt>
      <trkpt lat="48.28498" lon="2.64832">
        <ele>435.6</ele>
        <time>2022-02-06T09:59:30Z</time>
      </trkpt>
      <trkpt lat="48.28513" lon="2.64824">
        <ele>435.8</ele>
        <time>2022-02-06T09:59:34Z</time>
      </trkpt>
      <trkpt lat="48.28532" lon="2.64819">
        <ele>435</ele>
        <time>2022-02-06T09:59:38Z</time>
      </trkpt>
      <trkpt lat="48.2855" lon="2.64812">
        <ele>434.4</ele>
        <time>2022-02-06T09:59:42Z</time>
      </trkpt>
      <trkpt lat="48.28567" lon="2.64809">
        <ele>435</ele>
        <time>2022-02-06T09:59:46Z</time>
      </trkpt>
      <trkpt lat="48.28585" lon="2.64803">
        <ele>433.4</ele>
        <time>2022-02-06T09:59:50Z</time>
      </trkpt>
      <trkpt lat="48.28603" lon="2.64797">
        <ele>434.4</ele>
        <time>2022-02-06T09:59:54Z</time>
      </trkpt>
      <trkpt lat="48.28618" lon="2.64791">
        <ele>434.4</ele>
        <time>2022-02-06T09:59:58Z</time>
      </trkpt>
      <trkpt lat="48.28635" lon="2.64785">
        <ele>434</ele>
        <time>2022-02-06T10:00:02Z</time>
      </trkpt>
      <trkpt lat="48.28652" lon="2.64781">
        <ele>434.6</ele>
        <time>2022-02-06T10:00:06Z</time>
      </trkpt>
      <trkpt lat="48.2867" lon="2.64778">
        <ele>436</ele>
        <time>2022-02-06T10:00:10Z</time>
      </trkpt>
      <trkpt lat="48.28684" lon="2.64792">
        <ele>435.4</ele>
        <time>2022-02-06T10:00:14Z</time>
      </trkpt>
      <trkpt lat="48.28698" lon="2.64809">
        <ele>435</ele>
        <time>2022-02-06T10:00:18Z</time>
      </trkpt>
      <trkpt lat="48.2871" lon="2.64822">
        <ele>434.8</ele>
        <time>2022-02-06T10:00:22Z</time>
      </trkpt>
      <trkpt lat="48.28723" lon="2.64838">
        <ele>436</ele>
        <time>2022-02-06T10:00:26Z</time>
      </trkpt>
      <trkpt lat="48.28739" lon="2.6485">
        <ele>434.2</ele>
        <time>2022-02-06T10:00:30Z</time>
      </trkpt>
      <trkpt lat="48.28756" lon="2.64853">
        <ele>433.8</ele>
        <time>2022-02-06T10:00:34Z</time>
      </trkpt>
      <trkpt lat="48.28772" lon="2.64849">
        <ele>433.6</ele>
        <time>2022-02-06T10:00:38Z</time>
      </trkpt>
      <trkpt lat="48.28787" lon="2.64848">
        <ele>432.6</ele>
        <time>2022-02-06T10:00:42Z</time>
      </trkpt>
      <trkpt lat="48.28805" lon="2.64848">
        <ele>433.8</ele>
        <time>2022-02-06T10:00:46Z</time>
      </trkpt>
      <trkpt lat="48.2882" lon="2.64844">
        <ele>434.2</ele>
        <time>2022-02-06T10:00:50Z</time>
      </trkpt>
      <trkpt lat="48.28835" lon="2.64838">
        <ele>434.2</ele>
        <time>2022-02-06T10:00:54Z</time>
      </trkpt>
      <trkpt lat="48.2885" lon="2.64842">
        <ele>433.8</ele>
        <time>2022-02-06T10:00:58Z</time>
      </trkpt>
      <trkpt lat="48.28866" lon="2.64837">
        <ele>435</ele>
        <time>2022-02-06T10:01:02Z</time>
      </trkpt>
      <trkpt lat="48.28878" lon="2.64834">
        <ele>433.6</ele>
        <time>2022-02-06T10:01:06Z</time>
      </trkpt>
      <trkpt lat="48.28891" lon="2.64832">
        <ele>433.8</ele>
        <time>2022-02-06T10:01:10Z</time>
      </trkpt>
      <trkpt lat="48.28907" lon="2.64833">
        <ele>432.6</ele>
        <time>2022-02-06T10:01:14Z</time>
      </trkpt>
      <trkpt lat="48.28924" lon="2.64829">
        <ele>432.6</ele>
        <time>2022-02-06T10:01:18Z</time>
      </trkpt>
      <trkpt lat="48.28941" lon="2.64828">
        <ele>432.4</ele>
        <time>2022-02-06T10:01:22Z</time>
      </trkpt>
      <trkpt lat="48.28956" lon="2.64825">
        <ele>435</ele>
        <time>2022-02-06T10:01:26Z</time>
      </trkpt>
      <trkpt lat="48.28968" lon="2.64817">
        <ele>431.2</ele>
        <time>2022-02-06T10:01:30Z</time>
      </trkpt>
      <trkpt lat="48.28968" lon="2.64795">
        <ele>431.2</ele>
        <time>2022-02-06T10:01:34Z</time>
      </trkpt>
      <trkpt lat="48.28967" lon="2.64769">
        <ele>432.2</ele>
        <time>2022-02-06T10:01:38Z</time>
      </trkpt>
      <trkpt lat="48.28964" lon="2.64743">
        <ele>431.4</ele>
        <time>2022-02-06T10:01:42Z</time>
      </trkpt>
      <trkpt lat="48.28961" lon="2.64718">
        <ele>432</ele>
        <time>2022-02-06T10:01:46Z</time>
      </trkpt>
      <trkpt lat="48.28959" lon="2.64693">
        <ele>431.8</ele>
        <time>2022-02-06T10:01:50Z</time>
      </trkpt>
      <trkpt lat="48.28959" lon="2.6467">
        <ele>431.6</ele>
        <time>2022-02-06T10:01:54Z</time>
      </trkpt>
      <trkpt lat="48.28967" lon="2.64656">
        <ele>432.6</ele>
        <time>2022-02-06T10:01:58Z</time>
      </trkpt>
      <trkpt lat="48.28978" lon="2.64643">
        <ele>432.2</ele>
        <time>2022-02-06T10:02:02Z</time>
      </trkpt>
      <trkpt lat="48.28988" lon="2.64634">
        <ele>433.2</ele>
        <time>2022-02-06T10:02:06Z</time>
      </trkpt>
      <trkpt lat="48.28995" lon="2.64644">
        <ele>432</ele>
        <time>2022-02-06T10:02:10Z</time>
      </trkpt>
      <trkpt lat="48.29006" lon="2.64652">
        <ele>432.4</ele>
        <time>2022-02-06T10:02:14Z</time>
      </trkpt>
      <trkpt lat="48.29021" lon="2.64654">
        <ele>432.2</ele>
        <time>2022-02-06T10:02:18Z</time>
      </trkpt>
      <trkpt lat="48.29036" lon="2.64657">
        <ele>432.6</ele>
        <time>2022-02-06T10:02:22Z</time>
      </trkpt>
      <trkpt lat="48.29047" lon="2.64671">
        <ele>432.6</ele>
        <time>2022-02-06T10:02:26Z</time>
      </trkpt>
      <trkpt lat="48.29061" lon="2.64682">
        <ele>433.2</ele>
        <time>2022-02-06T10:02:30Z</time>
      </trkpt>
      <trkpt lat="48.29066" lon="2.647">
        <ele>431.8</ele>
        <time>2022-02-06T10:02:34Z</time>
      </trkpt>
      <trkpt lat="48.29071" lon="2.6472">
        <ele>433.2</ele>
        <time>2022-02-06T10:02:38Z</time>
      </trkpt>
      <trkpt lat="48.29076" lon="2.64736">
        <ele>433.2</ele>
        <time>2022-02-06T10:02:42Z</time>
      </trkpt>
      <trkpt lat="48.29077" lon="2.64754">
        <ele>432.6</ele>
        <time>2022-02-06T10:02:46Z</time>
      </trkpt>
      <trkpt lat="48.2908" lon="2.64774">
        <ele>432.6</ele>
        <time>2022-02-06T10:02:50Z</time>
      </trkpt>
      <trkpt lat="48.2908" lon="2.64795">
        <ele>433.2</ele>
        <time>2022-02-06T10:02:54Z</time>
      </trkpt>
      <trkpt lat="48.2908" lon="2.64816">
        <ele>432.6</ele>
        <time>2022-02-06T10:02:58Z</time>
      </trkpt>
      <trkpt lat="48.29079" lon="2.64838">
        <ele>432.6</ele>
        <time>2022-02-06T10:03:02Z</time>
      </trkpt>
      <trkpt lat="48.2908" lon="2.64861">
        <ele>434.2</ele>
        <time>2022-02-06T10:03:06Z</time>
      </trkpt>
      <trkpt lat="48.29081" lon="2.64882">
        <ele>435</ele>
        <time>2022-02-06T10:03:10Z</time>
      </trkpt>
      <trkpt lat="48.29087" lon="2.64901">
        <ele>433.4</ele>
        <time>2022-02-06T10:03:14Z</time>
      </trkpt>
      <trkpt lat="48.29095" lon="2.64922">
        <ele>434</ele>
        <time>2022-02-06T10:03:18Z</time>
      </trkpt>
      <trkpt lat="48.29105" lon="2.64942">
        <ele>435.2</ele>
        <time>2022-02-06T10:03:22Z</time>
      </trkpt>
      <trkpt lat="48.29114" lon="2.64959">
        <ele>434.8</ele>
        <time>2022-02-06T10:03:26Z</time>
      </trkpt>
      <trkpt lat="48.29126" lon="2.6497">
        <ele>434.6</ele>
        <time>2022-02-06T10:03:30Z</time>
      </trkpt>
      <trkpt lat="48.2914" lon="2.64969">
        <ele>434.2</ele>
        <time>2022-02-06T10:03:34Z</time>
      </trkpt>
      <trkpt lat="48.29152" lon="2.64952">
        <ele>432.4</ele>
        <time>2022-02-06T10:03:38Z</time>
      </trkpt>
      <trkpt lat="48.29167" lon="2.64939">
        <ele>432.6</ele>
        <time>2022-02-06T10:03:42Z</time>
      </trkpt>
      <trkpt lat="48.29182" lon="2.64921">
        <ele>432.4</ele>
        <time>2022-02-06T10:03:46Z</time>
      </trkpt>
      <trkpt lat="48.29196" lon="2.64906">
        <ele>431.6</ele>
        <time>2022-02-06T10:03:50Z</time>
      </trkpt>
      <trkpt lat="48.2921" lon="2.64887">
        <ele>430.4</ele>
        <time>2022-02-06T10:03:54Z</time>
      </trkpt>
      <trkpt lat="48.29223" lon="2.64868">
        <ele>431.2</ele>
        <time>2022-02-06T10:03:58Z</time>
      </trkpt>
      <trkpt lat="48.29238" lon="2.64846">
        <ele>431.2</ele>
        <time>2022-02-06T10:04:02Z</time>
      </trkpt>
      <trkpt lat="48.2925" lon="2.64823">
        <ele>430.8</ele>
        <time>2022-02-06T10:04:06Z</time>
      </trkpt>
      <trkpt lat="48.29263" lon="2.64802">
        <ele>432.4</ele>
        <time>2022-02-06T10:04:10Z</time>
      </trkpt>
      <trkpt lat="48.29276" lon="2.64782">
        <ele>431.2</ele>
        <time>2022-02-06T10:04:14Z</time>
      </trkpt>
      <trkpt lat="48.29291" lon="2.6477">
        <ele>431.2</ele>
        <time>2022-02-06T10:04:18Z</time>
      </trkpt>
      <trkpt lat="48.29305" lon="2.64778">
        <ele>431</ele>
        <time>2022-02-06T10:04:22Z</time>
      </trkpt>
      <trkpt lat="48.2932" lon="2.64784">
        <ele>431.4</ele>
        <time>2022-02-06T10:04:26Z</time>
      </trkpt>
      <trkpt lat="48.29336" lon="2.64792">
        <ele>431</ele>
        <time>2022-02-06T10:04:30Z</time>
      </trkpt>
      <trkpt lat="48.29349" lon="2.648">
        <ele>431.2</ele>
        <time>2022-02-06T10:04:34Z</time>
      </trkpt>
      <trkpt lat="48.29359" lon="2.64821">
        <ele>432</ele>
        <time>2022-02-06T10:04:38Z</time>
      </trkpt>
      <trkpt lat="48.29373" lon="2.64826">
        <ele>431.6</ele>
        <time>2022-02-06T10:04:42Z</time>
      </trkpt>
      <trkpt lat="48.29386" lon="2.64838">
        <ele>432.2</ele>
        <time>2022-02-06T10:04:46Z</time>
      </trkpt>
      <trkpt lat="48.29394" lon="2.64856">
        <ele>431.4</ele>
        <time>2022-02-06T10:04:50Z</time>
      </trkpt>
      <trkpt lat="48.29406" lon="2.6487">
        <ele>432.6</ele>
        <time>2022-02-06T10:04:54Z</time>
      </trkpt>
      <trkpt lat="48.29414" lon="2.64882">
        <ele>432.8</ele>
        <time>2022-02-06T10:04:58Z</time>
      </trkpt>
      <trkpt lat="48.29423" lon="2.64899">
        <ele>432.8</ele>
        <time>2022-02-06T10:05:02Z</time>
      </trkpt>
      <trkpt lat="48.29424" lon="2.64922">
        <ele>434</ele>
        <time>2022-02-06T10:05:06Z</time>
      </trkpt>
      <trkpt lat="48.29434" lon="2.6494">
        <ele>432.6</ele>
        <time>2022-02-06T10:05:10Z</time>
      </trkpt>
      <trkpt lat="48.2945" lon="2.64951">
        <ele>433.6</ele>
        <time>2022-02-06T10:05:14Z</time>
      </trkpt>
      <trkpt lat="48.29464" lon="2.64961">
        <ele>432</ele>
        <time>2022-02-06T10:05:18Z</time>
      </trkpt>
      <trkpt lat="48.29479" lon="2.64961">
        <ele>433.2</ele>
        <time>2022-02-06T10:05:22Z</time>
      </trkpt>
      <trkpt lat="48.29497" lon="2.64965">
        <ele>434.6</ele>
        <time>2022-02-06T10:05:26Z</time>
      </trkpt>
      <trkpt lat="48.2951" lon="2.64974">
        <ele>432.6</ele>
        <time>2022-02-06T10:05:30Z</time>
      </trkpt>
      <trkpt lat="48.29531" lon="2.64985">
        <ele>431.8</ele>
        <time>2022-02-06T10:05:34Z</time>
      </trkpt>
      <trkpt lat="48.29547" lon="2.64998">
        <ele>432.4</ele>
        <time>2022-02-06T10:05:38Z</time>
      </trkpt>
      <trkpt lat="48.29558" lon="2.65011">
        <ele>432.4</ele>
        <time>2022-02-06T10:05:42Z</time>
      </trkpt>
      <trkpt lat="48.2957" lon="2.65025">
        <ele>432.6</ele>
        <time>2022-02-06T10:05:46Z</time>
      </trkpt>
      <trkpt lat="48.29578" lon="2.65045">
        <ele>433</ele>
        <time>2022-02-06T10:05:50Z</time>
      </trkpt>
      <trkpt lat="48.29579" lon="2.65064">
        <ele>433.2</ele>
        <time>2022-02-06T10:05:54Z</time>
      </trkpt>
      <trkpt lat="48.29588" lon="2.65087">
        <ele>434</ele>
        <time>2022-02-06T10:05:58Z</time>
      </trkpt>
      <trkpt lat="48.29582" lon="2.65109">
        <ele>433.2</ele>
        <time>2022-02-06T10:06:02Z</time>
      </trkpt>
      <trkpt lat="48.29571" lon="2.65132">
        <ele>433.2</ele>
        <time>2022-02-06T10:06:06Z</time>
      </trkpt>
      <trkpt lat="48.29562" lon="2.65151">
        <ele>431.6</ele>
        <time>2022-02-06T10:06:10Z</time>
      </trkpt>
      <trkpt lat="48.29553" lon="2.65168">
        <ele>430.4</ele>
        <time>2022-02-06T10:06:14Z</time>
      </trkpt>
      <trkpt lat="48.29541" lon="2.65191">
        <ele>431.6</ele>
        <time>2022-02-06T10:06:18Z</time>
      </trkpt>
      <trkpt lat="48.2953" lon="2.65215">
        <ele>434.8</ele>
        <time>2022-02-06T10:06:22Z</time>
      </trkpt>
      <trkpt lat="48.2952" lon="2.65236">
        <ele>434.6</ele>
        <time>2022-02-06T10:06:26Z</time>
      </trkpt>
      <trkpt lat="48.29508" lon="2.65258">
        <ele>433</ele>
        <time>2022-02-06T10:06:30Z</time>
      </trkpt>
      <trkpt lat="48.29496" lon="2.65277">
        <ele>433.6</ele>
        <time>2022-02-06T10:06:34Z</time>
      </trkpt>
      <trkpt lat="48.29484" lon="2.65297">
        <ele>434.2</ele>
        <time>2022-02-06T10:06:38Z</time>
      </trkpt>
      <trkpt lat="48.29472" lon="2.65319">
        <ele>435.4</ele>
        <time>2022-02-06T10:06:42Z</time>
      </trkpt>
      <trkpt lat="48.29459" lon="2.6534">
        <ele>433.6</ele>
        <time>2022-02-06T10:06:46Z</time>
      </trkpt>
      <trkpt lat="48.29453" lon="2.65364">
        <ele>436.2</ele>
        <time>2022-02-06T10:06:50Z</time>
      </trkpt>
      <trkpt lat="48.29454" lon="2.65379">
        <ele>436.6</ele>
        <time>2022-02-06T10:06:54Z</time>
      </trkpt>
      <trkpt lat="48.29458" lon="2.65401">
        <ele>435.4</ele>
        <time>2022-02-06T10:06:58Z</time>
      </trkpt>
      <trkpt lat="48.29453" lon="2.65426">
        <ele>436.2</ele>
        <time>2022-02-06T10:07:02Z</time>
      </trkpt>
      <trkpt lat="48.29453" lon="2.65447">
        <ele>435.8</ele>
        <time>2022-02-06T10:07:06Z</time>
      </trkpt>
      <trkpt lat="48.29453" lon="2.6547">
        <ele>437</ele>
        <time>2022-02-06T10:07:10Z</time>
      </trkpt>
      <trkpt lat="48.29461" lon="2.6548">
        <ele>439.2</ele>
        <time>2022-02-06T10:07:14Z</time>
      </trkpt>
      <trkpt lat="48.29468" lon="2.65482">
        <ele>440.6</ele>
        <time>2022-02-06T10:07:18Z</time>
      </trkpt>
      <trkpt lat="48.29477" lon="2.65489">
        <ele>439.4</ele>
        <time>2022-02-06T10:07:22Z</time>
      </trkpt>
      <trkpt lat="48.29484" lon="2.65495">
        <ele>440.2</ele>
        <time>2022-02-06T10:07:26Z</time>
      </trkpt>
      <trkpt lat="48.29498" lon="2.65493">
        <ele>440.4</ele>
        <time>2022-02-06T10:07:30Z</time>
      </trkpt>
      <trkpt lat="48.29511" lon="2.65483">
        <ele>440</ele>
        <time>2022-02-06T10:07:34Z</time>
      </trkpt>
      <trkpt lat="48.29523" lon="2.65469">
        <ele>441</ele>
        <time>2022-02-06T10:07:38Z</time>
      </trkpt>
      <trkpt lat="48.29536" lon="2.65458">
        <ele>440.2</ele>
        <time>2022-02-06T10:07:42Z</time>
      </trkpt>
      <trkpt lat="48.29554" lon="2.65448">
        <ele>437.6</ele>
        <time>2022-02-06T10:07:46Z</time>
      </trkpt>
      <trkpt lat="48.29569" lon="2.65429">
        <ele>436.8</ele>
        <time>2022-02-06T10:07:50Z</time>
      </trkpt>
      <trkpt lat="48.29582" lon="2.65411">
        <ele>437.2</ele>
        <time>2022-02-06T10:07:54Z</time>
      </trkpt>
      <trkpt lat="48.29592" lon="2.65426">
        <ele>437.6</ele>
        <time>2022-02-06T10:07:58Z</time>
      </trkpt>
      <trkpt lat="48.29603" lon="2.65445">
        <ele>437</ele>
        <time>2022-02-06T10:08:02Z</time>
      </trkpt>
      <trkpt lat="48.29615" lon="2.65463">
        <ele>437.4</ele>
        <time>2022-02-06T10:08:06Z</time>
      </trkpt>
      <trkpt lat="48.29627" lon="2.65481">
        <ele>437.8</ele>
        <time>2022-02-06T10:08:10Z</time>
      </trkpt>
      <trkpt lat="48.29639" lon="2.65501">
        <ele>438.4</ele>
        <time>2022-02-06T10:08:14Z</time>
      </trkpt>
      <trkpt lat="48.29653" lon="2.6552">
        <ele>438</ele>
        <time>2022-02-06T10:08:18Z</time>
      </trkpt>
      <trkpt lat="48.29667" lon="2.6554">
        <ele>437.4</ele>
        <time>2022-02-06T10:08:22Z</time>
      </trkpt>
      <trkpt lat="48.29678" lon="2.6556">
        <ele>438.8</ele>
        <time>2022-02-06T10:08:26Z</time>
      </trkpt>
      <trkpt lat="48.2969" lon="2.65578">
        <ele>438.2</ele>
        <time>2022-02-06T10:08:30Z</time>
      </trkpt>
      <trkpt lat="48.29702" lon="2.65591">
        <ele>437.8</ele>
        <time>2022-02-06T10:08:34Z</time>
      </trkpt>
      <trkpt lat="48.29719" lon="2.65587">
        <ele>437.8</ele>
        <time>2022-02-06T10:08:38Z</time>
      </trkpt>
      <trkpt lat="48.2973" lon="2.65568">
        <ele>435.8</ele>
        <time>2022-02-06T10:08:42Z</time>
      </trkpt>
      <trkpt lat="48.29736" lon="2.65546">
        <ele>435.6</ele>
        <time>2022-02-06T10:08:46Z</time>
      </trkpt>
      <trkpt lat="48.29743" lon="2.65548">
        <ele>434.6</ele>
        <time>2022-02-06T10:08:50Z</time>
      </trkpt>
      <trkpt lat="48.29752" lon="2.65534">
        <ele>433.2</ele>
        <time>2022-02-06T10:08:54Z</time>
      </trkpt>
      <trkpt lat="48.29764" lon="2.65531">
        <ele>431.6</ele>
        <time>2022-02-06T10:08:58Z</time>
      </trkpt>
      <trkpt lat="48.29783" lon="2.65523">
        <ele>432.4</ele>
        <time>2022-02-06T10:09:02Z</time>
      </trkpt>
      <trkpt lat="48.29803" lon="2.65515">
        <ele>431</ele>
        <time>2022-02-06T10:09:06Z</time>
      </trkpt>
      <trkpt lat="48.29812" lon="2.65506">
        <ele>431.8</ele>
        <time>2022-02-06T10:09:10Z</time>
      </trkpt>
      <trkpt lat="48.29824" lon="2.65497">
        <ele>431.8</ele>
        <time>2022-02-06T10:09:14Z</time>
      </trkpt>
      <trkpt lat="48.29833" lon="2.6551">
        <ele>432.2</ele>
        <time>2022-02-06T10:09:18Z</time>
      </trkpt>
      <trkpt lat="48.29846" lon="2.65512">
        <ele>432</ele>
        <time>2022-02-06T10:09:22Z</time>
      </trkpt>
      <trkpt lat="48.29864" lon="2.65513">
        <ele>431.2</ele>
        <time>2022-02-06T10:09:26Z</time>
      </trkpt>
      <trkpt lat="48.29878" lon="2.65525">
        <ele>430.8</ele>
        <time>2022-02-06T10:09:30Z</time>
      </trkpt>
      <trkpt lat="48.29888" lon="2.65541">
        <ele>431</ele>
        <time>2022-02-06T10:09:34Z</time>
      </trkpt>
      <trkpt lat="48.29909" lon="2.6553">
        <ele>430</ele>
        <time>2022-02-06T10:09:38Z</time>
      </trkpt>
      <trkpt lat="48.29923" lon="2.65508">
        <ele>430</ele>
        <time>2022-02-06T10:09:42Z</time>
      </trkpt>
      <trkpt lat="48.29941" lon="2.65503">
        <ele>429.8</ele>
        <time>2022-02-06T10:09:46Z</time>
      </trkpt>
      <trkpt lat="48.29958" lon="2.65493">
        <ele>428.6</ele>
        <time>2022-02-06T10:09:50Z</time>
      </trkpt>
      <trkpt lat="48.29975" lon="2.65471">
        <ele>429.8</ele>
        <time>2022-02-06T10:09:54Z</time>
      </trkpt>
      <trkpt lat="48.29991" lon="2.65457">
        <ele>429.4</ele>
        <time>2022-02-06T10:09:58Z</time>
      </trkpt>
      <trkpt lat="48.3001" lon="2.65446">
        <ele>429.6</ele>
        <time>2022-02-06T10:10:02Z</time>
      </trkpt>
      <trkpt lat="48.30026" lon="2.65438">
        <ele>430.8</ele>
        <time>2022-02-06T10:10:06Z</time>
      </trkpt>
      <trkpt lat="48.30043" lon="2.65422">
        <ele>431.6</ele>
        <time>2022-02-06T10:10:10Z</time>
      </trkpt>
      <trkpt lat="48.30057" lon="2.65412">
        <ele>429.2</ele>
        <time>2022-02-06T10:10:14Z</time>
      </trkpt>
      <trkpt lat="48.30075" lon="2.65394">
        <ele>429.2</ele>
        <time>2022-02-06T10:10:18Z</time>
      </trkpt>
      <trkpt lat="48.30088" lon="2.65378">
        <ele>429.8</ele>
        <time>2022-02-06T10:10:22Z</time>
      </trkpt>
      <trkpt lat="48.30105" lon="2.65361">
        <ele>429.8</ele>
        <time>2022-02-06T10:10:26Z</time>
      </trkpt>
      <trkpt lat="48.30111" lon="2.65337">
        <ele>431.6</ele>
        <time>2022-02-06T10:10:30Z</time>
      </trkpt>
      <trkpt lat="48.30107" lon="2.65319">
        <ele>436.4</ele>
        <time>2022-02-06T10:10:34Z</time>
      </trkpt>
      <trkpt lat="48.30105" lon="2.65305">
        <ele>433.4</ele>
        <time>2022-02-06T10:10:38Z</time>
      </trkpt>
      <trkpt lat="48.30105" lon="2.65288">
        <ele>432</ele>
        <time>2022-02-06T10:10:42Z</time>
      </trkpt>
      <trkpt lat="48.3011" lon="2.65268">
        <ele>431.4</ele>
        <time>2022-02-06T10:10:46Z</time>
      </trkpt>
      <trkpt lat="48.30114" lon="2.65253">
        <ele>431.4</ele>
        <time>2022-02-06T10:10:50Z</time>
      </trkpt>
      <trkpt lat="48.30117" lon="2.65238">
        <ele>431.6</ele>
        <time>2022-02-06T10:10:54Z</time>
      </trkpt>
      <trkpt lat="48.30121" lon="2.65218">
        <ele>431.6</ele>
        <time>2022-02-06T10:10:58Z</time>
      </trkpt>
      <trkpt lat="48.30119" lon="2.65197">
        <ele>431</ele>
        <time>2022-02-06T10:11:02Z</time>
      </trkpt>
      <trkpt lat="48.30113" lon="2.65177">
        <ele>431.6</ele>
        <time>2022-02-06T10:11:06Z</time>
      </trkpt>
      <trkpt lat="48.30108" lon="2.65163">
        <ele>431</ele>
        <time>2022-02-06T10:11:10Z</time>
      </trkpt>
      <trkpt lat="48.30099" lon="2.65147">
        <ele>431.4</ele>
        <time>2022-02-06T10:11:14Z</time>
      </trkpt>
      <trkpt lat="48.30096" lon="2.65131">
        <ele>431</ele>
        <time>2022-02-06T10:11:18Z</time>
      </trkpt>
      <trkpt lat="48.30098" lon="2.65109">
        <ele>431</ele>
        <time>2022-02-06T10:11:22Z</time>
      </trkpt>
      <trkpt lat="48.30097" lon="2.65083">
        <ele>430.2</ele>
        <time>2022-02-06T10:11:26Z</time>
      </trkpt>
      <trkpt lat="48.30107" lon="2.65066">
        <ele>430.4</ele>
        <time>2022-02-06T10:11:30Z</time>
      </trkpt>
      <trkpt lat="48.30108" lon="2.6504">
        <ele>430.8</ele>
        <time>2022-02-06T10:11:34Z</time>
      </trkpt>
      <trkpt lat="48.30117" lon="2.65025">
        <ele>431.6</ele>
        <time>2022-02-06T10:11:38Z</time>
      </trkpt>
      <trkpt lat="48.30122" lon="2.65005">
        <ele>434.4</ele>
        <time>2022-02-06T10:11:42Z</time>
      </trkpt>
      <trkpt lat="48.30131" lon="2.64991">
        <ele>434.2</ele>
        <time>2022-02-06T10:11:46Z</time>
      </trkpt>
      <trkpt lat="48.30141" lon="2.6497">
        <ele>433.2</ele>
        <time>2022-02-06T10:11:50Z</time>
      </trkpt>
      <trkpt lat="48.30148" lon="2.64952">
        <ele>432.2</ele>
        <time>2022-02-06T10:11:54Z</time>
      </trkpt>
      <trkpt lat="48.30165" lon="2.64943">
        <ele>432.2</ele>
        <time>2022-02-06T10:11:58Z</time>
      </trkpt>
      <trkpt lat="48.30175" lon="2.64945">
        <ele>435.2</ele>
        <time>2022-02-06T10:12:02Z</time>
      </trkpt>
      <trkpt lat="48.3018" lon="2.64948">
        <ele>430.8</ele>
        <time>2022-02-06T10:12:06Z</time>
      </trkpt>
      <trkpt lat="48.3019" lon="2.64967">
        <ele>432.6</ele>
        <time>2022-02-06T10:12:10Z</time>
      </trkpt>
      <trkpt lat="48.30196" lon="2.6498">
        <ele>434.6</ele>
        <time>2022-02-06T10:12:14Z</time>
      </trkpt>
      <trkpt lat="48.30204" lon="2.64974">
        <ele>434.6</ele>
        <time>2022-02-06T10:12:18Z</time>
      </trkpt>
      <trkpt lat="48.30209" lon="2.64958">
        <ele>433.2</ele>
        <time>2022-02-06T10:12:22Z</time>
      </trkpt>
      <trkpt lat="48.30207" lon="2.64946">
        <ele>435</ele>
        <time>2022-02-06T10:12:26Z</time>
      </trkpt>
      <trkpt lat="48.30209" lon="2.64943">
        <ele>433.4</ele>
        <time>2022-02-06T10:12:30Z</time>
      </trkpt>
      <trkpt lat="48.30218" lon="2.64931">
        <ele>433.4</ele>
        <time>2022-02-06T10:12:34Z</time>
      </trkpt>
      <trkpt lat="48.30229" lon="2.64921">
        <ele>434.4</ele>
        <time>2022-02-06T10:12:38Z</time>
      </trkpt>
      <trkpt lat="48.30239" lon="2.64927">
        <ele>431.8</ele>
        <time>2022-02-06T10:12:42Z</time>
      </trkpt>
      <trkpt lat="48.30248" lon="2.6491">
        <ele>429.8</ele>
        <time>2022-02-06T10:12:46Z</time>
      </trkpt>
      <trkpt lat="48.30257" lon="2.64892">
        <ele>429.8</ele>
        <time>2022-02-06T10:12:50Z</time>
      </trkpt>
      <trkpt lat="48.30269" lon="2.64876">
        <ele>429.8</ele>
        <time>2022-02-06T10:12:54Z</time>
      </trkpt>
      <trkpt lat="48.30282" lon="2.64871">
        <ele>430.8</ele>
        <time>2022-02-06T10:12:58Z</time>
      </trkpt>
      <trkpt lat="48.30291" lon="2.64855">
        <ele>429.6</ele>
        <time>2022-02-06T10:13:02Z</time>
      </trkpt>
      <trkpt lat="48.30294" lon="2.64828">
        <ele>429.6</ele>
        <time>2022-02-06T10:13:06Z</time>
      </trkpt>
      <trkpt lat="48.303" lon="2.64809">
        <ele>428</ele>
        <time>2022-02-06T10:13:10Z</time>
      </trkpt>
      <trkpt lat="48.30308" lon="2.64792">
        <ele>429.6</ele>
        <time>2022-02-06T10:13:14Z</time>
      </trkpt>
      <trkpt lat="48.30318" lon="2.6478">
        <ele>429.8</ele>
        <time>2022-02-06T10:13:18Z</time>
      </trkpt>
      <trkpt lat="48.3033" lon="2.6476">
        <ele>429</ele>
        <time>2022-02-06T10:13:22Z</time>
      </trkpt>
      <trkpt lat="48.30337" lon="2.64743">
        <ele>429.6</ele>
        <time>2022-02-06T10:13:26Z</time>
      </trkpt>
      <trkpt lat="48.30346" lon="2.64732">
        <ele>429.2</ele>
        <time>2022-02-06T10:13:30Z</time>
      </trkpt>
      <trkpt lat="48.30355" lon="2.64719">
        <ele>429.8</ele>
        <time>2022-02-06T10:13:34Z</time>
      </trkpt>
      <trkpt lat="48.30357" lon="2.64705">
        <ele>430</ele>
        <time>2022-02-06T10:13:38Z</time>
      </trkpt>
      <trkpt lat="48.30352" lon="2.6469">
        <ele>429.4</ele>
        <time>2022-02-06T10:13:42Z</time>
      </trkpt>
      <trkpt lat="48.3035" lon="2.64663">
        <ele>429.8</ele>
        <time>2022-02-06T10:13:46Z</time>
      </trkpt>
      <trkpt lat="48.30348" lon="2.64643">
        <ele>429.6</ele>
        <time>2022-02-06T10:13:50Z</time>
      </trkpt>
      <trkpt lat="48.30355" lon="2.64625">
        <ele>429.6</ele>
        <time>2022-02-06T10:13:54Z</time>
      </trkpt>
      <trkpt lat="48.30364" lon="2.64608">
        <ele>429</ele>
        <time>2022-02-06T10:13:58Z</time>
      </trkpt>
      <trkpt lat="48.30374" lon="2.64604">
        <ele>430</ele>
        <time>2022-02-06T10:14:02Z</time>
      </trkpt>
      <trkpt lat="48.30383" lon="2.64589">
        <ele>428.8</ele>
        <time>2022-02-06T10:14:06Z</time>
      </trkpt>
      <trkpt lat="48.30392" lon="2.64573">
        <ele>429.6</ele>
        <time>2022-02-06T10:14:10Z</time>
      </trkpt>
      <trkpt lat="48.30398" lon="2.64554">
        <ele>428.8</ele>
        <time>2022-02-06T10:14:14Z</time>
      </trkpt>
      <trkpt lat="48.3041" lon="2.64546">
        <ele>428.8</ele>
        <time>2022-02-06T10:14:18Z</time>
      </trkpt>
      <trkpt lat="48.30416" lon="2.64547">
        <ele>431.2</ele>
        <time>2022-02-06T10:14:22Z</time>
      </trkpt>
      <trkpt lat="48.30423" lon="2.64546">
        <ele>432.6</ele>
        <time>2022-02-06T10:14:26Z</time>
      </trkpt>
      <trkpt lat="48.30432" lon="2.64552">
        <ele>433.2</ele>
        <time>2022-02-06T10:14:30Z</time>
      </trkpt>
      <trkpt lat="48.30437" lon="2.64561">
        <ele>430.4</ele>
        <time>2022-02-06T10:14:34Z</time>
      </trkpt>
      <trkpt lat="48.30433" lon="2.64575">
        <ele>431.8</ele>
        <time>2022-02-06T10:14:38Z</time>
      </trkpt>
      <trkpt lat="48.30439" lon="2.6459">
        <ele>432.2</ele>
        <time>2022-02-06T10:14:42Z</time>
      </trkpt>
      <trkpt lat="48.30445" lon="2.64602">
        <ele>433.2</ele>
        <time>2022-02-06T10:14:46Z</time>
      </trkpt>
      <trkpt lat="48.30446" lon="2.64618">
        <ele>429.2</ele>
        <time>2022-02-06T10:14:50Z</time>
      </trkpt>
      <trkpt lat="48.30444" lon="2.64637">
        <ele>427.6</ele>
        <time>2022-02-06T10:14:54Z</time>
      </trkpt>
      <trkpt lat="48.30447" lon="2.64666">
        <ele>429.6</ele>
        <time>2022-02-06T10:14:58Z</time>
      </trkpt>
      <trkpt lat="48.30448" lon="2.64692">
        <ele>429</ele>
        <time>2022-02-06T10:15:02Z</time>
      </trkpt>
      <trkpt lat="48.30448" lon="2.64717">
        <ele>429.8</ele>
        <time>2022-02-06T10:15:06Z</time>
      </trkpt>
      <trkpt lat="48.30451" lon="2.64741">
        <ele>429.6</ele>
        <time>2022-02-06T10:15:10Z</time>
      </trkpt>
      <trkpt lat="48.30454" lon="2.64755">
        <ele>432.2</ele>
        <time>2022-02-06T10:15:14Z</time>
      </trkpt>
      <trkpt lat="48.30457" lon="2.64767">
        <ele>432.4</ele>
        <time>2022-02-06T10:15:18Z</time>
      </trkpt>
      <trkpt lat="48.30455" lon="2.64781">
        <ele>429.2</ele>
        <time>2022-02-06T10:15:22Z</time>
      </trkpt>
      <trkpt lat="48.30454" lon="2.64805">
        <ele>429.6</ele>
        <time>2022-02-06T10:15:26Z</time>
      </trkpt>
      <trkpt lat="48.30457" lon="2.64824">
        <ele>431.4</ele>
        <time>2022-02-06T10:15:30Z</time>
      </trkpt>
      <trkpt lat="48.30459" lon="2.64835">
        <ele>432</ele>
        <time>2022-02-06T10:15:34Z</time>
      </trkpt>
      <trkpt lat="48.30466" lon="2.64842">
        <ele>432.4</ele>
        <time>2022-02-06T10:15:38Z</time>
      </trkpt>
      <trkpt lat="48.30472" lon="2.64843">
        <ele>432.2</ele>
        <time>2022-02-06T10:15:42Z</time>
      </trkpt>
      <trkpt lat="48.30478" lon="2.64841">
        <ele>432.2</ele>
        <time>2022-02-06T10:15:46Z</time>
      </trkpt>
      <trkpt lat="48.30485" lon="2.6484">
        <ele>432.4</ele>
        <time>2022-02-06T10:16:47Z</time>
      </trkpt>
      <trkpt lat="48.30489" lon="2.6484">
        <ele>432</ele>
        <time>2022-02-06T10:16:51Z</time>
      </trkpt>
      <trkpt lat="48.30494" lon="2.64844">
        <ele>432</ele>
        <time>2022-02-06T10:16:55Z</time>
      </trkpt>
      <trkpt lat="48.30501" lon="2.64843">
        <ele>432</ele>
        <time>2022-02-06T10:16:59Z</time>
      </trkpt>
      <trkpt lat="48.30511" lon="2.64839">
        <ele>432</ele>
        <time>2022-02-06T10:17:03Z</time>
      </trkpt>
      <trkpt lat="48.30522" lon="2.64834">
        <ele>432.6</ele>
        <time>2022-02-06T10:17:07Z</time>
      </trkpt>
      <trkpt lat="48.30535" lon="2.64831">
        <ele>432.4</ele>
        <time>2022-02-06T10:17:11Z</time>
      </trkpt>
      <trkpt lat="48.30546" lon="2.64831">
        <ele>432.4</ele>
        <time>2022-02-06T10:17:15Z</time>
      </trkpt>
      <trkpt lat="48.30559" lon="2.64827">
        <ele>433.2</ele>
        <time>2022-02-06T10:17:19Z</time>
      </trkpt>
      <trkpt lat="48.30574" lon="2.64823">
        <ele>433.6</ele>
        <time>2022-02-06T10:17:23Z</time>
      </trkpt>
      <trkpt lat="48.30588" lon="2.64816">
        <ele>433.2</ele>
        <time>2022-02-06T10:17:27Z</time>
      </trkpt>
      <trkpt lat="48.30603" lon="2.64808">
        <ele>431.4</ele>
        <time>2022-02-06T10:17:31Z</time>
      </trkpt>
      <trkpt lat="48.30618" lon="2.64798">
        <ele>431.8</ele>
        <time>2022-02-06T10:17:35Z</time>
      </trkpt>
      <trkpt lat="48.30629" lon="2.64781">
        <ele>432.6</ele>
        <time>2022-02-06T10:17:39Z</time>
      </trkpt>
      <trkpt lat="48.30634" lon="2.64763">
        <ele>432.6</ele>
        <time>2022-02-06T10:17:43Z</time>
      </trkpt>
      <trkpt lat="48.30642" lon="2.64744">
        <ele>433.2</ele>
        <time>2022-02-06T10:17:47Z</time>
      </trkpt>
      <trkpt lat="48.30653" lon="2.64728">
        <ele>433.6</ele>
        <time>2022-02-06T10:17:51Z</time>
      </trkpt>
      <trkpt lat="48.30665" lon="2.64712">
        <ele>431.8</ele>
        <time>2022-02-06T10:17:55Z</time>
      </trkpt>
      <trkpt lat="48.30679" lon="2.64699">
        <ele>434</ele>
        <time>2022-02-06T10:17:59Z</time>
      </trkpt>
      <trkpt lat="48.3069" lon="2.64681">
        <ele>434.6</ele>
        <time>2022-02-06T10:18:03Z</time>
      </trkpt>
      <trkpt lat="48.30702" lon="2.64665">
        <ele>435</ele>
        <time>2022-02-06T10:18:07Z</time>
      </trkpt>
      <trkpt lat="48.30713" lon="2.64646">
        <ele>435.2</ele>
        <time>2022-02-06T10:18:11Z</time>
      </trkpt>
      <trkpt lat="48.30727" lon="2.64633">
        <ele>434.6</ele>
        <time>2022-02-06T10:18:15Z</time>
      </trkpt>
      <trkpt lat="48.30741" lon="2.64621">
        <ele>434.2</ele>
        <time>2022-02-06T10:18:19Z</time>
      </trkpt>
      <trkpt lat="48.30756" lon="2.64611">
        <ele>436</ele>
        <time>2022-02-06T10:18:23Z</time>
      </trkpt>
      <trkpt lat="48.30771" lon="2.64607">
        <ele>435.8</ele>
        <time>2022-02-06T10:18:27Z</time>
      </trkpt>
      <trkpt lat="48.30783" lon="2.64606">
        <ele>435.8</ele>
        <time>2022-02-06T10:18:31Z</time>
      </trkpt>
      <trkpt lat="48.30796" lon="2.64603">
        <ele>436.4</ele>
        <time>2022-02-06T10:18:35Z</time>
      </trkpt>
      <trkpt lat="48.30813" lon="2.64599">
        <ele>436.8</ele>
        <time>2022-02-06T10:18:39Z</time>
      </trkpt>
      <trkpt lat="48.30829" lon="2.64592">
        <ele>436.6</ele>
        <time>2022-02-06T10:18:43Z</time>
      </trkpt>
      <trkpt lat="48.30846" lon="2.64584">
        <ele>436.8</ele>
        <time>2022-02-06T10:18:47Z</time>
      </trkpt>
      <trkpt lat="48.30862" lon="2.64576">
        <ele>437.8</ele>
        <time>2022-02-06T10:18:51Z</time>
      </trkpt>
      <trkpt lat="48.30878" lon="2.6457">
        <ele>437.4</ele>
        <time>2022-02-06T10:18:55Z</time>
      </trkpt>
      <trkpt lat="48.3089" lon="2.64563">
        <ele>438.6</ele>
        <time>2022-02-06T10:18:59Z</time>
      </trkpt>
      <trkpt lat="48.30905" lon="2.64559">
        <ele>438.2</ele>
        <time>2022-02-06T10:19:03Z</time>
      </trkpt>
      <trkpt lat="48.30919" lon="2.64553">
        <ele>440</ele>
        <time>2022-02-06T10:19:07Z</time>
      </trkpt>
      <trkpt lat="48.30934" lon="2.64549">
        <ele>439.2</ele>
        <time>2022-02-06T10:19:11Z</time>
      </trkpt>
      <trkpt lat="48.3095" lon="2.64544">
        <ele>441.2</ele>
        <time>2022-02-06T10:19:15Z</time>
      </trkpt>
      <trkpt lat="48.30963" lon="2.64538">
        <ele>441.2</ele>
        <time>2022-02-06T10:19:19Z</time>
      </trkpt>
      <trkpt lat="48.30977" lon="2.64534">
        <ele>440.8</ele>
        <time>2022-02-06T10:19:23Z</time>
      </trkpt>
      <trkpt lat="48.30993" lon="2.64527">
        <ele>440.2</ele>
        <time>2022-02-06T10:19:27Z</time>
      </trkpt>
      <trkpt lat="48.3101" lon="2.64525">
        <ele>439.8</ele>
        <time>2022-02-06T10:19:31Z</time>
      </trkpt>
      <trkpt lat="48.31029" lon="2.64523">
        <ele>441.6</ele>
        <time>2022-02-06T10:19:35Z</time>
      </trkpt>
      <trkpt lat="48.31042" lon="2.64514">
        <ele>441.2</ele>
        <time>2022-02-06T10:19:39Z</time>
      </trkpt>
      <trkpt lat="48.31049" lon="2.64495">
        <ele>442.2</ele>
        <time>2022-02-06T10:19:43Z</time>
      </trkpt>
      <trkpt lat="48.31056" lon="2.64474">
        <ele>442</ele>
        <time>2022-02-06T10:19:47Z</time>
      </trkpt>
      <trkpt lat="48.31064" lon="2.64453">
        <ele>442</ele>
        <time>2022-02-06T10:19:51Z</time>
      </trkpt>
      <trkpt lat="48.31071" lon="2.64431">
        <ele>441.8</ele>
        <time>2022-02-06T10:19:55Z</time>
      </trkpt>
      <trkpt lat="48.31078" lon="2.64411">
        <ele>442.8</ele>
        <time>2022-02-06T10:19:59Z</time>
      </trkpt>
      <trkpt lat="48.31084" lon="2.64394">
        <ele>444.2</ele>
        <time>2022-02-06T10:20:03Z</time>
      </trkpt>
      <trkpt lat="48.31089" lon="2.64375">
        <ele>444.6</ele>
        <time>2022-02-06T10:20:07Z</time>
      </trkpt>
      <trkpt lat="48.31095" lon="2.64357">
        <ele>446</ele>
        <time>2022-02-06T10:20:11Z</time>
      </trkpt>
      <trkpt lat="48.31101" lon="2.64341">
        <ele>447.4</ele>
        <time>2022-02-06T10:20:15Z</time>
      </trkpt>
      <trkpt lat="48.31107" lon="2.64324">
        <ele>450</ele>
        <time>2022-02-06T10:20:19Z</time>
      </trkpt>
      <trkpt lat="48.3111" lon="2.64307">
        <ele>449.6</ele>
        <time>2022-02-06T10:20:23Z</time>
      </trkpt>
      <trkpt lat="48.31118" lon="2.64294">
        <ele>448.8</ele>
        <time>2022-02-06T10:20:27Z</time>
      </trkpt>
      <trkpt lat="48.31126" lon="2.64282">
        <ele>450.2</ele>
        <time>2022-02-06T10:20:31Z</time>
      </trkpt>
      <trkpt lat="48.3113" lon="2.64269">
        <ele>449.8</ele>
        <time>2022-02-06T10:20:35Z</time>
      </trkpt>
      <trkpt lat="48.31136" lon="2.64254">
        <ele>451.8</ele>
        <time>2022-02-06T10:20:39Z</time>
      </trkpt>
      <trkpt lat="48.31139" lon="2.64238">
        <ele>451.6</ele>
        <time>2022-02-06T10:20:43Z</time>
      </trkpt>
      <trkpt lat="48.3114" lon="2.64225">
        <ele>449.8</ele>
        <time>2022-02-06T10:20:47Z</time>
      </trkpt>
      <trkpt lat="48.31141" lon="2.64205">
        <ele>451.6</ele>
        <time>2022-02-06T10:20:51Z</time>
      </trkpt>
      <trkpt lat="48.31144" lon="2.64188">
        <ele>452.6</ele>
        <time>2022-02-06T10:20:55Z</time>
      </trkpt>
      <trkpt lat="48.31144" lon="2.64173">
        <ele>453.6</ele>
        <time>2022-02-06T10:20:59Z</time>
      </trkpt>
      <trkpt lat="48.31144" lon="2.64156">
        <ele>454.8</ele>
        <time>2022-02-06T10:21:03Z</time>
      </trkpt>
      <trkpt lat="48.31145" lon="2.64138">
        <ele>454</ele>
        <time>2022-02-06T10:21:07Z</time>
      </trkpt>
      <trkpt lat="48.31149" lon="2.64119">
        <ele>453.6</ele>
        <time>2022-02-06T10:21:11Z</time>
      </trkpt>
      <trkpt lat="48.31153" lon="2.64102">
        <ele>456</ele>
        <time>2022-02-06T10:21:15Z</time>
      </trkpt>
      <trkpt lat="48.31161" lon="2.64101">
        <ele>457</ele>
        <time>2022-02-06T10:21:19Z</time>
      </trkpt>
      <trkpt lat="48.31168" lon="2.64104">
        <ele>457.8</ele>
        <time>2022-02-06T10:21:23Z</time>
      </trkpt>
      <trkpt lat="48.31175" lon="2.64102">
        <ele>458.6</ele>
        <time>2022-02-06T10:21:27Z</time>
      </trkpt>
      <trkpt lat="48.31181" lon="2.64091">
        <ele>459.4</ele>
        <time>2022-02-06T10:21:31Z</time>
      </trkpt>
      <trkpt lat="48.31183" lon="2.64077">
        <ele>460.2</ele>
        <time>2022-02-06T10:21:35Z</time>
      </trkpt>
      <trkpt lat="48.31185" lon="2.64063">
        <ele>460.2</ele>
        <time>2022-02-06T10:21:39Z</time>
      </trkpt>
      <trkpt lat="48.31188" lon="2.64046">
        <ele>460.6</ele>
        <time>2022-02-06T10:21:43Z</time>
      </trkpt>
      <trkpt lat="48.31191" lon="2.64028">
        <ele>461.4</ele>
        <time>2022-02-06T10:21:47Z</time>
      </trkpt>
      <trkpt lat="48.31192" lon="2.64009">
        <ele>461.8</ele>
        <time>2022-02-06T10:21:51Z</time>
      </trkpt>
      <trkpt lat="48.31195" lon="2.63989">
        <ele>460.4</ele>
        <time>2022-02-06T10:21:55Z</time>
      </trkpt>
      <trkpt lat="48.31196" lon="2.6397">
        <ele>461.6</ele>
        <time>2022-02-06T10:21:59Z</time>
      </trkpt>
      <trkpt lat="48.31197" lon="2.6395">
        <ele>462</ele>
        <time>2022-02-06T10:22:03Z</time>
      </trkpt>
      <trkpt lat="48.31197" lon="2.6393">
        <ele>462.6</ele>
        <time>2022-02-06T10:22:07Z</time>
      </trkpt>
      <trkpt lat="48.31197" lon="2.6391">
        <ele>462.8</ele>
        <time>2022-02-06T10:22:11Z</time>
      </trkpt>
      <trkpt lat="48.31197" lon="2.63891">
        <ele>462</ele>
        <time>2022-02-06T10:22:15Z</time>
      </trkpt>
      <trkpt lat="48.31195" lon="2.63871">
        <ele>462.4</ele>
        <time>2022-02-06T10:22:19Z</time>
      </trkpt>
      <trkpt lat="48.31193" lon="2.63852">
        <ele>463.4</ele>
        <time>2022-02-06T10:22:23Z</time>
      </trkpt>
      <trkpt lat="48.31189" lon="2.63835">
        <ele>464.4</ele>
        <time>2022-02-06T10:22:27Z</time>
      </trkpt>
      <trkpt lat="48.31184" lon="2.63815">
        <ele>463.4</ele>
        <time>2022-02-06T10:22:31Z</time>
      </trkpt>
      <trkpt lat="48.3118" lon="2.63792">
        <ele>465</ele>
        <time>2022-02-06T10:22:35Z</time>
      </trkpt>
      <trkpt lat="48.31181" lon="2.63768">
        <ele>463.6</ele>
        <time>2022-02-06T10:22:39Z</time>
      </trkpt>
      <trkpt lat="48.31186" lon="2.63744">
        <ele>464.6</ele>
        <time>2022-02-06T10:22:43Z</time>
      </trkpt>
      <trkpt lat="48.31193" lon="2.63726">
        <ele>462.4</ele>
        <time>2022-02-06T10:22:47Z</time>
      </trkpt>
      <trkpt lat="48.31197" lon="2.637">
        <ele>463.6</ele>
        <time>2022-02-06T10:22:51Z</time>
      </trkpt>
      <trkpt lat="48.31201" lon="2.63675">
        <ele>464</ele>
        <time>2022-02-06T10:22:55Z</time>
      </trkpt>
      <trkpt lat="48.31205" lon="2.6365">
        <ele>463.8</ele>
        <time>2022-02-06T10:22:59Z</time>
      </trkpt>
      <trkpt lat="48.31208" lon="2.63625">
        <ele>480.8</ele>
        <time>2022-02-06T10:23:03Z</time>
      </trkpt>
      <trkpt lat="48.31211" lon="2.63599">
        <ele>461</ele>
        <time>2022-02-06T10:23:07Z</time>
      </trkpt>
      <trkpt lat="48.31213" lon="2.63565">
        <ele>459.8</ele>
        <time>2022-02-06T10:23:11Z</time>
      </trkpt>
      <trkpt lat="48.31219" lon="2.63541">
        <ele>455.2</ele>
        <time>2022-02-06T10:23:15Z</time>
      </trkpt>
      <trkpt lat="48.31209" lon="2.63512">
        <ele>453.4</ele>
        <time>2022-02-06T10:23:19Z</time>
      </trkpt>
      <trkpt lat="48.31204" lon="2.63474">
        <ele>453</ele>
        <time>2022-02-06T10:23:23Z</time>
      </trkpt>
      <trkpt lat="48.31205" lon="2.63434">
        <ele>451.2</ele>
        <time>2022-02-06T10:23:27Z</time>
      </trkpt>
      <trkpt lat="48.31204" lon="2.63393">
        <ele>450</ele>
        <time>2022-02-06T10:23:31Z</time>
      </trkpt>
      <trkpt lat="48.31206" lon="2.63352">
        <ele>447.8</ele>
        <time>2022-02-06T10:23:35Z</time>
      </trkpt>
      <trkpt lat="48.3121" lon="2.63316">
        <ele>447</ele>
        <time>2022-02-06T10:23:39Z</time>
      </trkpt>
      <trkpt lat="48.31215" lon="2.63283">
        <ele>451.8</ele>
        <time>2022-02-06T10:23:43Z</time>
      </trkpt>
      <trkpt lat="48.31217" lon="2.63258">
        <ele>451.2</ele>
        <time>2022-02-06T10:23:47Z</time>
      </trkpt>
      <trkpt lat="48.31219" lon="2.63233">
        <ele>449.6</ele>
        <time>2022-02-06T10:23:51Z</time>
      </trkpt>
      <trkpt lat="48.31222" lon="2.63207">
        <ele>449.8</ele>
        <time>2022-02-06T10:23:55Z</time>
      </trkpt>
      <trkpt lat="48.31226" lon="2.63185">
        <ele>452.4</ele>
        <time>2022-02-06T10:23:59Z</time>
      </trkpt>
      <trkpt lat="48.3123" lon="2.63168">
        <ele>451.6</ele>
        <time>2022-02-06T10:24:03Z</time>
      </trkpt>
      <trkpt lat="48.31233" lon="2.63146">
        <ele>452.8</ele>
        <time>2022-02-06T10:24:07Z</time>
      </trkpt>
      <trkpt lat="48.31237" lon="2.63125">
        <ele>453.2</ele>
        <time>2022-02-06T10:24:11Z</time>
      </trkpt>
      <trkpt lat="48.3124" lon="2.631">
        <ele>453.4</ele>
        <time>2022-02-06T10:24:15Z</time>
      </trkpt>
      <trkpt lat="48.31245" lon="2.63078">
        <ele>454</ele>
        <time>2022-02-06T10:24:19Z</time>
      </trkpt>
      <trkpt lat="48.31245" lon="2.63059">
        <ele>454</ele>
        <time>2022-02-06T10:24:23Z</time>
      </trkpt>
      <trkpt lat="48.31243" lon="2.63037">
        <ele>451.8</ele>
        <time>2022-02-06T10:24:27Z</time>
      </trkpt>
      <trkpt lat="48.31241" lon="2.63008">
        <ele>451</ele>
        <time>2022-02-06T10:24:31Z</time>
      </trkpt>
      <trkpt lat="48.31246" lon="2.62982">
        <ele>451.8</ele>
        <time>2022-02-06T10:24:35Z</time>
      </trkpt>
      <trkpt lat="48.31255" lon="2.62958">
        <ele>451</ele>
        <time>2022-02-06T10:24:39Z</time>
      </trkpt>
      <trkpt lat="48.31261" lon="2.62933">
        <ele>450.4</ele>
        <time>2022-02-06T10:24:43Z</time>
      </trkpt>
      <trkpt lat="48.3126" lon="2.62902">
        <ele>448.4</ele>
        <time>2022-02-06T10:24:47Z</time>
      </trkpt>
      <trkpt lat="48.3126" lon="2.62869">
        <ele>448.4</ele>
        <time>2022-02-06T10:24:51Z</time>
      </trkpt>
      <trkpt lat="48.31257" lon="2.62836">
        <ele>447.8</ele>
        <time>2022-02-06T10:24:55Z</time>
      </trkpt>
      <trkpt lat="48.31258" lon="2.62804">
        <ele>446.2</ele>
        <time>2022-02-06T10:24:59Z</time>
      </trkpt>
      <trkpt lat="48.31258" lon="2.62775">
        <ele>446.8</ele>
        <time>2022-02-06T10:25:03Z</time>
      </trkpt>
      <trkpt lat="48.31256" lon="2.62747">
        <ele>447.2</ele>
        <time>2022-02-06T10:25:07Z</time>
      </trkpt>
      <trkpt lat="48.31254" lon="2.62723">
        <ele>447.8</ele>
        <time>2022-02-06T10:25:11Z</time>
      </trkpt>
      <trkpt lat="48.31251" lon="2.62702">
        <ele>447.2</ele>
        <time>2022-02-06T10:25:15Z</time>
      </trkpt>
      <trkpt lat="48.31246" lon="2.62675">
        <ele>446</ele>
        <time>2022-02-06T10:25:19Z</time>
      </trkpt>
      <trkpt lat="48.31242" lon="2.62648">
        <ele>445</ele>
        <time>2022-02-06T10:25:23Z</time>
      </trkpt>
      <trkpt lat="48.31238" lon="2.62618">
        <ele>445.4</ele>
        <time>2022-02-06T10:25:27Z</time>
      </trkpt>
      <trkpt lat="48.31235" lon="2.62591">
        <ele>445</ele>
        <time>2022-02-06T10:25:31Z</time>
      </trkpt>
      <trkpt lat="48.31241" lon="2.62584">
        <ele>446.8</ele>
        <time>2022-02-06T10:25:35Z</time>
      </trkpt>
      <trkpt lat="48.3125" lon="2.62584">
        <ele>448.8</ele>
        <time>2022-02-06T10:25:39Z</time>
      </trkpt>
      <trkpt lat="48.31257" lon="2.62583">
        <ele>450.2</ele>
        <time>2022-02-06T10:25:43Z</time>
      </trkpt>
      <trkpt lat="48.31265" lon="2.62581">
        <ele>451</ele>
        <time>2022-02-06T10:25:47Z</time>
      </trkpt>
      <trkpt lat="48.31274" lon="2.62581">
        <ele>451.6</ele>
        <time>2022-02-06T10:25:51Z</time>
      </trkpt>
      <trkpt lat="48.31282" lon="2.6258">
        <ele>452.2</ele>
        <time>2022-02-06T10:25:55Z</time>
      </trkpt>
      <trkpt lat="48.31291" lon="2.62578">
        <ele>453.2</ele>
        <time>2022-02-06T10:25:59Z</time>
      </trkpt>
      <trkpt lat="48.31299" lon="2.62577">
        <ele>453.4</ele>
        <time>2022-02-06T10:26:03Z</time>
      </trkpt>
      <trkpt lat="48.31308" lon="2.62575">
        <ele>454.4</ele>
        <time>2022-02-06T10:26:07Z</time>
      </trkpt>
      <trkpt lat="48.31317" lon="2.62574">
        <ele>454.8</ele>
        <time>2022-02-06T10:26:11Z</time>
      </trkpt>
      <trkpt lat="48.31326" lon="2.62571">
        <ele>455.6</ele>
        <time>2022-02-06T10:26:15Z</time>
      </trkpt>
      <trkpt lat="48.31334" lon="2.6257">
        <ele>456.2</ele>
        <time>2022-02-06T10:26:19Z</time>
      </trkpt>
      <trkpt lat="48.31343" lon="2.62569">
        <ele>456.8</ele>
        <time>2022-02-06T10:26:23Z</time>
      </trkpt>
      <trkpt lat="48.31352" lon="2.62568">
        <ele>457.6</ele>
        <time>2022-02-06T10:26:27Z</time>
      </trkpt>
      <trkpt lat="48.31359" lon="2.62569">
        <ele>458.2</ele>
        <time>2022-02-06T10:26:31Z</time>
      </trkpt>
      <trkpt lat="48.31368" lon="2.62571">
        <ele>458.8</ele>
        <time>2022-02-06T10:26:35Z</time>
      </trkpt>
      <trkpt lat="48.31375" lon="2.6257">
        <ele>460</ele>
        <time>2022-02-06T10:26:39Z</time>
      </trkpt>
      <trkpt lat="48.31382" lon="2.62569">
        <ele>461.4</ele>
        <time>2022-02-06T10:26:43Z</time>
      </trkpt>
      <trkpt lat="48.31389" lon="2.62564">
        <ele>463.4</ele>
        <time>2022-02-06T10:26:47Z</time>
      </trkpt>
      <trkpt lat="48.31392" lon="2.62556">
        <ele>463.8</ele>
        <time>2022-02-06T10:26:51Z</time>
      </trkpt>
      <trkpt lat="48.31393" lon="2.62547">
        <ele>464.8</ele>
        <time>2022-02-06T10:26:55Z</time>
      </trkpt>
      <trkpt lat="48.31396" lon="2.62536">
        <ele>466</ele>
        <time>2022-02-06T10:26:59Z</time>
      </trkpt>
      <trkpt lat="48.31396" lon="2.62526">
        <ele>468</ele>
        <time>2022-02-06T10:27:03Z</time>
      </trkpt>
      <trkpt lat="48.31398" lon="2.62519">
        <ele>469.4</ele>
        <time>2022-02-06T10:27:07Z</time>
      </trkpt>
      <trkpt lat="48.31399" lon="2.62509">
        <ele>470.2</ele>
        <time>2022-02-06T10:27:11Z</time>
      </trkpt>
      <trkpt lat="48.31396" lon="2.625">
        <ele>469.4</ele>
        <time>2022-02-06T10:27:15Z</time>
      </trkpt>
      <trkpt lat="48.31391" lon="2.62498">
        <ele>470.2</ele>
        <time>2022-02-06T10:27:19Z</time>
      </trkpt>
      <trkpt lat="48.31386" lon="2.62499">
        <ele>472</ele>
        <time>2022-02-06T10:27:23Z</time>
      </trkpt>
      <trkpt lat="48.31382" lon="2.625">
        <ele>472.6</ele>
        <time>2022-02-06T10:27:27Z</time>
      </trkpt>
      <trkpt lat="48.31375" lon="2.62502">
        <ele>473.2</ele>
        <time>2022-02-06T10:27:31Z</time>
      </trkpt>
      <trkpt lat="48.31372" lon="2.62502">
        <ele>472.4</ele>
        <time>2022-02-06T10:27:35Z</time>
      </trkpt>
      <trkpt lat="48.31366" lon="2.62501">
        <ele>473.4</ele>
        <time>2022-02-06T10:27:39Z</time>
      </trkpt>
      <trkpt lat="48.31359" lon="2.62494">
        <ele>473</ele>
        <time>2022-02-06T10:27:43Z</time>
      </trkpt>
      <trkpt lat="48.31355" lon="2.62484">
        <ele>475.4</ele>
        <time>2022-02-06T10:27:47Z</time>
      </trkpt>
      <trkpt lat="48.31352" lon="2.62472">
        <ele>476</ele>
        <time>2022-02-06T10:27:51Z</time>
      </trkpt>
      <trkpt lat="48.31351" lon="2.62462">
        <ele>476.4</ele>
        <time>2022-02-06T10:27:55Z</time>
      </trkpt>
      <trkpt lat="48.31354" lon="2.62453">
        <ele>477.8</ele>
        <time>2022-02-06T10:27:59Z</time>
      </trkpt>
      <trkpt lat="48.31358" lon="2.62451">
        <ele>478.4</ele>
        <time>2022-02-06T10:28:03Z</time>
      </trkpt>
      <trkpt lat="48.31364" lon="2.62448">
        <ele>479</ele>
        <time>2022-02-06T10:28:07Z</time>
      </trkpt>
      <trkpt lat="48.31369" lon="2.62443">
        <ele>481.4</ele>
        <time>2022-02-06T10:28:11Z</time>
      </trkpt>
      <trkpt lat="48.31375" lon="2.62439">
        <ele>483.2</ele>
        <time>2022-02-06T10:28:15Z</time>
      </trkpt>
      <trkpt lat="48.31381" lon="2.62431">
        <ele>484.2</ele>
        <time>2022-02-06T10:28:19Z</time>
      </trkpt>
      <trkpt lat="48.31389" lon="2.62426">
        <ele>484.6</ele>
        <time>2022-02-06T10:28:23Z</time>
      </trkpt>
      <trkpt lat="48.31396" lon="2.62422">
        <ele>485.4</ele>
        <time>2022-02-06T10:28:27Z</time>
      </trkpt>
      <trkpt lat="48.31403" lon="2.62418">
        <ele>485.6</ele>
        <time>2022-02-06T10:28:31Z</time>
      </trkpt>
      <trkpt lat="48.31412" lon="2.62415">
        <ele>485.8</ele>
        <time>2022-02-06T10:28:35Z</time>
      </trkpt>
      <trkpt lat="48.31421" lon="2.62406">
        <ele>486</ele>
        <time>2022-02-06T10:28:39Z</time>
      </trkpt>
      <trkpt lat="48.31428" lon="2.62392">
        <ele>486.6</ele>
        <time>2022-02-06T10:28:43Z</time>
      </trkpt>
      <trkpt lat="48.31432" lon="2.62379">
        <ele>487.8</ele>
        <time>2022-02-06T10:28:47Z</time>
      </trkpt>
      <trkpt lat="48.31439" lon="2.62374">
        <ele>490</ele>
        <time>2022-02-06T10:28:51Z</time>
      </trkpt>
      <trkpt lat="48.31445" lon="2.62365">
        <ele>489.4</ele>
        <time>2022-02-06T10:28:55Z</time>
      </trkpt>
      <trkpt lat="48.31445" lon="2.62346">
        <ele>489.4</ele>
        <time>2022-02-06T10:28:59Z</time>
      </trkpt>
      <trkpt lat="48.31444" lon="2.62325">
        <ele>489.4</ele>
        <time>2022-02-06T10:29:03Z</time>
      </trkpt>
      <trkpt lat="48.31442" lon="2.62303">
        <ele>490</ele>
        <time>2022-02-06T10:29:07Z</time>
      </trkpt>
      <trkpt lat="48.31441" lon="2.62281">
        <ele>490</ele>
        <time>2022-02-06T10:29:11Z</time>
      </trkpt>
      <trkpt lat="48.3144" lon="2.62262">
        <ele>490</ele>
        <time>2022-02-06T10:29:15Z</time>
      </trkpt>
      <trkpt lat="48.31439" lon="2.62241">
        <ele>491.4</ele>
        <time>2022-02-06T10:29:19Z</time>
      </trkpt>
      <trkpt lat="48.31436" lon="2.62219">
        <ele>490</ele>
        <time>2022-02-06T10:29:23Z</time>
      </trkpt>
      <trkpt lat="48.31434" lon="2.62195">
        <ele>489.4</ele>
        <time>2022-02-06T10:29:27Z</time>
      </trkpt>
      <trkpt lat="48.31435" lon="2.62171">
        <ele>488.6</ele>
        <time>2022-02-06T10:29:31Z</time>
      </trkpt>
      <trkpt lat="48.31435" lon="2.62148">
        <ele>489.8</ele>
        <time>2022-02-06T10:29:35Z</time>
      </trkpt>
      <trkpt lat="48.31437" lon="2.62122">
        <ele>491.2</ele>
        <time>2022-02-06T10:29:39Z</time>
      </trkpt>
      <trkpt lat="48.31439" lon="2.62093">
        <ele>491</ele>
        <time>2022-02-06T10:29:43Z</time>
      </trkpt>
      <trkpt lat="48.31443" lon="2.62068">
        <ele>490</ele>
        <time>2022-02-06T10:29:47Z</time>
      </trkpt>
      <trkpt lat="48.31445" lon="2.62043">
        <ele>490</ele>
        <time>2022-02-06T10:29:51Z</time>
      </trkpt>
      <trkpt lat="48.31445" lon="2.62019">
        <ele>487.6</ele>
        <time>2022-02-06T10:29:55Z</time>
      </trkpt>
      <trkpt lat="48.31448" lon="2.61994">
        <ele>489.4</ele>
        <time>2022-02-06T10:29:59Z</time>
      </trkpt>
      <trkpt lat="48.31462" lon="2.61981">
        <ele>490.4</ele>
        <time>2022-02-06T10:30:03Z</time>
      </trkpt>
      <trkpt lat="48.31476" lon="2.61971">
        <ele>490.8</ele>
        <time>2022-02-06T10:30:07Z</time>
      </trkpt>
      <trkpt lat="48.3149" lon="2.61958">
        <ele>490</ele>
        <time>2022-02-06T10:30:11Z</time>
      </trkpt>
      <trkpt lat="48.315" lon="2.61939">
        <ele>489</ele>
        <time>2022-02-06T10:30:15Z</time>
      </trkpt>
      <trkpt lat="48.31502" lon="2.61916">
        <ele>489.4</ele>
        <time>2022-02-06T10:30:19Z</time>
      </trkpt>
      <trkpt lat="48.31504" lon="2.61894">
        <ele>490.4</ele>
        <time>2022-02-06T10:30:23Z</time>
      </trkpt>
      <trkpt lat="48.31495" lon="2.61875">
        <ele>488.4</ele>
        <time>2022-02-06T10:30:27Z</time>
      </trkpt>
      <trkpt lat="48.31479" lon="2.61859">
        <ele>486</ele>
        <time>2022-02-06T10:30:31Z</time>
      </trkpt>
      <trkpt lat="48.31461" lon="2.6184">
        <ele>487</ele>
        <time>2022-02-06T10:30:35Z</time>
      </trkpt>
      <trkpt lat="48.31442" lon="2.61821">
        <ele>485.6</ele>
        <time>2022-02-06T10:30:39Z</time>
      </trkpt>
      <trkpt lat="48.31423" lon="2.61803">
        <ele>484.4</ele>
        <time>2022-02-06T10:30:43Z</time>
      </trkpt>
      <trkpt lat="48.31405" lon="2.61782">
        <ele>484</ele>
        <time>2022-02-06T10:30:47Z</time>
      </trkpt>
      <trkpt lat="48.31388" lon="2.61763">
        <ele>482.6</ele>
        <time>2022-02-06T10:30:51Z</time>
      </trkpt>
      <trkpt lat="48.31374" lon="2.61747">
        <ele>484.2</ele>
        <time>2022-02-06T10:30:55Z</time>
      </trkpt>
      <trkpt lat="48.31359" lon="2.6173">
        <ele>485.4</ele>
        <time>2022-02-06T10:30:59Z</time>
      </trkpt>
      <trkpt lat="48.31342" lon="2.61714">
        <ele>484.6</ele>
        <time>2022-02-06T10:31:03Z</time>
      </trkpt>
      <trkpt lat="48.31327" lon="2.61698">
        <ele>482.6</ele>
        <time>2022-02-06T10:31:07Z</time>
      </trkpt>
      <trkpt lat="48.31309" lon="2.61682">
        <ele>481.6</ele>
        <time>2022-02-06T10:31:11Z</time>
      </trkpt>
      <trkpt lat="48.3129" lon="2.6167">
        <ele>481.8</ele>
        <time>2022-02-06T10:31:15Z</time>
      </trkpt>
      <trkpt lat="48.3127" lon="2.61658">
        <ele>481.2</ele>
        <time>2022-02-06T10:31:19Z</time>
      </trkpt>
      <trkpt lat="48.3125" lon="2.61649">
        <ele>481.2</ele>
        <time>2022-02-06T10:31:23Z</time>
      </trkpt>
      <trkpt lat="48.31236" lon="2.61651">
        <ele>477.4</ele>
        <time>2022-02-06T10:31:27Z</time>
      </trkpt>
      <trkpt lat="48.31225" lon="2.61669">
        <ele>477.4</ele>
        <time>2022-02-06T10:31:31Z</time>
      </trkpt>
      <trkpt lat="48.31222" lon="2.61692">
        <ele>474</ele>
        <time>2022-02-06T10:31:35Z</time>
      </trkpt>
      <trkpt lat="48.31221" lon="2.61725">
        <ele>467.6</ele>
        <time>2022-02-06T10:31:39Z</time>
      </trkpt>
      <trkpt lat="48.31212" lon="2.61753">
        <ele>462</ele>
        <time>2022-02-06T10:31:43Z</time>
      </trkpt>
      <trkpt lat="48.31198" lon="2.61789">
        <ele>459</ele>
        <time>2022-02-06T10:31:47Z</time>
      </trkpt>
      <trkpt lat="48.31186" lon="2.61836">
        <ele>456</ele>
        <time>2022-02-06T10:31:51Z</time>
      </trkpt>
      <trkpt lat="48.31188" lon="2.61884">
        <ele>453.2</ele>
        <time>2022-02-06T10:31:55Z</time>
      </trkpt>
      <trkpt lat="48.31195" lon="2.61927">
        <ele>450.6</ele>
        <time>2022-02-06T10:31:59Z</time>
      </trkpt>
      <trkpt lat="48.31206" lon="2.61965">
        <ele>452.4</ele>
        <time>2022-02-06T10:32:03Z</time>
      </trkpt>
      <trkpt lat="48.31216" lon="2.62">
        <ele>451.2</ele>
        <time>2022-02-06T10:32:07Z</time>
      </trkpt>
      <trkpt lat="48.31214" lon="2.62035">
        <ele>451.4</ele>
        <time>2022-02-06T10:32:11Z</time>
      </trkpt>
      <trkpt lat="48.31212" lon="2.62069">
        <ele>451</ele>
        <time>2022-02-06T10:32:15Z</time>
      </trkpt>
      <trkpt lat="48.31208" lon="2.62111">
        <ele>451.6</ele>
        <time>2022-02-06T10:32:19Z</time>
      </trkpt>
      <trkpt lat="48.31201" lon="2.62153">
        <ele>451.2</ele>
        <time>2022-02-06T10:32:23Z</time>
      </trkpt>
      <trkpt lat="48.31188" lon="2.62184">
        <ele>451.2</ele>
        <time>2022-02-06T10:32:27Z</time>
      </trkpt>
      <trkpt lat="48.31168" lon="2.62212">
        <ele>450.4</ele>
        <time>2022-02-06T10:32:31Z</time>
      </trkpt>
      <trkpt lat="48.31152" lon="2.62245">
        <ele>457.6</ele>
        <time>2022-02-06T10:32:35Z</time>
      </trkpt>
      <trkpt lat="48.31138" lon="2.6228">
        <ele>456</ele>
        <time>2022-02-06T10:32:39Z</time>
      </trkpt>
      <trkpt lat="48.31121" lon="2.62308">
        <ele>456.2</ele>
        <time>2022-02-06T10:32:43Z</time>
      </trkpt>
      <trkpt lat="48.31107" lon="2.62344">
        <ele>456.4</ele>
        <time>2022-02-06T10:32:47Z</time>
      </trkpt>
      <trkpt lat="48.31097" lon="2.62382">
        <ele>456.4</ele>
        <time>2022-02-06T10:32:51Z</time>
      </trkpt>
      <trkpt lat="48.31089" lon="2.62419">
        <ele>456.8</ele>
        <time>2022-02-06T10:32:55Z</time>
      </trkpt>
      <trkpt lat="48.31085" lon="2.62454">
        <ele>456.4</ele>
        <time>2022-02-06T10:32:59Z</time>
      </trkpt>
      <trkpt lat="48.31074" lon="2.62477">
        <ele>456.8</ele>
        <time>2022-02-06T10:33:03Z</time>
      </trkpt>
      <trkpt lat="48.31057" lon="2.62465">
        <ele>456.4</ele>
        <time>2022-02-06T10:33:07Z</time>
      </trkpt>
      <trkpt lat="48.31046" lon="2.62442">
        <ele>457</ele>
        <time>2022-02-06T10:33:11Z</time>
      </trkpt>
      <trkpt lat="48.31044" lon="2.6242">
        <ele>456.4</ele>
        <time>2022-02-06T10:33:15Z</time>
      </trkpt>
      <trkpt lat="48.31041" lon="2.62395">
        <ele>456.6</ele>
        <time>2022-02-06T10:33:19Z</time>
      </trkpt>
      <trkpt lat="48.31038" lon="2.6237">
        <ele>456.8</ele>
        <time>2022-02-06T10:33:23Z</time>
      </trkpt>
      <trkpt lat="48.31032" lon="2.62349">
        <ele>457.2</ele>
        <time>2022-02-06T10:33:27Z</time>
      </trkpt>
      <trkpt lat="48.31024" lon="2.62327">
        <ele>457</ele>
        <time>2022-02-06T10:33:31Z</time>
      </trkpt>
      <trkpt lat="48.31016" lon="2.62305">
        <ele>457.8</ele>
        <time>2022-02-06T10:33:35Z</time>
      </trkpt>
      <trkpt lat="48.31008" lon="2.62278">
        <ele>457.6</ele>
        <time>2022-02-06T10:33:39Z</time>
      </trkpt>
      <trkpt lat="48.31002" lon="2.62253">
        <ele>458.6</ele>
        <time>2022-02-06T10:33:43Z</time>
      </trkpt>
      <trkpt lat="48.30996" lon="2.62223">
        <ele>458.2</ele>
        <time>2022-02-06T10:33:47Z</time>
      </trkpt>
      <trkpt lat="48.30987" lon="2.62198">
        <ele>458.6</ele>
        <time>2022-02-06T10:33:51Z</time>
      </trkpt>
      <trkpt lat="48.3098" lon="2.62177">
        <ele>458.2</ele>
        <time>2022-02-06T10:33:55Z</time>
      </trkpt>
      <trkpt lat="48.30974" lon="2.62159">
        <ele>458.6</ele>
        <time>2022-02-06T10:33:59Z</time>
      </trkpt>
      <trkpt lat="48.3097" lon="2.62141">
        <ele>459.2</ele>
        <time>2022-02-06T10:34:03Z</time>
      </trkpt>
      <trkpt lat="48.30967" lon="2.62123">
        <ele>458.8</ele>
        <time>2022-02-06T10:34:07Z</time>
      </trkpt>
      <trkpt lat="48.30963" lon="2.62108">
        <ele>459</ele>
        <time>2022-02-06T10:34:11Z</time>
      </trkpt>
      <trkpt lat="48.30955" lon="2.621">
        <ele>459.4</ele>
        <time>2022-02-06T10:34:15Z</time>
      </trkpt>
      <trkpt lat="48.30947" lon="2.62098">
        <ele>459.6</ele>
        <time>2022-02-06T10:34:19Z</time>
      </trkpt>
      <trkpt lat="48.30939" lon="2.62096">
        <ele>459.8</ele>
        <time>2022-02-06T10:34:23Z</time>
      </trkpt>
      <trkpt lat="48.30931" lon="2.62091">
        <ele>460.2</ele>
        <time>2022-02-06T10:34:27Z</time>
      </trkpt>
      <trkpt lat="48.30923" lon="2.62083">
        <ele>460.2</ele>
        <time>2022-02-06T10:34:31Z</time>
      </trkpt>
      <trkpt lat="48.30916" lon="2.6207">
        <ele>460.4</ele>
        <time>2022-02-06T10:34:35Z</time>
      </trkpt>
      <trkpt lat="48.30912" lon="2.62057">
        <ele>460.6</ele>
        <time>2022-02-06T10:34:39Z</time>
      </trkpt>
      <trkpt lat="48.30908" lon="2.62041">
        <ele>460.2</ele>
        <time>2022-02-06T10:34:43Z</time>
      </trkpt>
      <trkpt lat="48.30904" lon="2.62025">
        <ele>460.6</ele>
        <time>2022-02-06T10:34:47Z</time>
      </trkpt>
      <trkpt lat="48.309" lon="2.62011">
        <ele>461</ele>
        <time>2022-02-06T10:34:51Z</time>
      </trkpt>
      <trkpt lat="48.309" lon="2.61999">
        <ele>460.8</ele>
        <time>2022-02-06T10:34:55Z</time>
      </trkpt>
      <trkpt lat="48.309" lon="2.61987">
        <ele>461.4</ele>
        <time>2022-02-06T10:34:59Z</time>
      </trkpt>
      <trkpt lat="48.30899" lon="2.61974">
        <ele>461.2</ele>
        <time>2022-02-06T10:35:03Z</time>
      </trkpt>
      <trkpt lat="48.30895" lon="2.61961">
        <ele>461.4</ele>
        <time>2022-02-06T10:35:07Z</time>
      </trkpt>
      <trkpt lat="48.30892" lon="2.6195">
        <ele>461.8</ele>
        <time>2022-02-06T10:35:11Z</time>
      </trkpt>
      <trkpt lat="48.30889" lon="2.61941">
        <ele>462</ele>
        <time>2022-02-06T10:35:15Z</time>
      </trkpt>
      <trkpt lat="48.30886" lon="2.6193">
        <ele>462.2</ele>
        <time>2022-02-06T10:35:19Z</time>
      </trkpt>
      <trkpt lat="48.30884" lon="2.6192">
        <ele>462.8</ele>
        <time>2022-02-06T10:35:23Z</time>
      </trkpt>
      <trkpt lat="48.30882" lon="2.61911">
        <ele>462.2</ele>
        <time>2022-02-06T10:35:27Z</time>
      </trkpt>
      <trkpt lat="48.30881" lon="2.619">
        <ele>463.2</ele>
        <time>2022-02-06T10:35:31Z</time>
      </trkpt>
      <trkpt lat="48.30875" lon="2.61889">
        <ele>462.8</ele>
        <time>2022-02-06T10:35:35Z</time>
      </trkpt>
      <trkpt lat="48.3087" lon="2.61879">
        <ele>463.4</ele>
        <time>2022-02-06T10:35:39Z</time>
      </trkpt>
      <trkpt lat="48.30865" lon="2.61868">
        <ele>463</ele>
        <time>2022-02-06T10:35:43Z</time>
      </trkpt>
      <trkpt lat="48.3086" lon="2.61857">
        <ele>463.4</ele>
        <time>2022-02-06T10:35:47Z</time>
      </trkpt>
      <trkpt lat="48.30856" lon="2.61848">
        <ele>464</ele>
        <time>2022-02-06T10:35:51Z</time>
      </trkpt>
      <trkpt lat="48.3085" lon="2.61838">
        <ele>464</ele>
        <time>2022-02-06T10:35:55Z</time>
      </trkpt>
      <trkpt lat="48.30845" lon="2.61827">
        <ele>463.6</ele>
        <time>2022-02-06T10:35:59Z</time>
      </trkpt>
      <trkpt lat="48.30842" lon="2.61817">
        <ele>464.2</ele>
        <time>2022-02-06T10:36:03Z</time>
      </trkpt>
      <trkpt lat="48.30837" lon="2.61807">
        <ele>464</ele>
        <time>2022-02-06T10:36:07Z</time>
      </trkpt>
      <trkpt lat="48.30835" lon="2.61793">
        <ele>464.4</ele>
        <time>2022-02-06T10:36:11Z</time>
      </trkpt>
      <trkpt lat="48.30829" lon="2.61779">
        <ele>464.8</ele>
        <time>2022-02-06T10:36:15Z</time>
      </trkpt>
      <trkpt lat="48.30821" lon="2.61766">
        <ele>465</ele>
        <time>2022-02-06T10:36:19Z</time>
      </trkpt>
      <trkpt lat="48.30811" lon="2.61752">
        <ele>464.4</ele>
        <time>2022-02-06T10:36:23Z</time>
      </trkpt>
      <trkpt lat="48.30807" lon="2.61733">
        <ele>465.8</ele>
        <time>2022-02-06T10:36:27Z</time>
      </trkpt>
      <trkpt lat="48.30803" lon="2.61714">
        <ele>465.2</ele>
        <time>2022-02-06T10:36:31Z</time>
      </trkpt>
      <trkpt lat="48.30802" lon="2.61693">
        <ele>465.4</ele>
        <time>2022-02-06T10:36:35Z</time>
      </trkpt>
      <trkpt lat="48.30801" lon="2.61672">
        <ele>465.4</ele>
        <time>2022-02-06T10:36:39Z</time>
      </trkpt>
      <trkpt lat="48.308" lon="2.61652">
        <ele>465.4</ele>
        <time>2022-02-06T10:36:43Z</time>
      </trkpt>
      <trkpt lat="48.308" lon="2.6163">
        <ele>465.4</ele>
        <time>2022-02-06T10:36:47Z</time>
      </trkpt>
      <trkpt lat="48.30802" lon="2.61608">
        <ele>465.6</ele>
        <time>2022-02-06T10:36:51Z</time>
      </trkpt>
      <trkpt lat="48.30814" lon="2.61598">
        <ele>466</ele>
        <time>2022-02-06T10:36:55Z</time>
      </trkpt>
      <trkpt lat="48.30826" lon="2.6159">
        <ele>466.8</ele>
        <time>2022-02-06T10:36:59Z</time>
      </trkpt>
      <trkpt lat="48.3084" lon="2.61586">
        <ele>465.8</ele>
        <time>2022-02-06T10:37:03Z</time>
      </trkpt>
      <trkpt lat="48.30854" lon="2.61584">
        <ele>467</ele>
        <time>2022-02-06T10:37:07Z</time>
      </trkpt>
      <trkpt lat="48.30869" lon="2.61584">
        <ele>466.6</ele>
        <time>2022-02-06T10:37:11Z</time>
      </trkpt>
      <trkpt lat="48.30875" lon="2.61588">
        <ele>466.6</ele>
        <time>2022-02-06T10:37:15Z</time>
      </trkpt>
      <trkpt lat="48.30886" lon="2.61586">
        <ele>466.8</ele>
        <time>2022-02-06T10:37:19Z</time>
      </trkpt>
      <trkpt lat="48.30901" lon="2.61583">
        <ele>467.2</ele>
        <time>2022-02-06T10:37:23Z</time>
      </trkpt>
      <trkpt lat="48.30917" lon="2.61576">
        <ele>466.8</ele>
        <time>2022-02-06T10:37:27Z</time>
      </trkpt>
      <trkpt lat="48.30928" lon="2.61572">
        <ele>467.8</ele>
        <time>2022-02-06T10:37:31Z</time>
      </trkpt>
      <trkpt lat="48.30939" lon="2.61571">
        <ele>467.2</ele>
        <time>2022-02-06T10:37:35Z</time>
      </trkpt>
      <trkpt lat="48.30952" lon="2.61571">
        <ele>467.2</ele>
        <time>2022-02-06T10:37:39Z</time>
      </trkpt>
      <trkpt lat="48.30963" lon="2.61567">
        <ele>467.8</ele>
        <time>2022-02-06T10:37:43Z</time>
      </trkpt>
      <trkpt lat="48.30972" lon="2.61553">
        <ele>467.6</ele>
        <time>2022-02-06T10:37:47Z</time>
      </trkpt>
      <trkpt lat="48.3098" lon="2.6154">
        <ele>468</ele>
        <time>2022-02-06T10:37:51Z</time>
      </trkpt>
      <trkpt lat="48.30978" lon="2.61527">
        <ele>467.6</ele>
        <time>2022-02-06T10:37:55Z</time>
      </trkpt>
      <trkpt lat="48.30988" lon="2.61519">
        <ele>467.8</ele>
        <time>2022-02-06T10:37:59Z</time>
      </trkpt>
      <trkpt lat="48.30991" lon="2.61504">
        <ele>467</ele>
        <time>2022-02-06T10:38:03Z</time>
      </trkpt>
      <trkpt lat="48.30995" lon="2.61493">
        <ele>468.2</ele>
        <time>2022-02-06T10:38:07Z</time>
      </trkpt>
      <trkpt lat="48.31001" lon="2.61485">
        <ele>467.2</ele>
        <time>2022-02-06T10:38:11Z</time>
      </trkpt>
      <trkpt lat="48.31011" lon="2.61473">
        <ele>465.8</ele>
        <time>2022-02-06T10:38:15Z</time>
      </trkpt>
      <trkpt lat="48.31003" lon="2.61453">
        <ele>465.4</ele>
        <time>2022-02-06T10:38:19Z</time>
      </trkpt>
      <trkpt lat="48.3099" lon="2.61427">
        <ele>465</ele>
        <time>2022-02-06T10:38:23Z</time>
      </trkpt>
      <trkpt lat="48.30983" lon="2.61412">
        <ele>464.6</ele>
        <time>2022-02-06T10:38:27Z</time>
      </trkpt>
      <trkpt lat="48.30979" lon="2.61398">
        <ele>463.4</ele>
        <time>2022-02-06T10:38:31Z</time>
      </trkpt>
      <trkpt lat="48.30968" lon="2.61381">
        <ele>464</ele>
        <time>2022-02-06T10:38:35Z</time>
      </trkpt>
      <trkpt lat="48.30959" lon="2.61362">
        <ele>464</ele>
        <time>2022-02-06T10:38:39Z</time>
      </trkpt>
      <trkpt lat="48.30961" lon="2.6136">
        <ele>463.8</ele>
        <time>2022-02-06T10:38:43Z</time>
      </trkpt>
      <trkpt lat="48.30965" lon="2.61353">
        <ele>464.2</ele>
        <time>2022-02-06T10:38:47Z</time>
      </trkpt>
      <trkpt lat="48.30968" lon="2.61351">
        <ele>464</ele>
        <time>2022-02-06T10:38:51Z</time>
      </trkpt>
      <trkpt lat="48.30971" lon="2.61354">
        <ele>465</ele>
        <time>2022-02-06T10:38:55Z</time>
      </trkpt>
      <trkpt lat="48.30977" lon="2.61348">
        <ele>464.2</ele>
        <time>2022-02-06T10:38:59Z</time>
      </trkpt>
      <trkpt lat="48.3098" lon="2.61345">
        <ele>464.4</ele>
        <time>2022-02-06T10:39:03Z</time>
      </trkpt>
      <trkpt lat="48.30986" lon="2.61345">
        <ele>465.2</ele>
        <time>2022-02-06T10:39:07Z</time>
      </trkpt>
      <trkpt lat="48.30993" lon="2.61343">
        <ele>464.8</ele>
        <time>2022-02-06T10:39:11Z</time>
      </trkpt>
      <trkpt lat="48.31" lon="2.61338">
        <ele>465</ele>
        <time>2022-02-06T10:39:15Z</time>
      </trkpt>
      <trkpt lat="48.31007" lon="2.61336">
        <ele>464.8</ele>
        <time>2022-02-06T10:39:19Z</time>
      </trkpt>
      <trkpt lat="48.31014" lon="2.61331">
        <ele>465.6</ele>
        <time>2022-02-06T10:39:23Z</time>
      </trkpt>
      <trkpt lat="48.31019" lon="2.61326">
        <ele>465.4</ele>
        <time>2022-02-06T10:39:27Z</time>
      </trkpt>
      <trkpt lat="48.31025" lon="2.61321">
        <ele>466.4</ele>
        <time>2022-02-06T10:39:31Z</time>
      </trkpt>
      <trkpt lat="48.31033" lon="2.61319">
        <ele>465.8</ele>
        <time>2022-02-06T10:39:35Z</time>
      </trkpt>
      <trkpt lat="48.3104" lon="2.61321">
        <ele>465.8</ele>
        <time>2022-02-06T10:39:39Z</time>
      </trkpt>
      <trkpt lat="48.31047" lon="2.61325">
        <ele>466.4</ele>
        <time>2022-02-06T10:39:43Z</time>
      </trkpt>
      <trkpt lat="48.31051" lon="2.61331">
        <ele>465.8</ele>
        <time>2022-02-06T10:39:47Z</time>
      </trkpt>
      <trkpt lat="48.3105" lon="2.61336">
        <ele>466.4</ele>
        <time>2022-02-06T10:39:51Z</time>
      </trkpt>
      <trkpt lat="48.31049" lon="2.61341">
        <ele>466.4</ele>
        <time>2022-02-06T10:39:55Z</time>
      </trkpt>
      <trkpt lat="48.31045" lon="2.61345">
        <ele>466.4</ele>
        <time>2022-02-06T10:39:59Z</time>
      </trkpt>
      <trkpt lat="48.31041" lon="2.61353">
        <ele>466.6</ele>
        <time>2022-02-06T10:40:03Z</time>
      </trkpt>
      <trkpt lat="48.31042" lon="2.61362">
        <ele>467</ele>
        <time>2022-02-06T10:40:07Z</time>
      </trkpt>
      <trkpt lat="48.31044" lon="2.61384">
        <ele>467.4</ele>
        <time>2022-02-06T10:40:26Z</time>
      </trkpt>
      <trkpt lat="48.31045" lon="2.61396">
        <ele>466.8</ele>
        <time>2022-02-06T10:40:30Z</time>
      </trkpt>
      <trkpt lat="48.31048" lon="2.61408">
        <ele>466.8</ele>
        <time>2022-02-06T10:40:34Z</time>
      </trkpt>
      <trkpt lat="48.31054" lon="2.61419">
        <ele>466.8</ele>
        <time>2022-02-06T10:40:38Z</time>
      </trkpt>
      <trkpt lat="48.31059" lon="2.61425">
        <ele>467.8</ele>
        <time>2022-02-06T10:40:42Z</time>
      </trkpt>
      <trkpt lat="48.31066" lon="2.61424">
        <ele>467.2</ele>
        <time>2022-02-06T10:40:46Z</time>
      </trkpt>
      <trkpt lat="48.31074" lon="2.61426">
        <ele>467.8</ele>
        <time>2022-02-06T10:40:50Z</time>
      </trkpt>
      <trkpt lat="48.31081" lon="2.61418">
        <ele>468.2</ele>
        <time>2022-02-06T10:40:54Z</time>
      </trkpt>
      <trkpt lat="48.31087" lon="2.61406">
        <ele>467.4</ele>
        <time>2022-02-06T10:40:58Z</time>
      </trkpt>
      <trkpt lat="48.31093" lon="2.61396">
        <ele>467</ele>
        <time>2022-02-06T10:41:02Z</time>
      </trkpt>
      <trkpt lat="48.31102" lon="2.61392">
        <ele>467.4</ele>
        <time>2022-02-06T10:41:06Z</time>
      </trkpt>
      <trkpt lat="48.3111" lon="2.61385">
        <ele>467.2</ele>
        <time>2022-02-06T10:41:10Z</time>
      </trkpt>
      <trkpt lat="48.31117" lon="2.61375">
        <ele>467.8</ele>
        <time>2022-02-06T10:41:14Z</time>
      </trkpt>
      <trkpt lat="48.31117" lon="2.61361">
        <ele>467.8</ele>
        <time>2022-02-06T10:41:18Z</time>
      </trkpt>
      <trkpt lat="48.31118" lon="2.61344">
        <ele>467.6</ele>
        <time>2022-02-06T10:41:22Z</time>
      </trkpt>
      <trkpt lat="48.31124" lon="2.61327">
        <ele>467.4</ele>
        <time>2022-02-06T10:41:26Z</time>
      </trkpt>
      <trkpt lat="48.31127" lon="2.61314">
        <ele>467.8</ele>
        <time>2022-02-06T10:41:30Z</time>
      </trkpt>
      <trkpt lat="48.31133" lon="2.613">
        <ele>467.6</ele>
        <time>2022-02-06T10:41:34Z</time>
      </trkpt>
      <trkpt lat="48.31141" lon="2.61282">
        <ele>467.2</ele>
        <time>2022-02-06T10:41:38Z</time>
      </trkpt>
      <trkpt lat="48.31136" lon="2.61269">
        <ele>466.4</ele>
        <time>2022-02-06T10:41:42Z</time>
      </trkpt>
      <trkpt lat="48.31125" lon="2.61268">
        <ele>466.4</ele>
        <time>2022-02-06T10:41:46Z</time>
      </trkpt>
      <trkpt lat="48.31124" lon="2.61276">
        <ele>466.4</ele>
        <time>2022-02-06T10:41:50Z</time>
      </trkpt>
      <trkpt lat="48.31119" lon="2.61285">
        <ele>466.6</ele>
        <time>2022-02-06T10:41:54Z</time>
      </trkpt>
      <trkpt lat="48.3111" lon="2.6129">
        <ele>466.2</ele>
        <time>2022-02-06T10:41:58Z</time>
      </trkpt>
      <trkpt lat="48.31099" lon="2.61293">
        <ele>465.8</ele>
        <time>2022-02-06T10:42:02Z</time>
      </trkpt>
      <trkpt lat="48.31087" lon="2.61283">
        <ele>466.2</ele>
        <time>2022-02-06T10:42:06Z</time>
      </trkpt>
      <trkpt lat="48.31081" lon="2.6127">
        <ele>466</ele>
        <time>2022-02-06T10:42:10Z</time>
      </trkpt>
      <trkpt lat="48.31079" lon="2.61254">
        <ele>466.4</ele>
        <time>2022-02-06T10:42:14Z</time>
      </trkpt>
      <trkpt lat="48.31077" lon="2.61244">
        <ele>466.6</ele>
        <time>2022-02-06T10:42:18Z</time>
      </trkpt>
      <trkpt lat="48.31078" lon="2.61235">
        <ele>467</ele>
        <time>2022-02-06T10:42:22Z</time>
      </trkpt>
      <trkpt lat="48.31075" lon="2.61227">
        <ele>467.6</ele>
        <time>2022-02-06T10:42:26Z</time>
      </trkpt>
      <trkpt lat="48.31075" lon="2.61219">
        <ele>468</ele>
        <time>2022-02-06T10:42:30Z</time>
      </trkpt>
      <trkpt lat="48.31074" lon="2.61212">
        <ele>467.8</ele>
        <time>2022-02-06T10:42:34Z</time>
      </trkpt>
      <trkpt lat="48.31074" lon="2.61203">
        <ele>468</ele>
        <time>2022-02-06T10:42:38Z</time>
      </trkpt>
      <trkpt lat="48.31074" lon="2.61193">
        <ele>468</ele>
        <time>2022-02-06T10:42:42Z</time>
      </trkpt>
      <trkpt lat="48.31073" lon="2.61181">
        <ele>468.6</ele>
        <time>2022-02-06T10:42:46Z</time>
      </trkpt>
      <trkpt lat="48.31073" lon="2.61169">
        <ele>467.8</ele>
        <time>2022-02-06T10:42:50Z</time>
      </trkpt>
      <trkpt lat="48.31068" lon="2.61164">
        <ele>468.2</ele>
        <time>2022-02-06T10:42:54Z</time>
      </trkpt>
      <trkpt lat="48.31059" lon="2.61159">
        <ele>467.6</ele>
        <time>2022-02-06T10:42:58Z</time>
      </trkpt>
      <trkpt lat="48.3105" lon="2.61153">
        <ele>467.8</ele>
        <time>2022-02-06T10:43:02Z</time>
      </trkpt>
      <trkpt lat="48.31038" lon="2.61146">
        <ele>467.8</ele>
        <time>2022-02-06T10:43:06Z</time>
      </trkpt>
      <trkpt lat="48.31023" lon="2.61143">
        <ele>467.4</ele>
        <time>2022-02-06T10:43:10Z</time>
      </trkpt>
      <trkpt lat="48.31014" lon="2.61136">
        <ele>468.2</ele>
        <time>2022-02-06T10:43:14Z</time>
      </trkpt>
      <trkpt lat="48.3101" lon="2.61129">
        <ele>468.4</ele>
        <time>2022-02-06T10:43:18Z</time>
      </trkpt>
      <trkpt lat="48.31006" lon="2.61119">
        <ele>468.4</ele>
        <time>2022-02-06T10:43:22Z</time>
      </trkpt>
      <trkpt lat="48.31006" lon="2.61109">
        <ele>468.8</ele>
        <time>2022-02-06T10:43:26Z</time>
      </trkpt>
      <trkpt lat="48.31006" lon="2.61097">
        <ele>469.4</ele>
        <time>2022-02-06T10:43:30Z</time>
      </trkpt>
      <trkpt lat="48.31003" lon="2.61083">
        <ele>468.8</ele>
        <time>2022-02-06T10:43:34Z</time>
      </trkpt>
      <trkpt lat="48.31003" lon="2.61071">
        <ele>468.6</ele>
        <time>2022-02-06T10:43:38Z</time>
      </trkpt>
      <trkpt lat="48.30994" lon="2.61065">
        <ele>470.6</ele>
        <time>2022-02-06T10:43:42Z</time>
      </trkpt>
      <trkpt lat="48.30985" lon="2.61058">
        <ele>469</ele>
        <time>2022-02-06T10:43:46Z</time>
      </trkpt>
      <trkpt lat="48.30977" lon="2.61052">
        <ele>469.4</ele>
        <time>2022-02-06T10:43:50Z</time>
      </trkpt>
      <trkpt lat="48.30967" lon="2.61047">
        <ele>469.2</ele>
        <time>2022-02-06T10:43:54Z</time>
      </trkpt>
      <trkpt lat="48.30961" lon="2.61041">
        <ele>468.2</ele>
        <time>2022-02-06T10:43:58Z</time>
      </trkpt>
      <trkpt lat="48.3095" lon="2.61039">
        <ele>469.2</ele>
        <time>2022-02-06T10:44:02Z</time>
      </trkpt>
      <trkpt lat="48.3094" lon="2.61043">
        <ele>469.6</ele>
        <time>2022-02-06T10:44:06Z</time>
      </trkpt>
      <trkpt lat="48.3093" lon="2.61049">
        <ele>469</ele>
        <time>2022-02-06T10:44:10Z</time>
      </trkpt>
      <trkpt lat="48.30923" lon="2.61047">
        <ele>469.6</ele>
        <time>2022-02-06T10:44:14Z</time>
      </trkpt>
      <trkpt lat="48.30922" lon="2.61038">
        <ele>469</ele>
        <time>2022-02-06T10:44:18Z</time>
      </trkpt>
      <trkpt lat="48.30924" lon="2.61024">
        <ele>469</ele>
        <time>2022-02-06T10:44:22Z</time>
      </trkpt>
      <trkpt lat="48.30919" lon="2.61013">
        <ele>469</ele>
        <time>2022-02-06T10:44:26Z</time>
      </trkpt>
      <trkpt lat="48.3091" lon="2.61015">
        <ele>469.4</ele>
        <time>2022-02-06T10:44:30Z</time>
      </trkpt>
      <trkpt lat="48.30902" lon="2.61028">
        <ele>469</ele>
        <time>2022-02-06T10:44:34Z</time>
      </trkpt>
      <trkpt lat="48.30899" lon="2.61043">
        <ele>469.2</ele>
        <time>2022-02-06T10:44:38Z</time>
      </trkpt>
      <trkpt lat="48.3089" lon="2.61053">
        <ele>468.6</ele>
        <time>2022-02-06T10:44:42Z</time>
      </trkpt>
      <trkpt lat="48.30877" lon="2.61054">
        <ele>468.8</ele>
        <time>2022-02-06T10:44:46Z</time>
      </trkpt>
      <trkpt lat="48.30869" lon="2.61066">
        <ele>468.6</ele>
        <time>2022-02-06T10:44:50Z</time>
      </trkpt>
      <trkpt lat="48.30868" lon="2.61083">
        <ele>468.2</ele>
        <time>2022-02-06T10:44:54Z</time>
      </trkpt>
      <trkpt lat="48.3087" lon="2.61102">
        <ele>468.2</ele>
        <time>2022-02-06T10:44:58Z</time>
      </trkpt>
      <trkpt lat="48.30875" lon="2.61116">
        <ele>467.8</ele>
        <time>2022-02-06T10:45:02Z</time>
      </trkpt>
      <trkpt lat="48.30877" lon="2.61136">
        <ele>467.4</ele>
        <time>2022-02-06T10:45:06Z</time>
      </trkpt>
      <trkpt lat="48.30867" lon="2.61148">
        <ele>466.6</ele>
        <time>2022-02-06T10:45:10Z</time>
      </trkpt>
      <trkpt lat="48.30858" lon="2.61152">
        <ele>466.8</ele>
        <time>2022-02-06T10:45:14Z</time>
      </trkpt>
      <trkpt lat="48.30851" lon="2.61156">
        <ele>466.4</ele>
        <time>2022-02-06T10:45:18Z</time>
      </trkpt>
      <trkpt lat="48.30845" lon="2.61149">
        <ele>466</ele>
        <time>2022-02-06T10:45:22Z</time>
      </trkpt>
      <trkpt lat="48.30835" lon="2.61161">
        <ele>465.2</ele>
        <time>2022-02-06T10:45:26Z</time>
      </trkpt>
      <trkpt lat="48.30824" lon="2.61189">
        <ele>462.8</ele>
        <time>2022-02-06T10:45:30Z</time>
      </trkpt>
      <trkpt lat="48.30812" lon="2.6121">
        <ele>463.8</ele>
        <time>2022-02-06T10:45:34Z</time>
      </trkpt>
      <trkpt lat="48.30802" lon="2.61205">
        <ele>463.6</ele>
        <time>2022-02-06T10:45:38Z</time>
      </trkpt>
      <trkpt lat="48.30795" lon="2.61197">
        <ele>463.8</ele>
        <time>2022-02-06T10:45:42Z</time>
      </trkpt>
      <trkpt lat="48.30793" lon="2.61192">
        <ele>464.2</ele>
        <time>2022-02-06T10:45:46Z</time>
      </trkpt>
      <trkpt lat="48.30794" lon="2.61186">
        <ele>464</ele>
        <time>2022-02-06T10:45:50Z</time>
      </trkpt>
      <trkpt lat="48.30796" lon="2.6118">
        <ele>464.2</ele>
        <time>2022-02-06T10:45:54Z</time>
      </trkpt>
      <trkpt lat="48.30796" lon="2.61173">
        <ele>464</ele>
        <time>2022-02-06T10:45:58Z</time>
      </trkpt>
      <trkpt lat="48.30799" lon="2.61166">
        <ele>464.2</ele>
        <time>2022-02-06T10:46:02Z</time>
      </trkpt>
      <trkpt lat="48.308" lon="2.61161">
        <ele>464</ele>
        <time>2022-02-06T10:46:06Z</time>
      </trkpt>
      <trkpt lat="48.30801" lon="2.61153">
        <ele>464.4</ele>
        <time>2022-02-06T10:46:10Z</time>
      </trkpt>
      <trkpt lat="48.30803" lon="2.61146">
        <ele>464.8</ele>
        <time>2022-02-06T10:46:14Z</time>
      </trkpt>
      <trkpt lat="48.30805" lon="2.61139">
        <ele>464.8</ele>
        <time>2022-02-06T10:46:18Z</time>
      </trkpt>
      <trkpt lat="48.30807" lon="2.61132">
        <ele>464.6</ele>
        <time>2022-02-06T10:46:22Z</time>
      </trkpt>
      <trkpt lat="48.30808" lon="2.61124">
        <ele>464.8</ele>
        <time>2022-02-06T10:46:26Z</time>
      </trkpt>
      <trkpt lat="48.3081" lon="2.61116">
        <ele>465.2</ele>
        <time>2022-02-06T10:46:30Z</time>
      </trkpt>
      <trkpt lat="48.30812" lon="2.6111">
        <ele>465.4</ele>
        <time>2022-02-06T10:46:34Z</time>
      </trkpt>
      <trkpt lat="48.30814" lon="2.61102">
        <ele>465.4</ele>
        <time>2022-02-06T10:46:38Z</time>
      </trkpt>
      <trkpt lat="48.30817" lon="2.61095">
        <ele>465.8</ele>
        <time>2022-02-06T10:46:42Z</time>
      </trkpt>
      <trkpt lat="48.30819" lon="2.61089">
        <ele>465.8</ele>
        <time>2022-02-06T10:46:46Z</time>
      </trkpt>
      <trkpt lat="48.30821" lon="2.61083">
        <ele>465.8</ele>
        <time>2022-02-06T10:46:50Z</time>
      </trkpt>
      <trkpt lat="48.30823" lon="2.6108">
        <ele>466</ele>
        <time>2022-02-06T10:46:54Z</time>
      </trkpt>
      <trkpt lat="48.30827" lon="2.61077">
        <ele>466</ele>
        <time>2022-02-06T10:46:58Z</time>
      </trkpt>
      <trkpt lat="48.30831" lon="2.61073">
        <ele>466.2</ele>
        <time>2022-02-06T10:47:02Z</time>
      </trkpt>
      <trkpt lat="48.30833" lon="2.61066">
        <ele>466.4</ele>
        <time>2022-02-06T10:47:06Z</time>
      </trkpt>
      <trkpt lat="48.30834" lon="2.61061">
        <ele>466.6</ele>
        <time>2022-02-06T10:47:10Z</time>
      </trkpt>
      <trkpt lat="48.30833" lon="2.61054">
        <ele>466.4</ele>
        <time>2022-02-06T10:47:14Z</time>
      </trkpt>
      <trkpt lat="48.30829" lon="2.61049">
        <ele>466.8</ele>
        <time>2022-02-06T10:47:18Z</time>
      </trkpt>
      <trkpt lat="48.30825" lon="2.61045">
        <ele>467.2</ele>
        <time>2022-02-06T10:47:22Z</time>
      </trkpt>
      <trkpt lat="48.30822" lon="2.61042">
        <ele>466.8</ele>
        <time>2022-02-06T10:47:26Z</time>
      </trkpt>
      <trkpt lat="48.30818" lon="2.61037">
        <ele>468</ele>
        <time>2022-02-06T10:47:30Z</time>
      </trkpt>
      <trkpt lat="48.30815" lon="2.61032">
        <ele>466</ele>
        <time>2022-02-06T10:47:34Z</time>
      </trkpt>
      <trkpt lat="48.30815" lon="2.61023">
        <ele>466.8</ele>
        <time>2022-02-06T10:47:38Z</time>
      </trkpt>
      <trkpt lat="48.30818" lon="2.61017">
        <ele>467</ele>
        <time>2022-02-06T10:47:42Z</time>
      </trkpt>
      <trkpt lat="48.3082" lon="2.61011">
        <ele>466.8</ele>
        <time>2022-02-06T10:47:46Z</time>
      </trkpt>
      <trkpt lat="48.30822" lon="2.61002">
        <ele>466.8</ele>
        <time>2022-02-06T10:47:50Z</time>
      </trkpt>
      <trkpt lat="48.30824" lon="2.60992">
        <ele>467.2</ele>
        <time>2022-02-06T10:47:54Z</time>
      </trkpt>
      <trkpt lat="48.30825" lon="2.6098">
        <ele>468.2</ele>
        <time>2022-02-06T10:47:58Z</time>
      </trkpt>
      <trkpt lat="48.30822" lon="2.60972">
        <ele>467.8</ele>
        <time>2022-02-06T10:48:02Z</time>
      </trkpt>
      <trkpt lat="48.30815" lon="2.60969">
        <ele>467.6</ele>
        <time>2022-02-06T10:48:06Z</time>
      </trkpt>
      <trkpt lat="48.30808" lon="2.60965">
        <ele>467.6</ele>
        <time>2022-02-06T10:48:10Z</time>
      </trkpt>
      <trkpt lat="48.30798" lon="2.60962">
        <ele>468</ele>
        <time>2022-02-06T10:48:14Z</time>
      </trkpt>
      <trkpt lat="48.30788" lon="2.60958">
        <ele>468</ele>
        <time>2022-02-06T10:48:18Z</time>
      </trkpt>
      <trkpt lat="48.3078" lon="2.60955">
        <ele>467.4</ele>
        <time>2022-02-06T10:48:22Z</time>
      </trkpt>
      <trkpt lat="48.30768" lon="2.60953">
        <ele>467.4</ele>
        <time>2022-02-06T10:48:26Z</time>
      </trkpt>
      <trkpt lat="48.30749" lon="2.60952">
        <ele>467.8</ele>
        <time>2022-02-06T10:48:30Z</time>
      </trkpt>
      <trkpt lat="48.30737" lon="2.60961">
        <ele>467.6</ele>
        <time>2022-02-06T10:48:34Z</time>
      </trkpt>
      <trkpt lat="48.30723" lon="2.60974">
        <ele>467.6</ele>
        <time>2022-02-06T10:48:38Z</time>
      </trkpt>
      <trkpt lat="48.30713" lon="2.60989">
        <ele>467</ele>
        <time>2022-02-06T10:48:42Z</time>
      </trkpt>
      <trkpt lat="48.30706" lon="2.61024">
        <ele>464.8</ele>
        <time>2022-02-06T10:48:46Z</time>
      </trkpt>
      <trkpt lat="48.30698" lon="2.61054">
        <ele>460.8</ele>
        <time>2022-02-06T10:48:50Z</time>
      </trkpt>
      <trkpt lat="48.30686" lon="2.61099">
        <ele>462.2</ele>
        <time>2022-02-06T10:48:54Z</time>
      </trkpt>
      <trkpt lat="48.30668" lon="2.61133">
        <ele>461.8</ele>
        <time>2022-02-06T10:48:58Z</time>
      </trkpt>
      <trkpt lat="48.30639" lon="2.61151">
        <ele>461.2</ele>
        <time>2022-02-06T10:49:02Z</time>
      </trkpt>
      <trkpt lat="48.30612" lon="2.61155">
        <ele>457.2</ele>
        <time>2022-02-06T10:49:06Z</time>
      </trkpt>
      <trkpt lat="48.30595" lon="2.61171">
        <ele>457.2</ele>
        <time>2022-02-06T10:49:10Z</time>
      </trkpt>
      <trkpt lat="48.3058" lon="2.61205">
        <ele>456.6</ele>
        <time>2022-02-06T10:49:14Z</time>
      </trkpt>
      <trkpt lat="48.30557" lon="2.61207">
        <ele>456.2</ele>
        <time>2022-02-06T10:49:18Z</time>
      </trkpt>
      <trkpt lat="48.30533" lon="2.61203">
        <ele>457.2</ele>
        <time>2022-02-06T10:49:22Z</time>
      </trkpt>
      <trkpt lat="48.3051" lon="2.61199">
        <ele>457.8</ele>
        <time>2022-02-06T10:49:26Z</time>
      </trkpt>
      <trkpt lat="48.30486" lon="2.61199">
        <ele>456.8</ele>
        <time>2022-02-06T10:49:30Z</time>
      </trkpt>
      <trkpt lat="48.30473" lon="2.61186">
        <ele>457.4</ele>
        <time>2022-02-06T10:49:34Z</time>
      </trkpt>
      <trkpt lat="48.30479" lon="2.61177">
        <ele>457</ele>
        <time>2022-02-06T10:49:38Z</time>
      </trkpt>
      <trkpt lat="48.30486" lon="2.61168">
        <ele>457.4</ele>
        <time>2022-02-06T10:49:42Z</time>
      </trkpt>
      <trkpt lat="48.30492" lon="2.61156">
        <ele>456.2</ele>
        <time>2022-02-06T10:49:46Z</time>
      </trkpt>
      <trkpt lat="48.30498" lon="2.61144">
        <ele>457.2</ele>
        <time>2022-02-06T10:49:50Z</time>
      </trkpt>
      <trkpt lat="48.30504" lon="2.61133">
        <ele>458.4</ele>
        <time>2022-02-06T10:49:54Z</time>
      </trkpt>
      <trkpt lat="48.30509" lon="2.61124">
        <ele>457.8</ele>
        <time>2022-02-06T10:49:58Z</time>
      </trkpt>
      <trkpt lat="48.30514" lon="2.61114">
        <ele>458</ele>
        <time>2022-02-06T10:50:02Z</time>
      </trkpt>
      <trkpt lat="48.3052" lon="2.61104">
        <ele>458.2</ele>
        <time>2022-02-06T10:50:06Z</time>
      </trkpt>
      <trkpt lat="48.30524" lon="2.61096">
        <ele>457.8</ele>
        <time>2022-02-06T10:50:10Z</time>
      </trkpt>
      <trkpt lat="48.30529" lon="2.61088">
        <ele>458.2</ele>
        <time>2022-02-06T10:50:14Z</time>
      </trkpt>
      <trkpt lat="48.30533" lon="2.61079">
        <ele>459.4</ele>
        <time>2022-02-06T10:50:18Z</time>
      </trkpt>
      <trkpt lat="48.30539" lon="2.61069">
        <ele>459.2</ele>
        <time>2022-02-06T10:50:22Z</time>
      </trkpt>
      <trkpt lat="48.30544" lon="2.61057">
        <ele>459</ele>
        <time>2022-02-06T10:50:26Z</time>
      </trkpt>
      <trkpt lat="48.3055" lon="2.61044">
        <ele>459.2</ele>
        <time>2022-02-06T10:50:30Z</time>
      </trkpt>
      <trkpt lat="48.30555" lon="2.61033">
        <ele>459.2</ele>
        <time>2022-02-06T10:50:34Z</time>
      </trkpt>
      <trkpt lat="48.30559" lon="2.61021">
        <ele>459.4</ele>
        <time>2022-02-06T10:50:38Z</time>
      </trkpt>
      <trkpt lat="48.30565" lon="2.6101">
        <ele>459.2</ele>
        <time>2022-02-06T10:50:42Z</time>
      </trkpt>
      <trkpt lat="48.3057" lon="2.60997">
        <ele>459.6</ele>
        <time>2022-02-06T10:50:46Z</time>
      </trkpt>
      <trkpt lat="48.30574" lon="2.60982">
        <ele>459.8</ele>
        <time>2022-02-06T10:50:50Z</time>
      </trkpt>
      <trkpt lat="48.30577" lon="2.60973">
        <ele>459.8</ele>
        <time>2022-02-06T10:50:54Z</time>
      </trkpt>
      <trkpt lat="48.30579" lon="2.60962">
        <ele>459.8</ele>
        <time>2022-02-06T10:50:58Z</time>
      </trkpt>
      <trkpt lat="48.30582" lon="2.6095">
        <ele>460.2</ele>
        <time>2022-02-06T10:51:02Z</time>
      </trkpt>
      <trkpt lat="48.30583" lon="2.60937">
        <ele>460.6</ele>
        <time>2022-02-06T10:51:06Z</time>
      </trkpt>
      <trkpt lat="48.30583" lon="2.60922">
        <ele>461</ele>
        <time>2022-02-06T10:51:10Z</time>
      </trkpt>
      <trkpt lat="48.30583" lon="2.60906">
        <ele>461.2</ele>
        <time>2022-02-06T10:51:14Z</time>
      </trkpt>
      <trkpt lat="48.30583" lon="2.60891">
        <ele>461</ele>
        <time>2022-02-06T10:51:18Z</time>
      </trkpt>
      <trkpt lat="48.30585" lon="2.60877">
        <ele>461</ele>
        <time>2022-02-06T10:51:22Z</time>
      </trkpt>
      <trkpt lat="48.30585" lon="2.60864">
        <ele>461.2</ele>
        <time>2022-02-06T10:51:26Z</time>
      </trkpt>
      <trkpt lat="48.30584" lon="2.6085">
        <ele>461</ele>
        <time>2022-02-06T10:51:30Z</time>
      </trkpt>
      <trkpt lat="48.30585" lon="2.60838">
        <ele>461.8</ele>
        <time>2022-02-06T10:51:34Z</time>
      </trkpt>
      <trkpt lat="48.30588" lon="2.60825">
        <ele>461.2</ele>
        <time>2022-02-06T10:51:38Z</time>
      </trkpt>
      <trkpt lat="48.30595" lon="2.60818">
        <ele>461.6</ele>
        <time>2022-02-06T10:51:42Z</time>
      </trkpt>
      <trkpt lat="48.30603" lon="2.60811">
        <ele>461.4</ele>
        <time>2022-02-06T10:51:46Z</time>
      </trkpt>
      <trkpt lat="48.3061" lon="2.60806">
        <ele>461.8</ele>
        <time>2022-02-06T10:51:50Z</time>
      </trkpt>
      <trkpt lat="48.30619" lon="2.60801">
        <ele>462</ele>
        <time>2022-02-06T10:51:54Z</time>
      </trkpt>
      <trkpt lat="48.30626" lon="2.60797">
        <ele>461.6</ele>
        <time>2022-02-06T10:51:58Z</time>
      </trkpt>
      <trkpt lat="48.30634" lon="2.60791">
        <ele>462.2</ele>
        <time>2022-02-06T10:52:02Z</time>
      </trkpt>
      <trkpt lat="48.30643" lon="2.60785">
        <ele>462.2</ele>
        <time>2022-02-06T10:52:06Z</time>
      </trkpt>
      <trkpt lat="48.30651" lon="2.60781">
        <ele>462</ele>
        <time>2022-02-06T10:52:10Z</time>
      </trkpt>
      <trkpt lat="48.3066" lon="2.60777">
        <ele>462.6</ele>
        <time>2022-02-06T10:52:14Z</time>
      </trkpt>
      <trkpt lat="48.30666" lon="2.60772">
        <ele>462.8</ele>
        <time>2022-02-06T10:52:18Z</time>
      </trkpt>
      <trkpt lat="48.30675" lon="2.60766">
        <ele>463</ele>
        <time>2022-02-06T10:52:22Z</time>
      </trkpt>
      <trkpt lat="48.30682" lon="2.60761">
        <ele>463</ele>
        <time>2022-02-06T10:52:26Z</time>
      </trkpt>
      <trkpt lat="48.3069" lon="2.60754">
        <ele>462.6</ele>
        <time>2022-02-06T10:52:30Z</time>
      </trkpt>
      <trkpt lat="48.30697" lon="2.60742">
        <ele>462.8</ele>
        <time>2022-02-06T10:52:34Z</time>
      </trkpt>
      <trkpt lat="48.30701" lon="2.60725">
        <ele>462.6</ele>
        <time>2022-02-06T10:52:38Z</time>
      </trkpt>
      <trkpt lat="48.30703" lon="2.60707">
        <ele>463</ele>
        <time>2022-02-06T10:52:42Z</time>
      </trkpt>
      <trkpt lat="48.30705" lon="2.60694">
        <ele>463.2</ele>
        <time>2022-02-06T10:52:46Z</time>
      </trkpt>
      <trkpt lat="48.30706" lon="2.60677">
        <ele>462.8</ele>
        <time>2022-02-06T10:52:50Z</time>
      </trkpt>
      <trkpt lat="48.30706" lon="2.60661">
        <ele>463.2</ele>
        <time>2022-02-06T10:52:54Z</time>
      </trkpt>
      <trkpt lat="48.30706" lon="2.60646">
        <ele>463.8</ele>
        <time>2022-02-06T10:52:58Z</time>
      </trkpt>
      <trkpt lat="48.30711" lon="2.60636">
        <ele>464</ele>
        <time>2022-02-06T10:53:02Z</time>
      </trkpt>
      <trkpt lat="48.3072" lon="2.60624">
        <ele>463.6</ele>
        <time>2022-02-06T10:53:06Z</time>
      </trkpt>
      <trkpt lat="48.30729" lon="2.60615">
        <ele>463.8</ele>
        <time>2022-02-06T10:53:10Z</time>
      </trkpt>
      <trkpt lat="48.30739" lon="2.60604">
        <ele>464.2</ele>
        <time>2022-02-06T10:53:14Z</time>
      </trkpt>
      <trkpt lat="48.30749" lon="2.60596">
        <ele>464</ele>
        <time>2022-02-06T10:53:18Z</time>
      </trkpt>
      <trkpt lat="48.30761" lon="2.60588">
        <ele>464.4</ele>
        <time>2022-02-06T10:53:22Z</time>
      </trkpt>
      <trkpt lat="48.30774" lon="2.60579">
        <ele>464.4</ele>
        <time>2022-02-06T10:53:26Z</time>
      </trkpt>
      <trkpt lat="48.30788" lon="2.60572">
        <ele>464.4</ele>
        <time>2022-02-06T10:53:30Z</time>
      </trkpt>
      <trkpt lat="48.30799" lon="2.60562">
        <ele>464.2</ele>
        <time>2022-02-06T10:53:34Z</time>
      </trkpt>
      <trkpt lat="48.30807" lon="2.60553">
        <ele>464.2</ele>
        <time>2022-02-06T10:53:38Z</time>
      </trkpt>
      <trkpt lat="48.30821" lon="2.60534">
        <ele>463.8</ele>
        <time>2022-02-06T10:56:36Z</time>
      </trkpt>
      <trkpt lat="48.30817" lon="2.60521">
        <ele>464</ele>
        <time>2022-02-06T10:56:40Z</time>
      </trkpt>
      <trkpt lat="48.30814" lon="2.60506">
        <ele>464.2</ele>
        <time>2022-02-06T10:56:44Z</time>
      </trkpt>
      <trkpt lat="48.30809" lon="2.60494">
        <ele>463.8</ele>
        <time>2022-02-06T10:56:48Z</time>
      </trkpt>
      <trkpt lat="48.30795" lon="2.60476">
        <ele>463.6</ele>
        <time>2022-02-06T10:56:52Z</time>
      </trkpt>
      <trkpt lat="48.30779" lon="2.60456">
        <ele>462.8</ele>
        <time>2022-02-06T10:56:56Z</time>
      </trkpt>
      <trkpt lat="48.30768" lon="2.60436">
        <ele>462.4</ele>
        <time>2022-02-06T10:57:00Z</time>
      </trkpt>
      <trkpt lat="48.30758" lon="2.60411">
        <ele>462.2</ele>
        <time>2022-02-06T10:57:04Z</time>
      </trkpt>
      <trkpt lat="48.30754" lon="2.60375">
        <ele>461.6</ele>
        <time>2022-02-06T10:57:08Z</time>
      </trkpt>
      <trkpt lat="48.30755" lon="2.60346">
        <ele>461.2</ele>
        <time>2022-02-06T10:57:12Z</time>
      </trkpt>
      <trkpt lat="48.30753" lon="2.6031">
        <ele>460.6</ele>
        <time>2022-02-06T10:57:16Z</time>
      </trkpt>
      <trkpt lat="48.30752" lon="2.60273">
        <ele>460.4</ele>
        <time>2022-02-06T10:57:20Z</time>
      </trkpt>
      <trkpt lat="48.30743" lon="2.60236">
        <ele>459.8</ele>
        <time>2022-02-06T10:57:24Z</time>
      </trkpt>
      <trkpt lat="48.3073" lon="2.60207">
        <ele>459.6</ele>
        <time>2022-02-06T10:57:28Z</time>
      </trkpt>
      <trkpt lat="48.30714" lon="2.60188">
        <ele>460.2</ele>
        <time>2022-02-06T10:57:32Z</time>
      </trkpt>
      <trkpt lat="48.30697" lon="2.60162">
        <ele>460.4</ele>
        <time>2022-02-06T10:57:36Z</time>
      </trkpt>
      <trkpt lat="48.30677" lon="2.60138">
        <ele>459.6</ele>
        <time>2022-02-06T10:57:40Z</time>
      </trkpt>
      <trkpt lat="48.30659" lon="2.60119">
        <ele>459.8</ele>
        <time>2022-02-06T10:57:44Z</time>
      </trkpt>
      <trkpt lat="48.30645" lon="2.60114">
        <ele>460.2</ele>
        <time>2022-02-06T10:57:48Z</time>
      </trkpt>
      <trkpt lat="48.30631" lon="2.60105">
        <ele>460.6</ele>
        <time>2022-02-06T10:57:52Z</time>
      </trkpt>
      <trkpt lat="48.30619" lon="2.60091">
        <ele>460.6</ele>
        <time>2022-02-06T10:57:56Z</time>
      </trkpt>
      <trkpt lat="48.30603" lon="2.6007">
        <ele>459.6</ele>
        <time>2022-02-06T10:58:00Z</time>
      </trkpt>
      <trkpt lat="48.30592" lon="2.6006">
        <ele>460.4</ele>
        <time>2022-02-06T10:58:04Z</time>
      </trkpt>
      <trkpt lat="48.30573" lon="2.60042">
        <ele>460.4</ele>
        <time>2022-02-06T10:58:08Z</time>
      </trkpt>
      <trkpt lat="48.3056" lon="2.60035">
        <ele>460.2</ele>
        <time>2022-02-06T10:58:12Z</time>
      </trkpt>
      <trkpt lat="48.30544" lon="2.60023">
        <ele>460.2</ele>
        <time>2022-02-06T10:58:16Z</time>
      </trkpt>
      <trkpt lat="48.30529" lon="2.60023">
        <ele>460.2</ele>
        <time>2022-02-06T10:58:20Z</time>
      </trkpt>
      <trkpt lat="48.3052" lon="2.60016">
        <ele>459.2</ele>
        <time>2022-02-06T10:58:24Z</time>
      </trkpt>
      <trkpt lat="48.30513" lon="2.60003">
        <ele>459</ele>
        <time>2022-02-06T10:58:28Z</time>
      </trkpt>
      <trkpt lat="48.30497" lon="2.59996">
        <ele>458.8</ele>
        <time>2022-02-06T10:58:32Z</time>
      </trkpt>
      <trkpt lat="48.30488" lon="2.59978">
        <ele>458.2</ele>
        <time>2022-02-06T10:58:36Z</time>
      </trkpt>
      <trkpt lat="48.30483" lon="2.59963">
        <ele>458.2</ele>
        <time>2022-02-06T10:58:40Z</time>
      </trkpt>
      <trkpt lat="48.30475" lon="2.59943">
        <ele>458.2</ele>
        <time>2022-02-06T10:58:44Z</time>
      </trkpt>
      <trkpt lat="48.30478" lon="2.59928">
        <ele>458.2</ele>
        <time>2022-02-06T10:58:48Z</time>
      </trkpt>
      <trkpt lat="48.30488" lon="2.59919">
        <ele>458</ele>
        <time>2022-02-06T10:58:52Z</time>
      </trkpt>
      <trkpt lat="48.30499" lon="2.59912">
        <ele>458</ele>
        <time>2022-02-06T10:58:56Z</time>
      </trkpt>
      <trkpt lat="48.3051" lon="2.59905">
        <ele>458.2</ele>
        <time>2022-02-06T10:59:00Z</time>
      </trkpt>
      <trkpt lat="48.30522" lon="2.59893">
        <ele>458</ele>
        <time>2022-02-06T10:59:04Z</time>
      </trkpt>
      <trkpt lat="48.30533" lon="2.59882">
        <ele>458.4</ele>
        <time>2022-02-06T10:59:08Z</time>
      </trkpt>
      <trkpt lat="48.30545" lon="2.59874">
        <ele>458.8</ele>
        <time>2022-02-06T10:59:12Z</time>
      </trkpt>
      <trkpt lat="48.30556" lon="2.59864">
        <ele>458.4</ele>
        <time>2022-02-06T10:59:16Z</time>
      </trkpt>
      <trkpt lat="48.30563" lon="2.59856">
        <ele>458.8</ele>
        <time>2022-02-06T10:59:20Z</time>
      </trkpt>
      <trkpt lat="48.30566" lon="2.59842">
        <ele>459</ele>
        <time>2022-02-06T10:59:24Z</time>
      </trkpt>
      <trkpt lat="48.30572" lon="2.59822">
        <ele>459</ele>
        <time>2022-02-06T10:59:28Z</time>
      </trkpt>
      <trkpt lat="48.30578" lon="2.59805">
        <ele>459.6</ele>
        <time>2022-02-06T10:59:32Z</time>
      </trkpt>
      <trkpt lat="48.30582" lon="2.5979">
        <ele>459.6</ele>
        <time>2022-02-06T10:59:36Z</time>
      </trkpt>
      <trkpt lat="48.30585" lon="2.59779">
        <ele>459.2</ele>
        <time>2022-02-06T10:59:40Z</time>
      </trkpt>
      <trkpt lat="48.30587" lon="2.59765">
        <ele>459.6</ele>
        <time>2022-02-06T10:59:44Z</time>
      </trkpt>
      <trkpt lat="48.30591" lon="2.5975">
        <ele>459.8</ele>
        <time>2022-02-06T10:59:48Z</time>
      </trkpt>
      <trkpt lat="48.30594" lon="2.59733">
        <ele>459.6</ele>
        <time>2022-02-06T10:59:52Z</time>
      </trkpt>
      <trkpt lat="48.30597" lon="2.59717">
        <ele>460.2</ele>
        <time>2022-02-06T10:59:56Z</time>
      </trkpt>
      <trkpt lat="48.30599" lon="2.59703">
        <ele>460</ele>
        <time>2022-02-06T11:00:00Z</time>
      </trkpt>
      <trkpt lat="48.30601" lon="2.59689">
        <ele>460.2</ele>
        <time>2022-02-06T11:00:04Z</time>
      </trkpt>
      <trkpt lat="48.30604" lon="2.59676">
        <ele>460.4</ele>
        <time>2022-02-06T11:00:08Z</time>
      </trkpt>
      <trkpt lat="48.30605" lon="2.59663">
        <ele>460.8</ele>
        <time>2022-02-06T11:00:12Z</time>
      </trkpt>
      <trkpt lat="48.30607" lon="2.59649">
        <ele>461</ele>
        <time>2022-02-06T11:00:16Z</time>
      </trkpt>
      <trkpt lat="48.30609" lon="2.59637">
        <ele>460.6</ele>
        <time>2022-02-06T11:00:20Z</time>
      </trkpt>
      <trkpt lat="48.30611" lon="2.59625">
        <ele>461</ele>
        <time>2022-02-06T11:00:24Z</time>
      </trkpt>
      <trkpt lat="48.30613" lon="2.59613">
        <ele>461</ele>
        <time>2022-02-06T11:00:28Z</time>
      </trkpt>
      <trkpt lat="48.30619" lon="2.59606">
        <ele>461</ele>
        <time>2022-02-06T11:00:32Z</time>
      </trkpt>
      <trkpt lat="48.30625" lon="2.59601">
        <ele>461.4</ele>
        <time>2022-02-06T11:00:36Z</time>
      </trkpt>
      <trkpt lat="48.30632" lon="2.59593">
        <ele>461.6</ele>
        <time>2022-02-06T11:00:40Z</time>
      </trkpt>
      <trkpt lat="48.30635" lon="2.59581">
        <ele>461.4</ele>
        <time>2022-02-06T11:00:44Z</time>
      </trkpt>
      <trkpt lat="48.30638" lon="2.59571">
        <ele>462.2</ele>
        <time>2022-02-06T11:00:48Z</time>
      </trkpt>
      <trkpt lat="48.30641" lon="2.59562">
        <ele>462.2</ele>
        <time>2022-02-06T11:00:52Z</time>
      </trkpt>
      <trkpt lat="48.30643" lon="2.59553">
        <ele>462.4</ele>
        <time>2022-02-06T11:00:56Z</time>
      </trkpt>
      <trkpt lat="48.30645" lon="2.59542">
        <ele>462.8</ele>
        <time>2022-02-06T11:01:00Z</time>
      </trkpt>
      <trkpt lat="48.30648" lon="2.59532">
        <ele>462.4</ele>
        <time>2022-02-06T11:01:04Z</time>
      </trkpt>
      <trkpt lat="48.30652" lon="2.59523">
        <ele>462.4</ele>
        <time>2022-02-06T11:01:08Z</time>
      </trkpt>
      <trkpt lat="48.30655" lon="2.59512">
        <ele>462.4</ele>
        <time>2022-02-06T11:01:12Z</time>
      </trkpt>
      <trkpt lat="48.30658" lon="2.59502">
        <ele>462.6</ele>
        <time>2022-02-06T11:01:16Z</time>
      </trkpt>
      <trkpt lat="48.30661" lon="2.5949">
        <ele>463.2</ele>
        <time>2022-02-06T11:01:20Z</time>
      </trkpt>
      <trkpt lat="48.30664" lon="2.5948">
        <ele>463</ele>
        <time>2022-02-06T11:01:24Z</time>
      </trkpt>
      <trkpt lat="48.30668" lon="2.59471">
        <ele>463</ele>
        <time>2022-02-06T11:01:28Z</time>
      </trkpt>
      <trkpt lat="48.30672" lon="2.59463">
        <ele>463.2</ele>
        <time>2022-02-06T11:01:32Z</time>
      </trkpt>
      <trkpt lat="48.30678" lon="2.59457">
        <ele>463.4</ele>
        <time>2022-02-06T11:01:36Z</time>
      </trkpt>
      <trkpt lat="48.30682" lon="2.59449">
        <ele>463.6</ele>
        <time>2022-02-06T11:01:40Z</time>
      </trkpt>
      <trkpt lat="48.30681" lon="2.59441">
        <ele>463.6</ele>
        <time>2022-02-06T11:01:44Z</time>
      </trkpt>
      <trkpt lat="48.30674" lon="2.59438">
        <ele>464</ele>
        <time>2022-02-06T11:01:48Z</time>
      </trkpt>
      <trkpt lat="48.30663" lon="2.5943">
        <ele>463.4</ele>
        <time>2022-02-06T11:01:52Z</time>
      </trkpt>
      <trkpt lat="48.30656" lon="2.59417">
        <ele>463.6</ele>
        <time>2022-02-06T11:01:56Z</time>
      </trkpt>
      <trkpt lat="48.30647" lon="2.59411">
        <ele>463.4</ele>
        <time>2022-02-06T11:02:00Z</time>
      </trkpt>
      <trkpt lat="48.30639" lon="2.59403">
        <ele>463.8</ele>
        <time>2022-02-06T11:02:04Z</time>
      </trkpt>
      <trkpt lat="48.3063" lon="2.59394">
        <ele>463.2</ele>
        <time>2022-02-06T11:02:08Z</time>
      </trkpt>
      <trkpt lat="48.30619" lon="2.59389">
        <ele>462.6</ele>
        <time>2022-02-06T11:02:12Z</time>
      </trkpt>
      <trkpt lat="48.30609" lon="2.59385">
        <ele>463.4</ele>
        <time>2022-02-06T11:02:16Z</time>
      </trkpt>
      <trkpt lat="48.30605" lon="2.59389">
        <ele>462.6</ele>
        <time>2022-02-06T11:02:20Z</time>
      </trkpt>
      <trkpt lat="48.30594" lon="2.59388">
        <ele>462.6</ele>
        <time>2022-02-06T11:02:24Z</time>
      </trkpt>
      <trkpt lat="48.30588" lon="2.59387">
        <ele>462</ele>
        <time>2022-02-06T11:02:28Z</time>
      </trkpt>
      <trkpt lat="48.30583" lon="2.59382">
        <ele>461.6</ele>
        <time>2022-02-06T11:02:32Z</time>
      </trkpt>
      <trkpt lat="48.3057" lon="2.59374">
        <ele>461.4</ele>
        <time>2022-02-06T11:02:36Z</time>
      </trkpt>
      <trkpt lat="48.3055" lon="2.59368">
        <ele>461</ele>
        <time>2022-02-06T11:02:40Z</time>
      </trkpt>
      <trkpt lat="48.30532" lon="2.59358">
        <ele>460.8</ele>
        <time>2022-02-06T11:02:44Z</time>
      </trkpt>
      <trkpt lat="48.30517" lon="2.59338">
        <ele>460.4</ele>
        <time>2022-02-06T11:02:48Z</time>
      </trkpt>
      <trkpt lat="48.30518" lon="2.59325">
        <ele>460.2</ele>
        <time>2022-02-06T11:02:52Z</time>
      </trkpt>
      <trkpt lat="48.3052" lon="2.59313">
        <ele>460.2</ele>
        <time>2022-02-06T11:02:56Z</time>
      </trkpt>
      <trkpt lat="48.30519" lon="2.59297">
        <ele>460.8</ele>
        <time>2022-02-06T11:03:00Z</time>
      </trkpt>
      <trkpt lat="48.30523" lon="2.59288">
        <ele>460.4</ele>
        <time>2022-02-06T11:03:04Z</time>
      </trkpt>
      <trkpt lat="48.30526" lon="2.59278">
        <ele>460.6</ele>
        <time>2022-02-06T11:03:08Z</time>
      </trkpt>
      <trkpt lat="48.30528" lon="2.59271">
        <ele>461</ele>
        <time>2022-02-06T11:03:12Z</time>
      </trkpt>
      <trkpt lat="48.3053" lon="2.5926">
        <ele>461</ele>
        <time>2022-02-06T11:03:16Z</time>
      </trkpt>
      <trkpt lat="48.30532" lon="2.59248">
        <ele>461.2</ele>
        <time>2022-02-06T11:03:20Z</time>
      </trkpt>
      <trkpt lat="48.30535" lon="2.59238">
        <ele>461.2</ele>
        <time>2022-02-06T11:03:24Z</time>
      </trkpt>
      <trkpt lat="48.30534" lon="2.59226">
        <ele>461.2</ele>
        <time>2022-02-06T11:03:28Z</time>
      </trkpt>
      <trkpt lat="48.30537" lon="2.5922">
        <ele>461.2</ele>
        <time>2022-02-06T11:03:32Z</time>
      </trkpt>
      <trkpt lat="48.30542" lon="2.59215">
        <ele>461.8</ele>
        <time>2022-02-06T11:03:36Z</time>
      </trkpt>
      <trkpt lat="48.30542" lon="2.59206">
        <ele>461.4</ele>
        <time>2022-02-06T11:03:40Z</time>
      </trkpt>
      <trkpt lat="48.30541" lon="2.59197">
        <ele>461.8</ele>
        <time>2022-02-06T11:03:44Z</time>
      </trkpt>
      <trkpt lat="48.30536" lon="2.59191">
        <ele>461.6</ele>
        <time>2022-02-06T11:03:48Z</time>
      </trkpt>
      <trkpt lat="48.30533" lon="2.5918">
        <ele>461.2</ele>
        <time>2022-02-06T11:03:52Z</time>
      </trkpt>
      <trkpt lat="48.30526" lon="2.59175">
        <ele>462</ele>
        <time>2022-02-06T11:03:56Z</time>
      </trkpt>
      <trkpt lat="48.30522" lon="2.59167">
        <ele>461</ele>
        <time>2022-02-06T11:04:00Z</time>
      </trkpt>
      <trkpt lat="48.30521" lon="2.59157">
        <ele>461</ele>
        <time>2022-02-06T11:04:04Z</time>
      </trkpt>
      <trkpt lat="48.30519" lon="2.59147">
        <ele>461.4</ele>
        <time>2022-02-06T11:04:08Z</time>
      </trkpt>
      <trkpt lat="48.30517" lon="2.59136">
        <ele>461.6</ele>
        <time>2022-02-06T11:04:12Z</time>
      </trkpt>
      <trkpt lat="48.30506" lon="2.59124">
        <ele>460.6</ele>
        <time>2022-02-06T11:04:16Z</time>
      </trkpt>
      <trkpt lat="48.30497" lon="2.59108">
        <ele>461</ele>
        <time>2022-02-06T11:04:20Z</time>
      </trkpt>
      <trkpt lat="48.30483" lon="2.59106">
        <ele>460.4</ele>
        <time>2022-02-06T11:04:24Z</time>
      </trkpt>
      <trkpt lat="48.30478" lon="2.59088">
        <ele>459.2</ele>
        <time>2022-02-06T11:04:28Z</time>
      </trkpt>
      <trkpt lat="48.3048" lon="2.59081">
        <ele>459.4</ele>
        <time>2022-02-06T11:04:32Z</time>
      </trkpt>
      <trkpt lat="48.30482" lon="2.59074">
        <ele>459.8</ele>
        <time>2022-02-06T11:04:36Z</time>
      </trkpt>
      <trkpt lat="48.30484" lon="2.59068">
        <ele>460.2</ele>
        <time>2022-02-06T11:04:40Z</time>
      </trkpt>
      <trkpt lat="48.30486" lon="2.59063">
        <ele>460</ele>
        <time>2022-02-06T11:04:44Z</time>
      </trkpt>
      <trkpt lat="48.30488" lon="2.59058">
        <ele>460.2</ele>
        <time>2022-02-06T11:04:48Z</time>
      </trkpt>
      <trkpt lat="48.3049" lon="2.59051">
        <ele>460</ele>
        <time>2022-02-06T11:04:52Z</time>
      </trkpt>
      <trkpt lat="48.30493" lon="2.59041">
        <ele>460.2</ele>
        <time>2022-02-06T11:04:56Z</time>
      </trkpt>
      <trkpt lat="48.30491" lon="2.59026">
        <ele>459.8</ele>
        <time>2022-02-06T11:05:00Z</time>
      </trkpt>
      <trkpt lat="48.30474" lon="2.59005">
        <ele>459.4</ele>
        <time>2022-02-06T11:05:04Z</time>
      </trkpt>
      <trkpt lat="48.30476" lon="2.58981">
        <ele>458.4</ele>
        <time>2022-02-06T11:05:08Z</time>
      </trkpt>
      <trkpt lat="48.30487" lon="2.58976">
        <ele>458.4</ele>
        <time>2022-02-06T11:05:12Z</time>
      </trkpt>
      <trkpt lat="48.30492" lon="2.58968">
        <ele>458.6</ele>
        <time>2022-02-06T11:05:16Z</time>
      </trkpt>
      <trkpt lat="48.30498" lon="2.58963">
        <ele>458.6</ele>
        <time>2022-02-06T11:05:20Z</time>
      </trkpt>
      <trkpt lat="48.30503" lon="2.58958">
        <ele>458.8</ele>
        <time>2022-02-06T11:05:24Z</time>
      </trkpt>
      <trkpt lat="48.30509" lon="2.58955">
        <ele>458.6</ele>
        <time>2022-02-06T11:05:28Z</time>
      </trkpt>
      <trkpt lat="48.30515" lon="2.58951">
        <ele>458.6</ele>
        <time>2022-02-06T11:05:32Z</time>
      </trkpt>
      <trkpt lat="48.30519" lon="2.58944">
        <ele>458.6</ele>
        <time>2022-02-06T11:05:36Z</time>
      </trkpt>
      <trkpt lat="48.30527" lon="2.58943">
        <ele>458.6</ele>
        <time>2022-02-06T11:05:40Z</time>
      </trkpt>
      <trkpt lat="48.30533" lon="2.58945">
        <ele>458.4</ele>
        <time>2022-02-06T11:05:44Z</time>
      </trkpt>
      <trkpt lat="48.30541" lon="2.58948">
        <ele>458.6</ele>
        <time>2022-02-06T11:05:48Z</time>
      </trkpt>
      <trkpt lat="48.30546" lon="2.58952">
        <ele>458.2</ele>
        <time>2022-02-06T11:05:52Z</time>
      </trkpt>
      <trkpt lat="48.30552" lon="2.58957">
        <ele>458.4</ele>
        <time>2022-02-06T11:05:56Z</time>
      </trkpt>
      <trkpt lat="48.30556" lon="2.58964">
        <ele>458</ele>
        <time>2022-02-06T11:06:00Z</time>
      </trkpt>
      <trkpt lat="48.30562" lon="2.58971">
        <ele>458.2</ele>
        <time>2022-02-06T11:06:04Z</time>
      </trkpt>
      <trkpt lat="48.30566" lon="2.58979">
        <ele>458.2</ele>
        <time>2022-02-06T11:06:08Z</time>
      </trkpt>
      <trkpt lat="48.30573" lon="2.58986">
        <ele>458</ele>
        <time>2022-02-06T11:06:12Z</time>
      </trkpt>
      <trkpt lat="48.30578" lon="2.58994">
        <ele>458.2</ele>
        <time>2022-02-06T11:06:16Z</time>
      </trkpt>
      <trkpt lat="48.30582" lon="2.58999">
        <ele>458.2</ele>
        <time>2022-02-06T11:06:20Z</time>
      </trkpt>
      <trkpt lat="48.30586" lon="2.58999">
        <ele>458.2</ele>
        <time>2022-02-06T11:06:24Z</time>
      </trkpt>
      <trkpt lat="48.30592" lon="2.58997">
        <ele>458.4</ele>
        <time>2022-02-06T11:06:28Z</time>
      </trkpt>
      <trkpt lat="48.30598" lon="2.58994">
        <ele>458.2</ele>
        <time>2022-02-06T11:06:32Z</time>
      </trkpt>
      <trkpt lat="48.30603" lon="2.58993">
        <ele>457.8</ele>
        <time>2022-02-06T11:06:36Z</time>
      </trkpt>
      <trkpt lat="48.30608" lon="2.58989">
        <ele>457.8</ele>
        <time>2022-02-06T11:06:40Z</time>
      </trkpt>
      <trkpt lat="48.30611" lon="2.58991">
        <ele>458.2</ele>
        <time>2022-02-06T11:06:44Z</time>
      </trkpt>
      <trkpt lat="48.30615" lon="2.58995">
        <ele>457.6</ele>
        <time>2022-02-06T11:06:48Z</time>
      </trkpt>
      <trkpt lat="48.30618" lon="2.58997">
        <ele>458</ele>
        <time>2022-02-06T11:06:52Z</time>
      </trkpt>
      <trkpt lat="48.30622" lon="2.59001">
        <ele>458</ele>
        <time>2022-02-06T11:06:56Z</time>
      </trkpt>
      <trkpt lat="48.30626" lon="2.58999">
        <ele>458.2</ele>
        <time>2022-02-06T11:07:00Z</time>
      </trkpt>
      <trkpt lat="48.3063" lon="2.58995">
        <ele>458.2</ele>
        <time>2022-02-06T11:07:04Z</time>
      </trkpt>
      <trkpt lat="48.30661" lon="2.58941">
        <ele>460.2</ele>
        <time>2022-02-06T11:08:12Z</time>
      </trkpt>
      <trkpt lat="48.30667" lon="2.58928">
        <ele>459.8</ele>
        <time>2022-02-06T11:08:16Z</time>
      </trkpt>
      <trkpt lat="48.3067" lon="2.58919">
        <ele>460</ele>
        <time>2022-02-06T11:08:20Z</time>
      </trkpt>
      <trkpt lat="48.30674" lon="2.58907">
        <ele>459.8</ele>
        <time>2022-02-06T11:08:24Z</time>
      </trkpt>
      <trkpt lat="48.30672" lon="2.58886">
        <ele>459</ele>
        <time>2022-02-06T11:08:28Z</time>
      </trkpt>
      <trkpt lat="48.30674" lon="2.58862">
        <ele>459.4</ele>
        <time>2022-02-06T11:08:32Z</time>
      </trkpt>
      <trkpt lat="48.30669" lon="2.58851">
        <ele>459</ele>
        <time>2022-02-06T11:08:36Z</time>
      </trkpt>
      <trkpt lat="48.30663" lon="2.58845">
        <ele>459.2</ele>
        <time>2022-02-06T11:08:40Z</time>
      </trkpt>
      <trkpt lat="48.30657" lon="2.58842">
        <ele>459.2</ele>
        <time>2022-02-06T11:08:44Z</time>
      </trkpt>
      <trkpt lat="48.30651" lon="2.58833">
        <ele>459.6</ele>
        <time>2022-02-06T11:08:48Z</time>
      </trkpt>
      <trkpt lat="48.30645" lon="2.58818">
        <ele>459.8</ele>
        <time>2022-02-06T11:08:52Z</time>
      </trkpt>
      <trkpt lat="48.30641" lon="2.58807">
        <ele>459.8</ele>
        <time>2022-02-06T11:08:56Z</time>
      </trkpt>
      <trkpt lat="48.30639" lon="2.58798">
        <ele>460</ele>
        <time>2022-02-06T11:09:00Z</time>
      </trkpt>
      <trkpt lat="48.30636" lon="2.58789">
        <ele>460.2</ele>
        <time>2022-02-06T11:09:04Z</time>
      </trkpt>
      <trkpt lat="48.30633" lon="2.5878">
        <ele>460.6</ele>
        <time>2022-02-06T11:09:08Z</time>
      </trkpt>
      <trkpt lat="48.30631" lon="2.58771">
        <ele>460.2</ele>
        <time>2022-02-06T11:09:12Z</time>
      </trkpt>
      <trkpt lat="48.30629" lon="2.58762">
        <ele>460.2</ele>
        <time>2022-02-06T11:09:16Z</time>
      </trkpt>
      <trkpt lat="48.30629" lon="2.58754">
        <ele>459.8</ele>
        <time>2022-02-06T11:09:20Z</time>
      </trkpt>
      <trkpt lat="48.3063" lon="2.58749">
        <ele>460.2</ele>
        <time>2022-02-06T11:09:24Z</time>
      </trkpt>
      <trkpt lat="48.30633" lon="2.58745">
        <ele>460.2</ele>
        <time>2022-02-06T11:09:28Z</time>
      </trkpt>
      <trkpt lat="48.30636" lon="2.58736">
        <ele>460.2</ele>
        <time>2022-02-06T11:09:32Z</time>
      </trkpt>
      <trkpt lat="48.30642" lon="2.58729">
        <ele>459.2</ele>
        <time>2022-02-06T11:09:36Z</time>
      </trkpt>
      <trkpt lat="48.30646" lon="2.58725">
        <ele>459.2</ele>
        <time>2022-02-06T11:09:40Z</time>
      </trkpt>
      <trkpt lat="48.3065" lon="2.58719">
        <ele>459.2</ele>
        <time>2022-02-06T11:09:44Z</time>
      </trkpt>
      <trkpt lat="48.30655" lon="2.58711">
        <ele>459.6</ele>
        <time>2022-02-06T11:09:48Z</time>
      </trkpt>
      <trkpt lat="48.30659" lon="2.58704">
        <ele>460</ele>
        <time>2022-02-06T11:09:52Z</time>
      </trkpt>
      <trkpt lat="48.30662" lon="2.58695">
        <ele>460.2</ele>
        <time>2022-02-06T11:09:56Z</time>
      </trkpt>
      <trkpt lat="48.30663" lon="2.58683">
        <ele>459.6</ele>
        <time>2022-02-06T11:10:00Z</time>
      </trkpt>
      <trkpt lat="48.30667" lon="2.58671">
        <ele>460.2</ele>
        <time>2022-02-06T11:10:04Z</time>
      </trkpt>
      <trkpt lat="48.30665" lon="2.58657">
        <ele>460</ele>
        <time>2022-02-06T11:10:08Z</time>
      </trkpt>
      <trkpt lat="48.30661" lon="2.58655">
        <ele>459.6</ele>
        <time>2022-02-06T11:10:12Z</time>
      </trkpt>
      <trkpt lat="48.30655" lon="2.58653">
        <ele>458.8</ele>
        <time>2022-02-06T11:10:16Z</time>
      </trkpt>
      <trkpt lat="48.30647" lon="2.58644">
        <ele>458.8</ele>
        <time>2022-02-06T11:10:20Z</time>
      </trkpt>
      <trkpt lat="48.30642" lon="2.58634">
        <ele>458.6</ele>
        <time>2022-02-06T11:10:29Z</time>
      </trkpt>
      <trkpt lat="48.30639" lon="2.58628">
        <ele>457.6</ele>
        <time>2022-02-06T11:10:33Z</time>
      </trkpt>
      <trkpt lat="48.30633" lon="2.58622">
        <ele>457</ele>
        <time>2022-02-06T11:10:37Z</time>
      </trkpt>
      <trkpt lat="48.30619" lon="2.5862">
        <ele>456.8</ele>
        <time>2022-02-06T11:10:41Z</time>
      </trkpt>
      <trkpt lat="48.30606" lon="2.58625">
        <ele>456.2</ele>
        <time>2022-02-06T11:10:45Z</time>
      </trkpt>
      <trkpt lat="48.30598" lon="2.58626">
        <ele>456.2</ele>
        <time>2022-02-06T11:10:49Z</time>
      </trkpt>
      <trkpt lat="48.3059" lon="2.5863">
        <ele>456.2</ele>
        <time>2022-02-06T11:10:53Z</time>
      </trkpt>
      <trkpt lat="48.30587" lon="2.58641">
        <ele>456.2</ele>
        <time>2022-02-06T11:10:57Z</time>
      </trkpt>
      <trkpt lat="48.30584" lon="2.58652">
        <ele>456.2</ele>
        <time>2022-02-06T11:11:01Z</time>
      </trkpt>
      <trkpt lat="48.30575" lon="2.58664">
        <ele>456.8</ele>
        <time>2022-02-06T11:11:05Z</time>
      </trkpt>
      <trkpt lat="48.30566" lon="2.58679">
        <ele>456.4</ele>
        <time>2022-02-06T11:11:09Z</time>
      </trkpt>
      <trkpt lat="48.30561" lon="2.58697">
        <ele>456.4</ele>
        <time>2022-02-06T11:11:13Z</time>
      </trkpt>
      <trkpt lat="48.30559" lon="2.58712">
        <ele>455.4</ele>
        <time>2022-02-06T11:11:17Z</time>
      </trkpt>
      <trkpt lat="48.3055" lon="2.58723">
        <ele>456.2</ele>
        <time>2022-02-06T11:11:21Z</time>
      </trkpt>
      <trkpt lat="48.30544" lon="2.58733">
        <ele>455.8</ele>
        <time>2022-02-06T11:11:25Z</time>
      </trkpt>
      <trkpt lat="48.3054" lon="2.58743">
        <ele>456.2</ele>
        <time>2022-02-06T11:11:29Z</time>
      </trkpt>
      <trkpt lat="48.30536" lon="2.58747">
        <ele>455.8</ele>
        <time>2022-02-06T11:11:33Z</time>
      </trkpt>
      <trkpt lat="48.30533" lon="2.58756">
        <ele>455.2</ele>
        <time>2022-02-06T11:11:37Z</time>
      </trkpt>
      <trkpt lat="48.3052" lon="2.5878">
        <ele>453</ele>
        <time>2022-02-06T11:11:53Z</time>
      </trkpt>
      <trkpt lat="48.30509" lon="2.58787">
        <ele>453</ele>
        <time>2022-02-06T11:11:57Z</time>
      </trkpt>
      <trkpt lat="48.30498" lon="2.58788">
        <ele>453.4</ele>
        <time>2022-02-06T11:12:01Z</time>
      </trkpt>
      <trkpt lat="48.30502" lon="2.58776">
        <ele>453</ele>
        <time>2022-02-06T11:12:05Z</time>
      </trkpt>
      <trkpt lat="48.30506" lon="2.5876">
        <ele>453</ele>
        <time>2022-02-06T11:12:09Z</time>
      </trkpt>
      <trkpt lat="48.30508" lon="2.58739">
        <ele>452.8</ele>
        <time>2022-02-06T11:12:13Z</time>
      </trkpt>
      <trkpt lat="48.30499" lon="2.5872">
        <ele>452.4</ele>
        <time>2022-02-06T11:12:17Z</time>
      </trkpt>
      <trkpt lat="48.30487" lon="2.58713">
        <ele>452.2</ele>
        <time>2022-02-06T11:12:21Z</time>
      </trkpt>
      <trkpt lat="48.30481" lon="2.58709">
        <ele>452.8</ele>
        <time>2022-02-06T11:12:25Z</time>
      </trkpt>
      <trkpt lat="48.30487" lon="2.587">
        <ele>452.6</ele>
        <time>2022-02-06T11:12:29Z</time>
      </trkpt>
      <trkpt lat="48.3049" lon="2.58688">
        <ele>452.8</ele>
        <time>2022-02-06T11:12:33Z</time>
      </trkpt>
      <trkpt lat="48.3049" lon="2.58675">
        <ele>453.2</ele>
        <time>2022-02-06T11:12:37Z</time>
      </trkpt>
      <trkpt lat="48.30489" lon="2.58663">
        <ele>453.8</ele>
        <time>2022-02-06T11:12:41Z</time>
      </trkpt>
      <trkpt lat="48.3049" lon="2.58648">
        <ele>453.2</ele>
        <time>2022-02-06T11:12:45Z</time>
      </trkpt>
      <trkpt lat="48.30496" lon="2.58636">
        <ele>452.8</ele>
        <time>2022-02-06T11:12:49Z</time>
      </trkpt>
      <trkpt lat="48.30497" lon="2.5862">
        <ele>453.2</ele>
        <time>2022-02-06T11:12:53Z</time>
      </trkpt>
      <trkpt lat="48.30502" lon="2.58606">
        <ele>452.6</ele>
        <time>2022-02-06T11:12:57Z</time>
      </trkpt>
      <trkpt lat="48.30506" lon="2.58595">
        <ele>453.6</ele>
        <time>2022-02-06T11:13:01Z</time>
      </trkpt>
      <trkpt lat="48.3051" lon="2.58601">
        <ele>454</ele>
        <time>2022-02-06T11:13:05Z</time>
      </trkpt>
      <trkpt lat="48.30516" lon="2.58597">
        <ele>454.6</ele>
        <time>2022-02-06T11:13:09Z</time>
      </trkpt>
      <trkpt lat="48.30523" lon="2.58591">
        <ele>453.8</ele>
        <time>2022-02-06T11:13:13Z</time>
      </trkpt>
      <trkpt lat="48.30529" lon="2.58588">
        <ele>454</ele>
        <time>2022-02-06T11:13:17Z</time>
      </trkpt>
      <trkpt lat="48.30535" lon="2.58575">
        <ele>454.4</ele>
        <time>2022-02-06T11:13:21Z</time>
      </trkpt>
      <trkpt lat="48.30542" lon="2.58562">
        <ele>454.6</ele>
        <time>2022-02-06T11:13:25Z</time>
      </trkpt>
      <trkpt lat="48.30551" lon="2.58548">
        <ele>454.6</ele>
        <time>2022-02-06T11:13:29Z</time>
      </trkpt>
      <trkpt lat="48.30555" lon="2.58535">
        <ele>455</ele>
        <time>2022-02-06T11:13:33Z</time>
      </trkpt>
      <trkpt lat="48.30562" lon="2.58521">
        <ele>455</ele>
        <time>2022-02-06T11:13:37Z</time>
      </trkpt>
      <trkpt lat="48.30566" lon="2.58516">
        <ele>454.6</ele>
        <time>2022-02-06T11:13:41Z</time>
      </trkpt>
      <trkpt lat="48.30567" lon="2.58506">
        <ele>455.4</ele>
        <time>2022-02-06T11:13:45Z</time>
      </trkpt>
      <trkpt lat="48.30571" lon="2.58494">
        <ele>455.6</ele>
        <time>2022-02-06T11:13:49Z</time>
      </trkpt>
      <trkpt lat="48.30575" lon="2.58482">
        <ele>455.4</ele>
        <time>2022-02-06T11:13:53Z</time>
      </trkpt>
      <trkpt lat="48.30574" lon="2.58473">
        <ele>455.8</ele>
        <time>2022-02-06T11:13:57Z</time>
      </trkpt>
      <trkpt lat="48.30568" lon="2.58469">
        <ele>455.2</ele>
        <time>2022-02-06T11:14:01Z</time>
      </trkpt>
      <trkpt lat="48.30561" lon="2.5846">
        <ele>455.4</ele>
        <time>2022-02-06T11:14:05Z</time>
      </trkpt>
      <trkpt lat="48.30557" lon="2.58454">
        <ele>456.4</ele>
        <time>2022-02-06T11:14:09Z</time>
      </trkpt>
      <trkpt lat="48.30551" lon="2.58455">
        <ele>455.2</ele>
        <time>2022-02-06T11:14:13Z</time>
      </trkpt>
      <trkpt lat="48.30548" lon="2.58464">
        <ele>455.8</ele>
        <time>2022-02-06T11:14:17Z</time>
      </trkpt>
      <trkpt lat="48.30544" lon="2.58481">
        <ele>456.2</ele>
        <time>2022-02-06T11:14:21Z</time>
      </trkpt>
      <trkpt lat="48.30535" lon="2.58495">
        <ele>455.8</ele>
        <time>2022-02-06T11:14:25Z</time>
      </trkpt>
      <trkpt lat="48.30524" lon="2.58503">
        <ele>455.4</ele>
        <time>2022-02-06T11:14:29Z</time>
      </trkpt>
      <trkpt lat="48.30512" lon="2.58507">
        <ele>455.4</ele>
        <time>2022-02-06T11:14:33Z</time>
      </trkpt>
      <trkpt lat="48.30501" lon="2.58513">
        <ele>455.8</ele>
        <time>2022-02-06T11:14:37Z</time>
      </trkpt>
      <trkpt lat="48.305" lon="2.58525">
        <ele>455.2</ele>
        <time>2022-02-06T11:14:41Z</time>
      </trkpt>
      <trkpt lat="48.30491" lon="2.58538">
        <ele>455.4</ele>
        <time>2022-02-06T11:14:45Z</time>
      </trkpt>
      <trkpt lat="48.30488" lon="2.58547">
        <ele>455.2</ele>
        <time>2022-02-06T11:14:49Z</time>
      </trkpt>
      <trkpt lat="48.30476" lon="2.58556">
        <ele>455</ele>
        <time>2022-02-06T11:14:53Z</time>
      </trkpt>
      <trkpt lat="48.3047" lon="2.5856">
        <ele>455</ele>
        <time>2022-02-06T11:14:57Z</time>
      </trkpt>
      <trkpt lat="48.3046" lon="2.58578">
        <ele>454.6</ele>
        <time>2022-02-06T11:15:01Z</time>
      </trkpt>
      <trkpt lat="48.30448" lon="2.58583">
        <ele>454.4</ele>
        <time>2022-02-06T11:15:05Z</time>
      </trkpt>
      <trkpt lat="48.30434" lon="2.58596">
        <ele>454.4</ele>
        <time>2022-02-06T11:15:09Z</time>
      </trkpt>
      <trkpt lat="48.30427" lon="2.58617">
        <ele>453.8</ele>
        <time>2022-02-06T11:15:13Z</time>
      </trkpt>
      <trkpt lat="48.30417" lon="2.58645">
        <ele>453.4</ele>
        <time>2022-02-06T11:15:17Z</time>
      </trkpt>
      <trkpt lat="48.30407" lon="2.58664">
        <ele>453.2</ele>
        <time>2022-02-06T11:15:21Z</time>
      </trkpt>
      <trkpt lat="48.30395" lon="2.58682">
        <ele>452.6</ele>
        <time>2022-02-06T11:15:25Z</time>
      </trkpt>
      <trkpt lat="48.30382" lon="2.58681">
        <ele>452.2</ele>
        <time>2022-02-06T11:15:29Z</time>
      </trkpt>
      <trkpt lat="48.30373" lon="2.58668">
        <ele>452.2</ele>
        <time>2022-02-06T11:15:33Z</time>
      </trkpt>
      <trkpt lat="48.30364" lon="2.58651">
        <ele>453.2</ele>
        <time>2022-02-06T11:15:37Z</time>
      </trkpt>
      <trkpt lat="48.30361" lon="2.58633">
        <ele>452.6</ele>
        <time>2022-02-06T11:15:41Z</time>
      </trkpt>
      <trkpt lat="48.30355" lon="2.58614">
        <ele>452.6</ele>
        <time>2022-02-06T11:15:45Z</time>
      </trkpt>
      <trkpt lat="48.30348" lon="2.58593">
        <ele>452.8</ele>
        <time>2022-02-06T11:15:49Z</time>
      </trkpt>
      <trkpt lat="48.30345" lon="2.58576">
        <ele>452</ele>
        <time>2022-02-06T11:15:53Z</time>
      </trkpt>
      <trkpt lat="48.3034" lon="2.5856">
        <ele>451.8</ele>
        <time>2022-02-06T11:15:57Z</time>
      </trkpt>
      <trkpt lat="48.3033" lon="2.58546">
        <ele>452</ele>
        <time>2022-02-06T11:16:01Z</time>
      </trkpt>
      <trkpt lat="48.30323" lon="2.5853">
        <ele>452.4</ele>
        <time>2022-02-06T11:16:05Z</time>
      </trkpt>
      <trkpt lat="48.30319" lon="2.58513">
        <ele>452.4</ele>
        <time>2022-02-06T11:16:09Z</time>
      </trkpt>
      <trkpt lat="48.30313" lon="2.58499">
        <ele>452.4</ele>
        <time>2022-02-06T11:16:13Z</time>
      </trkpt>
      <trkpt lat="48.30306" lon="2.58482">
        <ele>452.6</ele>
        <time>2022-02-06T11:16:17Z</time>
      </trkpt>
      <trkpt lat="48.30297" lon="2.58468">
        <ele>452</ele>
        <time>2022-02-06T11:16:21Z</time>
      </trkpt>
      <trkpt lat="48.30288" lon="2.58454">
        <ele>452</ele>
        <time>2022-02-06T11:16:25Z</time>
      </trkpt>
      <trkpt lat="48.3028" lon="2.58436">
        <ele>452.4</ele>
        <time>2022-02-06T11:16:29Z</time>
      </trkpt>
      <trkpt lat="48.30272" lon="2.5842">
        <ele>451.6</ele>
        <time>2022-02-06T11:16:33Z</time>
      </trkpt>
      <trkpt lat="48.30265" lon="2.58401">
        <ele>451.6</ele>
        <time>2022-02-06T11:16:37Z</time>
      </trkpt>
      <trkpt lat="48.30262" lon="2.58386">
        <ele>451.8</ele>
        <time>2022-02-06T11:16:41Z</time>
      </trkpt>
      <trkpt lat="48.30264" lon="2.58378">
        <ele>451.8</ele>
        <time>2022-02-06T11:16:45Z</time>
      </trkpt>
      <trkpt lat="48.3027" lon="2.58377">
        <ele>452.4</ele>
        <time>2022-02-06T11:16:49Z</time>
      </trkpt>
      <trkpt lat="48.30273" lon="2.58378">
        <ele>452</ele>
        <time>2022-02-06T11:16:53Z</time>
      </trkpt>
      <trkpt lat="48.30278" lon="2.58381">
        <ele>451.8</ele>
        <time>2022-02-06T11:16:57Z</time>
      </trkpt>
      <trkpt lat="48.30284" lon="2.58381">
        <ele>451.8</ele>
        <time>2022-02-06T11:17:01Z</time>
      </trkpt>
      <trkpt lat="48.3029" lon="2.58383">
        <ele>452.2</ele>
        <time>2022-02-06T11:17:05Z</time>
      </trkpt>
      <trkpt lat="48.30295" lon="2.58384">
        <ele>451.8</ele>
        <time>2022-02-06T11:17:09Z</time>
      </trkpt>
      <trkpt lat="48.30301" lon="2.58384">
        <ele>452.8</ele>
        <time>2022-02-06T11:17:13Z</time>
      </trkpt>
      <trkpt lat="48.30305" lon="2.58385">
        <ele>452.8</ele>
        <time>2022-02-06T11:17:17Z</time>
      </trkpt>
      <trkpt lat="48.30309" lon="2.58386">
        <ele>452.4</ele>
        <time>2022-02-06T11:17:21Z</time>
      </trkpt>
      <trkpt lat="48.30314" lon="2.58392">
        <ele>452.4</ele>
        <time>2022-02-06T11:17:25Z</time>
      </trkpt>
      <trkpt lat="48.3032" lon="2.58399">
        <ele>452.4</ele>
        <time>2022-02-06T11:17:29Z</time>
      </trkpt>
      <trkpt lat="48.30326" lon="2.58406">
        <ele>452.8</ele>
        <time>2022-02-06T11:17:33Z</time>
      </trkpt>
      <trkpt lat="48.30332" lon="2.58412">
        <ele>452.4</ele>
        <time>2022-02-06T11:17:37Z</time>
      </trkpt>
      <trkpt lat="48.30339" lon="2.58418">
        <ele>452</ele>
        <time>2022-02-06T11:17:41Z</time>
      </trkpt>
      <trkpt lat="48.30346" lon="2.58422">
        <ele>453.2</ele>
        <time>2022-02-06T11:17:45Z</time>
      </trkpt>
      <trkpt lat="48.30351" lon="2.58429">
        <ele>453</ele>
        <time>2022-02-06T11:17:49Z</time>
      </trkpt>
      <trkpt lat="48.30358" lon="2.58436">
        <ele>452.6</ele>
        <time>2022-02-06T11:17:53Z</time>
      </trkpt>
      <trkpt lat="48.30364" lon="2.5844">
        <ele>452.6</ele>
        <time>2022-02-06T11:17:57Z</time>
      </trkpt>
      <trkpt lat="48.3037" lon="2.58448">
        <ele>453.2</ele>
        <time>2022-02-06T11:18:01Z</time>
      </trkpt>
      <trkpt lat="48.30378" lon="2.58461">
        <ele>452.8</ele>
        <time>2022-02-06T11:18:05Z</time>
      </trkpt>
      <trkpt lat="48.30391" lon="2.58471">
        <ele>453</ele>
        <time>2022-02-06T11:18:09Z</time>
      </trkpt>
      <trkpt lat="48.30401" lon="2.58479">
        <ele>452.8</ele>
        <time>2022-02-06T11:18:13Z</time>
      </trkpt>
      <trkpt lat="48.30408" lon="2.58491">
        <ele>452.4</ele>
        <time>2022-02-06T11:18:17Z</time>
      </trkpt>
      <trkpt lat="48.30418" lon="2.58491">
        <ele>453</ele>
        <time>2022-02-06T11:18:21Z</time>
      </trkpt>
      <trkpt lat="48.30418" lon="2.58484">
        <ele>452.8</ele>
        <time>2022-02-06T11:18:25Z</time>
      </trkpt>
      <trkpt lat="48.30424" lon="2.58477">
        <ele>453.4</ele>
        <time>2022-02-06T11:18:29Z</time>
      </trkpt>
      <trkpt lat="48.30431" lon="2.58474">
        <ele>453.4</ele>
        <time>2022-02-06T11:18:33Z</time>
      </trkpt>
      <trkpt lat="48.30438" lon="2.58476">
        <ele>452.8</ele>
        <time>2022-02-06T11:18:37Z</time>
      </trkpt>
      <trkpt lat="48.30448" lon="2.58477">
        <ele>453.4</ele>
        <time>2022-02-06T11:18:41Z</time>
      </trkpt>
      <trkpt lat="48.30455" lon="2.58478">
        <ele>454</ele>
        <time>2022-02-06T11:18:45Z</time>
      </trkpt>
      <trkpt lat="48.30462" lon="2.58472">
        <ele>454.6</ele>
        <time>2022-02-06T11:18:49Z</time>
      </trkpt>
      <trkpt lat="48.30466" lon="2.58463">
        <ele>454.4</ele>
        <time>2022-02-06T11:18:53Z</time>
      </trkpt>
      <trkpt lat="48.30465" lon="2.58451">
        <ele>454</ele>
        <time>2022-02-06T11:18:57Z</time>
      </trkpt>
      <trkpt lat="48.30466" lon="2.58442">
        <ele>454</ele>
        <time>2022-02-06T11:19:01Z</time>
      </trkpt>
      <trkpt lat="48.30463" lon="2.58434">
        <ele>454.4</ele>
        <time>2022-02-06T11:19:05Z</time>
      </trkpt>
      <trkpt lat="48.30456" lon="2.58425">
        <ele>454</ele>
        <time>2022-02-06T11:19:09Z</time>
      </trkpt>
      <trkpt lat="48.30448" lon="2.5842">
        <ele>454.8</ele>
        <time>2022-02-06T11:19:13Z</time>
      </trkpt>
      <trkpt lat="48.3044" lon="2.58414">
        <ele>453.8</ele>
        <time>2022-02-06T11:19:17Z</time>
      </trkpt>
      <trkpt lat="48.30432" lon="2.58405">
        <ele>455.2</ele>
        <time>2022-02-06T11:19:21Z</time>
      </trkpt>
      <trkpt lat="48.30425" lon="2.58399">
        <ele>453.6</ele>
        <time>2022-02-06T11:19:25Z</time>
      </trkpt>
      <trkpt lat="48.30418" lon="2.58394">
        <ele>454</ele>
        <time>2022-02-06T11:19:29Z</time>
      </trkpt>
      <trkpt lat="48.30411" lon="2.58385">
        <ele>454</ele>
        <time>2022-02-06T11:19:33Z</time>
      </trkpt>
      <trkpt lat="48.30407" lon="2.58375">
        <ele>454.4</ele>
        <time>2022-02-06T11:19:37Z</time>
      </trkpt>
      <trkpt lat="48.30404" lon="2.58365">
        <ele>454.4</ele>
        <time>2022-02-06T11:19:41Z</time>
      </trkpt>
      <trkpt lat="48.30405" lon="2.58358">
        <ele>454.4</ele>
        <time>2022-02-06T11:19:45Z</time>
      </trkpt>
      <trkpt lat="48.30405" lon="2.58352">
        <ele>455</ele>
        <time>2022-02-06T11:19:49Z</time>
      </trkpt>
      <trkpt lat="48.30401" lon="2.58347">
        <ele>455</ele>
        <time>2022-02-06T11:19:53Z</time>
      </trkpt>
      <trkpt lat="48.30397" lon="2.58335">
        <ele>454.6</ele>
        <time>2022-02-06T11:19:57Z</time>
      </trkpt>
      <trkpt lat="48.30387" lon="2.58323">
        <ele>453.8</ele>
        <time>2022-02-06T11:20:01Z</time>
      </trkpt>
      <trkpt lat="48.30377" lon="2.58321">
        <ele>454.4</ele>
        <time>2022-02-06T11:20:05Z</time>
      </trkpt>
      <trkpt lat="48.30368" lon="2.58317">
        <ele>453.4</ele>
        <time>2022-02-06T11:20:09Z</time>
      </trkpt>
      <trkpt lat="48.30361" lon="2.58305">
        <ele>454.4</ele>
        <time>2022-02-06T11:20:13Z</time>
      </trkpt>
      <trkpt lat="48.30355" lon="2.58293">
        <ele>454</ele>
        <time>2022-02-06T11:20:17Z</time>
      </trkpt>
      <trkpt lat="48.30348" lon="2.58283">
        <ele>455</ele>
        <time>2022-02-06T11:20:21Z</time>
      </trkpt>
      <trkpt lat="48.30345" lon="2.58274">
        <ele>454.4</ele>
        <time>2022-02-06T11:20:25Z</time>
      </trkpt>
      <trkpt lat="48.30336" lon="2.58268">
        <ele>454.8</ele>
        <time>2022-02-06T11:20:29Z</time>
      </trkpt>
      <trkpt lat="48.30321" lon="2.58265">
        <ele>454.4</ele>
        <time>2022-02-06T11:20:33Z</time>
      </trkpt>
      <trkpt lat="48.3031" lon="2.58254">
        <ele>453.4</ele>
        <time>2022-02-06T11:20:37Z</time>
      </trkpt>
      <trkpt lat="48.30304" lon="2.58245">
        <ele>454</ele>
        <time>2022-02-06T11:20:41Z</time>
      </trkpt>
      <trkpt lat="48.30297" lon="2.58238">
        <ele>454</ele>
        <time>2022-02-06T11:20:45Z</time>
      </trkpt>
      <trkpt lat="48.30289" lon="2.58225">
        <ele>454.2</ele>
        <time>2022-02-06T11:20:49Z</time>
      </trkpt>
      <trkpt lat="48.30277" lon="2.58216">
        <ele>454.6</ele>
        <time>2022-02-06T11:20:53Z</time>
      </trkpt>
      <trkpt lat="48.30264" lon="2.58205">
        <ele>454.4</ele>
        <time>2022-02-06T11:20:57Z</time>
      </trkpt>
      <trkpt lat="48.30252" lon="2.58205">
        <ele>454.2</ele>
        <time>2022-02-06T11:21:01Z</time>
      </trkpt>
      <trkpt lat="48.30239" lon="2.582">
        <ele>453.4</ele>
        <time>2022-02-06T11:21:05Z</time>
      </trkpt>
      <trkpt lat="48.30235" lon="2.58187">
        <ele>454</ele>
        <time>2022-02-06T11:21:09Z</time>
      </trkpt>
      <trkpt lat="48.3023" lon="2.58172">
        <ele>453.8</ele>
        <time>2022-02-06T11:21:13Z</time>
      </trkpt>
      <trkpt lat="48.30223" lon="2.58161">
        <ele>453</ele>
        <time>2022-02-06T11:21:17Z</time>
      </trkpt>
      <trkpt lat="48.30221" lon="2.58142">
        <ele>454.4</ele>
        <time>2022-02-06T11:21:21Z</time>
      </trkpt>
      <trkpt lat="48.3022" lon="2.58126">
        <ele>454.4</ele>
        <time>2022-02-06T11:21:25Z</time>
      </trkpt>
      <trkpt lat="48.30221" lon="2.58117">
        <ele>454.6</ele>
        <time>2022-02-06T11:21:29Z</time>
      </trkpt>
      <trkpt lat="48.3022" lon="2.58108">
        <ele>454.8</ele>
        <time>2022-02-06T11:21:33Z</time>
      </trkpt>
      <trkpt lat="48.30221" lon="2.58096">
        <ele>454.8</ele>
        <time>2022-02-06T11:21:37Z</time>
      </trkpt>
      <trkpt lat="48.30221" lon="2.58086">
        <ele>455</ele>
        <time>2022-02-06T11:21:41Z</time>
      </trkpt>
      <trkpt lat="48.30219" lon="2.58078">
        <ele>454.6</ele>
        <time>2022-02-06T11:21:45Z</time>
      </trkpt>
      <trkpt lat="48.30218" lon="2.58065">
        <ele>454.8</ele>
        <time>2022-02-06T11:21:49Z</time>
      </trkpt>
      <trkpt lat="48.30215" lon="2.58054">
        <ele>454.8</ele>
        <time>2022-02-06T11:21:53Z</time>
      </trkpt>
      <trkpt lat="48.30211" lon="2.58041">
        <ele>456.4</ele>
        <time>2022-02-06T11:21:57Z</time>
      </trkpt>
      <trkpt lat="48.3021" lon="2.5803">
        <ele>455.2</ele>
        <time>2022-02-06T11:22:01Z</time>
      </trkpt>
      <trkpt lat="48.30208" lon="2.58016">
        <ele>455.2</ele>
        <time>2022-02-06T11:22:05Z</time>
      </trkpt>
      <trkpt lat="48.30205" lon="2.58004">
        <ele>455.4</ele>
        <time>2022-02-06T11:22:09Z</time>
      </trkpt>
      <trkpt lat="48.30203" lon="2.57993">
        <ele>455.8</ele>
        <time>2022-02-06T11:22:13Z</time>
      </trkpt>
      <trkpt lat="48.30205" lon="2.57979">
        <ele>455.4</ele>
        <time>2022-02-06T11:22:17Z</time>
      </trkpt>
      <trkpt lat="48.30201" lon="2.57967">
        <ele>455.2</ele>
        <time>2022-02-06T11:22:21Z</time>
      </trkpt>
      <trkpt lat="48.30196" lon="2.57951">
        <ele>455.4</ele>
        <time>2022-02-06T11:22:25Z</time>
      </trkpt>
      <trkpt lat="48.3019" lon="2.57933">
        <ele>456</ele>
        <time>2022-02-06T11:22:29Z</time>
      </trkpt>
      <trkpt lat="48.30186" lon="2.57919">
        <ele>455.8</ele>
        <time>2022-02-06T11:22:33Z</time>
      </trkpt>
      <trkpt lat="48.30181" lon="2.57913">
        <ele>455.2</ele>
        <time>2022-02-06T11:22:37Z</time>
      </trkpt>
      <trkpt lat="48.30173" lon="2.57907">
        <ele>456.6</ele>
        <time>2022-02-06T11:22:41Z</time>
      </trkpt>
      <trkpt lat="48.30167" lon="2.57897">
        <ele>456.2</ele>
        <time>2022-02-06T11:22:45Z</time>
      </trkpt>
      <trkpt lat="48.3016" lon="2.57896">
        <ele>456.2</ele>
        <time>2022-02-06T11:22:49Z</time>
      </trkpt>
      <trkpt lat="48.30158" lon="2.57899">
        <ele>455.2</ele>
        <time>2022-02-06T11:22:53Z</time>
      </trkpt>
      <trkpt lat="48.30158" lon="2.57903">
        <ele>454.6</ele>
        <time>2022-02-06T11:23:12Z</time>
      </trkpt>
      <trkpt lat="48.30161" lon="2.57911">
        <ele>454</ele>
        <time>2022-02-06T11:23:16Z</time>
      </trkpt>
      <trkpt lat="48.30154" lon="2.57921">
        <ele>453.8</ele>
        <time>2022-02-06T11:23:20Z</time>
      </trkpt>
      <trkpt lat="48.30148" lon="2.57938">
        <ele>453</ele>
        <time>2022-02-06T11:23:24Z</time>
      </trkpt>
      <trkpt lat="48.30135" lon="2.57951">
        <ele>452</ele>
        <time>2022-02-06T11:23:28Z</time>
      </trkpt>
      <trkpt lat="48.30125" lon="2.57972">
        <ele>452</ele>
        <time>2022-02-06T11:23:32Z</time>
      </trkpt>
      <trkpt lat="48.30127" lon="2.57992">
        <ele>451.6</ele>
        <time>2022-02-06T11:23:36Z</time>
      </trkpt>
      <trkpt lat="48.30125" lon="2.58014">
        <ele>451.6</ele>
        <time>2022-02-06T11:23:40Z</time>
      </trkpt>
      <trkpt lat="48.30118" lon="2.58034">
        <ele>451.4</ele>
        <time>2022-02-06T11:23:44Z</time>
      </trkpt>
      <trkpt lat="48.30111" lon="2.58064">
        <ele>451</ele>
        <time>2022-02-06T11:23:48Z</time>
      </trkpt>
      <trkpt lat="48.30097" lon="2.58089">
        <ele>451</ele>
        <time>2022-02-06T11:23:52Z</time>
      </trkpt>
      <trkpt lat="48.30084" lon="2.58105">
        <ele>450.8</ele>
        <time>2022-02-06T11:23:56Z</time>
      </trkpt>
      <trkpt lat="48.30077" lon="2.58121">
        <ele>450.6</ele>
        <time>2022-02-06T11:24:00Z</time>
      </trkpt>
      <trkpt lat="48.30069" lon="2.58127">
        <ele>450.6</ele>
        <time>2022-02-06T11:24:04Z</time>
      </trkpt>
      <trkpt lat="48.3006" lon="2.58133">
        <ele>450.8</ele>
        <time>2022-02-06T11:24:08Z</time>
      </trkpt>
      <trkpt lat="48.3005" lon="2.58141">
        <ele>450.8</ele>
        <time>2022-02-06T11:24:12Z</time>
      </trkpt>
      <trkpt lat="48.30048" lon="2.58162">
        <ele>450.2</ele>
        <time>2022-02-06T11:24:16Z</time>
      </trkpt>
      <trkpt lat="48.30042" lon="2.58181">
        <ele>450.2</ele>
        <time>2022-02-06T11:24:20Z</time>
      </trkpt>
      <trkpt lat="48.30038" lon="2.58185">
        <ele>450.2</ele>
        <time>2022-02-06T11:24:24Z</time>
      </trkpt>
      <trkpt lat="48.30034" lon="2.58196">
        <ele>449.6</ele>
        <time>2022-02-06T11:24:28Z</time>
      </trkpt>
      <trkpt lat="48.30025" lon="2.58213">
        <ele>450</ele>
        <time>2022-02-06T11:24:32Z</time>
      </trkpt>
      <trkpt lat="48.30015" lon="2.58236">
        <ele>449.6</ele>
        <time>2022-02-06T11:24:36Z</time>
      </trkpt>
      <trkpt lat="48.29999" lon="2.58252">
        <ele>450.4</ele>
        <time>2022-02-06T11:24:40Z</time>
      </trkpt>
      <trkpt lat="48.29983" lon="2.58277">
        <ele>448.8</ele>
        <time>2022-02-06T11:24:44Z</time>
      </trkpt>
      <trkpt lat="48.29972" lon="2.58303">
        <ele>448.8</ele>
        <time>2022-02-06T11:24:48Z</time>
      </trkpt>
      <trkpt lat="48.29955" lon="2.5831">
        <ele>449</ele>
        <time>2022-02-06T11:24:52Z</time>
      </trkpt>
      <trkpt lat="48.29945" lon="2.58303">
        <ele>449.2</ele>
        <time>2022-02-06T11:24:56Z</time>
      </trkpt>
      <trkpt lat="48.29942" lon="2.58291">
        <ele>449</ele>
        <time>2022-02-06T11:25:00Z</time>
      </trkpt>
      <trkpt lat="48.29938" lon="2.58281">
        <ele>449.6</ele>
        <time>2022-02-06T11:25:04Z</time>
      </trkpt>
      <trkpt lat="48.29935" lon="2.5827">
        <ele>449.2</ele>
        <time>2022-02-06T11:25:08Z</time>
      </trkpt>
      <trkpt lat="48.29933" lon="2.5826">
        <ele>449.4</ele>
        <time>2022-02-06T11:25:12Z</time>
      </trkpt>
      <trkpt lat="48.29932" lon="2.58248">
        <ele>449</ele>
        <time>2022-02-06T11:25:16Z</time>
      </trkpt>
      <trkpt lat="48.29928" lon="2.58234">
        <ele>449.4</ele>
        <time>2022-02-06T11:25:20Z</time>
      </trkpt>
      <trkpt lat="48.29922" lon="2.58216">
        <ele>449.8</ele>
        <time>2022-02-06T11:25:24Z</time>
      </trkpt>
      <trkpt lat="48.29916" lon="2.58199">
        <ele>449.4</ele>
        <time>2022-02-06T11:25:28Z</time>
      </trkpt>
      <trkpt lat="48.29911" lon="2.58184">
        <ele>451.8</ele>
        <time>2022-02-06T11:25:32Z</time>
      </trkpt>
      <trkpt lat="48.29908" lon="2.58173">
        <ele>448.4</ele>
        <time>2022-02-06T11:25:36Z</time>
      </trkpt>
      <trkpt lat="48.29905" lon="2.58162">
        <ele>448.8</ele>
        <time>2022-02-06T11:25:40Z</time>
      </trkpt>
      <trkpt lat="48.29903" lon="2.58152">
        <ele>449</ele>
        <time>2022-02-06T11:25:44Z</time>
      </trkpt>
      <trkpt lat="48.29902" lon="2.58143">
        <ele>449.2</ele>
        <time>2022-02-06T11:25:48Z</time>
      </trkpt>
      <trkpt lat="48.29901" lon="2.58135">
        <ele>449.4</ele>
        <time>2022-02-06T11:25:52Z</time>
      </trkpt>
      <trkpt lat="48.29899" lon="2.58126">
        <ele>449.6</ele>
        <time>2022-02-06T11:25:56Z</time>
      </trkpt>
      <trkpt lat="48.29895" lon="2.58112">
        <ele>450.2</ele>
        <time>2022-02-06T11:26:00Z</time>
      </trkpt>
      <trkpt lat="48.29891" lon="2.58098">
        <ele>450</ele>
        <time>2022-02-06T11:26:04Z</time>
      </trkpt>
      <trkpt lat="48.29887" lon="2.58083">
        <ele>450</ele>
        <time>2022-02-06T11:26:08Z</time>
      </trkpt>
      <trkpt lat="48.29884" lon="2.58069">
        <ele>450.2</ele>
        <time>2022-02-06T11:26:12Z</time>
      </trkpt>
      <trkpt lat="48.29879" lon="2.58054">
        <ele>450.2</ele>
        <time>2022-02-06T11:26:16Z</time>
      </trkpt>
      <trkpt lat="48.29873" lon="2.58039">
        <ele>450</ele>
        <time>2022-02-06T11:26:20Z</time>
      </trkpt>
      <trkpt lat="48.29872" lon="2.58026">
        <ele>450.2</ele>
        <time>2022-02-06T11:26:24Z</time>
      </trkpt>
      <trkpt lat="48.29873" lon="2.58014">
        <ele>450.4</ele>
        <time>2022-02-06T11:26:28Z</time>
      </trkpt>
      <trkpt lat="48.29874" lon="2.58004">
        <ele>450.4</ele>
        <time>2022-02-06T11:26:32Z</time>
      </trkpt>
      <trkpt lat="48.29875" lon="2.57995">
        <ele>450.6</ele>
        <time>2022-02-06T11:26:36Z</time>
      </trkpt>
      <trkpt lat="48.29877" lon="2.57988">
        <ele>450.6</ele>
        <time>2022-02-06T11:26:40Z</time>
      </trkpt>
      <trkpt lat="48.29878" lon="2.5798">
        <ele>451</ele>
        <time>2022-02-06T11:26:44Z</time>
      </trkpt>
      <trkpt lat="48.2988" lon="2.57971">
        <ele>451</ele>
        <time>2022-02-06T11:26:48Z</time>
      </trkpt>
      <trkpt lat="48.29883" lon="2.57963">
        <ele>450.8</ele>
        <time>2022-02-06T11:26:52Z</time>
      </trkpt>
      <trkpt lat="48.29885" lon="2.57954">
        <ele>451</ele>
        <time>2022-02-06T11:26:56Z</time>
      </trkpt>
      <trkpt lat="48.29888" lon="2.57946">
        <ele>451.2</ele>
        <time>2022-02-06T11:27:00Z</time>
      </trkpt>
      <trkpt lat="48.29889" lon="2.57935">
        <ele>451</ele>
        <time>2022-02-06T11:27:04Z</time>
      </trkpt>
      <trkpt lat="48.29891" lon="2.57926">
        <ele>450.6</ele>
        <time>2022-02-06T11:27:08Z</time>
      </trkpt>
      <trkpt lat="48.29895" lon="2.57924">
        <ele>450.4</ele>
        <time>2022-02-06T11:27:12Z</time>
      </trkpt>
      <trkpt lat="48.29898" lon="2.57932">
        <ele>450.4</ele>
        <time>2022-02-06T11:27:16Z</time>
      </trkpt>
      <trkpt lat="48.29901" lon="2.57941">
        <ele>450.2</ele>
        <time>2022-02-06T11:27:20Z</time>
      </trkpt>
      <trkpt lat="48.29918" lon="2.57973">
        <ele>449.8</ele>
        <time>2022-02-06T11:27:44Z</time>
      </trkpt>
      <trkpt lat="48.29922" lon="2.57974">
        <ele>449.6</ele>
        <time>2022-02-06T11:27:48Z</time>
      </trkpt>
      <trkpt lat="48.29925" lon="2.57979">
        <ele>449.6</ele>
        <time>2022-02-06T11:27:52Z</time>
      </trkpt>
      <trkpt lat="48.29929" lon="2.57986">
        <ele>450.2</ele>
        <time>2022-02-06T11:27:56Z</time>
      </trkpt>
      <trkpt lat="48.29935" lon="2.57988">
        <ele>450</ele>
        <time>2022-02-06T11:28:00Z</time>
      </trkpt>
      <trkpt lat="48.29941" lon="2.57989">
        <ele>449.6</ele>
        <time>2022-02-06T11:28:04Z</time>
      </trkpt>
      <trkpt lat="48.29946" lon="2.57996">
        <ele>450</ele>
        <time>2022-02-06T11:28:08Z</time>
      </trkpt>
      <trkpt lat="48.29949" lon="2.58004">
        <ele>449.4</ele>
        <time>2022-02-06T11:28:12Z</time>
      </trkpt>
      <trkpt lat="48.29953" lon="2.58014">
        <ele>449</ele>
        <time>2022-02-06T11:28:16Z</time>
      </trkpt>
      <trkpt lat="48.29964" lon="2.58028">
        <ele>448.6</ele>
        <time>2022-02-06T11:28:20Z</time>
      </trkpt>
      <trkpt lat="48.2997" lon="2.58038">
        <ele>448</ele>
        <time>2022-02-06T11:28:24Z</time>
      </trkpt>
      <trkpt lat="48.29976" lon="2.58049">
        <ele>446.8</ele>
        <time>2022-02-06T11:28:28Z</time>
      </trkpt>
      <trkpt lat="48.29993" lon="2.58073">
        <ele>445.4</ele>
        <time>2022-02-06T11:28:32Z</time>
      </trkpt>
      <trkpt lat="48.3" lon="2.58069">
        <ele>445.6</ele>
        <time>2022-02-06T11:28:36Z</time>
      </trkpt>
      <trkpt lat="48.30011" lon="2.58057">
        <ele>445.4</ele>
        <time>2022-02-06T11:28:40Z</time>
      </trkpt>
      <trkpt lat="48.30017" lon="2.58045">
        <ele>445.2</ele>
        <time>2022-02-06T11:28:44Z</time>
      </trkpt>
      <trkpt lat="48.30019" lon="2.58029">
        <ele>445.2</ele>
        <time>2022-02-06T11:28:48Z</time>
      </trkpt>
      <trkpt lat="48.30017" lon="2.58016">
        <ele>445.6</ele>
        <time>2022-02-06T11:28:52Z</time>
      </trkpt>
      <trkpt lat="48.30018" lon="2.58002">
        <ele>445</ele>
        <time>2022-02-06T11:28:56Z</time>
      </trkpt>
      <trkpt lat="48.30016" lon="2.57989">
        <ele>445.8</ele>
        <time>2022-02-06T11:29:00Z</time>
      </trkpt>
      <trkpt lat="48.30014" lon="2.57975">
        <ele>445.4</ele>
        <time>2022-02-06T11:29:04Z</time>
      </trkpt>
      <trkpt lat="48.30012" lon="2.5796">
        <ele>445.6</ele>
        <time>2022-02-06T11:29:08Z</time>
      </trkpt>
      <trkpt lat="48.3001" lon="2.57947">
        <ele>445.4</ele>
        <time>2022-02-06T11:29:12Z</time>
      </trkpt>
      <trkpt lat="48.30006" lon="2.57934">
        <ele>445</ele>
        <time>2022-02-06T11:29:16Z</time>
      </trkpt>
      <trkpt lat="48.30001" lon="2.57921">
        <ele>445.8</ele>
        <time>2022-02-06T11:29:20Z</time>
      </trkpt>
      <trkpt lat="48.29996" lon="2.5791">
        <ele>445.6</ele>
        <time>2022-02-06T11:29:24Z</time>
      </trkpt>
      <trkpt lat="48.29991" lon="2.57899">
        <ele>445</ele>
        <time>2022-02-06T11:29:28Z</time>
      </trkpt>
      <trkpt lat="48.29985" lon="2.57889">
        <ele>445.6</ele>
        <time>2022-02-06T11:29:32Z</time>
      </trkpt>
      <trkpt lat="48.29978" lon="2.5788">
        <ele>445.6</ele>
        <time>2022-02-06T11:29:36Z</time>
      </trkpt>
      <trkpt lat="48.29972" lon="2.5787">
        <ele>445</ele>
        <time>2022-02-06T11:29:40Z</time>
      </trkpt>
      <trkpt lat="48.29965" lon="2.57862">
        <ele>445.2</ele>
        <time>2022-02-06T11:29:44Z</time>
      </trkpt>
      <trkpt lat="48.29959" lon="2.57854">
        <ele>445.4</ele>
        <time>2022-02-06T11:29:48Z</time>
      </trkpt>
      <trkpt lat="48.29952" lon="2.57845">
        <ele>445.2</ele>
        <time>2022-02-06T11:29:52Z</time>
      </trkpt>
      <trkpt lat="48.29946" lon="2.57836">
        <ele>445</ele>
        <time>2022-02-06T11:29:56Z</time>
      </trkpt>
      <trkpt lat="48.29937" lon="2.57835">
        <ele>445.2</ele>
        <time>2022-02-06T11:30:00Z</time>
      </trkpt>
      <trkpt lat="48.29932" lon="2.57843">
        <ele>445</ele>
        <time>2022-02-06T11:30:04Z</time>
      </trkpt>
      <trkpt lat="48.29929" lon="2.57855">
        <ele>445.2</ele>
        <time>2022-02-06T11:30:08Z</time>
      </trkpt>
      <trkpt lat="48.29925" lon="2.57865">
        <ele>445.4</ele>
        <time>2022-02-06T11:30:12Z</time>
      </trkpt>
      <trkpt lat="48.29921" lon="2.57875">
        <ele>445.4</ele>
        <time>2022-02-06T11:30:16Z</time>
      </trkpt>
      <trkpt lat="48.29918" lon="2.57886">
        <ele>445.4</ele>
        <time>2022-02-06T11:30:20Z</time>
      </trkpt>
      <trkpt lat="48.29915" lon="2.57896">
        <ele>445.4</ele>
        <time>2022-02-06T11:30:24Z</time>
      </trkpt>
      <trkpt lat="48.29911" lon="2.57906">
        <ele>445.2</ele>
        <time>2022-02-06T11:30:28Z</time>
      </trkpt>
      <trkpt lat="48.29907" lon="2.57914">
        <ele>445.4</ele>
        <time>2022-02-06T11:30:32Z</time>
      </trkpt>
      <trkpt lat="48.299" lon="2.57916">
        <ele>445.8</ele>
        <time>2022-02-06T11:30:36Z</time>
      </trkpt>
      <trkpt lat="48.29893" lon="2.57911">
        <ele>445.4</ele>
        <time>2022-02-06T11:30:40Z</time>
      </trkpt>
      <trkpt lat="48.29889" lon="2.57902">
        <ele>445.6</ele>
        <time>2022-02-06T11:30:44Z</time>
      </trkpt>
      <trkpt lat="48.29888" lon="2.57894">
        <ele>445.6</ele>
        <time>2022-02-06T11:30:48Z</time>
      </trkpt>
      <trkpt lat="48.29887" lon="2.57888">
        <ele>446.2</ele>
        <time>2022-02-06T11:30:52Z</time>
      </trkpt>
      <trkpt lat="48.29888" lon="2.57882">
        <ele>446</ele>
        <time>2022-02-06T11:30:56Z</time>
      </trkpt>
      <trkpt lat="48.29889" lon="2.57875">
        <ele>446</ele>
        <time>2022-02-06T11:31:00Z</time>
      </trkpt>
      <trkpt lat="48.29891" lon="2.57868">
        <ele>445.8</ele>
        <time>2022-02-06T11:31:04Z</time>
      </trkpt>
      <trkpt lat="48.29892" lon="2.57861">
        <ele>446</ele>
        <time>2022-02-06T11:31:08Z</time>
      </trkpt>
      <trkpt lat="48.29894" lon="2.57854">
        <ele>446</ele>
        <time>2022-02-06T11:31:12Z</time>
      </trkpt>
      <trkpt lat="48.29895" lon="2.57847">
        <ele>446.4</ele>
        <time>2022-02-06T11:31:16Z</time>
      </trkpt>
      <trkpt lat="48.29894" lon="2.57841">
        <ele>446.8</ele>
        <time>2022-02-06T11:31:20Z</time>
      </trkpt>
      <trkpt lat="48.29894" lon="2.57841">
        <ele>446.4</ele>
        <time>2022-02-06T11:31:24Z</time>
      </trkpt>
      <trkpt lat="48.29893" lon="2.57835">
        <ele>446.4</ele>
        <time>2022-02-06T11:31:28Z</time>
      </trkpt>
      <trkpt lat="48.2989" lon="2.5783">
        <ele>446.8</ele>
        <time>2022-02-06T11:31:32Z</time>
      </trkpt>
      <trkpt lat="48.29885" lon="2.57825">
        <ele>447</ele>
        <time>2022-02-06T11:31:36Z</time>
      </trkpt>
      <trkpt lat="48.29879" lon="2.57821">
        <ele>446.8</ele>
        <time>2022-02-06T11:31:40Z</time>
      </trkpt>
      <trkpt lat="48.29871" lon="2.5782">
        <ele>447.2</ele>
        <time>2022-02-06T11:31:44Z</time>
      </trkpt>
      <trkpt lat="48.29863" lon="2.57815">
        <ele>447.6</ele>
        <time>2022-02-06T11:31:48Z</time>
      </trkpt>
      <trkpt lat="48.29856" lon="2.57811">
        <ele>447.8</ele>
        <time>2022-02-06T11:31:52Z</time>
      </trkpt>
      <trkpt lat="48.29851" lon="2.57815">
        <ele>447.8</ele>
        <time>2022-02-06T11:31:56Z</time>
      </trkpt>
      <trkpt lat="48.29848" lon="2.57823">
        <ele>447.2</ele>
        <time>2022-02-06T11:32:00Z</time>
      </trkpt>
      <trkpt lat="48.29845" lon="2.57831">
        <ele>447</ele>
        <time>2022-02-06T11:32:04Z</time>
      </trkpt>
      <trkpt lat="48.29844" lon="2.57838">
        <ele>446.6</ele>
        <time>2022-02-06T11:32:08Z</time>
      </trkpt>
      <trkpt lat="48.29844" lon="2.57848">
        <ele>446.4</ele>
        <time>2022-02-06T11:32:12Z</time>
      </trkpt>
      <trkpt lat="48.29844" lon="2.57858">
        <ele>445.6</ele>
        <time>2022-02-06T11:32:16Z</time>
      </trkpt>
      <trkpt lat="48.29839" lon="2.5787">
        <ele>445.2</ele>
        <time>2022-02-06T11:32:20Z</time>
      </trkpt>
      <trkpt lat="48.29834" lon="2.57882">
        <ele>445.2</ele>
        <time>2022-02-06T11:32:24Z</time>
      </trkpt>
      <trkpt lat="48.29831" lon="2.57894">
        <ele>444.8</ele>
        <time>2022-02-06T11:32:28Z</time>
      </trkpt>
      <trkpt lat="48.29826" lon="2.57913">
        <ele>444</ele>
        <time>2022-02-06T11:32:32Z</time>
      </trkpt>
      <trkpt lat="48.29823" lon="2.57931">
        <ele>444</ele>
        <time>2022-02-06T11:32:36Z</time>
      </trkpt>
      <trkpt lat="48.29817" lon="2.57939">
        <ele>444</ele>
        <time>2022-02-06T11:32:40Z</time>
      </trkpt>
      <trkpt lat="48.29812" lon="2.57935">
        <ele>444</ele>
        <time>2022-02-06T11:32:44Z</time>
      </trkpt>
      <trkpt lat="48.29807" lon="2.5793">
        <ele>444.6</ele>
        <time>2022-02-06T11:32:48Z</time>
      </trkpt>
      <trkpt lat="48.29803" lon="2.57925">
        <ele>444</ele>
        <time>2022-02-06T11:32:52Z</time>
      </trkpt>
      <trkpt lat="48.298" lon="2.57921">
        <ele>444</ele>
        <time>2022-02-06T11:32:56Z</time>
      </trkpt>
      <trkpt lat="48.29795" lon="2.57916">
        <ele>444.4</ele>
        <time>2022-02-06T11:33:00Z</time>
      </trkpt>
      <trkpt lat="48.2979" lon="2.57917">
        <ele>444.4</ele>
        <time>2022-02-06T11:33:04Z</time>
      </trkpt>
      <trkpt lat="48.29784" lon="2.57922">
        <ele>444.8</ele>
        <time>2022-02-06T11:33:08Z</time>
      </trkpt>
      <trkpt lat="48.29778" lon="2.57922">
        <ele>445.6</ele>
        <time>2022-02-06T11:33:12Z</time>
      </trkpt>
      <trkpt lat="48.29778" lon="2.57919">
        <ele>445.2</ele>
        <time>2022-02-06T11:33:16Z</time>
      </trkpt>
      <trkpt lat="48.29781" lon="2.57914">
        <ele>445.4</ele>
        <time>2022-02-06T11:33:20Z</time>
      </trkpt>
      <trkpt lat="48.29782" lon="2.57906">
        <ele>445.4</ele>
        <time>2022-02-06T11:33:24Z</time>
      </trkpt>
      <trkpt lat="48.29784" lon="2.57901">
        <ele>445.8</ele>
        <time>2022-02-06T11:33:28Z</time>
      </trkpt>
      <trkpt lat="48.29786" lon="2.57894">
        <ele>445.8</ele>
        <time>2022-02-06T11:33:32Z</time>
      </trkpt>
      <trkpt lat="48.29788" lon="2.57888">
        <ele>446.4</ele>
        <time>2022-02-06T11:33:36Z</time>
      </trkpt>
      <trkpt lat="48.29789" lon="2.57883">
        <ele>446.4</ele>
        <time>2022-02-06T11:33:40Z</time>
      </trkpt>
      <trkpt lat="48.29793" lon="2.57878">
        <ele>446.6</ele>
        <time>2022-02-06T11:33:44Z</time>
      </trkpt>
      <trkpt lat="48.29795" lon="2.57873">
        <ele>446.2</ele>
        <time>2022-02-06T11:33:48Z</time>
      </trkpt>
      <trkpt lat="48.29807" lon="2.57806">
        <ele>445.8</ele>
        <time>2022-02-06T11:35:39Z</time>
      </trkpt>
      <trkpt lat="48.29815" lon="2.578">
        <ele>446.4</ele>
        <time>2022-02-06T11:35:43Z</time>
      </trkpt>
      <trkpt lat="48.29821" lon="2.57794">
        <ele>446</ele>
        <time>2022-02-06T11:35:47Z</time>
      </trkpt>
      <trkpt lat="48.29824" lon="2.57786">
        <ele>446.2</ele>
        <time>2022-02-06T11:35:51Z</time>
      </trkpt>
      <trkpt lat="48.29821" lon="2.57779">
        <ele>446.8</ele>
        <time>2022-02-06T11:35:55Z</time>
      </trkpt>
      <trkpt lat="48.29814" lon="2.57773">
        <ele>446.6</ele>
        <time>2022-02-06T11:35:59Z</time>
      </trkpt>
      <trkpt lat="48.29806" lon="2.5777">
        <ele>447.2</ele>
        <time>2022-02-06T11:36:03Z</time>
      </trkpt>
      <trkpt lat="48.298" lon="2.57775">
        <ele>446.8</ele>
        <time>2022-02-06T11:36:07Z</time>
      </trkpt>
      <trkpt lat="48.29792" lon="2.57782">
        <ele>448.4</ele>
        <time>2022-02-06T11:36:11Z</time>
      </trkpt>
      <trkpt lat="48.29781" lon="2.57783">
        <ele>447.2</ele>
        <time>2022-02-06T11:36:15Z</time>
      </trkpt>
      <trkpt lat="48.29773" lon="2.57781">
        <ele>447</ele>
        <time>2022-02-06T11:36:19Z</time>
      </trkpt>
      <trkpt lat="48.29763" lon="2.57789">
        <ele>447</ele>
        <time>2022-02-06T11:36:23Z</time>
      </trkpt>
      <trkpt lat="48.29755" lon="2.57791">
        <ele>447.2</ele>
        <time>2022-02-06T11:36:27Z</time>
      </trkpt>
      <trkpt lat="48.29747" lon="2.57783">
        <ele>447.8</ele>
        <time>2022-02-06T11:36:31Z</time>
      </trkpt>
      <trkpt lat="48.29731" lon="2.57778">
        <ele>448</ele>
        <time>2022-02-06T11:36:35Z</time>
      </trkpt>
      <trkpt lat="48.29715" lon="2.57775">
        <ele>446.8</ele>
        <time>2022-02-06T11:36:39Z</time>
      </trkpt>
      <trkpt lat="48.29704" lon="2.57771">
        <ele>447.4</ele>
        <time>2022-02-06T11:36:43Z</time>
      </trkpt>
      <trkpt lat="48.29693" lon="2.57762">
        <ele>447</ele>
        <time>2022-02-06T11:36:47Z</time>
      </trkpt>
      <trkpt lat="48.29683" lon="2.57754">
        <ele>447.8</ele>
        <time>2022-02-06T11:36:51Z</time>
      </trkpt>
      <trkpt lat="48.29682" lon="2.57748">
        <ele>448.2</ele>
        <time>2022-02-06T11:36:55Z</time>
      </trkpt>
      <trkpt lat="48.29681" lon="2.57737">
        <ele>447.6</ele>
        <time>2022-02-06T11:36:59Z</time>
      </trkpt>
      <trkpt lat="48.29682" lon="2.57727">
        <ele>448.2</ele>
        <time>2022-02-06T11:37:03Z</time>
      </trkpt>
      <trkpt lat="48.29683" lon="2.57714">
        <ele>447.6</ele>
        <time>2022-02-06T11:37:07Z</time>
      </trkpt>
      <trkpt lat="48.29684" lon="2.5771">
        <ele>447.2</ele>
        <time>2022-02-06T11:37:11Z</time>
      </trkpt>
      <trkpt lat="48.29684" lon="2.57698">
        <ele>447.4</ele>
        <time>2022-02-06T11:37:15Z</time>
      </trkpt>
      <trkpt lat="48.29682" lon="2.57686">
        <ele>447.8</ele>
        <time>2022-02-06T11:37:19Z</time>
      </trkpt>
      <trkpt lat="48.29675" lon="2.57681">
        <ele>447.2</ele>
        <time>2022-02-06T11:37:23Z</time>
      </trkpt>
      <trkpt lat="48.29662" lon="2.57683">
        <ele>447.6</ele>
        <time>2022-02-06T11:37:27Z</time>
      </trkpt>
      <trkpt lat="48.29653" lon="2.57684">
        <ele>448.2</ele>
        <time>2022-02-06T11:37:31Z</time>
      </trkpt>
      <trkpt lat="48.29649" lon="2.57684">
        <ele>448.8</ele>
        <time>2022-02-06T11:37:35Z</time>
      </trkpt>
      <trkpt lat="48.29642" lon="2.57681">
        <ele>448.6</ele>
        <time>2022-02-06T11:37:39Z</time>
      </trkpt>
      <trkpt lat="48.29631" lon="2.57676">
        <ele>447.2</ele>
        <time>2022-02-06T11:37:43Z</time>
      </trkpt>
      <trkpt lat="48.29622" lon="2.57667">
        <ele>448.4</ele>
        <time>2022-02-06T11:37:47Z</time>
      </trkpt>
      <trkpt lat="48.29613" lon="2.57658">
        <ele>448.8</ele>
        <time>2022-02-06T11:37:51Z</time>
      </trkpt>
      <trkpt lat="48.29603" lon="2.57655">
        <ele>449</ele>
        <time>2022-02-06T11:37:55Z</time>
      </trkpt>
      <trkpt lat="48.29594" lon="2.57656">
        <ele>448.4</ele>
        <time>2022-02-06T11:37:59Z</time>
      </trkpt>
      <trkpt lat="48.29585" lon="2.57651">
        <ele>448.8</ele>
        <time>2022-02-06T11:38:03Z</time>
      </trkpt>
      <trkpt lat="48.29576" lon="2.57644">
        <ele>449.2</ele>
        <time>2022-02-06T11:38:07Z</time>
      </trkpt>
      <trkpt lat="48.2956" lon="2.57638">
        <ele>448.8</ele>
        <time>2022-02-06T11:38:11Z</time>
      </trkpt>
      <trkpt lat="48.29547" lon="2.57645">
        <ele>448.2</ele>
        <time>2022-02-06T11:38:15Z</time>
      </trkpt>
      <trkpt lat="48.29531" lon="2.57656">
        <ele>448</ele>
        <time>2022-02-06T11:38:19Z</time>
      </trkpt>
      <trkpt lat="48.2952" lon="2.57657">
        <ele>448</ele>
        <time>2022-02-06T11:38:23Z</time>
      </trkpt>
      <trkpt lat="48.29506" lon="2.57649">
        <ele>448.2</ele>
        <time>2022-02-06T11:38:27Z</time>
      </trkpt>
      <trkpt lat="48.29496" lon="2.57651">
        <ele>448.4</ele>
        <time>2022-02-06T11:38:31Z</time>
      </trkpt>
      <trkpt lat="48.2949" lon="2.5767">
        <ele>447.8</ele>
        <time>2022-02-06T11:38:35Z</time>
      </trkpt>
      <trkpt lat="48.29484" lon="2.57694">
        <ele>448.2</ele>
        <time>2022-02-06T11:38:39Z</time>
      </trkpt>
      <trkpt lat="48.29471" lon="2.57709">
        <ele>448</ele>
        <time>2022-02-06T11:38:43Z</time>
      </trkpt>
      <trkpt lat="48.29458" lon="2.57724">
        <ele>448.6</ele>
        <time>2022-02-06T11:38:47Z</time>
      </trkpt>
      <trkpt lat="48.29446" lon="2.57737">
        <ele>447.6</ele>
        <time>2022-02-06T11:38:51Z</time>
      </trkpt>
      <trkpt lat="48.29439" lon="2.57755">
        <ele>447.2</ele>
        <time>2022-02-06T11:38:55Z</time>
      </trkpt>
      <trkpt lat="48.29423" lon="2.5777">
        <ele>446.6</ele>
        <time>2022-02-06T11:38:59Z</time>
      </trkpt>
      <trkpt lat="48.29402" lon="2.57782">
        <ele>447.4</ele>
        <time>2022-02-06T11:39:03Z</time>
      </trkpt>
      <trkpt lat="48.29384" lon="2.57785">
        <ele>446.8</ele>
        <time>2022-02-06T11:39:07Z</time>
      </trkpt>
      <trkpt lat="48.29369" lon="2.5779">
        <ele>446.6</ele>
        <time>2022-02-06T11:39:11Z</time>
      </trkpt>
      <trkpt lat="48.29352" lon="2.57802">
        <ele>446.4</ele>
        <time>2022-02-06T11:39:15Z</time>
      </trkpt>
      <trkpt lat="48.29341" lon="2.57815">
        <ele>446.8</ele>
        <time>2022-02-06T11:39:19Z</time>
      </trkpt>
      <trkpt lat="48.29328" lon="2.57824">
        <ele>446.6</ele>
        <time>2022-02-06T11:39:23Z</time>
      </trkpt>
      <trkpt lat="48.29314" lon="2.57836">
        <ele>446.4</ele>
        <time>2022-02-06T11:39:27Z</time>
      </trkpt>
      <trkpt lat="48.29303" lon="2.57839">
        <ele>447</ele>
        <time>2022-02-06T11:39:31Z</time>
      </trkpt>
      <trkpt lat="48.29288" lon="2.57846">
        <ele>446.8</ele>
        <time>2022-02-06T11:39:35Z</time>
      </trkpt>
      <trkpt lat="48.29279" lon="2.57856">
        <ele>446.6</ele>
        <time>2022-02-06T11:39:39Z</time>
      </trkpt>
      <trkpt lat="48.29271" lon="2.57863">
        <ele>446.8</ele>
        <time>2022-02-06T11:39:43Z</time>
      </trkpt>
      <trkpt lat="48.29256" lon="2.57867">
        <ele>446.4</ele>
        <time>2022-02-06T11:39:47Z</time>
      </trkpt>
      <trkpt lat="48.29246" lon="2.57865">
        <ele>447.4</ele>
        <time>2022-02-06T11:39:51Z</time>
      </trkpt>
      <trkpt lat="48.29236" lon="2.57861">
        <ele>446.8</ele>
        <time>2022-02-06T11:39:55Z</time>
      </trkpt>
      <trkpt lat="48.29231" lon="2.57853">
        <ele>446.8</ele>
        <time>2022-02-06T11:39:59Z</time>
      </trkpt>
      <trkpt lat="48.29224" lon="2.57845">
        <ele>448.2</ele>
        <time>2022-02-06T11:40:03Z</time>
      </trkpt>
      <trkpt lat="48.29218" lon="2.57838">
        <ele>447.6</ele>
        <time>2022-02-06T11:40:07Z</time>
      </trkpt>
      <trkpt lat="48.2921" lon="2.57831">
        <ele>447.6</ele>
        <time>2022-02-06T11:40:11Z</time>
      </trkpt>
      <trkpt lat="48.29202" lon="2.57825">
        <ele>447.8</ele>
        <time>2022-02-06T11:40:15Z</time>
      </trkpt>
      <trkpt lat="48.29198" lon="2.57815">
        <ele>447.6</ele>
        <time>2022-02-06T11:40:19Z</time>
      </trkpt>
      <trkpt lat="48.29194" lon="2.57804">
        <ele>448</ele>
        <time>2022-02-06T11:40:23Z</time>
      </trkpt>
      <trkpt lat="48.29162" lon="2.5782">
        <ele>448.6</ele>
        <time>2022-02-06T11:40:56Z</time>
      </trkpt>
      <trkpt lat="48.29156" lon="2.57824">
        <ele>448.2</ele>
        <time>2022-02-06T11:41:00Z</time>
      </trkpt>
      <trkpt lat="48.2915" lon="2.57824">
        <ele>448.8</ele>
        <time>2022-02-06T11:41:04Z</time>
      </trkpt>
      <trkpt lat="48.29144" lon="2.57823">
        <ele>448.8</ele>
        <time>2022-02-06T11:41:08Z</time>
      </trkpt>
      <trkpt lat="48.2914" lon="2.57832">
        <ele>449</ele>
        <time>2022-02-06T11:41:12Z</time>
      </trkpt>
      <trkpt lat="48.29135" lon="2.57842">
        <ele>448.6</ele>
        <time>2022-02-06T11:41:16Z</time>
      </trkpt>
      <trkpt lat="48.2913" lon="2.57851">
        <ele>448.8</ele>
        <time>2022-02-06T11:41:20Z</time>
      </trkpt>
      <trkpt lat="48.29125" lon="2.57861">
        <ele>448.8</ele>
        <time>2022-02-06T11:41:24Z</time>
      </trkpt>
      <trkpt lat="48.2912" lon="2.57871">
        <ele>449.4</ele>
        <time>2022-02-06T11:41:28Z</time>
      </trkpt>
      <trkpt lat="48.29114" lon="2.57882">
        <ele>448.6</ele>
        <time>2022-02-06T11:41:32Z</time>
      </trkpt>
      <trkpt lat="48.29109" lon="2.57893">
        <ele>449.2</ele>
        <time>2022-02-06T11:41:36Z</time>
      </trkpt>
      <trkpt lat="48.29104" lon="2.57905">
        <ele>449.2</ele>
        <time>2022-02-06T11:41:40Z</time>
      </trkpt>
      <trkpt lat="48.29099" lon="2.57918">
        <ele>449.4</ele>
        <time>2022-02-06T11:41:44Z</time>
      </trkpt>
      <trkpt lat="48.29094" lon="2.57933">
        <ele>449.6</ele>
        <time>2022-02-06T11:41:48Z</time>
      </trkpt>
      <trkpt lat="48.29089" lon="2.57946">
        <ele>450.2</ele>
        <time>2022-02-06T11:41:52Z</time>
      </trkpt>
      <trkpt lat="48.29084" lon="2.57962">
        <ele>449.6</ele>
        <time>2022-02-06T11:41:56Z</time>
      </trkpt>
      <trkpt lat="48.2908" lon="2.57979">
        <ele>449.2</ele>
        <time>2022-02-06T11:42:00Z</time>
      </trkpt>
      <trkpt lat="48.29076" lon="2.57997">
        <ele>449.6</ele>
        <time>2022-02-06T11:42:04Z</time>
      </trkpt>
      <trkpt lat="48.2907" lon="2.58014">
        <ele>449.6</ele>
        <time>2022-02-06T11:42:08Z</time>
      </trkpt>
      <trkpt lat="48.29069" lon="2.58031">
        <ele>449.2</ele>
        <time>2022-02-06T11:42:12Z</time>
      </trkpt>
      <trkpt lat="48.2907" lon="2.58044">
        <ele>449.4</ele>
        <time>2022-02-06T11:42:16Z</time>
      </trkpt>
      <trkpt lat="48.29068" lon="2.58059">
        <ele>448.8</ele>
        <time>2022-02-06T11:42:20Z</time>
      </trkpt>
      <trkpt lat="48.2907" lon="2.58072">
        <ele>449.6</ele>
        <time>2022-02-06T11:42:24Z</time>
      </trkpt>
      <trkpt lat="48.2907" lon="2.58085">
        <ele>449.6</ele>
        <time>2022-02-06T11:42:28Z</time>
      </trkpt>
      <trkpt lat="48.29071" lon="2.58105">
        <ele>449.2</ele>
        <time>2022-02-06T11:42:32Z</time>
      </trkpt>
      <trkpt lat="48.29068" lon="2.58123">
        <ele>450</ele>
        <time>2022-02-06T11:42:36Z</time>
      </trkpt>
      <trkpt lat="48.29069" lon="2.5814">
        <ele>450.2</ele>
        <time>2022-02-06T11:42:40Z</time>
      </trkpt>
      <trkpt lat="48.29069" lon="2.58159">
        <ele>450.2</ele>
        <time>2022-02-06T11:42:44Z</time>
      </trkpt>
      <trkpt lat="48.29071" lon="2.58183">
        <ele>450.6</ele>
        <time>2022-02-06T11:42:48Z</time>
      </trkpt>
      <trkpt lat="48.29069" lon="2.58204">
        <ele>449.6</ele>
        <time>2022-02-06T11:42:52Z</time>
      </trkpt>
      <trkpt lat="48.29069" lon="2.58222">
        <ele>448.8</ele>
        <time>2022-02-06T11:42:56Z</time>
      </trkpt>
      <trkpt lat="48.29064" lon="2.58236">
        <ele>449</ele>
        <time>2022-02-06T11:43:00Z</time>
      </trkpt>
      <trkpt lat="48.29047" lon="2.58249">
        <ele>448.2</ele>
        <time>2022-02-06T11:43:04Z</time>
      </trkpt>
      <trkpt lat="48.29036" lon="2.58264">
        <ele>447.6</ele>
        <time>2022-02-06T11:43:08Z</time>
      </trkpt>
      <trkpt lat="48.29018" lon="2.58272">
        <ele>447.8</ele>
        <time>2022-02-06T11:43:12Z</time>
      </trkpt>
      <trkpt lat="48.29008" lon="2.5828">
        <ele>448.2</ele>
        <time>2022-02-06T11:43:16Z</time>
      </trkpt>
      <trkpt lat="48.28999" lon="2.58287">
        <ele>447.8</ele>
        <time>2022-02-06T11:43:20Z</time>
      </trkpt>
      <trkpt lat="48.28988" lon="2.58291">
        <ele>447.8</ele>
        <time>2022-02-06T11:43:24Z</time>
      </trkpt>
      <trkpt lat="48.28979" lon="2.58292">
        <ele>448.8</ele>
        <time>2022-02-06T11:43:28Z</time>
      </trkpt>
      <trkpt lat="48.28971" lon="2.58295">
        <ele>448.6</ele>
        <time>2022-02-06T11:43:32Z</time>
      </trkpt>
      <trkpt lat="48.28963" lon="2.58298">
        <ele>449</ele>
        <time>2022-02-06T11:43:36Z</time>
      </trkpt>
      <trkpt lat="48.28957" lon="2.58302">
        <ele>449.6</ele>
        <time>2022-02-06T11:43:40Z</time>
      </trkpt>
      <trkpt lat="48.28951" lon="2.58307">
        <ele>449.6</ele>
        <time>2022-02-06T11:43:44Z</time>
      </trkpt>
      <trkpt lat="48.28947" lon="2.58316">
        <ele>450.4</ele>
        <time>2022-02-06T11:43:48Z</time>
      </trkpt>
      <trkpt lat="48.28894" lon="2.58327">
        <ele>450.6</ele>
        <time>2022-02-06T11:44:43Z</time>
      </trkpt>
      <trkpt lat="48.28894" lon="2.58336">
        <ele>451.4</ele>
        <time>2022-02-06T11:44:47Z</time>
      </trkpt>
      <trkpt lat="48.289" lon="2.58343">
        <ele>451.2</ele>
        <time>2022-02-06T11:44:51Z</time>
      </trkpt>
      <trkpt lat="48.28908" lon="2.58359">
        <ele>450.8</ele>
        <time>2022-02-06T11:44:55Z</time>
      </trkpt>
      <trkpt lat="48.28915" lon="2.58367">
        <ele>450.6</ele>
        <time>2022-02-06T11:44:59Z</time>
      </trkpt>
      <trkpt lat="48.28925" lon="2.58376">
        <ele>450.8</ele>
        <time>2022-02-06T11:45:03Z</time>
      </trkpt>
      <trkpt lat="48.28935" lon="2.58384">
        <ele>450.8</ele>
        <time>2022-02-06T11:45:07Z</time>
      </trkpt>
      <trkpt lat="48.28944" lon="2.58391">
        <ele>450.8</ele>
        <time>2022-02-06T11:45:11Z</time>
      </trkpt>
      <trkpt lat="48.28956" lon="2.58394">
        <ele>450.2</ele>
        <time>2022-02-06T11:45:15Z</time>
      </trkpt>
      <trkpt lat="48.28959" lon="2.58404">
        <ele>450.6</ele>
        <time>2022-02-06T11:45:19Z</time>
      </trkpt>
      <trkpt lat="48.2896" lon="2.58416">
        <ele>450.6</ele>
        <time>2022-02-06T11:45:23Z</time>
      </trkpt>
      <trkpt lat="48.28969" lon="2.58426">
        <ele>450.8</ele>
        <time>2022-02-06T11:45:27Z</time>
      </trkpt>
      <trkpt lat="48.28979" lon="2.58436">
        <ele>451</ele>
        <time>2022-02-06T11:45:31Z</time>
      </trkpt>
      <trkpt lat="48.28981" lon="2.58454">
        <ele>451</ele>
        <time>2022-02-06T11:45:35Z</time>
      </trkpt>
      <trkpt lat="48.28981" lon="2.58473">
        <ele>450.8</ele>
        <time>2022-02-06T11:45:39Z</time>
      </trkpt>
      <trkpt lat="48.28984" lon="2.58483">
        <ele>450.8</ele>
        <time>2022-02-06T11:45:43Z</time>
      </trkpt>
      <trkpt lat="48.28987" lon="2.58499">
        <ele>450.4</ele>
        <time>2022-02-06T11:45:47Z</time>
      </trkpt>
      <trkpt lat="48.28993" lon="2.58509">
        <ele>449.2</ele>
        <time>2022-02-06T11:45:51Z</time>
      </trkpt>
      <trkpt lat="48.29001" lon="2.5852">
        <ele>450.6</ele>
        <time>2022-02-06T11:45:55Z</time>
      </trkpt>
      <trkpt lat="48.29011" lon="2.58535">
        <ele>450.6</ele>
        <time>2022-02-06T11:45:59Z</time>
      </trkpt>
      <trkpt lat="48.29019" lon="2.58549">
        <ele>450.8</ele>
        <time>2022-02-06T11:46:03Z</time>
      </trkpt>
      <trkpt lat="48.29024" lon="2.58566">
        <ele>450.6</ele>
        <time>2022-02-06T11:46:07Z</time>
      </trkpt>
      <trkpt lat="48.29028" lon="2.58586">
        <ele>450.8</ele>
        <time>2022-02-06T11:46:11Z</time>
      </trkpt>
      <trkpt lat="48.29031" lon="2.58609">
        <ele>450.8</ele>
        <time>2022-02-06T11:46:15Z</time>
      </trkpt>
      <trkpt lat="48.29038" lon="2.58624">
        <ele>450.8</ele>
        <time>2022-02-06T11:46:19Z</time>
      </trkpt>
      <trkpt lat="48.29051" lon="2.58629">
        <ele>450.6</ele>
        <time>2022-02-06T11:46:23Z</time>
      </trkpt>
      <trkpt lat="48.29075" lon="2.58632">
        <ele>449.6</ele>
        <time>2022-02-06T11:46:27Z</time>
      </trkpt>
      <trkpt lat="48.29093" lon="2.5864">
        <ele>450.2</ele>
        <time>2022-02-06T11:46:31Z</time>
      </trkpt>
      <trkpt lat="48.29105" lon="2.58658">
        <ele>450</ele>
        <time>2022-02-06T11:46:35Z</time>
      </trkpt>
      <trkpt lat="48.29105" lon="2.58673">
        <ele>450.6</ele>
        <time>2022-02-06T11:46:39Z</time>
      </trkpt>
      <trkpt lat="48.29107" lon="2.58689">
        <ele>449.8</ele>
        <time>2022-02-06T11:46:43Z</time>
      </trkpt>
      <trkpt lat="48.29116" lon="2.58705">
        <ele>449.6</ele>
        <time>2022-02-06T11:46:47Z</time>
      </trkpt>
      <trkpt lat="48.29123" lon="2.58721">
        <ele>450.8</ele>
        <time>2022-02-06T11:46:51Z</time>
      </trkpt>
      <trkpt lat="48.29135" lon="2.58741">
        <ele>449.8</ele>
        <time>2022-02-06T11:46:55Z</time>
      </trkpt>
      <trkpt lat="48.29142" lon="2.58755">
        <ele>450.2</ele>
        <time>2022-02-06T11:46:59Z</time>
      </trkpt>
      <trkpt lat="48.29148" lon="2.58757">
        <ele>449.8</ele>
        <time>2022-02-06T11:47:03Z</time>
      </trkpt>
      <trkpt lat="48.29156" lon="2.5876">
        <ele>448.6</ele>
        <time>2022-02-06T11:47:07Z</time>
      </trkpt>
      <trkpt lat="48.2916" lon="2.58781">
        <ele>450.6</ele>
        <time>2022-02-06T11:47:11Z</time>
      </trkpt>
      <trkpt lat="48.2916" lon="2.58791">
        <ele>448.2</ele>
        <time>2022-02-06T11:47:15Z</time>
      </trkpt>
      <trkpt lat="48.29163" lon="2.58794">
        <ele>448</ele>
        <time>2022-02-06T11:47:19Z</time>
      </trkpt>
      <trkpt lat="48.29167" lon="2.58802">
        <ele>448</ele>
        <time>2022-02-06T11:47:23Z</time>
      </trkpt>
      <trkpt lat="48.29173" lon="2.58808">
        <ele>447.6</ele>
        <time>2022-02-06T11:47:27Z</time>
      </trkpt>
      <trkpt lat="48.29187" lon="2.58819">
        <ele>446.2</ele>
        <time>2022-02-06T11:47:31Z</time>
      </trkpt>
      <trkpt lat="48.29198" lon="2.58831">
        <ele>446.4</ele>
        <time>2022-02-06T11:47:35Z</time>
      </trkpt>
      <trkpt lat="48.29214" lon="2.58838">
        <ele>445.2</ele>
        <time>2022-02-06T11:47:39Z</time>
      </trkpt>
      <trkpt lat="48.2922" lon="2.58855">
        <ele>445</ele>
        <time>2022-02-06T11:47:43Z</time>
      </trkpt>
      <trkpt lat="48.29218" lon="2.58866">
        <ele>444.6</ele>
        <time>2022-02-06T11:47:47Z</time>
      </trkpt>
      <trkpt lat="48.29218" lon="2.5888">
        <ele>445.6</ele>
        <time>2022-02-06T11:47:51Z</time>
      </trkpt>
      <trkpt lat="48.29218" lon="2.58892">
        <ele>445.2</ele>
        <time>2022-02-06T11:47:55Z</time>
      </trkpt>
      <trkpt lat="48.29215" lon="2.58908">
        <ele>445.2</ele>
        <time>2022-02-06T11:47:59Z</time>
      </trkpt>
      <trkpt lat="48.2921" lon="2.58916">
        <ele>444.2</ele>
        <time>2022-02-06T11:48:03Z</time>
      </trkpt>
      <trkpt lat="48.29204" lon="2.5892">
        <ele>445</ele>
        <time>2022-02-06T11:48:07Z</time>
      </trkpt>
      <trkpt lat="48.29198" lon="2.58912">
        <ele>445</ele>
        <time>2022-02-06T11:48:11Z</time>
      </trkpt>
      <trkpt lat="48.29192" lon="2.58902">
        <ele>445.4</ele>
        <time>2022-02-06T11:48:15Z</time>
      </trkpt>
      <trkpt lat="48.29185" lon="2.58897">
        <ele>445.2</ele>
        <time>2022-02-06T11:48:19Z</time>
      </trkpt>
      <trkpt lat="48.29179" lon="2.58889">
        <ele>445.2</ele>
        <time>2022-02-06T11:48:23Z</time>
      </trkpt>
      <trkpt lat="48.29172" lon="2.58879">
        <ele>445</ele>
        <time>2022-02-06T11:48:27Z</time>
      </trkpt>
      <trkpt lat="48.29166" lon="2.58869">
        <ele>445.8</ele>
        <time>2022-02-06T11:48:31Z</time>
      </trkpt>
      <trkpt lat="48.29163" lon="2.5886">
        <ele>445.6</ele>
        <time>2022-02-06T11:48:35Z</time>
      </trkpt>
      <trkpt lat="48.29162" lon="2.58853">
        <ele>446</ele>
        <time>2022-02-06T11:48:39Z</time>
      </trkpt>
      <trkpt lat="48.29157" lon="2.58847">
        <ele>445.4</ele>
        <time>2022-02-06T11:48:43Z</time>
      </trkpt>
      <trkpt lat="48.29151" lon="2.58843">
        <ele>445.6</ele>
        <time>2022-02-06T11:48:47Z</time>
      </trkpt>
      <trkpt lat="48.29146" lon="2.58838">
        <ele>445.8</ele>
        <time>2022-02-06T11:48:51Z</time>
      </trkpt>
      <trkpt lat="48.29141" lon="2.58834">
        <ele>446.6</ele>
        <time>2022-02-06T11:48:55Z</time>
      </trkpt>
      <trkpt lat="48.29138" lon="2.5883">
        <ele>446.8</ele>
        <time>2022-02-06T11:48:59Z</time>
      </trkpt>
      <trkpt lat="48.29136" lon="2.58824">
        <ele>446.8</ele>
        <time>2022-02-06T11:49:03Z</time>
      </trkpt>
      <trkpt lat="48.29133" lon="2.58817">
        <ele>446.8</ele>
        <time>2022-02-06T11:49:07Z</time>
      </trkpt>
      <trkpt lat="48.29129" lon="2.58811">
        <ele>447</ele>
        <time>2022-02-06T11:49:11Z</time>
      </trkpt>
      <trkpt lat="48.29126" lon="2.58804">
        <ele>447</ele>
        <time>2022-02-06T11:49:15Z</time>
      </trkpt>
      <trkpt lat="48.29122" lon="2.58801">
        <ele>447.6</ele>
        <time>2022-02-06T11:49:19Z</time>
      </trkpt>
      <trkpt lat="48.29116" lon="2.58798">
        <ele>447.4</ele>
        <time>2022-02-06T11:49:23Z</time>
      </trkpt>
      <trkpt lat="48.29112" lon="2.58793">
        <ele>448.2</ele>
        <time>2022-02-06T11:49:27Z</time>
      </trkpt>
      <trkpt lat="48.29109" lon="2.58789">
        <ele>447.8</ele>
        <time>2022-02-06T11:49:31Z</time>
      </trkpt>
      <trkpt lat="48.29105" lon="2.58785">
        <ele>448.4</ele>
        <time>2022-02-06T11:49:35Z</time>
      </trkpt>
      <trkpt lat="48.29102" lon="2.5878">
        <ele>448.4</ele>
        <time>2022-02-06T11:49:39Z</time>
      </trkpt>
      <trkpt lat="48.29098" lon="2.58777">
        <ele>448.6</ele>
        <time>2022-02-06T11:49:43Z</time>
      </trkpt>
      <trkpt lat="48.29093" lon="2.58777">
        <ele>448.6</ele>
        <time>2022-02-06T11:49:47Z</time>
      </trkpt>
      <trkpt lat="48.29089" lon="2.58773">
        <ele>448.6</ele>
        <time>2022-02-06T11:49:51Z</time>
      </trkpt>
      <trkpt lat="48.29084" lon="2.58769">
        <ele>448.6</ele>
        <time>2022-02-06T11:49:55Z</time>
      </trkpt>
      <trkpt lat="48.29081" lon="2.58762">
        <ele>448.8</ele>
        <time>2022-02-06T11:49:59Z</time>
      </trkpt>
      <trkpt lat="48.29077" lon="2.58758">
        <ele>449.2</ele>
        <time>2022-02-06T11:50:03Z</time>
      </trkpt>
      <trkpt lat="48.29076" lon="2.58754">
        <ele>449</ele>
        <time>2022-02-06T11:50:07Z</time>
      </trkpt>
      <trkpt lat="48.29073" lon="2.58749">
        <ele>449.4</ele>
        <time>2022-02-06T11:50:11Z</time>
      </trkpt>
      <trkpt lat="48.29067" lon="2.58747">
        <ele>449.2</ele>
        <time>2022-02-06T11:50:15Z</time>
      </trkpt>
      <trkpt lat="48.29059" lon="2.58744">
        <ele>449.2</ele>
        <time>2022-02-06T11:50:19Z</time>
      </trkpt>
      <trkpt lat="48.29055" lon="2.58739">
        <ele>449.8</ele>
        <time>2022-02-06T11:50:23Z</time>
      </trkpt>
      <trkpt lat="48.29051" lon="2.58734">
        <ele>449.6</ele>
        <time>2022-02-06T11:50:27Z</time>
      </trkpt>
      <trkpt lat="48.29045" lon="2.58734">
        <ele>449.2</ele>
        <time>2022-02-06T11:50:31Z</time>
      </trkpt>
      <trkpt lat="48.29039" lon="2.5873">
        <ele>449.6</ele>
        <time>2022-02-06T11:50:35Z</time>
      </trkpt>
      <trkpt lat="48.29032" lon="2.58725">
        <ele>449.6</ele>
        <time>2022-02-06T11:50:39Z</time>
      </trkpt>
      <trkpt lat="48.29026" lon="2.58722">
        <ele>449.6</ele>
        <time>2022-02-06T11:50:43Z</time>
      </trkpt>
      <trkpt lat="48.2902" lon="2.58726">
        <ele>450</ele>
        <time>2022-02-06T11:50:47Z</time>
      </trkpt>
      <trkpt lat="48.29014" lon="2.58728">
        <ele>449.6</ele>
        <time>2022-02-06T11:50:51Z</time>
      </trkpt>
      <trkpt lat="48.29009" lon="2.58736">
        <ele>449.8</ele>
        <time>2022-02-06T11:50:55Z</time>
      </trkpt>
      <trkpt lat="48.29007" lon="2.58748">
        <ele>449.6</ele>
        <time>2022-02-06T11:50:59Z</time>
      </trkpt>
      <trkpt lat="48.29003" lon="2.58761">
        <ele>449.8</ele>
        <time>2022-02-06T11:51:03Z</time>
      </trkpt>
      <trkpt lat="48.28993" lon="2.5878">
        <ele>450.2</ele>
        <time>2022-02-06T11:51:07Z</time>
      </trkpt>
      <trkpt lat="48.28986" lon="2.58799">
        <ele>450.2</ele>
        <time>2022-02-06T11:51:11Z</time>
      </trkpt>
      <trkpt lat="48.28986" lon="2.58815">
        <ele>450.4</ele>
        <time>2022-02-06T11:51:15Z</time>
      </trkpt>
      <trkpt lat="48.29" lon="2.58831">
        <ele>450</ele>
        <time>2022-02-06T11:51:19Z</time>
      </trkpt>
      <trkpt lat="48.29017" lon="2.58842">
        <ele>450.6</ele>
        <time>2022-02-06T11:51:23Z</time>
      </trkpt>
      <trkpt lat="48.29033" lon="2.58857">
        <ele>449.2</ele>
        <time>2022-02-06T11:51:27Z</time>
      </trkpt>
      <trkpt lat="48.29041" lon="2.58869">
        <ele>448.8</ele>
        <time>2022-02-06T11:51:31Z</time>
      </trkpt>
      <trkpt lat="48.29049" lon="2.58877">
        <ele>449.6</ele>
        <time>2022-02-06T11:51:35Z</time>
      </trkpt>
      <trkpt lat="48.29049" lon="2.58869">
        <ele>449</ele>
        <time>2022-02-06T11:51:39Z</time>
      </trkpt>
      <trkpt lat="48.29047" lon="2.58858">
        <ele>448.6</ele>
        <time>2022-02-06T11:51:43Z</time>
      </trkpt>
      <trkpt lat="48.29053" lon="2.58851">
        <ele>448.4</ele>
        <time>2022-02-06T11:51:47Z</time>
      </trkpt>
      <trkpt lat="48.29059" lon="2.58863">
        <ele>448.2</ele>
        <time>2022-02-06T11:51:51Z</time>
      </trkpt>
      <trkpt lat="48.29062" lon="2.5888">
        <ele>447.6</ele>
        <time>2022-02-06T11:51:55Z</time>
      </trkpt>
      <trkpt lat="48.29075" lon="2.58897">
        <ele>447.8</ele>
        <time>2022-02-06T11:51:59Z</time>
      </trkpt>
      <trkpt lat="48.2909" lon="2.58913">
        <ele>446.6</ele>
        <time>2022-02-06T11:52:03Z</time>
      </trkpt>
      <trkpt lat="48.29121" lon="2.58924">
        <ele>443.8</ele>
        <time>2022-02-06T11:52:07Z</time>
      </trkpt>
      <trkpt lat="48.29135" lon="2.58943">
        <ele>444.4</ele>
        <time>2022-02-06T11:52:11Z</time>
      </trkpt>
      <trkpt lat="48.2914" lon="2.58949">
        <ele>443</ele>
        <time>2022-02-06T11:52:15Z</time>
      </trkpt>
      <trkpt lat="48.29142" lon="2.58949">
        <ele>444.2</ele>
        <time>2022-02-06T11:52:19Z</time>
      </trkpt>
      <trkpt lat="48.29138" lon="2.58959">
        <ele>443.8</ele>
        <time>2022-02-06T11:52:23Z</time>
      </trkpt>
      <trkpt lat="48.29136" lon="2.58966">
        <ele>444.4</ele>
        <time>2022-02-06T11:52:27Z</time>
      </trkpt>
      <trkpt lat="48.29134" lon="2.58974">
        <ele>444</ele>
        <time>2022-02-06T11:52:31Z</time>
      </trkpt>
      <trkpt lat="48.29133" lon="2.5898">
        <ele>444.8</ele>
        <time>2022-02-06T11:52:35Z</time>
      </trkpt>
      <trkpt lat="48.2913" lon="2.58987">
        <ele>444.2</ele>
        <time>2022-02-06T11:52:39Z</time>
      </trkpt>
      <trkpt lat="48.29131" lon="2.58994">
        <ele>444.6</ele>
        <time>2022-02-06T11:52:43Z</time>
      </trkpt>
      <trkpt lat="48.29133" lon="2.58996">
        <ele>445</ele>
        <time>2022-02-06T11:52:47Z</time>
      </trkpt>
      <trkpt lat="48.29137" lon="2.58998">
        <ele>444.8</ele>
        <time>2022-02-06T11:52:51Z</time>
      </trkpt>
      <trkpt lat="48.29141" lon="2.59">
        <ele>444.8</ele>
        <time>2022-02-06T11:52:55Z</time>
      </trkpt>
      <trkpt lat="48.29144" lon="2.59005">
        <ele>445</ele>
        <time>2022-02-06T11:52:59Z</time>
      </trkpt>
      <trkpt lat="48.29145" lon="2.59014">
        <ele>445</ele>
        <time>2022-02-06T11:53:03Z</time>
      </trkpt>
      <trkpt lat="48.29146" lon="2.59025">
        <ele>445</ele>
        <time>2022-02-06T11:53:07Z</time>
      </trkpt>
      <trkpt lat="48.29142" lon="2.59033">
        <ele>445.4</ele>
        <time>2022-02-06T11:53:11Z</time>
      </trkpt>
      <trkpt lat="48.29138" lon="2.59039">
        <ele>445</ele>
        <time>2022-02-06T11:53:15Z</time>
      </trkpt>
      <trkpt lat="48.29133" lon="2.59043">
        <ele>445</ele>
        <time>2022-02-06T11:53:19Z</time>
      </trkpt>
      <trkpt lat="48.29128" lon="2.59044">
        <ele>445</ele>
        <time>2022-02-06T11:53:23Z</time>
      </trkpt>
      <trkpt lat="48.29124" lon="2.59046">
        <ele>445.4</ele>
        <time>2022-02-06T11:53:27Z</time>
      </trkpt>
      <trkpt lat="48.29121" lon="2.5905">
        <ele>445.6</ele>
        <time>2022-02-06T11:53:31Z</time>
      </trkpt>
      <trkpt lat="48.29118" lon="2.59055">
        <ele>445.4</ele>
        <time>2022-02-06T11:53:35Z</time>
      </trkpt>
      <trkpt lat="48.29118" lon="2.59055">
        <ele>445.4</ele>
        <time>2022-02-06T11:53:39Z</time>
      </trkpt>
      <trkpt lat="48.29068" lon="2.5907">
        <ele>445.8</ele>
        <time>2022-02-06T11:54:37Z</time>
      </trkpt>
      <trkpt lat="48.29063" lon="2.59067">
        <ele>445.8</ele>
        <time>2022-02-06T11:54:41Z</time>
      </trkpt>
      <trkpt lat="48.29056" lon="2.59063">
        <ele>445.4</ele>
        <time>2022-02-06T11:54:45Z</time>
      </trkpt>
      <trkpt lat="48.29048" lon="2.59066">
        <ele>445.8</ele>
        <time>2022-02-06T11:54:49Z</time>
      </trkpt>
      <trkpt lat="48.29048" lon="2.59066">
        <ele>446.6</ele>
        <time>2022-02-06T11:54:53Z</time>
      </trkpt>
      <trkpt lat="48.29044" lon="2.59072">
        <ele>446.4</ele>
        <time>2022-02-06T11:54:57Z</time>
      </trkpt>
      <trkpt lat="48.29043" lon="2.59078">
        <ele>446.6</ele>
        <time>2022-02-06T11:55:01Z</time>
      </trkpt>
      <trkpt lat="48.29043" lon="2.59087">
        <ele>446</ele>
        <time>2022-02-06T11:55:05Z</time>
      </trkpt>
      <trkpt lat="48.29038" lon="2.59094">
        <ele>446.6</ele>
        <time>2022-02-06T11:55:09Z</time>
      </trkpt>
      <trkpt lat="48.29035" lon="2.59103">
        <ele>447.2</ele>
        <time>2022-02-06T11:55:13Z</time>
      </trkpt>
      <trkpt lat="48.29031" lon="2.59111">
        <ele>446.8</ele>
        <time>2022-02-06T11:55:17Z</time>
      </trkpt>
      <trkpt lat="48.29028" lon="2.59119">
        <ele>446.4</ele>
        <time>2022-02-06T11:55:21Z</time>
      </trkpt>
      <trkpt lat="48.29025" lon="2.59136">
        <ele>445.8</ele>
        <time>2022-02-06T11:55:25Z</time>
      </trkpt>
      <trkpt lat="48.29029" lon="2.59152">
        <ele>445.8</ele>
        <time>2022-02-06T11:55:29Z</time>
      </trkpt>
      <trkpt lat="48.29027" lon="2.59165">
        <ele>446.4</ele>
        <time>2022-02-06T11:55:33Z</time>
      </trkpt>
      <trkpt lat="48.29024" lon="2.59179">
        <ele>446.6</ele>
        <time>2022-02-06T11:55:37Z</time>
      </trkpt>
      <trkpt lat="48.29021" lon="2.5919">
        <ele>446.4</ele>
        <time>2022-02-06T11:55:41Z</time>
      </trkpt>
      <trkpt lat="48.29021" lon="2.59206">
        <ele>446.4</ele>
        <time>2022-02-06T11:55:45Z</time>
      </trkpt>
      <trkpt lat="48.29022" lon="2.59226">
        <ele>446</ele>
        <time>2022-02-06T11:55:49Z</time>
      </trkpt>
      <trkpt lat="48.29022" lon="2.59247">
        <ele>446</ele>
        <time>2022-02-06T11:55:53Z</time>
      </trkpt>
      <trkpt lat="48.2902" lon="2.59269">
        <ele>446</ele>
        <time>2022-02-06T11:55:57Z</time>
      </trkpt>
      <trkpt lat="48.29021" lon="2.59286">
        <ele>446.2</ele>
        <time>2022-02-06T11:56:01Z</time>
      </trkpt>
      <trkpt lat="48.29023" lon="2.59306">
        <ele>446.2</ele>
        <time>2022-02-06T11:56:05Z</time>
      </trkpt>
      <trkpt lat="48.29029" lon="2.59319">
        <ele>442.2</ele>
        <time>2022-02-06T11:56:09Z</time>
      </trkpt>
      <trkpt lat="48.29035" lon="2.59335">
        <ele>445</ele>
        <time>2022-02-06T11:56:13Z</time>
      </trkpt>
      <trkpt lat="48.29039" lon="2.59355">
        <ele>444</ele>
        <time>2022-02-06T11:56:17Z</time>
      </trkpt>
      <trkpt lat="48.29045" lon="2.59377">
        <ele>444.2</ele>
        <time>2022-02-06T11:56:21Z</time>
      </trkpt>
      <trkpt lat="48.29045" lon="2.59397">
        <ele>443.6</ele>
        <time>2022-02-06T11:56:25Z</time>
      </trkpt>
      <trkpt lat="48.29047" lon="2.59417">
        <ele>444</ele>
        <time>2022-02-06T11:56:29Z</time>
      </trkpt>
      <trkpt lat="48.29052" lon="2.59435">
        <ele>445</ele>
        <time>2022-02-06T11:56:33Z</time>
      </trkpt>
      <trkpt lat="48.29056" lon="2.5945">
        <ele>444.6</ele>
        <time>2022-02-06T11:56:37Z</time>
      </trkpt>
      <trkpt lat="48.29062" lon="2.59463">
        <ele>444.2</ele>
        <time>2022-02-06T11:56:41Z</time>
      </trkpt>
      <trkpt lat="48.29064" lon="2.59472">
        <ele>444</ele>
        <time>2022-02-06T11:56:45Z</time>
      </trkpt>
      <trkpt lat="48.2907" lon="2.59476">
        <ele>444</ele>
        <time>2022-02-06T11:56:49Z</time>
      </trkpt>
      <trkpt lat="48.29086" lon="2.59505">
        <ele>442.6</ele>
        <time>2022-02-06T11:57:05Z</time>
      </trkpt>
      <trkpt lat="48.29091" lon="2.59524">
        <ele>440.4</ele>
        <time>2022-02-06T11:57:09Z</time>
      </trkpt>
      <trkpt lat="48.29104" lon="2.59539">
        <ele>440.6</ele>
        <time>2022-02-06T11:57:13Z</time>
      </trkpt>
      <trkpt lat="48.29116" lon="2.59547">
        <ele>439.8</ele>
        <time>2022-02-06T11:57:17Z</time>
      </trkpt>
      <trkpt lat="48.29121" lon="2.59553">
        <ele>439.2</ele>
        <time>2022-02-06T11:57:21Z</time>
      </trkpt>
      <trkpt lat="48.29125" lon="2.59562">
        <ele>439.4</ele>
        <time>2022-02-06T11:57:25Z</time>
      </trkpt>
      <trkpt lat="48.29122" lon="2.59582">
        <ele>439</ele>
        <time>2022-02-06T11:57:29Z</time>
      </trkpt>
      <trkpt lat="48.29119" lon="2.59595">
        <ele>437.8</ele>
        <time>2022-02-06T11:57:33Z</time>
      </trkpt>
      <trkpt lat="48.29117" lon="2.59611">
        <ele>438.2</ele>
        <time>2022-02-06T11:57:37Z</time>
      </trkpt>
      <trkpt lat="48.29113" lon="2.59622">
        <ele>437.8</ele>
        <time>2022-02-06T11:57:41Z</time>
      </trkpt>
      <trkpt lat="48.2911" lon="2.5963">
        <ele>438</ele>
        <time>2022-02-06T11:57:45Z</time>
      </trkpt>
      <trkpt lat="48.29105" lon="2.59637">
        <ele>437.8</ele>
        <time>2022-02-06T11:57:49Z</time>
      </trkpt>
      <trkpt lat="48.29096" lon="2.59639">
        <ele>437.8</ele>
        <time>2022-02-06T11:57:53Z</time>
      </trkpt>
      <trkpt lat="48.29086" lon="2.5964">
        <ele>437.8</ele>
        <time>2022-02-06T11:57:57Z</time>
      </trkpt>
      <trkpt lat="48.29079" lon="2.59639">
        <ele>438</ele>
        <time>2022-02-06T11:58:01Z</time>
      </trkpt>
      <trkpt lat="48.29071" lon="2.59637">
        <ele>437.8</ele>
        <time>2022-02-06T11:58:05Z</time>
      </trkpt>
      <trkpt lat="48.29067" lon="2.59634">
        <ele>438.4</ele>
        <time>2022-02-06T11:58:09Z</time>
      </trkpt>
      <trkpt lat="48.29064" lon="2.59632">
        <ele>438.2</ele>
        <time>2022-02-06T11:58:13Z</time>
      </trkpt>
      <trkpt lat="48.29061" lon="2.59631">
        <ele>438.2</ele>
        <time>2022-02-06T11:58:17Z</time>
      </trkpt>
      <trkpt lat="48.29056" lon="2.59628">
        <ele>439</ele>
        <time>2022-02-06T11:58:21Z</time>
      </trkpt>
      <trkpt lat="48.29052" lon="2.59626">
        <ele>439</ele>
        <time>2022-02-06T11:58:25Z</time>
      </trkpt>
      <trkpt lat="48.29047" lon="2.59626">
        <ele>439</ele>
        <time>2022-02-06T11:58:29Z</time>
      </trkpt>
      <trkpt lat="48.29043" lon="2.59625">
        <ele>438.8</ele>
        <time>2022-02-06T11:58:33Z</time>
      </trkpt>
      <trkpt lat="48.29038" lon="2.59624">
        <ele>439</ele>
        <time>2022-02-06T11:58:37Z</time>
      </trkpt>
      <trkpt lat="48.29031" lon="2.59626">
        <ele>438.8</ele>
        <time>2022-02-06T11:58:41Z</time>
      </trkpt>
      <trkpt lat="48.29022" lon="2.59626">
        <ele>438.6</ele>
        <time>2022-02-06T11:58:45Z</time>
      </trkpt>
      <trkpt lat="48.29012" lon="2.59624">
        <ele>438.6</ele>
        <time>2022-02-06T11:58:49Z</time>
      </trkpt>
      <trkpt lat="48.29002" lon="2.59622">
        <ele>437.6</ele>
        <time>2022-02-06T11:58:53Z</time>
      </trkpt>
      <trkpt lat="48.28994" lon="2.59615">
        <ele>438</ele>
        <time>2022-02-06T11:58:57Z</time>
      </trkpt>
      <trkpt lat="48.28988" lon="2.59614">
        <ele>438</ele>
        <time>2022-02-06T11:59:01Z</time>
      </trkpt>
      <trkpt lat="48.28964" lon="2.596">
        <ele>437.8</ele>
        <time>2022-02-06T11:59:31Z</time>
      </trkpt>
      <trkpt lat="48.28962" lon="2.59593">
        <ele>438</ele>
        <time>2022-02-06T11:59:35Z</time>
      </trkpt>
      <trkpt lat="48.28958" lon="2.59586">
        <ele>438.2</ele>
        <time>2022-02-06T11:59:39Z</time>
      </trkpt>
      <trkpt lat="48.28951" lon="2.59577">
        <ele>437.8</ele>
        <time>2022-02-06T11:59:43Z</time>
      </trkpt>
      <trkpt lat="48.2895" lon="2.59568">
        <ele>437.8</ele>
        <time>2022-02-06T11:59:47Z</time>
      </trkpt>
      <trkpt lat="48.28952" lon="2.59563">
        <ele>437.8</ele>
        <time>2022-02-06T11:59:51Z</time>
      </trkpt>
      <trkpt lat="48.28954" lon="2.59562">
        <ele>438.2</ele>
        <time>2022-02-06T11:59:55Z</time>
      </trkpt>
      <trkpt lat="48.28957" lon="2.59558">
        <ele>438.4</ele>
        <time>2022-02-06T11:59:59Z</time>
      </trkpt>
      <trkpt lat="48.28961" lon="2.59558">
        <ele>438.4</ele>
        <time>2022-02-06T12:00:03Z</time>
      </trkpt>
      <trkpt lat="48.28966" lon="2.59555">
        <ele>438.8</ele>
        <time>2022-02-06T12:00:07Z</time>
      </trkpt>
      <trkpt lat="48.28967" lon="2.59544">
        <ele>438.8</ele>
        <time>2022-02-06T12:00:11Z</time>
      </trkpt>
      <trkpt lat="48.2897" lon="2.59534">
        <ele>438.8</ele>
        <time>2022-02-06T12:00:15Z</time>
      </trkpt>
      <trkpt lat="48.28971" lon="2.59524">
        <ele>438.8</ele>
        <time>2022-02-06T12:00:19Z</time>
      </trkpt>
      <trkpt lat="48.28975" lon="2.59518">
        <ele>438.6</ele>
        <time>2022-02-06T12:00:23Z</time>
      </trkpt>
      <trkpt lat="48.28975" lon="2.59518">
        <ele>438.6</ele>
        <time>2022-02-06T12:00:27Z</time>
      </trkpt>
      <trkpt lat="48.28979" lon="2.59516">
        <ele>438.4</ele>
        <time>2022-02-06T12:00:31Z</time>
      </trkpt>
      <trkpt lat="48.28982" lon="2.59505">
        <ele>438.8</ele>
        <time>2022-02-06T12:00:35Z</time>
      </trkpt>
      <trkpt lat="48.28987" lon="2.59498">
        <ele>438.6</ele>
        <time>2022-02-06T12:00:39Z</time>
      </trkpt>
      <trkpt lat="48.28991" lon="2.59491">
        <ele>438.6</ele>
        <time>2022-02-06T12:00:43Z</time>
      </trkpt>
      <trkpt lat="48.28993" lon="2.59483">
        <ele>438.4</ele>
        <time>2022-02-06T12:00:47Z</time>
      </trkpt>
      <trkpt lat="48.28994" lon="2.59475">
        <ele>438.8</ele>
        <time>2022-02-06T12:00:51Z</time>
      </trkpt>
      <trkpt lat="48.28992" lon="2.59465">
        <ele>438.6</ele>
        <time>2022-02-06T12:00:55Z</time>
      </trkpt>
      <trkpt lat="48.28992" lon="2.59455">
        <ele>438.4</ele>
        <time>2022-02-06T12:00:59Z</time>
      </trkpt>
      <trkpt lat="48.2899" lon="2.59445">
        <ele>438.8</ele>
        <time>2022-02-06T12:01:03Z</time>
      </trkpt>
      <trkpt lat="48.28988" lon="2.59435">
        <ele>438.6</ele>
        <time>2022-02-06T12:01:07Z</time>
      </trkpt>
      <trkpt lat="48.28985" lon="2.59426">
        <ele>438.8</ele>
        <time>2022-02-06T12:01:11Z</time>
      </trkpt>
      <trkpt lat="48.28984" lon="2.59418">
        <ele>439</ele>
        <time>2022-02-06T12:01:15Z</time>
      </trkpt>
      <trkpt lat="48.28985" lon="2.59409">
        <ele>438.8</ele>
        <time>2022-02-06T12:01:19Z</time>
      </trkpt>
      <trkpt lat="48.28984" lon="2.59402">
        <ele>438.8</ele>
        <time>2022-02-06T12:01:23Z</time>
      </trkpt>
      <trkpt lat="48.28985" lon="2.59395">
        <ele>439.2</ele>
        <time>2022-02-06T12:01:27Z</time>
      </trkpt>
      <trkpt lat="48.28987" lon="2.59389">
        <ele>439</ele>
        <time>2022-02-06T12:01:31Z</time>
      </trkpt>
      <trkpt lat="48.28991" lon="2.59381">
        <ele>439.6</ele>
        <time>2022-02-06T12:01:35Z</time>
      </trkpt>
      <trkpt lat="48.28994" lon="2.59375">
        <ele>439.4</ele>
        <time>2022-02-06T12:01:39Z</time>
      </trkpt>
      <trkpt lat="48.28995" lon="2.59368">
        <ele>439.6</ele>
        <time>2022-02-06T12:01:43Z</time>
      </trkpt>
      <trkpt lat="48.28994" lon="2.59362">
        <ele>439.2</ele>
        <time>2022-02-06T12:01:47Z</time>
      </trkpt>
      <trkpt lat="48.28995" lon="2.59353">
        <ele>439.2</ele>
        <time>2022-02-06T12:01:51Z</time>
      </trkpt>
      <trkpt lat="48.28996" lon="2.59345">
        <ele>440.2</ele>
        <time>2022-02-06T12:01:55Z</time>
      </trkpt>
      <trkpt lat="48.28992" lon="2.59335">
        <ele>439.6</ele>
        <time>2022-02-06T12:01:59Z</time>
      </trkpt>
      <trkpt lat="48.28989" lon="2.5932">
        <ele>439.8</ele>
        <time>2022-02-06T12:02:03Z</time>
      </trkpt>
      <trkpt lat="48.28985" lon="2.59307">
        <ele>439.2</ele>
        <time>2022-02-06T12:02:07Z</time>
      </trkpt>
      <trkpt lat="48.2898" lon="2.59294">
        <ele>439.6</ele>
        <time>2022-02-06T12:02:11Z</time>
      </trkpt>
      <trkpt lat="48.28974" lon="2.59281">
        <ele>439.4</ele>
        <time>2022-02-06T12:02:15Z</time>
      </trkpt>
      <trkpt lat="48.28965" lon="2.59278">
        <ele>440</ele>
        <time>2022-02-06T12:02:19Z</time>
      </trkpt>
      <trkpt lat="48.2896" lon="2.59281">
        <ele>438.8</ele>
        <time>2022-02-06T12:02:23Z</time>
      </trkpt>
      <trkpt lat="48.28955" lon="2.59296">
        <ele>438.8</ele>
        <time>2022-02-06T12:02:27Z</time>
      </trkpt>
      <trkpt lat="48.28944" lon="2.59308">
        <ele>438.8</ele>
        <time>2022-02-06T12:02:31Z</time>
      </trkpt>
      <trkpt lat="48.28932" lon="2.59298">
        <ele>438.6</ele>
        <time>2022-02-06T12:02:35Z</time>
      </trkpt>
      <trkpt lat="48.2892" lon="2.59293">
        <ele>438.4</ele>
        <time>2022-02-06T12:02:39Z</time>
      </trkpt>
      <trkpt lat="48.28918" lon="2.59283">
        <ele>439.4</ele>
        <time>2022-02-06T12:02:43Z</time>
      </trkpt>
      <trkpt lat="48.28917" lon="2.59279">
        <ele>438.8</ele>
        <time>2022-02-06T12:02:47Z</time>
      </trkpt>
      <trkpt lat="48.28917" lon="2.59268">
        <ele>440</ele>
        <time>2022-02-06T12:02:51Z</time>
      </trkpt>
      <trkpt lat="48.28915" lon="2.59252">
        <ele>439.8</ele>
        <time>2022-02-06T12:02:55Z</time>
      </trkpt>
      <trkpt lat="48.28913" lon="2.59239">
        <ele>439.8</ele>
        <time>2022-02-06T12:02:59Z</time>
      </trkpt>
      <trkpt lat="48.28905" lon="2.5922">
        <ele>439</ele>
        <time>2022-02-06T12:03:03Z</time>
      </trkpt>
      <trkpt lat="48.28898" lon="2.59202">
        <ele>439.8</ele>
        <time>2022-02-06T12:03:07Z</time>
      </trkpt>
      <trkpt lat="48.28903" lon="2.59188">
        <ele>439.8</ele>
        <time>2022-02-06T12:03:11Z</time>
      </trkpt>
      <trkpt lat="48.2891" lon="2.59167">
        <ele>440.2</ele>
        <time>2022-02-06T12:03:15Z</time>
      </trkpt>
      <trkpt lat="48.28917" lon="2.59152">
        <ele>441</ele>
        <time>2022-02-06T12:03:19Z</time>
      </trkpt>
      <trkpt lat="48.28923" lon="2.5914">
        <ele>440.2</ele>
        <time>2022-02-06T12:03:23Z</time>
      </trkpt>
      <trkpt lat="48.28929" lon="2.59121">
        <ele>440.2</ele>
        <time>2022-02-06T12:03:27Z</time>
      </trkpt>
      <trkpt lat="48.28931" lon="2.59104">
        <ele>440.2</ele>
        <time>2022-02-06T12:03:31Z</time>
      </trkpt>
      <trkpt lat="48.28933" lon="2.59085">
        <ele>440.2</ele>
        <time>2022-02-06T12:03:35Z</time>
      </trkpt>
      <trkpt lat="48.28934" lon="2.59072">
        <ele>440.4</ele>
        <time>2022-02-06T12:03:39Z</time>
      </trkpt>
      <trkpt lat="48.28935" lon="2.59054">
        <ele>440.2</ele>
        <time>2022-02-06T12:03:43Z</time>
      </trkpt>
      <trkpt lat="48.28938" lon="2.59038">
        <ele>441.2</ele>
        <time>2022-02-06T12:03:47Z</time>
      </trkpt>
      <trkpt lat="48.28932" lon="2.59022">
        <ele>440.6</ele>
        <time>2022-02-06T12:03:51Z</time>
      </trkpt>
      <trkpt lat="48.28923" lon="2.59006">
        <ele>440.6</ele>
        <time>2022-02-06T12:03:55Z</time>
      </trkpt>
      <trkpt lat="48.28916" lon="2.58991">
        <ele>440.6</ele>
        <time>2022-02-06T12:03:59Z</time>
      </trkpt>
      <trkpt lat="48.28911" lon="2.58991">
        <ele>440.2</ele>
        <time>2022-02-06T12:04:03Z</time>
      </trkpt>
      <trkpt lat="48.28907" lon="2.58992">
        <ele>440.6</ele>
        <time>2022-02-06T12:04:07Z</time>
      </trkpt>
      <trkpt lat="48.28897" lon="2.58991">
        <ele>439.8</ele>
        <time>2022-02-06T12:04:11Z</time>
      </trkpt>
      <trkpt lat="48.28887" lon="2.5899">
        <ele>438.4</ele>
        <time>2022-02-06T12:04:15Z</time>
      </trkpt>
      <trkpt lat="48.28878" lon="2.58993">
        <ele>437.8</ele>
        <time>2022-02-06T12:04:19Z</time>
      </trkpt>
      <trkpt lat="48.28875" lon="2.58999">
        <ele>438</ele>
        <time>2022-02-06T12:04:23Z</time>
      </trkpt>
      <trkpt lat="48.2888" lon="2.59007">
        <ele>437.6</ele>
        <time>2022-02-06T12:04:27Z</time>
      </trkpt>
      <trkpt lat="48.28879" lon="2.59024">
        <ele>438.2</ele>
        <time>2022-02-06T12:04:31Z</time>
      </trkpt>
      <trkpt lat="48.28878" lon="2.59039">
        <ele>438</ele>
        <time>2022-02-06T12:04:35Z</time>
      </trkpt>
      <trkpt lat="48.28876" lon="2.59057">
        <ele>438</ele>
        <time>2022-02-06T12:04:39Z</time>
      </trkpt>
      <trkpt lat="48.28875" lon="2.59069">
        <ele>437.6</ele>
        <time>2022-02-06T12:04:43Z</time>
      </trkpt>
      <trkpt lat="48.28875" lon="2.59081">
        <ele>438.2</ele>
        <time>2022-02-06T12:04:47Z</time>
      </trkpt>
      <trkpt lat="48.28873" lon="2.59092">
        <ele>438.2</ele>
        <time>2022-02-06T12:04:51Z</time>
      </trkpt>
      <trkpt lat="48.28871" lon="2.59105">
        <ele>438.6</ele>
        <time>2022-02-06T12:04:55Z</time>
      </trkpt>
      <trkpt lat="48.28869" lon="2.59116">
        <ele>438.2</ele>
        <time>2022-02-06T12:04:59Z</time>
      </trkpt>
      <trkpt lat="48.28866" lon="2.59125">
        <ele>438.6</ele>
        <time>2022-02-06T12:05:03Z</time>
      </trkpt>
      <trkpt lat="48.28863" lon="2.59139">
        <ele>438.8</ele>
        <time>2022-02-06T12:05:07Z</time>
      </trkpt>
      <trkpt lat="48.2886" lon="2.5915">
        <ele>438.8</ele>
        <time>2022-02-06T12:05:11Z</time>
      </trkpt>
      <trkpt lat="48.28859" lon="2.59166">
        <ele>438.8</ele>
        <time>2022-02-06T12:05:15Z</time>
      </trkpt>
      <trkpt lat="48.28859" lon="2.59187">
        <ele>438.6</ele>
        <time>2022-02-06T12:05:19Z</time>
      </trkpt>
      <trkpt lat="48.28857" lon="2.59209">
        <ele>438.4</ele>
        <time>2022-02-06T12:05:23Z</time>
      </trkpt>
      <trkpt lat="48.28853" lon="2.5923">
        <ele>435.6</ele>
        <time>2022-02-06T12:05:27Z</time>
      </trkpt>
      <trkpt lat="48.28855" lon="2.59258">
        <ele>438.2</ele>
        <time>2022-02-06T12:05:31Z</time>
      </trkpt>
      <trkpt lat="48.28855" lon="2.59271">
        <ele>437.8</ele>
        <time>2022-02-06T12:05:35Z</time>
      </trkpt>
      <trkpt lat="48.28849" lon="2.59272">
        <ele>437.8</ele>
        <time>2022-02-06T12:05:39Z</time>
      </trkpt>
      <trkpt lat="48.28841" lon="2.59275">
        <ele>436.8</ele>
        <time>2022-02-06T12:05:43Z</time>
      </trkpt>
      <trkpt lat="48.28834" lon="2.59278">
        <ele>437.2</ele>
        <time>2022-02-06T12:05:47Z</time>
      </trkpt>
      <trkpt lat="48.28828" lon="2.59296">
        <ele>436</ele>
        <time>2022-02-06T12:05:51Z</time>
      </trkpt>
      <trkpt lat="48.28831" lon="2.59318">
        <ele>435.6</ele>
        <time>2022-02-06T12:05:55Z</time>
      </trkpt>
      <trkpt lat="48.28834" lon="2.59333">
        <ele>435.8</ele>
        <time>2022-02-06T12:05:59Z</time>
      </trkpt>
      <trkpt lat="48.28836" lon="2.59347">
        <ele>435.6</ele>
        <time>2022-02-06T12:06:03Z</time>
      </trkpt>
      <trkpt lat="48.28838" lon="2.59363">
        <ele>435.8</ele>
        <time>2022-02-06T12:06:07Z</time>
      </trkpt>
      <trkpt lat="48.28843" lon="2.59382">
        <ele>435.8</ele>
        <time>2022-02-06T12:06:11Z</time>
      </trkpt>
      <trkpt lat="48.28844" lon="2.594">
        <ele>435.4</ele>
        <time>2022-02-06T12:06:15Z</time>
      </trkpt>
      <trkpt lat="48.28834" lon="2.59418">
        <ele>434.6</ele>
        <time>2022-02-06T12:06:19Z</time>
      </trkpt>
      <trkpt lat="48.28812" lon="2.59438">
        <ele>433.8</ele>
        <time>2022-02-06T12:06:23Z</time>
      </trkpt>
      <trkpt lat="48.28787" lon="2.5946">
        <ele>433.6</ele>
        <time>2022-02-06T12:06:27Z</time>
      </trkpt>
      <trkpt lat="48.28765" lon="2.59478">
        <ele>432.8</ele>
        <time>2022-02-06T12:06:31Z</time>
      </trkpt>
      <trkpt lat="48.28754" lon="2.59476">
        <ele>432.4</ele>
        <time>2022-02-06T12:06:35Z</time>
      </trkpt>
      <trkpt lat="48.28747" lon="2.59462">
        <ele>432.8</ele>
        <time>2022-02-06T12:06:39Z</time>
      </trkpt>
      <trkpt lat="48.28741" lon="2.59444">
        <ele>434.2</ele>
        <time>2022-02-06T12:06:43Z</time>
      </trkpt>
      <trkpt lat="48.28735" lon="2.59424">
        <ele>432.6</ele>
        <time>2022-02-06T12:06:47Z</time>
      </trkpt>
      <trkpt lat="48.28728" lon="2.59405">
        <ele>432.4</ele>
        <time>2022-02-06T12:06:51Z</time>
      </trkpt>
      <trkpt lat="48.2872" lon="2.59383">
        <ele>431.4</ele>
        <time>2022-02-06T12:06:55Z</time>
      </trkpt>
      <trkpt lat="48.28714" lon="2.59359">
        <ele>431.8</ele>
        <time>2022-02-06T12:06:59Z</time>
      </trkpt>
      <trkpt lat="48.28707" lon="2.59337">
        <ele>431.8</ele>
        <time>2022-02-06T12:07:03Z</time>
      </trkpt>
      <trkpt lat="48.28699" lon="2.59315">
        <ele>431.2</ele>
        <time>2022-02-06T12:07:07Z</time>
      </trkpt>
      <trkpt lat="48.28689" lon="2.59296">
        <ele>431.8</ele>
        <time>2022-02-06T12:07:11Z</time>
      </trkpt>
      <trkpt lat="48.2868" lon="2.59276">
        <ele>431.8</ele>
        <time>2022-02-06T12:07:15Z</time>
      </trkpt>
      <trkpt lat="48.28671" lon="2.59255">
        <ele>432</ele>
        <time>2022-02-06T12:07:19Z</time>
      </trkpt>
      <trkpt lat="48.28662" lon="2.59236">
        <ele>430.8</ele>
        <time>2022-02-06T12:07:23Z</time>
      </trkpt>
      <trkpt lat="48.28653" lon="2.59218">
        <ele>430.4</ele>
        <time>2022-02-06T12:07:27Z</time>
      </trkpt>
      <trkpt lat="48.28646" lon="2.59201">
        <ele>431.6</ele>
        <time>2022-02-06T12:07:31Z</time>
      </trkpt>
      <trkpt lat="48.28652" lon="2.59183">
        <ele>430</ele>
        <time>2022-02-06T12:07:35Z</time>
      </trkpt>
      <trkpt lat="48.28659" lon="2.59166">
        <ele>430.2</ele>
        <time>2022-02-06T12:07:39Z</time>
      </trkpt>
      <trkpt lat="48.28666" lon="2.5915">
        <ele>429.8</ele>
        <time>2022-02-06T12:07:43Z</time>
      </trkpt>
      <trkpt lat="48.28672" lon="2.59132">
        <ele>430</ele>
        <time>2022-02-06T12:07:47Z</time>
      </trkpt>
      <trkpt lat="48.28678" lon="2.59114">
        <ele>430.8</ele>
        <time>2022-02-06T12:07:51Z</time>
      </trkpt>
      <trkpt lat="48.28683" lon="2.59098">
        <ele>429.8</ele>
        <time>2022-02-06T12:07:55Z</time>
      </trkpt>
      <trkpt lat="48.28689" lon="2.59081">
        <ele>429.8</ele>
        <time>2022-02-06T12:07:59Z</time>
      </trkpt>
      <trkpt lat="48.28695" lon="2.59065">
        <ele>429.8</ele>
        <time>2022-02-06T12:08:03Z</time>
      </trkpt>
      <trkpt lat="48.28702" lon="2.59049">
        <ele>429</ele>
        <time>2022-02-06T12:08:07Z</time>
      </trkpt>
      <trkpt lat="48.28707" lon="2.59032">
        <ele>429.2</ele>
        <time>2022-02-06T12:08:11Z</time>
      </trkpt>
      <trkpt lat="48.28711" lon="2.59016">
        <ele>429.2</ele>
        <time>2022-02-06T12:08:15Z</time>
      </trkpt>
      <trkpt lat="48.28717" lon="2.59004">
        <ele>429.6</ele>
        <time>2022-02-06T12:08:19Z</time>
      </trkpt>
      <trkpt lat="48.28723" lon="2.58993">
        <ele>429.4</ele>
        <time>2022-02-06T12:08:23Z</time>
      </trkpt>
      <trkpt lat="48.2873" lon="2.58985">
        <ele>429.4</ele>
        <time>2022-02-06T12:08:27Z</time>
      </trkpt>
      <trkpt lat="48.28737" lon="2.58979">
        <ele>430</ele>
        <time>2022-02-06T12:08:31Z</time>
      </trkpt>
      <trkpt lat="48.28745" lon="2.58971">
        <ele>430.2</ele>
        <time>2022-02-06T12:08:35Z</time>
      </trkpt>
      <trkpt lat="48.28752" lon="2.58965">
        <ele>430.2</ele>
        <time>2022-02-06T12:08:39Z</time>
      </trkpt>
      <trkpt lat="48.28758" lon="2.58957">
        <ele>430.2</ele>
        <time>2022-02-06T12:08:43Z</time>
      </trkpt>
      <trkpt lat="48.28766" lon="2.5895">
        <ele>430.6</ele>
        <time>2022-02-06T12:08:47Z</time>
      </trkpt>
      <trkpt lat="48.28774" lon="2.58944">
        <ele>430.8</ele>
        <time>2022-02-06T12:08:51Z</time>
      </trkpt>
      <trkpt lat="48.2878" lon="2.58934">
        <ele>431</ele>
        <time>2022-02-06T12:08:55Z</time>
      </trkpt>
      <trkpt lat="48.28787" lon="2.58925">
        <ele>431.2</ele>
        <time>2022-02-06T12:08:59Z</time>
      </trkpt>
      <trkpt lat="48.28795" lon="2.58916">
        <ele>431.6</ele>
        <time>2022-02-06T12:09:03Z</time>
      </trkpt>
      <trkpt lat="48.28802" lon="2.5891">
        <ele>432</ele>
        <time>2022-02-06T12:09:07Z</time>
      </trkpt>
      <trkpt lat="48.28809" lon="2.58904">
        <ele>432.2</ele>
        <time>2022-02-06T12:09:11Z</time>
      </trkpt>
      <trkpt lat="48.28817" lon="2.589">
        <ele>432.2</ele>
        <time>2022-02-06T12:09:15Z</time>
      </trkpt>
      <trkpt lat="48.28825" lon="2.58897">
        <ele>432.6</ele>
        <time>2022-02-06T12:09:19Z</time>
      </trkpt>
      <trkpt lat="48.28832" lon="2.58894">
        <ele>432.6</ele>
        <time>2022-02-06T12:09:23Z</time>
      </trkpt>
      <trkpt lat="48.28841" lon="2.58895">
        <ele>432.6</ele>
        <time>2022-02-06T12:09:27Z</time>
      </trkpt>
      <trkpt lat="48.28849" lon="2.58896">
        <ele>432.6</ele>
        <time>2022-02-06T12:09:31Z</time>
      </trkpt>
      <trkpt lat="48.28856" lon="2.58896">
        <ele>432.8</ele>
        <time>2022-02-06T12:09:35Z</time>
      </trkpt>
      <trkpt lat="48.28863" lon="2.58893">
        <ele>432.6</ele>
        <time>2022-02-06T12:09:39Z</time>
      </trkpt>
      <trkpt lat="48.2887" lon="2.5889">
        <ele>433.2</ele>
        <time>2022-02-06T12:09:43Z</time>
      </trkpt>
      <trkpt lat="48.28877" lon="2.5889">
        <ele>433.2</ele>
        <time>2022-02-06T12:09:47Z</time>
      </trkpt>
      <trkpt lat="48.28884" lon="2.58892">
        <ele>433.4</ele>
        <time>2022-02-06T12:09:51Z</time>
      </trkpt>
      <trkpt lat="48.28892" lon="2.58892">
        <ele>433.2</ele>
        <time>2022-02-06T12:09:55Z</time>
      </trkpt>
      <trkpt lat="48.28899" lon="2.58886">
        <ele>433.6</ele>
        <time>2022-02-06T12:09:59Z</time>
      </trkpt>
      <trkpt lat="48.28899" lon="2.58873">
        <ele>433.6</ele>
        <time>2022-02-06T12:10:03Z</time>
      </trkpt>
      <trkpt lat="48.28896" lon="2.5886">
        <ele>433.8</ele>
        <time>2022-02-06T12:10:07Z</time>
      </trkpt>
      <trkpt lat="48.28893" lon="2.58846">
        <ele>433.2</ele>
        <time>2022-02-06T12:10:11Z</time>
      </trkpt>
      <trkpt lat="48.28887" lon="2.58833">
        <ele>433.2</ele>
        <time>2022-02-06T12:10:15Z</time>
      </trkpt>
      <trkpt lat="48.2888" lon="2.58821">
        <ele>433.4</ele>
        <time>2022-02-06T12:10:19Z</time>
      </trkpt>
      <trkpt lat="48.28872" lon="2.58818">
        <ele>433.2</ele>
        <time>2022-02-06T12:10:23Z</time>
      </trkpt>
      <trkpt lat="48.28864" lon="2.58816">
        <ele>433.2</ele>
        <time>2022-02-06T12:10:27Z</time>
      </trkpt>
      <trkpt lat="48.28856" lon="2.58818">
        <ele>433.4</ele>
        <time>2022-02-06T12:10:31Z</time>
      </trkpt>
      <trkpt lat="48.28851" lon="2.58819">
        <ele>433.2</ele>
        <time>2022-02-06T12:10:35Z</time>
      </trkpt>
      <trkpt lat="48.28845" lon="2.58818">
        <ele>432.6</ele>
        <time>2022-02-06T12:10:39Z</time>
      </trkpt>
      <trkpt lat="48.28838" lon="2.58807">
        <ele>432.8</ele>
        <time>2022-02-06T12:10:43Z</time>
      </trkpt>
      <trkpt lat="48.2883" lon="2.58798">
        <ele>433.2</ele>
        <time>2022-02-06T12:10:47Z</time>
      </trkpt>
      <trkpt lat="48.28821" lon="2.58798">
        <ele>432.6</ele>
        <time>2022-02-06T12:10:51Z</time>
      </trkpt>
      <trkpt lat="48.28805" lon="2.58795">
        <ele>432.4</ele>
        <time>2022-02-06T12:10:55Z</time>
      </trkpt>
      <trkpt lat="48.28796" lon="2.58792">
        <ele>433.6</ele>
        <time>2022-02-06T12:10:59Z</time>
      </trkpt>
      <trkpt lat="48.2879" lon="2.58792">
        <ele>432.6</ele>
        <time>2022-02-06T12:11:03Z</time>
      </trkpt>
      <trkpt lat="48.28783" lon="2.58798">
        <ele>433.2</ele>
        <time>2022-02-06T12:11:07Z</time>
      </trkpt>
      <trkpt lat="48.28773" lon="2.58807">
        <ele>432.8</ele>
        <time>2022-02-06T12:11:11Z</time>
      </trkpt>
      <trkpt lat="48.28761" lon="2.58807">
        <ele>433.2</ele>
        <time>2022-02-06T12:11:15Z</time>
      </trkpt>
      <trkpt lat="48.28753" lon="2.58805">
        <ele>433.6</ele>
        <time>2022-02-06T12:11:19Z</time>
      </trkpt>
      <trkpt lat="48.28744" lon="2.58797">
        <ele>434</ele>
        <time>2022-02-06T12:11:31Z</time>
      </trkpt>
      <trkpt lat="48.28735" lon="2.58783">
        <ele>433.4</ele>
        <time>2022-02-06T12:11:35Z</time>
      </trkpt>
      <trkpt lat="48.28725" lon="2.5878">
        <ele>433.2</ele>
        <time>2022-02-06T12:11:39Z</time>
      </trkpt>
      <trkpt lat="48.28716" lon="2.58781">
        <ele>431</ele>
        <time>2022-02-06T12:11:43Z</time>
      </trkpt>
      <trkpt lat="48.28705" lon="2.58784">
        <ele>431.8</ele>
        <time>2022-02-06T12:11:47Z</time>
      </trkpt>
      <trkpt lat="48.28695" lon="2.58786">
        <ele>432.6</ele>
        <time>2022-02-06T12:11:51Z</time>
      </trkpt>
      <trkpt lat="48.28687" lon="2.5878">
        <ele>432.4</ele>
        <time>2022-02-06T12:11:55Z</time>
      </trkpt>
      <trkpt lat="48.28676" lon="2.58776">
        <ele>433</ele>
        <time>2022-02-06T12:11:59Z</time>
      </trkpt>
      <trkpt lat="48.28667" lon="2.58775">
        <ele>432</ele>
        <time>2022-02-06T12:12:03Z</time>
      </trkpt>
      <trkpt lat="48.28657" lon="2.58772">
        <ele>432.6</ele>
        <time>2022-02-06T12:12:07Z</time>
      </trkpt>
      <trkpt lat="48.2863" lon="2.5877">
        <ele>432.8</ele>
        <time>2022-02-06T12:12:26Z</time>
      </trkpt>
      <trkpt lat="48.28622" lon="2.58772">
        <ele>432</ele>
        <time>2022-02-06T12:12:30Z</time>
      </trkpt>
      <trkpt lat="48.2862" lon="2.58779">
        <ele>432.8</ele>
        <time>2022-02-06T12:12:34Z</time>
      </trkpt>
      <trkpt lat="48.28614" lon="2.58789">
        <ele>432.4</ele>
        <time>2022-02-06T12:12:38Z</time>
      </trkpt>
      <trkpt lat="48.2861" lon="2.58794">
        <ele>434.4</ele>
        <time>2022-02-06T12:12:42Z</time>
      </trkpt>
      <trkpt lat="48.28619" lon="2.58795">
        <ele>428.8</ele>
        <time>2022-02-06T12:12:46Z</time>
      </trkpt>
      <trkpt lat="48.28623" lon="2.588">
        <ele>431.6</ele>
        <time>2022-02-06T12:12:50Z</time>
      </trkpt>
      <trkpt lat="48.28627" lon="2.58802">
        <ele>431.8</ele>
        <time>2022-02-06T12:12:54Z</time>
      </trkpt>
      <trkpt lat="48.28635" lon="2.58808">
        <ele>431.8</ele>
        <time>2022-02-06T12:12:58Z</time>
      </trkpt>
      <trkpt lat="48.28643" lon="2.58812">
        <ele>431.4</ele>
        <time>2022-02-06T12:13:02Z</time>
      </trkpt>
      <trkpt lat="48.28647" lon="2.58819">
        <ele>431.4</ele>
        <time>2022-02-06T12:13:06Z</time>
      </trkpt>
      <trkpt lat="48.28657" lon="2.58824">
        <ele>431.2</ele>
        <time>2022-02-06T12:13:10Z</time>
      </trkpt>
      <trkpt lat="48.28664" lon="2.58826">
        <ele>431.4</ele>
        <time>2022-02-06T12:13:14Z</time>
      </trkpt>
      <trkpt lat="48.28673" lon="2.58829">
        <ele>431.8</ele>
        <time>2022-02-06T12:13:18Z</time>
      </trkpt>
      <trkpt lat="48.28681" lon="2.58833">
        <ele>432.2</ele>
        <time>2022-02-06T12:13:22Z</time>
      </trkpt>
      <trkpt lat="48.28689" lon="2.58833">
        <ele>432.6</ele>
        <time>2022-02-06T12:13:26Z</time>
      </trkpt>
      <trkpt lat="48.28695" lon="2.58835">
        <ele>432.8</ele>
        <time>2022-02-06T12:13:30Z</time>
      </trkpt>
      <trkpt lat="48.287" lon="2.58839">
        <ele>433</ele>
        <time>2022-02-06T12:13:34Z</time>
      </trkpt>
      <trkpt lat="48.28703" lon="2.5884">
        <ele>432.6</ele>
        <time>2022-02-06T12:13:38Z</time>
      </trkpt>
      <trkpt lat="48.28709" lon="2.58846">
        <ele>432.8</ele>
        <time>2022-02-06T12:13:42Z</time>
      </trkpt>
      <trkpt lat="48.28714" lon="2.5885">
        <ele>433.2</ele>
        <time>2022-02-06T12:13:46Z</time>
      </trkpt>
      <trkpt lat="48.28724" lon="2.58865">
        <ele>433</ele>
        <time>2022-02-06T12:13:50Z</time>
      </trkpt>
      <trkpt lat="48.28731" lon="2.58885">
        <ele>431.6</ele>
        <time>2022-02-06T12:13:54Z</time>
      </trkpt>
      <trkpt lat="48.28731" lon="2.58891">
        <ele>432.4</ele>
        <time>2022-02-06T12:13:58Z</time>
      </trkpt>
      <trkpt lat="48.28725" lon="2.58893">
        <ele>429</ele>
        <time>2022-02-06T12:14:02Z</time>
      </trkpt>
      <trkpt lat="48.28719" lon="2.58894">
        <ele>431.8</ele>
        <time>2022-02-06T12:14:06Z</time>
      </trkpt>
      <trkpt lat="48.28716" lon="2.5889">
        <ele>431.8</ele>
        <time>2022-02-06T12:14:10Z</time>
      </trkpt>
      <trkpt lat="48.28709" lon="2.58885">
        <ele>431.8</ele>
        <time>2022-02-06T12:14:14Z</time>
      </trkpt>
      <trkpt lat="48.28701" lon="2.58876">
        <ele>432.2</ele>
        <time>2022-02-06T12:14:18Z</time>
      </trkpt>
      <trkpt lat="48.28692" lon="2.58866">
        <ele>431.2</ele>
        <time>2022-02-06T12:14:22Z</time>
      </trkpt>
      <trkpt lat="48.28684" lon="2.58863">
        <ele>430.6</ele>
        <time>2022-02-06T12:14:26Z</time>
      </trkpt>
      <trkpt lat="48.28679" lon="2.58859">
        <ele>432.4</ele>
        <time>2022-02-06T12:14:30Z</time>
      </trkpt>
      <trkpt lat="48.28674" lon="2.58851">
        <ele>431.4</ele>
        <time>2022-02-06T12:14:34Z</time>
      </trkpt>
      <trkpt lat="48.28663" lon="2.58847">
        <ele>431.4</ele>
        <time>2022-02-06T12:14:38Z</time>
      </trkpt>
      <trkpt lat="48.28652" lon="2.58844">
        <ele>431.8</ele>
        <time>2022-02-06T12:14:42Z</time>
      </trkpt>
      <trkpt lat="48.28643" lon="2.58848">
        <ele>431.4</ele>
        <time>2022-02-06T12:14:46Z</time>
      </trkpt>
      <trkpt lat="48.28637" lon="2.58852">
        <ele>431.4</ele>
        <time>2022-02-06T12:14:50Z</time>
      </trkpt>
      <trkpt lat="48.28631" lon="2.58851">
        <ele>431.8</ele>
        <time>2022-02-06T12:14:54Z</time>
      </trkpt>
      <trkpt lat="48.28623" lon="2.5885">
        <ele>431.6</ele>
        <time>2022-02-06T12:14:58Z</time>
      </trkpt>
      <trkpt lat="48.28611" lon="2.58852">
        <ele>431.4</ele>
        <time>2022-02-06T12:15:02Z</time>
      </trkpt>
      <trkpt lat="48.286" lon="2.58852">
        <ele>431.2</ele>
        <time>2022-02-06T12:15:06Z</time>
      </trkpt>
      <trkpt lat="48.28588" lon="2.58854">
        <ele>431.6</ele>
        <time>2022-02-06T12:15:10Z</time>
      </trkpt>
      <trkpt lat="48.28579" lon="2.58866">
        <ele>431</ele>
        <time>2022-02-06T12:15:14Z</time>
      </trkpt>
      <trkpt lat="48.28569" lon="2.58888">
        <ele>430.4</ele>
        <time>2022-02-06T12:15:18Z</time>
      </trkpt>
      <trkpt lat="48.28561" lon="2.58914">
        <ele>430.6</ele>
        <time>2022-02-06T12:15:22Z</time>
      </trkpt>
      <trkpt lat="48.28551" lon="2.5892">
        <ele>430.8</ele>
        <time>2022-02-06T12:15:26Z</time>
      </trkpt>
      <trkpt lat="48.2854" lon="2.58933">
        <ele>430.2</ele>
        <time>2022-02-06T12:15:30Z</time>
      </trkpt>
      <trkpt lat="48.2853" lon="2.58941">
        <ele>430.6</ele>
        <time>2022-02-06T12:15:34Z</time>
      </trkpt>
      <trkpt lat="48.28525" lon="2.58933">
        <ele>430.8</ele>
        <time>2022-02-06T12:15:38Z</time>
      </trkpt>
      <trkpt lat="48.28519" lon="2.58928">
        <ele>430.6</ele>
        <time>2022-02-06T12:15:42Z</time>
      </trkpt>
      <trkpt lat="48.2851" lon="2.5892">
        <ele>431.4</ele>
        <time>2022-02-06T12:15:46Z</time>
      </trkpt>
      <trkpt lat="48.28505" lon="2.5891">
        <ele>432</ele>
        <time>2022-02-06T12:15:50Z</time>
      </trkpt>
      <trkpt lat="48.28498" lon="2.58906">
        <ele>431</ele>
        <time>2022-02-06T12:15:54Z</time>
      </trkpt>
      <trkpt lat="48.28492" lon="2.58894">
        <ele>431.8</ele>
        <time>2022-02-06T12:15:58Z</time>
      </trkpt>
      <trkpt lat="48.28484" lon="2.58885">
        <ele>431.2</ele>
        <time>2022-02-06T12:16:02Z</time>
      </trkpt>
      <trkpt lat="48.28479" lon="2.58875">
        <ele>431.2</ele>
        <time>2022-02-06T12:16:06Z</time>
      </trkpt>
      <trkpt lat="48.28473" lon="2.58862">
        <ele>431.2</ele>
        <time>2022-02-06T12:16:10Z</time>
      </trkpt>
      <trkpt lat="48.28464" lon="2.58854">
        <ele>432</ele>
        <time>2022-02-06T12:16:14Z</time>
      </trkpt>
      <trkpt lat="48.28454" lon="2.58859">
        <ele>431.6</ele>
        <time>2022-02-06T12:16:18Z</time>
      </trkpt>
      <trkpt lat="48.28439" lon="2.58874">
        <ele>431</ele>
        <time>2022-02-06T12:16:22Z</time>
      </trkpt>
      <trkpt lat="48.28421" lon="2.589">
        <ele>431</ele>
        <time>2022-02-06T12:16:26Z</time>
      </trkpt>
      <trkpt lat="48.28399" lon="2.5893">
        <ele>431.2</ele>
        <time>2022-02-06T12:16:30Z</time>
      </trkpt>
      <trkpt lat="48.28379" lon="2.58962">
        <ele>430.2</ele>
        <time>2022-02-06T12:16:34Z</time>
      </trkpt>
      <trkpt lat="48.28357" lon="2.58997">
        <ele>429.8</ele>
        <time>2022-02-06T12:16:38Z</time>
      </trkpt>
      <trkpt lat="48.28337" lon="2.59028">
        <ele>429.2</ele>
        <time>2022-02-06T12:16:42Z</time>
      </trkpt>
      <trkpt lat="48.28319" lon="2.59051">
        <ele>429.6</ele>
        <time>2022-02-06T12:16:46Z</time>
      </trkpt>
      <trkpt lat="48.28303" lon="2.59071">
        <ele>430.6</ele>
        <time>2022-02-06T12:16:50Z</time>
      </trkpt>
      <trkpt lat="48.28288" lon="2.59089">
        <ele>429.2</ele>
        <time>2022-02-06T12:16:54Z</time>
      </trkpt>
      <trkpt lat="48.28273" lon="2.5911">
        <ele>430.4</ele>
        <time>2022-02-06T12:16:58Z</time>
      </trkpt>
      <trkpt lat="48.28258" lon="2.5913">
        <ele>430.8</ele>
        <time>2022-02-06T12:17:02Z</time>
      </trkpt>
      <trkpt lat="48.28245" lon="2.59148">
        <ele>430.8</ele>
        <time>2022-02-06T12:17:06Z</time>
      </trkpt>
      <trkpt lat="48.28233" lon="2.59162">
        <ele>427.6</ele>
        <time>2022-02-06T12:17:10Z</time>
      </trkpt>
      <trkpt lat="48.28224" lon="2.59177">
        <ele>429.2</ele>
        <time>2022-02-06T12:17:14Z</time>
      </trkpt>
      <trkpt lat="48.28212" lon="2.59177">
        <ele>429.4</ele>
        <time>2022-02-06T12:17:18Z</time>
      </trkpt>
      <trkpt lat="48.28203" lon="2.59165">
        <ele>429.4</ele>
        <time>2022-02-06T12:17:22Z</time>
      </trkpt>
      <trkpt lat="48.28196" lon="2.59151">
        <ele>429.2</ele>
        <time>2022-02-06T12:17:26Z</time>
      </trkpt>
      <trkpt lat="48.28189" lon="2.59137">
        <ele>429.4</ele>
        <time>2022-02-06T12:17:30Z</time>
      </trkpt>
      <trkpt lat="48.28182" lon="2.5913">
        <ele>429.4</ele>
        <time>2022-02-06T12:17:34Z</time>
      </trkpt>
      <trkpt lat="48.28176" lon="2.59124">
        <ele>429.6</ele>
        <time>2022-02-06T12:17:38Z</time>
      </trkpt>
      <trkpt lat="48.28171" lon="2.59116">
        <ele>430</ele>
        <time>2022-02-06T12:17:42Z</time>
      </trkpt>
      <trkpt lat="48.28167" lon="2.59106">
        <ele>429.8</ele>
        <time>2022-02-06T12:17:46Z</time>
      </trkpt>
      <trkpt lat="48.28163" lon="2.59096">
        <ele>429.4</ele>
        <time>2022-02-06T12:17:50Z</time>
      </trkpt>
      <trkpt lat="48.28158" lon="2.59087">
        <ele>429.8</ele>
        <time>2022-02-06T12:17:54Z</time>
      </trkpt>
      <trkpt lat="48.28154" lon="2.59078">
        <ele>429.8</ele>
        <time>2022-02-06T12:17:58Z</time>
      </trkpt>
      <trkpt lat="48.2815" lon="2.5907">
        <ele>429.8</ele>
        <time>2022-02-06T12:18:02Z</time>
      </trkpt>
      <trkpt lat="48.28146" lon="2.59062">
        <ele>430.2</ele>
        <time>2022-02-06T12:18:06Z</time>
      </trkpt>
      <trkpt lat="48.28142" lon="2.59053">
        <ele>429.8</ele>
        <time>2022-02-06T12:18:10Z</time>
      </trkpt>
      <trkpt lat="48.28137" lon="2.59046">
        <ele>430</ele>
        <time>2022-02-06T12:18:14Z</time>
      </trkpt>
      <trkpt lat="48.28134" lon="2.59039">
        <ele>430.2</ele>
        <time>2022-02-06T12:18:18Z</time>
      </trkpt>
      <trkpt lat="48.2813" lon="2.59032">
        <ele>430.8</ele>
        <time>2022-02-06T12:18:22Z</time>
      </trkpt>
      <trkpt lat="48.28128" lon="2.59023">
        <ele>430.6</ele>
        <time>2022-02-06T12:18:26Z</time>
      </trkpt>
      <trkpt lat="48.28128" lon="2.59016">
        <ele>430.8</ele>
        <time>2022-02-06T12:18:30Z</time>
      </trkpt>
      <trkpt lat="48.28126" lon="2.59009">
        <ele>430.8</ele>
        <time>2022-02-06T12:18:34Z</time>
      </trkpt>
      <trkpt lat="48.28123" lon="2.59002">
        <ele>430.8</ele>
        <time>2022-02-06T12:18:38Z</time>
      </trkpt>
      <trkpt lat="48.28121" lon="2.59">
        <ele>431.6</ele>
        <time>2022-02-06T12:18:42Z</time>
      </trkpt>
      <trkpt lat="48.28117" lon="2.59005">
        <ele>431.2</ele>
        <time>2022-02-06T12:18:46Z</time>
      </trkpt>
      <trkpt lat="48.28116" lon="2.59027">
        <ele>431</ele>
        <time>2022-02-06T12:18:50Z</time>
      </trkpt>
      <trkpt lat="48.28113" lon="2.59059">
        <ele>430.8</ele>
        <time>2022-02-06T12:18:54Z</time>
      </trkpt>
      <trkpt lat="48.28113" lon="2.59099">
        <ele>430.6</ele>
        <time>2022-02-06T12:18:58Z</time>
      </trkpt>
      <trkpt lat="48.28105" lon="2.59138">
        <ele>430.6</ele>
        <time>2022-02-06T12:19:02Z</time>
      </trkpt>
      <trkpt lat="48.28103" lon="2.59163">
        <ele>430.4</ele>
        <time>2022-02-06T12:19:06Z</time>
      </trkpt>
      <trkpt lat="48.28103" lon="2.59185">
        <ele>430.8</ele>
        <time>2022-02-06T12:19:10Z</time>
      </trkpt>
      <trkpt lat="48.28107" lon="2.59206">
        <ele>431.2</ele>
        <time>2022-02-06T12:19:14Z</time>
      </trkpt>
      <trkpt lat="48.2811" lon="2.59224">
        <ele>431</ele>
        <time>2022-02-06T12:19:18Z</time>
      </trkpt>
      <trkpt lat="48.28108" lon="2.59242">
        <ele>431.2</ele>
        <time>2022-02-06T12:19:22Z</time>
      </trkpt>
      <trkpt lat="48.28103" lon="2.59253">
        <ele>431.2</ele>
        <time>2022-02-06T12:19:26Z</time>
      </trkpt>
      <trkpt lat="48.28097" lon="2.59263">
        <ele>432</ele>
        <time>2022-02-06T12:19:30Z</time>
      </trkpt>
      <trkpt lat="48.28089" lon="2.59272">
        <ele>432</ele>
        <time>2022-02-06T12:19:34Z</time>
      </trkpt>
      <trkpt lat="48.28082" lon="2.59286">
        <ele>432.4</ele>
        <time>2022-02-06T12:19:38Z</time>
      </trkpt>
      <trkpt lat="48.28077" lon="2.59301">
        <ele>432.6</ele>
        <time>2022-02-06T12:19:42Z</time>
      </trkpt>
      <trkpt lat="48.2807" lon="2.59313">
        <ele>432.6</ele>
        <time>2022-02-06T12:19:46Z</time>
      </trkpt>
      <trkpt lat="48.28069" lon="2.59321">
        <ele>433.2</ele>
        <time>2022-02-06T12:19:50Z</time>
      </trkpt>
      <trkpt lat="48.28077" lon="2.59318">
        <ele>433</ele>
        <time>2022-02-06T12:19:54Z</time>
      </trkpt>
      <trkpt lat="48.28087" lon="2.59308">
        <ele>431.6</ele>
        <time>2022-02-06T12:19:58Z</time>
      </trkpt>
      <trkpt lat="48.28104" lon="2.59307">
        <ele>431</ele>
        <time>2022-02-06T12:20:02Z</time>
      </trkpt>
      <trkpt lat="48.28121" lon="2.59304">
        <ele>432</ele>
        <time>2022-02-06T12:20:06Z</time>
      </trkpt>
      <trkpt lat="48.28128" lon="2.59294">
        <ele>431.2</ele>
        <time>2022-02-06T12:20:10Z</time>
      </trkpt>
      <trkpt lat="48.28141" lon="2.59296">
        <ele>430.2</ele>
        <time>2022-02-06T12:20:14Z</time>
      </trkpt>
      <trkpt lat="48.28161" lon="2.59308">
        <ele>430.8</ele>
        <time>2022-02-06T12:20:18Z</time>
      </trkpt>
      <trkpt lat="48.28187" lon="2.59322">
        <ele>429.6</ele>
        <time>2022-02-06T12:20:22Z</time>
      </trkpt>
      <trkpt lat="48.28213" lon="2.59337">
        <ele>428.4</ele>
        <time>2022-02-06T12:20:26Z</time>
      </trkpt>
      <trkpt lat="48.2821" lon="2.59358">
        <ele>428.4</ele>
        <time>2022-02-06T12:20:30Z</time>
      </trkpt>
      <trkpt lat="48.28201" lon="2.59379">
        <ele>429.8</ele>
        <time>2022-02-06T12:20:34Z</time>
      </trkpt>
      <trkpt lat="48.28189" lon="2.59405">
        <ele>430.6</ele>
        <time>2022-02-06T12:20:38Z</time>
      </trkpt>
      <trkpt lat="48.28179" lon="2.59433">
        <ele>429</ele>
        <time>2022-02-06T12:20:42Z</time>
      </trkpt>
      <trkpt lat="48.28171" lon="2.59464">
        <ele>428.8</ele>
        <time>2022-02-06T12:20:46Z</time>
      </trkpt>
      <trkpt lat="48.28165" lon="2.59494">
        <ele>428.8</ele>
        <time>2022-02-06T12:20:50Z</time>
      </trkpt>
      <trkpt lat="48.28158" lon="2.59523">
        <ele>429.2</ele>
        <time>2022-02-06T12:20:54Z</time>
      </trkpt>
      <trkpt lat="48.28163" lon="2.59552">
        <ele>428.6</ele>
        <time>2022-02-06T12:20:58Z</time>
      </trkpt>
      <trkpt lat="48.28181" lon="2.59569">
        <ele>428.2</ele>
        <time>2022-02-06T12:21:02Z</time>
      </trkpt>
      <trkpt lat="48.282" lon="2.59596">
        <ele>427.4</ele>
        <time>2022-02-06T12:21:06Z</time>
      </trkpt>
      <trkpt lat="48.2822" lon="2.59623">
        <ele>426.2</ele>
        <time>2022-02-06T12:21:10Z</time>
      </trkpt>
      <trkpt lat="48.2824" lon="2.59647">
        <ele>427.2</ele>
        <time>2022-02-06T12:21:14Z</time>
      </trkpt>
      <trkpt lat="48.2826" lon="2.59669">
        <ele>425.8</ele>
        <time>2022-02-06T12:21:18Z</time>
      </trkpt>
      <trkpt lat="48.28278" lon="2.59691">
        <ele>426</ele>
        <time>2022-02-06T12:21:22Z</time>
      </trkpt>
      <trkpt lat="48.2828" lon="2.59711">
        <ele>424.6</ele>
        <time>2022-02-06T12:21:26Z</time>
      </trkpt>
      <trkpt lat="48.28279" lon="2.59735">
        <ele>425.2</ele>
        <time>2022-02-06T12:21:30Z</time>
      </trkpt>
      <trkpt lat="48.2829" lon="2.59756">
        <ele>424.6</ele>
        <time>2022-02-06T12:21:34Z</time>
      </trkpt>
      <trkpt lat="48.28306" lon="2.59776">
        <ele>425.2</ele>
        <time>2022-02-06T12:21:38Z</time>
      </trkpt>
      <trkpt lat="48.28317" lon="2.59787">
        <ele>424.4</ele>
        <time>2022-02-06T12:21:42Z</time>
      </trkpt>
      <trkpt lat="48.28328" lon="2.59781">
        <ele>424.2</ele>
        <time>2022-02-06T12:21:46Z</time>
      </trkpt>
      <trkpt lat="48.28343" lon="2.59784">
        <ele>423.8</ele>
        <time>2022-02-06T12:21:50Z</time>
      </trkpt>
      <trkpt lat="48.28356" lon="2.59808">
        <ele>424</ele>
        <time>2022-02-06T12:21:54Z</time>
      </trkpt>
      <trkpt lat="48.28375" lon="2.59823">
        <ele>423.2</ele>
        <time>2022-02-06T12:21:58Z</time>
      </trkpt>
      <trkpt lat="48.28397" lon="2.59826">
        <ele>423.4</ele>
        <time>2022-02-06T12:22:02Z</time>
      </trkpt>
      <trkpt lat="48.28418" lon="2.59829">
        <ele>423.8</ele>
        <time>2022-02-06T12:22:06Z</time>
      </trkpt>
      <trkpt lat="48.28439" lon="2.59833">
        <ele>423</ele>
        <time>2022-02-06T12:22:10Z</time>
      </trkpt>
      <trkpt lat="48.28461" lon="2.59836">
        <ele>423.2</ele>
        <time>2022-02-06T12:22:14Z</time>
      </trkpt>
      <trkpt lat="48.28483" lon="2.59841">
        <ele>423.2</ele>
        <time>2022-02-06T12:22:18Z</time>
      </trkpt>
      <trkpt lat="48.28493" lon="2.59835">
        <ele>422.6</ele>
        <time>2022-02-06T12:22:22Z</time>
      </trkpt>
      <trkpt lat="48.28491" lon="2.59811">
        <ele>422.8</ele>
        <time>2022-02-06T12:22:26Z</time>
      </trkpt>
      <trkpt lat="48.28487" lon="2.59787">
        <ele>422.8</ele>
        <time>2022-02-06T12:22:30Z</time>
      </trkpt>
      <trkpt lat="48.28474" lon="2.59773">
        <ele>422.6</ele>
        <time>2022-02-06T12:22:34Z</time>
      </trkpt>
      <trkpt lat="48.28457" lon="2.59766">
        <ele>422.8</ele>
        <time>2022-02-06T12:22:38Z</time>
      </trkpt>
      <trkpt lat="48.2844" lon="2.59758">
        <ele>422.6</ele>
        <time>2022-02-06T12:22:42Z</time>
      </trkpt>
      <trkpt lat="48.28423" lon="2.59749">
        <ele>422.8</ele>
        <time>2022-02-06T12:22:46Z</time>
      </trkpt>
      <trkpt lat="48.28406" lon="2.59748">
        <ele>422.6</ele>
        <time>2022-02-06T12:22:50Z</time>
      </trkpt>
      <trkpt lat="48.28389" lon="2.5975">
        <ele>422</ele>
        <time>2022-02-06T12:22:54Z</time>
      </trkpt>
      <trkpt lat="48.28372" lon="2.59754">
        <ele>422.2</ele>
        <time>2022-02-06T12:22:58Z</time>
      </trkpt>
      <trkpt lat="48.28357" lon="2.59762">
        <ele>422.6</ele>
        <time>2022-02-06T12:23:02Z</time>
      </trkpt>
      <trkpt lat="48.28344" lon="2.59771">
        <ele>422.8</ele>
        <time>2022-02-06T12:23:06Z</time>
      </trkpt>
      <trkpt lat="48.28333" lon="2.59781">
        <ele>422.8</ele>
        <time>2022-02-06T12:23:10Z</time>
      </trkpt>
      <trkpt lat="48.28322" lon="2.59788">
        <ele>422.8</ele>
        <time>2022-02-06T12:23:14Z</time>
      </trkpt>
      <trkpt lat="48.28312" lon="2.59799">
        <ele>422.6</ele>
        <time>2022-02-06T12:23:18Z</time>
      </trkpt>
      <trkpt lat="48.283" lon="2.5981">
        <ele>422.8</ele>
        <time>2022-02-06T12:23:22Z</time>
      </trkpt>
      <trkpt lat="48.28285" lon="2.5982">
        <ele>423.2</ele>
        <time>2022-02-06T12:23:26Z</time>
      </trkpt>
      <trkpt lat="48.28283" lon="2.59826">
        <ele>422.4</ele>
        <time>2022-02-06T12:23:30Z</time>
      </trkpt>
      <trkpt lat="48.28295" lon="2.59816">
        <ele>422.8</ele>
        <time>2022-02-06T12:23:34Z</time>
      </trkpt>
      <trkpt lat="48.28309" lon="2.59802">
        <ele>422.8</ele>
        <time>2022-02-06T12:23:38Z</time>
      </trkpt>
      <trkpt lat="48.28324" lon="2.59791">
        <ele>422.6</ele>
        <time>2022-02-06T12:23:42Z</time>
      </trkpt>
      <trkpt lat="48.28338" lon="2.59778">
        <ele>422.4</ele>
        <time>2022-02-06T12:23:46Z</time>
      </trkpt>
    </trkseg>
  </trk>
</gpx>